<?xml version='1.0' encoding='UTF-8'?><gpx version="1.1" creator="JPX - https://github.com/jenetics/jpx" xmlns="http://www.topografix.com/GPX/1/1"><trk><trkseg><trkpt lat="44.90632189448577" lon="9.286364374824869"><ele>385.0</ele><time>2026-03-29T15:20:04.999Z</time></trkpt><trkpt lat="44.90639913972407" lon="9.286351591800925"><ele>385.0</ele><time>2026-03-29T15:20:05.999Z</time></trkpt><trkpt lat="44.906490235626904" lon="9.286290944106455"><ele>385.0</ele><time>2026-03-29T15:20:06.999Z</time></trkpt><trkpt lat="44.90657604510005" lon="9.286172919814097"><ele>385.0</ele><time>2026-03-29T15:20:07.999Z</time></trkpt><trkpt lat="44.90665181806089" lon="9.28603744598111"><ele>385.0</ele><time>2026-03-29T15:20:08.999Z</time></trkpt><trkpt lat="44.906725589765216" lon="9.285908146350717"><ele>384.75</ele><time>2026-03-29T15:20:09.999Z</time></trkpt><trkpt lat="44.90681810245565" lon="9.285832096579867"><ele>384.5</ele><time>2026-03-29T15:20:10.999Z</time></trkpt><trkpt lat="44.90693775199436" lon="9.28582231694262"><ele>384.25</ele><time>2026-03-29T15:20:11.999Z</time></trkpt><trkpt lat="44.907070106716866" lon="9.285881332963749"><ele>384.0</ele><time>2026-03-29T15:20:12.999Z</time></trkpt><trkpt lat="44.907207120546204" lon="9.285946387275779"><ele>384.0</ele><time>2026-03-29T15:20:13.999Z</time></trkpt><trkpt lat="44.90736703493914" lon="9.285981484787264"><ele>384.0</ele><time>2026-03-29T15:20:14.999Z</time></trkpt><trkpt lat="44.90754419401778" lon="9.286012393265556"><ele>384.0</ele><time>2026-03-29T15:20:15.999Z</time></trkpt><trkpt lat="44.90770187421347" lon="9.286119114719304"><ele>384.0</ele><time>2026-03-29T15:20:16.999Z</time></trkpt><trkpt lat="44.90783243977588" lon="9.286269076920812"><ele>384.0</ele><time>2026-03-29T15:20:17.999Z</time></trkpt><trkpt lat="44.907942665993595" lon="9.286394766627845"><ele>384.0</ele><time>2026-03-29T15:20:18.999Z</time></trkpt><trkpt lat="44.90801078123995" lon="9.286456739219894"><ele>384.0</ele><time>2026-03-29T15:20:19.999Z</time></trkpt><trkpt lat="44.9080873866807" lon="9.286474907502697"><ele>384.0</ele><time>2026-03-29T15:20:20.999Z</time></trkpt><trkpt lat="44.90818967095007" lon="9.28644313375723"><ele>384.0</ele><time>2026-03-29T15:20:21.999Z</time></trkpt><trkpt lat="44.908276757687766" lon="9.286320516196641"><ele>384.0</ele><time>2026-03-29T15:20:22.999Z</time></trkpt><trkpt lat="44.90835683185434" lon="9.286180705892448"><ele>384.0</ele><time>2026-03-29T15:20:23.999Z</time></trkpt><trkpt lat="44.90845510804988" lon="9.286038027402492"><ele>386.0</ele><time>2026-03-29T15:20:24.999Z</time></trkpt><trkpt lat="44.9085693461515" lon="9.285879044789601"><ele>388.0</ele><time>2026-03-29T15:20:25.999Z</time></trkpt><trkpt lat="44.90867889550408" lon="9.285746578296894"><ele>390.0</ele><time>2026-03-29T15:20:26.999Z</time></trkpt><trkpt lat="44.90877962147643" lon="9.285698784715867"><ele>392.0</ele><time>2026-03-29T15:20:27.999Z</time></trkpt><trkpt lat="44.90888554280968" lon="9.285744713988933"><ele>392.0</ele><time>2026-03-29T15:20:28.999Z</time></trkpt><trkpt lat="44.90895568059603" lon="9.285868657420199"><ele>392.0</ele><time>2026-03-29T15:20:29.999Z</time></trkpt><trkpt lat="44.90897667305618" lon="9.286049782102717"><ele>392.0</ele><time>2026-03-29T15:20:30.999Z</time></trkpt><trkpt lat="44.908949056734464" lon="9.286266665074665"><ele>392.0</ele><time>2026-03-29T15:20:31.999Z</time></trkpt><trkpt lat="44.90895462277444" lon="9.286438227343716"><ele>394.75</ele><time>2026-03-29T15:20:32.999Z</time></trkpt><trkpt lat="44.9090038477639" lon="9.286563685928307"><ele>397.5</ele><time>2026-03-29T15:20:33.999Z</time></trkpt><trkpt lat="44.90909757350493" lon="9.286630197539287"><ele>400.25</ele><time>2026-03-29T15:20:34.999Z</time></trkpt><trkpt lat="44.9092309918014" lon="9.28661562200966"><ele>403.0</ele><time>2026-03-29T15:20:35.999Z</time></trkpt><trkpt lat="44.90937333629391" lon="9.286634288402492"><ele>403.0</ele><time>2026-03-29T15:20:36.999Z</time></trkpt><trkpt lat="44.90945281134501" lon="9.286714820850287"><ele>403.0</ele><time>2026-03-29T15:20:37.999Z</time></trkpt><trkpt lat="44.90947312555742" lon="9.286879505410218"><ele>403.0</ele><time>2026-03-29T15:20:38.999Z</time></trkpt><trkpt lat="44.90942889156093" lon="9.287088697090411"><ele>403.0</ele><time>2026-03-29T15:20:40Z</time></trkpt><trkpt lat="44.90936730701533" lon="9.287299874577188"><ele>398.75</ele><time>2026-03-29T15:20:41Z</time></trkpt><trkpt lat="44.9092736973702" lon="9.287518117507814"><ele>394.5</ele><time>2026-03-29T15:20:42Z</time></trkpt><trkpt lat="44.90919009363853" lon="9.28769321127423"><ele>390.25</ele><time>2026-03-29T15:20:43Z</time></trkpt><trkpt lat="44.90913610042602" lon="9.287832581112848"><ele>386.0</ele><time>2026-03-29T15:20:44Z</time></trkpt><trkpt lat="44.90914996477698" lon="9.287956507100096"><ele>386.0</ele><time>2026-03-29T15:20:45Z</time></trkpt><trkpt lat="44.90924271245522" lon="9.288082133799286"><ele>386.0</ele><time>2026-03-29T15:20:46Z</time></trkpt><trkpt lat="44.90938995089186" lon="9.288167842961464"><ele>386.0</ele><time>2026-03-29T15:20:47Z</time></trkpt><trkpt lat="44.90953216421929" lon="9.288257867090369"><ele>386.0</ele><time>2026-03-29T15:20:48Z</time></trkpt><trkpt lat="44.90960885724853" lon="9.288430252258857"><ele>379.5</ele><time>2026-03-29T15:20:49Z</time></trkpt><trkpt lat="44.9096480899778" lon="9.28862157239116"><ele>373.0</ele><time>2026-03-29T15:20:50Z</time></trkpt><trkpt lat="44.909734761174015" lon="9.288748367292902"><ele>366.5</ele><time>2026-03-29T15:20:51Z</time></trkpt><trkpt lat="44.90984866061339" lon="9.288777097834519"><ele>360.0</ele><time>2026-03-29T15:20:52Z</time></trkpt><trkpt lat="44.909961031620796" lon="9.288724045169355"><ele>360.0</ele><time>2026-03-29T15:20:53Z</time></trkpt><trkpt lat="44.91006874407504" lon="9.288588782737392"><ele>360.0</ele><time>2026-03-29T15:20:54Z</time></trkpt><trkpt lat="44.91017000042345" lon="9.28840755515584"><ele>360.0</ele><time>2026-03-29T15:20:55Z</time></trkpt><trkpt lat="44.91028807768335" lon="9.288226915781754"><ele>363.6666666666667</ele><time>2026-03-29T15:20:56Z</time></trkpt><trkpt lat="44.91042663900542" lon="9.288050338469015"><ele>367.33333333333337</ele><time>2026-03-29T15:20:57Z</time></trkpt><trkpt lat="44.91060171983626" lon="9.287897852784353"><ele>371.0</ele><time>2026-03-29T15:20:58Z</time></trkpt><trkpt lat="44.91079764092021" lon="9.287791009139656"><ele>363.33333333333337</ele><time>2026-03-29T15:20:59Z</time></trkpt><trkpt lat="44.91098090327384" lon="9.287698069194102"><ele>355.6666666666667</ele><time>2026-03-29T15:21:00Z</time></trkpt><trkpt lat="44.911139055006586" lon="9.287647393559718"><ele>348.0</ele><time>2026-03-29T15:21:01Z</time></trkpt><trkpt lat="44.91128635705726" lon="9.287595543343441"><ele>348.0</ele><time>2026-03-29T15:21:02Z</time></trkpt><trkpt lat="44.91141520995438" lon="9.287535516531873"><ele>348.0</ele><time>2026-03-29T15:21:03Z</time></trkpt><trkpt lat="44.91153607768937" lon="9.287439422381643"><ele>348.0</ele><time>2026-03-29T15:21:04Z</time></trkpt><trkpt lat="44.91163232815134" lon="9.287342825345746"><ele>348.0</ele><time>2026-03-29T15:21:05Z</time></trkpt><trkpt lat="44.911700108455385" lon="9.287208083659106"><ele>350.2</ele><time>2026-03-29T15:21:06Z</time></trkpt><trkpt lat="44.911753773490396" lon="9.287059275224719"><ele>352.4</ele><time>2026-03-29T15:21:07Z</time></trkpt><trkpt lat="44.91181344969118" lon="9.286978589451595"><ele>354.59999999999997</ele><time>2026-03-29T15:21:08Z</time></trkpt><trkpt lat="44.91191284887601" lon="9.286955688839603"><ele>356.79999999999995</ele><time>2026-03-29T15:21:10Z</time></trkpt><trkpt lat="44.911964838617955" lon="9.287008860470145"><ele>359.0</ele><time>2026-03-29T15:21:11Z</time></trkpt><trkpt lat="44.912035491452805" lon="9.287110881300345"><ele>359.0</ele><time>2026-03-29T15:21:12Z</time></trkpt><trkpt lat="44.912109966895855" lon="9.287225606184064"><ele>359.0</ele><time>2026-03-29T15:21:13Z</time></trkpt><trkpt lat="44.91214805256613" lon="9.287345809811852"><ele>359.0</ele><time>2026-03-29T15:21:14Z</time></trkpt><trkpt lat="44.9121299395923" lon="9.287496437319897"><ele>359.0</ele><time>2026-03-29T15:21:15Z</time></trkpt><trkpt lat="44.91204786191774" lon="9.287657046115335"><ele>358.6666666666667</ele><time>2026-03-29T15:21:16Z</time></trkpt><trkpt lat="44.91193895830239" lon="9.287811612210891"><ele>358.3333333333333</ele><time>2026-03-29T15:21:17Z</time></trkpt><trkpt lat="44.9118290574236" lon="9.287979175504951"><ele>358.0</ele><time>2026-03-29T15:21:18Z</time></trkpt><trkpt lat="44.91170065076365" lon="9.28814748586188"><ele>356.3333333333333</ele><time>2026-03-29T15:21:19Z</time></trkpt><trkpt lat="44.91152835328699" lon="9.288269756721688"><ele>354.6666666666667</ele><time>2026-03-29T15:21:20Z</time></trkpt><trkpt lat="44.91136147143579" lon="9.288352192229633"><ele>353.0</ele><time>2026-03-29T15:21:21Z</time></trkpt><trkpt lat="44.91121935617288" lon="9.288436622427852"><ele>353.0</ele><time>2026-03-29T15:21:22Z</time></trkpt><trkpt lat="44.91107939682752" lon="9.288548777877278"><ele>353.0</ele><time>2026-03-29T15:21:23Z</time></trkpt><trkpt lat="44.91095443902178" lon="9.288711617373826"><ele>353.0</ele><time>2026-03-29T15:21:24Z</time></trkpt><trkpt lat="44.91083241687909" lon="9.288923781838806"><ele>350.6666666666667</ele><time>2026-03-29T15:21:25Z</time></trkpt><trkpt lat="44.91071778242444" lon="9.289157750553565"><ele>348.3333333333333</ele><time>2026-03-29T15:21:26Z</time></trkpt><trkpt lat="44.91058839940889" lon="9.289376616089195"><ele>346.0</ele><time>2026-03-29T15:21:27Z</time></trkpt><trkpt lat="44.91045905579607" lon="9.289556840969677"><ele>346.0</ele><time>2026-03-29T15:21:28Z</time></trkpt><trkpt lat="44.910334620936815" lon="9.28965964144842"><ele>346.0</ele><time>2026-03-29T15:21:29Z</time></trkpt><trkpt lat="44.91021842963502" lon="9.28975938918247"><ele>346.0</ele><time>2026-03-29T15:21:30Z</time></trkpt><trkpt lat="44.91012144614295" lon="9.289920499456768"><ele>346.0</ele><time>2026-03-29T15:21:31Z</time></trkpt><trkpt lat="44.91004759037146" lon="9.290142162863008"><ele>340.3333333333333</ele><time>2026-03-29T15:21:32Z</time></trkpt><trkpt lat="44.90998267422557" lon="9.29038328383313"><ele>334.6666666666667</ele><time>2026-03-29T15:21:33Z</time></trkpt><trkpt lat="44.90991815947216" lon="9.290585460655437"><ele>329.0</ele><time>2026-03-29T15:21:34Z</time></trkpt><trkpt lat="44.909873988498184" lon="9.290765613757058"><ele>329.0</ele><time>2026-03-29T15:21:35Z</time></trkpt><trkpt lat="44.9098655288234" lon="9.290969817971188"><ele>329.0</ele><time>2026-03-29T15:21:36Z</time></trkpt><trkpt lat="44.90989904125618" lon="9.29116998941204"><ele>329.0</ele><time>2026-03-29T15:21:37Z</time></trkpt><trkpt lat="44.909956335767546" lon="9.291367283989992"><ele>329.0</ele><time>2026-03-29T15:21:38Z</time></trkpt><trkpt lat="44.910007141411434" lon="9.291589505700863"><ele>328.0</ele><time>2026-03-29T15:21:39Z</time></trkpt><trkpt lat="44.91005511885569" lon="9.29181647584477"><ele>327.0</ele><time>2026-03-29T15:21:40Z</time></trkpt><trkpt lat="44.91010510347623" lon="9.292017184838018"><ele>326.0</ele><time>2026-03-29T15:21:41Z</time></trkpt><trkpt lat="44.91018693148765" lon="9.292189445244327"><ele>328.5</ele><time>2026-03-29T15:21:42Z</time></trkpt><trkpt lat="44.910297774147274" lon="9.292332817072035"><ele>331.0</ele><time>2026-03-29T15:21:43Z</time></trkpt><trkpt lat="44.91042125375483" lon="9.292461995232841"><ele>333.5</ele><time>2026-03-29T15:21:44Z</time></trkpt><trkpt lat="44.910518064641714" lon="9.2926031960968"><ele>336.0</ele><time>2026-03-29T15:21:45Z</time></trkpt><trkpt lat="44.91057868204133" lon="9.29276881769959"><ele>336.0</ele><time>2026-03-29T15:21:46Z</time></trkpt><trkpt lat="44.910604393075786" lon="9.292973938902302"><ele>336.0</ele><time>2026-03-29T15:21:47Z</time></trkpt><trkpt lat="44.91062072906679" lon="9.293177049575114"><ele>336.0</ele><time>2026-03-29T15:21:48Z</time></trkpt><trkpt lat="44.91064671025088" lon="9.293375650146933"><ele>336.0</ele><time>2026-03-29T15:21:49Z</time></trkpt><trkpt lat="44.91067568795637" lon="9.29357650091469"><ele>334.0</ele><time>2026-03-29T15:21:50Z</time></trkpt><trkpt lat="44.91070687481935" lon="9.29378667503036"><ele>332.0</ele><time>2026-03-29T15:21:51Z</time></trkpt><trkpt lat="44.91073821671552" lon="9.294000526338117"><ele>330.0</ele><time>2026-03-29T15:21:52Z</time></trkpt><trkpt lat="44.91076820587673" lon="9.294205301522492"><ele>330.0</ele><time>2026-03-29T15:21:53Z</time></trkpt><trkpt lat="44.91080150007685" lon="9.294401317380645"><ele>330.0</ele><time>2026-03-29T15:21:54Z</time></trkpt><trkpt lat="44.91083108361507" lon="9.294589391202342"><ele>330.0</ele><time>2026-03-29T15:21:55Z</time></trkpt><trkpt lat="44.9108624016039" lon="9.294772333441212"><ele>330.0</ele><time>2026-03-29T15:21:56Z</time></trkpt><trkpt lat="44.910891599089936" lon="9.294954680534591"><ele>329.25</ele><time>2026-03-29T15:21:56.999Z</time></trkpt><trkpt lat="44.91091028865798" lon="9.295137938682823"><ele>328.5</ele><time>2026-03-29T15:21:57.999Z</time></trkpt><trkpt lat="44.91091293613564" lon="9.295330693921912"><ele>327.75</ele><time>2026-03-29T15:21:58.999Z</time></trkpt><trkpt lat="44.910903091633884" lon="9.29551847970646"><ele>327.0</ele><time>2026-03-29T15:21:59.999Z</time></trkpt><trkpt lat="44.91088481901492" lon="9.295700758827264"><ele>326.5</ele><time>2026-03-29T15:22:00.999Z</time></trkpt><trkpt lat="44.91084202492929" lon="9.295886504154414"><ele>326.0</ele><time>2026-03-29T15:22:01.999Z</time></trkpt><trkpt lat="44.91077977964294" lon="9.29606112300011"><ele>325.5</ele><time>2026-03-29T15:22:02.999Z</time></trkpt><trkpt lat="44.910719448793756" lon="9.29622373252346"><ele>325.0</ele><time>2026-03-29T15:22:03.999Z</time></trkpt><trkpt lat="44.910666269040036" lon="9.29638263193292"><ele>325.0</ele><time>2026-03-29T15:22:04.999Z</time></trkpt><trkpt lat="44.91062926168572" lon="9.29654512169923"><ele>325.0</ele><time>2026-03-29T15:22:05.999Z</time></trkpt><trkpt lat="44.910623211831094" lon="9.29671121573996"><ele>325.0</ele><time>2026-03-29T15:22:06.999Z</time></trkpt><trkpt lat="44.91065303917305" lon="9.296884283849856"><ele>325.0</ele><time>2026-03-29T15:22:07.999Z</time></trkpt><trkpt lat="44.91073290385981" lon="9.297039819817426"><ele>325.0</ele><time>2026-03-29T15:22:08.999Z</time></trkpt><trkpt lat="44.910861005788945" lon="9.29716559975917"><ele>325.0</ele><time>2026-03-29T15:22:09.999Z</time></trkpt><trkpt lat="44.910991652756664" lon="9.29726150318317"><ele>325.0</ele><time>2026-03-29T15:22:10.999Z</time></trkpt><trkpt lat="44.911105548424295" lon="9.297362019348233"><ele>325.0</ele><time>2026-03-29T15:22:11.999Z</time></trkpt><trkpt lat="44.91120118187902" lon="9.297459156515243"><ele>325.2</ele><time>2026-03-29T15:22:12.999Z</time></trkpt><trkpt lat="44.91128897359427" lon="9.29754795198225"><ele>325.4</ele><time>2026-03-29T15:22:13.999Z</time></trkpt><trkpt lat="44.91137468055436" lon="9.297634097220403"><ele>325.6</ele><time>2026-03-29T15:22:14.999Z</time></trkpt><trkpt lat="44.9114491700035" lon="9.297710918183531"><ele>325.8</ele><time>2026-03-29T15:22:15.999Z</time></trkpt><trkpt lat="44.91151152889873" lon="9.297775406799174"><ele>326.0</ele><time>2026-03-29T15:22:16.999Z</time></trkpt><trkpt lat="44.911569309052595" lon="9.297827006186408"><ele>326.0</ele><time>2026-03-29T15:22:21.999Z</time></trkpt><trkpt lat="44.911642765321076" lon="9.297832181939118"><ele>326.0</ele><time>2026-03-29T15:22:25.999Z</time></trkpt><trkpt lat="44.911668118075944" lon="9.297684598034897"><ele>326.0</ele><time>2026-03-29T15:22:57Z</time></trkpt><trkpt lat="44.91159358670919" lon="9.29757498834584"><ele>326.0</ele><time>2026-03-29T15:22:59Z</time></trkpt><trkpt lat="44.91152157631713" lon="9.297501263167762"><ele>326.0</ele><time>2026-03-29T15:23:00Z</time></trkpt><trkpt lat="44.91144645654553" lon="9.297432801008762"><ele>326.0</ele><time>2026-03-29T15:23:01Z</time></trkpt><trkpt lat="44.911356349212014" lon="9.297338484246456"><ele>326.0</ele><time>2026-03-29T15:23:02Z</time></trkpt><trkpt lat="44.911259464112" lon="9.297213416564395"><ele>326.0</ele><time>2026-03-29T15:23:03Z</time></trkpt><trkpt lat="44.91116325884597" lon="9.297060045365727"><ele>326.0</ele><time>2026-03-29T15:23:04Z</time></trkpt><trkpt lat="44.91107605308394" lon="9.296898358702922"><ele>328.4</ele><time>2026-03-29T15:23:05Z</time></trkpt><trkpt lat="44.91102840900295" lon="9.296729512131625"><ele>330.8</ele><time>2026-03-29T15:23:06Z</time></trkpt><trkpt lat="44.91098854224391" lon="9.296616308210861"><ele>333.2</ele><time>2026-03-29T15:23:07Z</time></trkpt><trkpt lat="44.91101391206328" lon="9.29648996147966"><ele>335.59999999999997</ele><time>2026-03-29T15:23:08Z</time></trkpt><trkpt lat="44.91110852182825" lon="9.296405386505546"><ele>338.0</ele><time>2026-03-29T15:23:09Z</time></trkpt><trkpt lat="44.91123508486938" lon="9.29634505260878"><ele>338.75</ele><time>2026-03-29T15:23:10Z</time></trkpt><trkpt lat="44.911371087018885" lon="9.296290458677062"><ele>339.5</ele><time>2026-03-29T15:23:11Z</time></trkpt><trkpt lat="44.91148421856898" lon="9.296199158668635"><ele>340.25</ele><time>2026-03-29T15:23:12Z</time></trkpt><trkpt lat="44.91154726513877" lon="9.296062118317668"><ele>341.0</ele><time>2026-03-29T15:23:13Z</time></trkpt><trkpt lat="44.91154969139597" lon="9.295880571639586"><ele>341.0</ele><time>2026-03-29T15:23:14Z</time></trkpt><trkpt lat="44.91152316089207" lon="9.295676498789431"><ele>341.0</ele><time>2026-03-29T15:23:15Z</time></trkpt><trkpt lat="44.91150170459885" lon="9.295504350096579"><ele>341.0</ele><time>2026-03-29T15:23:16Z</time></trkpt><trkpt lat="44.911523950068705" lon="9.295395296023413"><ele>341.0</ele><time>2026-03-29T15:23:17Z</time></trkpt><trkpt lat="44.911611027507924" lon="9.295395662190998"><ele>341.0</ele><time>2026-03-29T15:23:18Z</time></trkpt><trkpt lat="44.91168638723364" lon="9.295487738680267"><ele>341.0</ele><time>2026-03-29T15:23:19Z</time></trkpt><trkpt lat="44.91173620659136" lon="9.295633430555748"><ele>341.0</ele><time>2026-03-29T15:23:20Z</time></trkpt><trkpt lat="44.91180258802987" lon="9.295786710400483"><ele>341.0</ele><time>2026-03-29T15:23:21Z</time></trkpt><trkpt lat="44.91188639339015" lon="9.295952495263133"><ele>341.0</ele><time>2026-03-29T15:23:22Z</time></trkpt><trkpt lat="44.91197661597447" lon="9.296121095516975"><ele>344.0</ele><time>2026-03-29T15:23:23Z</time></trkpt><trkpt lat="44.91203940310271" lon="9.296233252100171"><ele>347.0</ele><time>2026-03-29T15:23:24Z</time></trkpt><trkpt lat="44.91210896610869" lon="9.296311639666646"><ele>350.0</ele><time>2026-03-29T15:23:25Z</time></trkpt><trkpt lat="44.91221360041812" lon="9.296259968541584"><ele>353.0</ele><time>2026-03-29T15:23:26Z</time></trkpt><trkpt lat="44.91224605039921" lon="9.296121699707461"><ele>356.0</ele><time>2026-03-29T15:23:27Z</time></trkpt><trkpt lat="44.912208773941956" lon="9.295969711122384"><ele>356.0</ele><time>2026-03-29T15:23:28Z</time></trkpt><trkpt lat="44.91215295200903" lon="9.29581444264372"><ele>356.0</ele><time>2026-03-29T15:23:29Z</time></trkpt><trkpt lat="44.91209099068852" lon="9.295643617119374"><ele>356.0</ele><time>2026-03-29T15:23:30Z</time></trkpt><trkpt lat="44.912032098549574" lon="9.29547253559542"><ele>356.0</ele><time>2026-03-29T15:23:31Z</time></trkpt><trkpt lat="44.91201425910673" lon="9.295371579526979"><ele>356.0</ele><time>2026-03-29T15:23:32Z</time></trkpt><trkpt lat="44.9120370237976" lon="9.295283983499669"><ele>356.0</ele><time>2026-03-29T15:23:33Z</time></trkpt><trkpt lat="44.912142527139665" lon="9.295270829266988"><ele>356.0</ele><time>2026-03-29T15:23:34Z</time></trkpt><trkpt lat="44.912226674436155" lon="9.295375737084223"><ele>356.0</ele><time>2026-03-29T15:23:35Z</time></trkpt><trkpt lat="44.91229502819893" lon="9.295528930374076"><ele>356.0</ele><time>2026-03-29T15:23:36Z</time></trkpt><trkpt lat="44.912388191881895" lon="9.295679127255479"><ele>356.0</ele><time>2026-03-29T15:23:37Z</time></trkpt><trkpt lat="44.9124692117378" lon="9.29580863991562"><ele>356.0</ele><time>2026-03-29T15:23:38Z</time></trkpt><trkpt lat="44.91254475753896" lon="9.29588590072627"><ele>356.0</ele><time>2026-03-29T15:23:39Z</time></trkpt><trkpt lat="44.912629776488195" lon="9.295862790240959"><ele>356.0</ele><time>2026-03-29T15:23:40Z</time></trkpt><trkpt lat="44.91267920499037" lon="9.295734350414946"><ele>356.0</ele><time>2026-03-29T15:23:41Z</time></trkpt><trkpt lat="44.912655021619436" lon="9.295575939946286"><ele>357.0</ele><time>2026-03-29T15:23:42Z</time></trkpt><trkpt lat="44.91258253556806" lon="9.295454020098855"><ele>358.0</ele><time>2026-03-29T15:23:43Z</time></trkpt><trkpt lat="44.91251091298887" lon="9.295312627508729"><ele>359.0</ele><time>2026-03-29T15:23:44Z</time></trkpt><trkpt lat="44.91246867990214" lon="9.295156931059362"><ele>360.0</ele><time>2026-03-29T15:23:45Z</time></trkpt><trkpt lat="44.91246089394573" lon="9.295001389115702"><ele>360.0</ele><time>2026-03-29T15:23:46Z</time></trkpt><trkpt lat="44.91254989120279" lon="9.29484786936765"><ele>360.0</ele><time>2026-03-29T15:23:47Z</time></trkpt><trkpt lat="44.912639056926" lon="9.294677545774908"><ele>360.0</ele><time>2026-03-29T15:23:48Z</time></trkpt><trkpt lat="44.91272242363483" lon="9.294530714720494"><ele>360.0</ele><time>2026-03-29T15:23:49Z</time></trkpt><trkpt lat="44.912795459652216" lon="9.294503146020865"><ele>362.6</ele><time>2026-03-29T15:23:50Z</time></trkpt><trkpt lat="44.91286742484743" lon="9.294575030755828"><ele>365.2</ele><time>2026-03-29T15:23:51Z</time></trkpt><trkpt lat="44.912866059863774" lon="9.294702452853924"><ele>367.79999999999995</ele><time>2026-03-29T15:23:52Z</time></trkpt><trkpt lat="44.912814146890284" lon="9.294830138874243"><ele>370.4</ele><time>2026-03-29T15:23:53Z</time></trkpt><trkpt lat="44.91277560820679" lon="9.294982479777888"><ele>373.0</ele><time>2026-03-29T15:23:54Z</time></trkpt><trkpt lat="44.91277237945774" lon="9.295133267964461"><ele>373.0</ele><time>2026-03-29T15:23:55Z</time></trkpt><trkpt lat="44.91282618115158" lon="9.295268164611295"><ele>373.0</ele><time>2026-03-29T15:23:56Z</time></trkpt><trkpt lat="44.91291063424859" lon="9.295365690497505"><ele>373.0</ele><time>2026-03-29T15:23:57Z</time></trkpt><trkpt lat="44.91300410081649" lon="9.295397736899808"><ele>373.0</ele><time>2026-03-29T15:23:58Z</time></trkpt><trkpt lat="44.91308450743184" lon="9.295343826079174"><ele>373.0</ele><time>2026-03-29T15:23:59Z</time></trkpt><trkpt lat="44.91310247035522" lon="9.295184265662806"><ele>373.0</ele><time>2026-03-29T15:24:00Z</time></trkpt><trkpt lat="44.91304102424089" lon="9.295029738262329"><ele>373.0</ele><time>2026-03-29T15:24:01Z</time></trkpt><trkpt lat="44.913029746180094" lon="9.294895144207185"><ele>373.0</ele><time>2026-03-29T15:24:01.999Z</time></trkpt><trkpt lat="44.91306850570576" lon="9.294769928021864"><ele>373.0</ele><time>2026-03-29T15:24:02.999Z</time></trkpt><trkpt lat="44.91317855304023" lon="9.29472985034425"><ele>373.0</ele><time>2026-03-29T15:24:03.999Z</time></trkpt><trkpt lat="44.91330136341942" lon="9.294774690094707"><ele>376.66666666666663</ele><time>2026-03-29T15:24:04.999Z</time></trkpt><trkpt lat="44.91342720497107" lon="9.294852164691244"><ele>380.3333333333333</ele><time>2026-03-29T15:24:05.999Z</time></trkpt><trkpt lat="44.91356146481418" lon="9.294965892046472"><ele>384.0</ele><time>2026-03-29T15:24:06.999Z</time></trkpt><trkpt lat="44.913699123903186" lon="9.295070791778407"><ele>384.0</ele><time>2026-03-29T15:24:07.999Z</time></trkpt><trkpt lat="44.91383267662692" lon="9.295163516252336"><ele>384.0</ele><time>2026-03-29T15:24:08.999Z</time></trkpt><trkpt lat="44.91390385337414" lon="9.295219766739114"><ele>384.0</ele><time>2026-03-29T15:24:09.999Z</time></trkpt><trkpt lat="44.91397057812755" lon="9.295209007462834"><ele>384.0</ele><time>2026-03-29T15:24:10.999Z</time></trkpt><trkpt lat="44.91399581250147" lon="9.29509947250742"><ele>384.0</ele><time>2026-03-29T15:24:11.999Z</time></trkpt><trkpt lat="44.91396425894216" lon="9.294985799008524"><ele>384.0</ele><time>2026-03-29T15:24:12.999Z</time></trkpt><trkpt lat="44.913889094638" lon="9.294895848515933"><ele>384.0</ele><time>2026-03-29T15:24:13.999Z</time></trkpt><trkpt lat="44.913819819386454" lon="9.294812188444835"><ele>384.0</ele><time>2026-03-29T15:24:14.999Z</time></trkpt><trkpt lat="44.91373004750223" lon="9.29470242908154"><ele>384.0</ele><time>2026-03-29T15:24:15.999Z</time></trkpt><trkpt lat="44.91363955848611" lon="9.294575885716037"><ele>384.0</ele><time>2026-03-29T15:24:16.999Z</time></trkpt><trkpt lat="44.91358637673354" lon="9.294453050400794"><ele>385.79999999999995</ele><time>2026-03-29T15:24:17.999Z</time></trkpt><trkpt lat="44.91360128725203" lon="9.294363141519558"><ele>387.59999999999997</ele><time>2026-03-29T15:24:18.999Z</time></trkpt><trkpt lat="44.913738237383086" lon="9.294357240508933"><ele>389.4</ele><time>2026-03-29T15:24:20.999Z</time></trkpt><trkpt lat="44.91380886362897" lon="9.294469841506917"><ele>391.2</ele><time>2026-03-29T15:24:21.999Z</time></trkpt><trkpt lat="44.913903292807035" lon="9.29454270086345"><ele>393.0</ele><time>2026-03-29T15:24:22.999Z</time></trkpt><trkpt lat="44.91403436778487" lon="9.2945443129031"><ele>393.0</ele><time>2026-03-29T15:24:23.999Z</time></trkpt><trkpt lat="44.91417036255945" lon="9.294579282013489"><ele>393.0</ele><time>2026-03-29T15:24:24.999Z</time></trkpt><trkpt lat="44.91430367090207" lon="9.29468028335035"><ele>393.0</ele><time>2026-03-29T15:24:25.999Z</time></trkpt><trkpt lat="44.9144160079189" lon="9.294759397819812"><ele>393.0</ele><time>2026-03-29T15:24:26.999Z</time></trkpt><trkpt lat="44.914533620305704" lon="9.29477560967167"><ele>393.25</ele><time>2026-03-29T15:24:27.999Z</time></trkpt><trkpt lat="44.91467613913456" lon="9.294740675147846"><ele>393.5</ele><time>2026-03-29T15:24:28.999Z</time></trkpt><trkpt lat="44.91481539643555" lon="9.294746269502681"><ele>393.75</ele><time>2026-03-29T15:24:29.999Z</time></trkpt><trkpt lat="44.91491830489194" lon="9.294813617232522"><ele>394.0</ele><time>2026-03-29T15:24:30.999Z</time></trkpt><trkpt lat="44.914995412856" lon="9.294834808647751"><ele>395.0</ele><time>2026-03-29T15:24:31.999Z</time></trkpt><trkpt lat="44.91507365240489" lon="9.29479058490429"><ele>396.0</ele><time>2026-03-29T15:24:32.999Z</time></trkpt><trkpt lat="44.91511049374505" lon="9.294644476866052"><ele>397.0</ele><time>2026-03-29T15:24:33.999Z</time></trkpt><trkpt lat="44.91502365136514" lon="9.294501009157605"><ele>398.0</ele><time>2026-03-29T15:24:34.999Z</time></trkpt><trkpt lat="44.914884377471395" lon="9.2944496557973"><ele>399.2</ele><time>2026-03-29T15:24:35.999Z</time></trkpt><trkpt lat="44.914764267487456" lon="9.294373827390677"><ele>400.4</ele><time>2026-03-29T15:24:36.999Z</time></trkpt><trkpt lat="44.914642175835326" lon="9.294290050170847"><ele>401.59999999999997</ele><time>2026-03-29T15:24:37.999Z</time></trkpt><trkpt lat="44.914558925391574" lon="9.294210973774636"><ele>402.79999999999995</ele><time>2026-03-29T15:24:38.999Z</time></trkpt><trkpt lat="44.91452107912636" lon="9.294124703632725"><ele>404.0</ele><time>2026-03-29T15:24:39.999Z</time></trkpt><trkpt lat="44.91456576818088" lon="9.294055236755973"><ele>404.0</ele><time>2026-03-29T15:24:40.999Z</time></trkpt><trkpt lat="44.91464899434424" lon="9.294029541751186"><ele>404.0</ele><time>2026-03-29T15:24:41.999Z</time></trkpt><trkpt lat="44.914744836844726" lon="9.29409213989409"><ele>404.0</ele><time>2026-03-29T15:24:42.999Z</time></trkpt><trkpt lat="44.91485596197632" lon="9.294157339290534"><ele>404.0</ele><time>2026-03-29T15:24:43.999Z</time></trkpt><trkpt lat="44.91498460499254" lon="9.294220155273049"><ele>404.0</ele><time>2026-03-29T15:24:44.999Z</time></trkpt><trkpt lat="44.915120687323146" lon="9.294284666662834"><ele>404.6</ele><time>2026-03-29T15:24:45.999Z</time></trkpt><trkpt lat="44.91521413833779" lon="9.294324997141995"><ele>405.2</ele><time>2026-03-29T15:24:46.999Z</time></trkpt><trkpt lat="44.91529941217823" lon="9.294325365428467"><ele>405.8</ele><time>2026-03-29T15:24:47.999Z</time></trkpt><trkpt lat="44.91536330183052" lon="9.294224901336312"><ele>406.40000000000003</ele><time>2026-03-29T15:24:48.999Z</time></trkpt><trkpt lat="44.915384446083046" lon="9.294064410834148"><ele>407.0</ele><time>2026-03-29T15:24:49.999Z</time></trkpt><trkpt lat="44.91533741610363" lon="9.293926224798847"><ele>410.0</ele><time>2026-03-29T15:24:50.999Z</time></trkpt><trkpt lat="44.91532550531305" lon="9.29377028181756"><ele>413.0</ele><time>2026-03-29T15:24:52Z</time></trkpt><trkpt lat="44.91535063722728" lon="9.293581312994226"><ele>416.0</ele><time>2026-03-29T15:24:53Z</time></trkpt><trkpt lat="44.915368049778095" lon="9.293368109315953"><ele>419.0</ele><time>2026-03-29T15:24:54Z</time></trkpt><trkpt lat="44.91538861138254" lon="9.2931720367497"><ele>419.0</ele><time>2026-03-29T15:24:55Z</time></trkpt><trkpt lat="44.91540124297091" lon="9.293067920202574"><ele>419.0</ele><time>2026-03-29T15:24:56Z</time></trkpt><trkpt lat="44.915483332689114" lon="9.293040716423368"><ele>419.0</ele><time>2026-03-29T15:24:57Z</time></trkpt><trkpt lat="44.91556756516123" lon="9.293100032702705"><ele>419.0</ele><time>2026-03-29T15:24:58Z</time></trkpt><trkpt lat="44.9156541833023" lon="9.293197008574051"><ele>419.0</ele><time>2026-03-29T15:24:59Z</time></trkpt><trkpt lat="44.915760756408325" lon="9.293291524894569"><ele>419.0</ele><time>2026-03-29T15:25:00Z</time></trkpt><trkpt lat="44.91588257620392" lon="9.293386585744575"><ele>419.0</ele><time>2026-03-29T15:25:01Z</time></trkpt><trkpt lat="44.916021228218064" lon="9.293455385072798"><ele>419.0</ele><time>2026-03-29T15:25:02Z</time></trkpt><trkpt lat="44.91617464851414" lon="9.29349681286306"><ele>419.0</ele><time>2026-03-29T15:25:03Z</time></trkpt><trkpt lat="44.91633700514452" lon="9.293536135644368"><ele>421.0</ele><time>2026-03-29T15:25:04Z</time></trkpt><trkpt lat="44.91646233355596" lon="9.29356865470226"><ele>423.0</ele><time>2026-03-29T15:25:05Z</time></trkpt><trkpt lat="44.91654194888507" lon="9.293582615544747"><ele>425.0</ele><time>2026-03-29T15:25:06Z</time></trkpt><trkpt lat="44.916611502711206" lon="9.293498235569682"><ele>427.0</ele><time>2026-03-29T15:25:07Z</time></trkpt><trkpt lat="44.91665561408971" lon="9.293362044631188"><ele>429.0</ele><time>2026-03-29T15:25:08Z</time></trkpt><trkpt lat="44.91658338243947" lon="9.29319072700856"><ele>431.5</ele><time>2026-03-29T15:25:09Z</time></trkpt><trkpt lat="44.916495316428225" lon="9.293065149685294"><ele>434.0</ele><time>2026-03-29T15:25:10Z</time></trkpt><trkpt lat="44.9164340346715" lon="9.292913423472934"><ele>436.5</ele><time>2026-03-29T15:25:11Z</time></trkpt><trkpt lat="44.91641366163828" lon="9.292732039833005"><ele>439.0</ele><time>2026-03-29T15:25:12Z</time></trkpt><trkpt lat="44.91639715413462" lon="9.29252239120342"><ele>439.0</ele><time>2026-03-29T15:25:13Z</time></trkpt><trkpt lat="44.91638048994613" lon="9.292299540631483"><ele>439.0</ele><time>2026-03-29T15:25:14Z</time></trkpt><trkpt lat="44.91635577009352" lon="9.292076313816343"><ele>439.0</ele><time>2026-03-29T15:25:15Z</time></trkpt><trkpt lat="44.9162694313707" lon="9.291886769528503"><ele>441.0</ele><time>2026-03-29T15:25:16Z</time></trkpt><trkpt lat="44.916158389601144" lon="9.291717738147787"><ele>443.0</ele><time>2026-03-29T15:25:17Z</time></trkpt><trkpt lat="44.91611953461686" lon="9.291597914949008"><ele>445.0</ele><time>2026-03-29T15:25:18Z</time></trkpt><trkpt lat="44.91618563745165" lon="9.291452967670292"><ele>447.0</ele><time>2026-03-29T15:25:20Z</time></trkpt><trkpt lat="44.91625987297976" lon="9.29151691323106"><ele>447.0</ele><time>2026-03-29T15:25:21Z</time></trkpt><trkpt lat="44.916323843979214" lon="9.291613779623113"><ele>447.0</ele><time>2026-03-29T15:25:22Z</time></trkpt><trkpt lat="44.91639501762707" lon="9.291730806469229"><ele>447.0</ele><time>2026-03-29T15:25:23Z</time></trkpt><trkpt lat="44.916486461554065" lon="9.291863097224075"><ele>447.0</ele><time>2026-03-29T15:25:24Z</time></trkpt><trkpt lat="44.91658955030146" lon="9.29200893854328"><ele>447.0</ele><time>2026-03-29T15:25:25Z</time></trkpt><trkpt lat="44.916696823434286" lon="9.292159915914612"><ele>447.0</ele><time>2026-03-29T15:25:26Z</time></trkpt><trkpt lat="44.916811255546335" lon="9.292322350537138"><ele>447.0</ele><time>2026-03-29T15:25:27Z</time></trkpt><trkpt lat="44.9169327104464" lon="9.292481034569025"><ele>447.8</ele><time>2026-03-29T15:25:28Z</time></trkpt><trkpt lat="44.917029011214176" lon="9.292601312974544"><ele>448.6</ele><time>2026-03-29T15:25:29Z</time></trkpt><trkpt lat="44.91709938269857" lon="9.292664936908245"><ele>449.40000000000003</ele><time>2026-03-29T15:25:30Z</time></trkpt><trkpt lat="44.91717597965117" lon="9.29262485600222"><ele>450.20000000000005</ele><time>2026-03-29T15:25:31Z</time></trkpt><trkpt lat="44.91721451869268" lon="9.29250399473518"><ele>451.0</ele><time>2026-03-29T15:25:32Z</time></trkpt><trkpt lat="44.917203759089894" lon="9.292355559003521"><ele>453.25</ele><time>2026-03-29T15:25:33Z</time></trkpt><trkpt lat="44.91713552672396" lon="9.29221214180214"><ele>455.5</ele><time>2026-03-29T15:25:34Z</time></trkpt><trkpt lat="44.91706255954173" lon="9.292058535364669"><ele>457.75</ele><time>2026-03-29T15:25:35Z</time></trkpt><trkpt lat="44.916988932349234" lon="9.291884005157527"><ele>460.0</ele><time>2026-03-29T15:25:36Z</time></trkpt><trkpt lat="44.916919715033025" lon="9.291697323280545"><ele>460.0</ele><time>2026-03-29T15:25:37Z</time></trkpt><trkpt lat="44.916874380921904" lon="9.291488828219752"><ele>460.0</ele><time>2026-03-29T15:25:38Z</time></trkpt><trkpt lat="44.91681859115533" lon="9.291258496746071"><ele>460.0</ele><time>2026-03-29T15:25:39Z</time></trkpt><trkpt lat="44.91675766182569" lon="9.29103917405529"><ele>459.25</ele><time>2026-03-29T15:25:40Z</time></trkpt><trkpt lat="44.9167289246168" lon="9.290822223998322"><ele>458.5</ele><time>2026-03-29T15:25:41Z</time></trkpt><trkpt lat="44.91672654594686" lon="9.290613202160761"><ele>457.75</ele><time>2026-03-29T15:25:42Z</time></trkpt><trkpt lat="44.9167317618167" lon="9.290410268736753"><ele>457.0</ele><time>2026-03-29T15:25:43Z</time></trkpt><trkpt lat="44.91674450991396" lon="9.290264766401615"><ele>458.6</ele><time>2026-03-29T15:25:44Z</time></trkpt><trkpt lat="44.91678756702373" lon="9.290141652844257"><ele>460.20000000000005</ele><time>2026-03-29T15:25:45Z</time></trkpt><trkpt lat="44.91689164304781" lon="9.290083530668573"><ele>461.8</ele><time>2026-03-29T15:25:46Z</time></trkpt><trkpt lat="44.917005711445995" lon="9.290106699337333"><ele>463.4</ele><time>2026-03-29T15:25:47Z</time></trkpt><trkpt lat="44.917081804768145" lon="9.29022774715904"><ele>465.0</ele><time>2026-03-29T15:25:48Z</time></trkpt><trkpt lat="44.91713623477378" lon="9.29040499623817"><ele>465.25</ele><time>2026-03-29T15:25:49Z</time></trkpt><trkpt lat="44.9171824418681" lon="9.290603743551664"><ele>465.5</ele><time>2026-03-29T15:25:50Z</time></trkpt><trkpt lat="44.917233894206774" lon="9.29080008407035"><ele>465.75</ele><time>2026-03-29T15:25:51Z</time></trkpt><trkpt lat="44.917287646207214" lon="9.29096992068375"><ele>466.0</ele><time>2026-03-29T15:25:52Z</time></trkpt><trkpt lat="44.91734054711292" lon="9.29109041638961"><ele>466.0</ele><time>2026-03-29T15:25:53Z</time></trkpt><trkpt lat="44.91740600824621" lon="9.291184082947883"><ele>466.0</ele><time>2026-03-29T15:25:54Z</time></trkpt><trkpt lat="44.91750171358354" lon="9.291272226458553"><ele>466.0</ele><time>2026-03-29T15:25:55Z</time></trkpt><trkpt lat="44.917636686101304" lon="9.291312811418933"><ele>466.0</ele><time>2026-03-29T15:25:56Z</time></trkpt><trkpt lat="44.91777964790532" lon="9.291356532841487"><ele>467.6666666666667</ele><time>2026-03-29T15:25:57Z</time></trkpt><trkpt lat="44.91793125655324" lon="9.29140860614836"><ele>469.33333333333337</ele><time>2026-03-29T15:25:58Z</time></trkpt><trkpt lat="44.91808774304229" lon="9.291474629057584"><ele>471.0</ele><time>2026-03-29T15:25:59Z</time></trkpt><trkpt lat="44.91825069191678" lon="9.291570105624775"><ele>474.0</ele><time>2026-03-29T15:26:00Z</time></trkpt><trkpt lat="44.91840808585301" lon="9.291660073399969"><ele>477.0</ele><time>2026-03-29T15:26:01Z</time></trkpt><trkpt lat="44.91855349731031" lon="9.291719412752597"><ele>480.0</ele><time>2026-03-29T15:26:02Z</time></trkpt><trkpt lat="44.918715934402385" lon="9.291753615800358"><ele>480.0</ele><time>2026-03-29T15:26:03Z</time></trkpt><trkpt lat="44.918895437829924" lon="9.29174427318898"><ele>480.0</ele><time>2026-03-29T15:26:04Z</time></trkpt><trkpt lat="44.919070537666094" lon="9.291710385825441"><ele>480.0</ele><time>2026-03-29T15:26:04.999Z</time></trkpt><trkpt lat="44.919186233286304" lon="9.291698026605376"><ele>479.6</ele><time>2026-03-29T15:26:05.999Z</time></trkpt><trkpt lat="44.919277904625886" lon="9.291685067581513"><ele>479.2</ele><time>2026-03-29T15:26:06.999Z</time></trkpt><trkpt lat="44.91934414805243" lon="9.291600999937723"><ele>478.79999999999995</ele><time>2026-03-29T15:26:07.999Z</time></trkpt><trkpt lat="44.91933302280869" lon="9.29144831471578"><ele>478.4</ele><time>2026-03-29T15:26:08.999Z</time></trkpt><trkpt lat="44.91919790832122" lon="9.291384002167836"><ele>478.0</ele><time>2026-03-29T15:26:09.999Z</time></trkpt><trkpt lat="44.919084858933665" lon="9.291322219785629"><ele>481.25</ele><time>2026-03-29T15:26:10.999Z</time></trkpt><trkpt lat="44.91898374107051" lon="9.29124608085195"><ele>484.5</ele><time>2026-03-29T15:26:11.999Z</time></trkpt><trkpt lat="44.91893756230926" lon="9.291136243304175"><ele>487.75</ele><time>2026-03-29T15:26:12.999Z</time></trkpt><trkpt lat="44.91891607092081" lon="9.290986588789117"><ele>491.0</ele><time>2026-03-29T15:26:13.999Z</time></trkpt><trkpt lat="44.91889428388021" lon="9.290785241535701"><ele>490.75</ele><time>2026-03-29T15:26:14.999Z</time></trkpt><trkpt lat="44.91887215594172" lon="9.290580743680449"><ele>490.5</ele><time>2026-03-29T15:26:15.999Z</time></trkpt><trkpt lat="44.91885299581309" lon="9.290378236281548"><ele>490.25</ele><time>2026-03-29T15:26:16.999Z</time></trkpt><trkpt lat="44.918851116995924" lon="9.29024246019713"><ele>490.0</ele><time>2026-03-29T15:26:17.999Z</time></trkpt><trkpt lat="44.918870468663435" lon="9.290155376262877"><ele>490.0</ele><time>2026-03-29T15:26:18.999Z</time></trkpt><trkpt lat="44.91894184829576" lon="9.290157674972349"><ele>490.0</ele><time>2026-03-29T15:26:19.999Z</time></trkpt><trkpt lat="44.91901500847911" lon="9.290216032268079"><ele>490.0</ele><time>2026-03-29T15:26:20.999Z</time></trkpt><trkpt lat="44.9190745022411" lon="9.290335597939722"><ele>490.0</ele><time>2026-03-29T15:26:21.999Z</time></trkpt><trkpt lat="44.91914125935074" lon="9.290474607963722"><ele>490.0</ele><time>2026-03-29T15:26:22.999Z</time></trkpt><trkpt lat="44.91922234212923" lon="9.290621907450438"><ele>491.5</ele><time>2026-03-29T15:26:23.999Z</time></trkpt><trkpt lat="44.919301152365904" lon="9.290741327130238"><ele>493.0</ele><time>2026-03-29T15:26:24.999Z</time></trkpt><trkpt lat="44.91938975675748" lon="9.290820580670225"><ele>494.5</ele><time>2026-03-29T15:26:25.999Z</time></trkpt><trkpt lat="44.91950078249401" lon="9.290855926011883"><ele>496.0</ele><time>2026-03-29T15:26:26.999Z</time></trkpt><trkpt lat="44.91963056803133" lon="9.290842865851701"><ele>496.0</ele><time>2026-03-29T15:26:27.999Z</time></trkpt><trkpt lat="44.919771683657665" lon="9.290777900728154"><ele>496.0</ele><time>2026-03-29T15:26:28.999Z</time></trkpt><trkpt lat="44.91991541412958" lon="9.290698746984914"><ele>496.0</ele><time>2026-03-29T15:26:29.999Z</time></trkpt><trkpt lat="44.920061505498424" lon="9.290618597382899"><ele>497.25</ele><time>2026-03-29T15:26:30.999Z</time></trkpt><trkpt lat="44.920229220871015" lon="9.290566636314544"><ele>498.5</ele><time>2026-03-29T15:26:31.999Z</time></trkpt><trkpt lat="44.92038593054663" lon="9.290528600169877"><ele>499.75</ele><time>2026-03-29T15:26:32.999Z</time></trkpt><trkpt lat="44.920495833876764" lon="9.29048845429592"><ele>501.0</ele><time>2026-03-29T15:26:33.999Z</time></trkpt><trkpt lat="44.92058705162046" lon="9.290414279901746"><ele>501.0</ele><time>2026-03-29T15:26:34.999Z</time></trkpt><trkpt lat="44.920696225997006" lon="9.2902859524155"><ele>501.0</ele><time>2026-03-29T15:26:35.999Z</time></trkpt><trkpt lat="44.920823408937686" lon="9.290149517618547"><ele>501.0</ele><time>2026-03-29T15:26:36.999Z</time></trkpt><trkpt lat="44.920953452512215" lon="9.28999747055496"><ele>502.0</ele><time>2026-03-29T15:26:37.999Z</time></trkpt><trkpt lat="44.92107476869945" lon="9.289794021327497"><ele>503.0</ele><time>2026-03-29T15:26:38.999Z</time></trkpt><trkpt lat="44.921208493403135" lon="9.289581715245046"><ele>504.0</ele><time>2026-03-29T15:26:39.999Z</time></trkpt><trkpt lat="44.92133945746759" lon="9.289346841642908"><ele>504.0</ele><time>2026-03-29T15:26:40.999Z</time></trkpt><trkpt lat="44.92147072520336" lon="9.28911538465428"><ele>504.0</ele><time>2026-03-29T15:26:41.999Z</time></trkpt><trkpt lat="44.92159293130334" lon="9.28889986313667"><ele>504.0</ele><time>2026-03-29T15:26:42.999Z</time></trkpt><trkpt lat="44.92169449099055" lon="9.288682247577977"><ele>506.0</ele><time>2026-03-29T15:26:43.999Z</time></trkpt><trkpt lat="44.921805924874725" lon="9.288503243871354"><ele>508.0</ele><time>2026-03-29T15:26:44.999Z</time></trkpt><trkpt lat="44.921858475644314" lon="9.288355056895556"><ele>510.0</ele><time>2026-03-29T15:26:45.999Z</time></trkpt><trkpt lat="44.9218996130831" lon="9.288218889395749"><ele>512.0</ele><time>2026-03-29T15:26:46.999Z</time></trkpt><trkpt lat="44.921859590681734" lon="9.288030232335712"><ele>512.0</ele><time>2026-03-29T15:26:47.999Z</time></trkpt><trkpt lat="44.92179722355292" lon="9.287853063897305"><ele>512.0</ele><time>2026-03-29T15:26:48.999Z</time></trkpt><trkpt lat="44.92174478342899" lon="9.287688232263843"><ele>512.0</ele><time>2026-03-29T15:26:49.999Z</time></trkpt><trkpt lat="44.921720221753255" lon="9.287544799260715"><ele>512.0</ele><time>2026-03-29T15:26:50.999Z</time></trkpt><trkpt lat="44.92174404446593" lon="9.287429440929234"><ele>512.0</ele><time>2026-03-29T15:26:51.999Z</time></trkpt><trkpt lat="44.9218064611174" lon="9.287331218350822"><ele>512.0</ele><time>2026-03-29T15:26:52.999Z</time></trkpt><trkpt lat="44.9218922470977" lon="9.287244506065624"><ele>512.0</ele><time>2026-03-29T15:26:53.999Z</time></trkpt><trkpt lat="44.92198731783519" lon="9.287124265232658"><ele>512.0</ele><time>2026-03-29T15:26:54.999Z</time></trkpt><trkpt lat="44.92207513994169" lon="9.286963387738158"><ele>511.0</ele><time>2026-03-29T15:26:55.999Z</time></trkpt><trkpt lat="44.922126736421326" lon="9.286748346385668"><ele>510.0</ele><time>2026-03-29T15:26:56.999Z</time></trkpt><trkpt lat="44.92217941794863" lon="9.28651661145399"><ele>509.0</ele><time>2026-03-29T15:26:58Z</time></trkpt><trkpt lat="44.92223807888627" lon="9.286307505164036"><ele>506.66666666666663</ele><time>2026-03-29T15:26:59Z</time></trkpt><trkpt lat="44.92229976422395" lon="9.286130451392479"><ele>504.33333333333337</ele><time>2026-03-29T15:27:00Z</time></trkpt><trkpt lat="44.922398140760215" lon="9.285971410336682"><ele>502.0</ele><time>2026-03-29T15:27:01Z</time></trkpt><trkpt lat="44.92250424517817" lon="9.285786759916265"><ele>503.0</ele><time>2026-03-29T15:27:02Z</time></trkpt><trkpt lat="44.92261871657237" lon="9.28558130357917"><ele>504.0</ele><time>2026-03-29T15:27:03Z</time></trkpt><trkpt lat="44.92275532908726" lon="9.285391600914261"><ele>505.0</ele><time>2026-03-29T15:27:04Z</time></trkpt><trkpt lat="44.922892585932814" lon="9.285189261507464"><ele>505.0</ele><time>2026-03-29T15:27:05Z</time></trkpt><trkpt lat="44.92301790321499" lon="9.285010700116233"><ele>505.0</ele><time>2026-03-29T15:27:06Z</time></trkpt><trkpt lat="44.92310838167894" lon="9.284880128396184"><ele>505.0</ele><time>2026-03-29T15:27:07Z</time></trkpt><trkpt lat="44.92320853795051" lon="9.28477339087188"><ele>505.0</ele><time>2026-03-29T15:27:08Z</time></trkpt><trkpt lat="44.923346380645675" lon="9.284699133912182"><ele>503.75</ele><time>2026-03-29T15:27:09Z</time></trkpt><trkpt lat="44.923504475601405" lon="9.284639083216096"><ele>502.5</ele><time>2026-03-29T15:27:10Z</time></trkpt><trkpt lat="44.923649217067094" lon="9.284584328002122"><ele>501.25</ele><time>2026-03-29T15:27:11Z</time></trkpt><trkpt lat="44.92377366364549" lon="9.284527956928361"><ele>500.0</ele><time>2026-03-29T15:27:12Z</time></trkpt><trkpt lat="44.92388047521177" lon="9.284422474977614"><ele>500.0</ele><time>2026-03-29T15:27:13Z</time></trkpt><trkpt lat="44.92397271542581" lon="9.284264711846818"><ele>500.0</ele><time>2026-03-29T15:27:14Z</time></trkpt><trkpt lat="44.924078322757154" lon="9.284091789344384"><ele>500.0</ele><time>2026-03-29T15:27:15Z</time></trkpt><trkpt lat="44.92419238469731" lon="9.28390243897196"><ele>499.66666666666663</ele><time>2026-03-29T15:27:16Z</time></trkpt><trkpt lat="44.92431802500656" lon="9.283698517048363"><ele>499.33333333333337</ele><time>2026-03-29T15:27:17Z</time></trkpt><trkpt lat="44.924457044739356" lon="9.283489126844149"><ele>499.0</ele><time>2026-03-29T15:27:18Z</time></trkpt><trkpt lat="44.9246092550109" lon="9.283286599498567"><ele>499.0</ele><time>2026-03-29T15:27:19Z</time></trkpt><trkpt lat="44.924757797708416" lon="9.283117583239749"><ele>499.0</ele><time>2026-03-29T15:27:20Z</time></trkpt><trkpt lat="44.92485086847239" lon="9.282889604867242"><ele>499.0</ele><time>2026-03-29T15:27:21Z</time></trkpt><trkpt lat="44.92492502856655" lon="9.282624603649413"><ele>500.33333333333337</ele><time>2026-03-29T15:27:22Z</time></trkpt><trkpt lat="44.92499121307679" lon="9.282347744110949"><ele>501.66666666666663</ele><time>2026-03-29T15:27:23Z</time></trkpt><trkpt lat="44.92505782082842" lon="9.282069113989982"><ele>503.0</ele><time>2026-03-29T15:27:24Z</time></trkpt><trkpt lat="44.92511443213982" lon="9.281774121986627"><ele>503.3333333333333</ele><time>2026-03-29T15:27:25Z</time></trkpt><trkpt lat="44.92520411570998" lon="9.281518291506703"><ele>503.66666666666663</ele><time>2026-03-29T15:27:26Z</time></trkpt><trkpt lat="44.92527909605497" lon="9.281297012354088"><ele>504.0</ele><time>2026-03-29T15:27:27Z</time></trkpt><trkpt lat="44.92534853034171" lon="9.281115163845039"><ele>505.5</ele><time>2026-03-29T15:27:28Z</time></trkpt><trkpt lat="44.92541835899838" lon="9.280966018690728"><ele>507.0</ele><time>2026-03-29T15:27:29Z</time></trkpt><trkpt lat="44.925466471557904" lon="9.2808057955417"><ele>508.5</ele><time>2026-03-29T15:27:30Z</time></trkpt><trkpt lat="44.92550901504902" lon="9.28064746599542"><ele>510.0</ele><time>2026-03-29T15:27:31Z</time></trkpt><trkpt lat="44.92556058469508" lon="9.280478496032641"><ele>511.0</ele><time>2026-03-29T15:27:32Z</time></trkpt><trkpt lat="44.92561766858686" lon="9.28032529700155"><ele>512.0</ele><time>2026-03-29T15:27:33Z</time></trkpt><trkpt lat="44.9256790791624" lon="9.280187901005087"><ele>513.0</ele><time>2026-03-29T15:27:34Z</time></trkpt><trkpt lat="44.92574080407791" lon="9.280064566231678"><ele>514.0</ele><time>2026-03-29T15:27:35Z</time></trkpt><trkpt lat="44.925796286000875" lon="9.279968412578299"><ele>515.0</ele><time>2026-03-29T15:27:36Z</time></trkpt><trkpt lat="44.9258493526117" lon="9.279853387575454"><ele>515.0</ele><time>2026-03-29T15:27:38Z</time></trkpt><trkpt lat="44.92590353414338" lon="9.279802133841224"><ele>515.0</ele><time>2026-03-29T15:27:46Z</time></trkpt><trkpt lat="44.92594859191083" lon="9.279659290061486"><ele>515.0</ele><time>2026-03-29T15:28:11Z</time></trkpt><trkpt lat="44.925880771834144" lon="9.27950703005832"><ele>515.0</ele><time>2026-03-29T15:28:13Z</time></trkpt><trkpt lat="44.92583570160199" lon="9.279406333738095"><ele>515.0</ele><time>2026-03-29T15:28:14Z</time></trkpt><trkpt lat="44.92580854093162" lon="9.279273890966348"><ele>515.0</ele><time>2026-03-29T15:28:15Z</time></trkpt><trkpt lat="44.9258100233973" lon="9.279119200746774"><ele>515.0</ele><time>2026-03-29T15:28:16Z</time></trkpt><trkpt lat="44.92585530372176" lon="9.278974546311815"><ele>515.0</ele><time>2026-03-29T15:28:16.999Z</time></trkpt><trkpt lat="44.92591233362814" lon="9.278836111184528"><ele>515.0</ele><time>2026-03-29T15:28:17.999Z</time></trkpt><trkpt lat="44.926014271074564" lon="9.278743577406056"><ele>518.25</ele><time>2026-03-29T15:28:18.999Z</time></trkpt><trkpt lat="44.92613125724299" lon="9.278644760062855"><ele>521.5</ele><time>2026-03-29T15:28:19.999Z</time></trkpt><trkpt lat="44.9262284107923" lon="9.27851238924121"><ele>524.75</ele><time>2026-03-29T15:28:20.999Z</time></trkpt><trkpt lat="44.92630208318173" lon="9.278364842364455"><ele>528.0</ele><time>2026-03-29T15:28:21.999Z</time></trkpt><trkpt lat="44.92634512309004" lon="9.278198311376354"><ele>528.6666666666666</ele><time>2026-03-29T15:28:22.999Z</time></trkpt><trkpt lat="44.92635857800532" lon="9.277999326570296"><ele>529.3333333333333</ele><time>2026-03-29T15:28:23.999Z</time></trkpt><trkpt lat="44.92634133330386" lon="9.277777710836066"><ele>530.0</ele><time>2026-03-29T15:28:24.999Z</time></trkpt><trkpt lat="44.92631793484987" lon="9.277558342897853"><ele>530.0</ele><time>2026-03-29T15:28:25.999Z</time></trkpt><trkpt lat="44.926307600567505" lon="9.277350210713134"><ele>530.0</ele><time>2026-03-29T15:28:26.999Z</time></trkpt><trkpt lat="44.92630215939886" lon="9.27715141322885"><ele>530.0</ele><time>2026-03-29T15:28:27.999Z</time></trkpt><trkpt lat="44.92630165501609" lon="9.276950589063489"><ele>530.0</ele><time>2026-03-29T15:28:28.999Z</time></trkpt><trkpt lat="44.9263070925472" lon="9.276757592006511"><ele>530.25</ele><time>2026-03-29T15:28:29.999Z</time></trkpt><trkpt lat="44.92632587869929" lon="9.276567296432694"><ele>530.5</ele><time>2026-03-29T15:28:30.999Z</time></trkpt><trkpt lat="44.92635982824797" lon="9.276376090688741"><ele>530.75</ele><time>2026-03-29T15:28:31.999Z</time></trkpt><trkpt lat="44.92641360802719" lon="9.276191127537482"><ele>531.0</ele><time>2026-03-29T15:28:32.999Z</time></trkpt><trkpt lat="44.92646618338238" lon="9.276020899063155"><ele>529.25</ele><time>2026-03-29T15:28:33.999Z</time></trkpt><trkpt lat="44.92652429021966" lon="9.275865874655391"><ele>527.5</ele><time>2026-03-29T15:28:34.999Z</time></trkpt><trkpt lat="44.92659458149247" lon="9.275728053192728"><ele>525.75</ele><time>2026-03-29T15:28:35.999Z</time></trkpt><trkpt lat="44.92668123025428" lon="9.27560888192502"><ele>524.0</ele><time>2026-03-29T15:28:36.999Z</time></trkpt><trkpt lat="44.92678214810559" lon="9.275509860247535"><ele>524.0</ele><time>2026-03-29T15:28:37.999Z</time></trkpt><trkpt lat="44.92689269578719" lon="9.275437797682205"><ele>524.0</ele><time>2026-03-29T15:28:38.999Z</time></trkpt><trkpt lat="44.92699128765821" lon="9.275364871311806"><ele>524.0</ele><time>2026-03-29T15:28:39.999Z</time></trkpt><trkpt lat="44.927084206014676" lon="9.275305513526968"><ele>524.0</ele><time>2026-03-29T15:28:40.999Z</time></trkpt><trkpt lat="44.92716380239731" lon="9.275256764011921"><ele>524.0</ele><time>2026-03-29T15:28:41.999Z</time></trkpt><trkpt lat="44.927240321979546" lon="9.27520889857932"><ele>524.0</ele><time>2026-03-29T15:28:42.999Z</time></trkpt><trkpt lat="44.927313947242624" lon="9.275165252082207"><ele>524.0</ele><time>2026-03-29T15:28:43.999Z</time></trkpt><trkpt lat="44.92737984037702" lon="9.275122968407734"><ele>524.0</ele><time>2026-03-29T15:28:44.999Z</time></trkpt><trkpt lat="44.92748442785869" lon="9.275052409227536"><ele>524.0</ele><time>2026-03-29T15:28:46.999Z</time></trkpt><trkpt lat="44.927595519972485" lon="9.274959734913997"><ele>524.0</ele><time>2026-03-29T15:28:48.999Z</time></trkpt><trkpt lat="44.9276417998341" lon="9.274849034237583"><ele>522.5</ele><time>2026-03-29T15:28:49.999Z</time></trkpt><trkpt lat="44.927697667096865" lon="9.274759150663137"><ele>521.0</ele><time>2026-03-29T15:28:50.999Z</time></trkpt><trkpt lat="44.92775345892224" lon="9.274676458830807"><ele>519.5</ele><time>2026-03-29T15:28:51.999Z</time></trkpt><trkpt lat="44.92780628500554" lon="9.274590711669008"><ele>518.0</ele><time>2026-03-29T15:28:52.999Z</time></trkpt><trkpt lat="44.927847527708906" lon="9.27449762434949"><ele>516.5</ele><time>2026-03-29T15:28:53.999Z</time></trkpt><trkpt lat="44.92790315758182" lon="9.274396827523846"><ele>515.0</ele><time>2026-03-29T15:28:54.999Z</time></trkpt><trkpt lat="44.92796991503504" lon="9.274280580242177"><ele>515.0</ele><time>2026-03-29T15:28:55.999Z</time></trkpt><trkpt lat="44.928029045388634" lon="9.274160155396016"><ele>515.0</ele><time>2026-03-29T15:28:56.999Z</time></trkpt><trkpt lat="44.928073806175185" lon="9.27404946475693"><ele>515.0</ele><time>2026-03-29T15:28:57.999Z</time></trkpt><trkpt lat="44.92810192695616" lon="9.273944667825253"><ele>515.0</ele><time>2026-03-29T15:28:58.999Z</time></trkpt><trkpt lat="44.92810369276699" lon="9.273843314285038"><ele>515.0</ele><time>2026-03-29T15:28:59.999Z</time></trkpt><trkpt lat="44.928080285847564" lon="9.273746959569666"><ele>515.0</ele><time>2026-03-29T15:29:00.999Z</time></trkpt><trkpt lat="44.92803986761936" lon="9.27365153265192"><ele>514.2</ele><time>2026-03-29T15:29:01.999Z</time></trkpt><trkpt lat="44.9279831125423" lon="9.273543618463721"><ele>513.4</ele><time>2026-03-29T15:29:02.999Z</time></trkpt><trkpt lat="44.92793552434128" lon="9.273422519264956"><ele>512.6</ele><time>2026-03-29T15:29:04Z</time></trkpt><trkpt lat="44.92787104260687" lon="9.273327550600966"><ele>511.8</ele><time>2026-03-29T15:29:05Z</time></trkpt><trkpt lat="44.927830616539815" lon="9.27320372126718"><ele>511.0</ele><time>2026-03-29T15:29:06Z</time></trkpt><trkpt lat="44.92782095795381" lon="9.273070165517082"><ele>510.75</ele><time>2026-03-29T15:29:07Z</time></trkpt><trkpt lat="44.927836852331595" lon="9.272912348674396"><ele>510.5</ele><time>2026-03-29T15:29:08Z</time></trkpt><trkpt lat="44.92786184756093" lon="9.2727340381505"><ele>510.25</ele><time>2026-03-29T15:29:09Z</time></trkpt><trkpt lat="44.92788868182086" lon="9.272548726378817"><ele>510.0</ele><time>2026-03-29T15:29:10Z</time></trkpt><trkpt lat="44.92792126363326" lon="9.27237080091951"><ele>509.25</ele><time>2026-03-29T15:29:11Z</time></trkpt><trkpt lat="44.92796919342736" lon="9.272208331477037"><ele>508.5</ele><time>2026-03-29T15:29:12Z</time></trkpt><trkpt lat="44.92804229494759" lon="9.272082235312027"><ele>507.75</ele><time>2026-03-29T15:29:13Z</time></trkpt><trkpt lat="44.92812478613274" lon="9.271950407835224"><ele>507.0</ele><time>2026-03-29T15:29:14Z</time></trkpt><trkpt lat="44.92823028852464" lon="9.271816366082293"><ele>507.0</ele><time>2026-03-29T15:29:15Z</time></trkpt><trkpt lat="44.92835084390063" lon="9.271689312293088"><ele>507.0</ele><time>2026-03-29T15:29:16Z</time></trkpt><trkpt lat="44.928478886134414" lon="9.271554412629383"><ele>507.0</ele><time>2026-03-29T15:29:17Z</time></trkpt><trkpt lat="44.92860435325786" lon="9.271422052561096"><ele>506.33333333333337</ele><time>2026-03-29T15:29:18Z</time></trkpt><trkpt lat="44.928744953972334" lon="9.2712987964621"><ele>505.6666666666667</ele><time>2026-03-29T15:29:19Z</time></trkpt><trkpt lat="44.92889447379299" lon="9.271185127786486"><ele>505.0</ele><time>2026-03-29T15:29:20Z</time></trkpt><trkpt lat="44.929045820734785" lon="9.27107528793015"><ele>505.0</ele><time>2026-03-29T15:29:21Z</time></trkpt><trkpt lat="44.929190651262104" lon="9.270973455553849"><ele>505.0</ele><time>2026-03-29T15:29:22Z</time></trkpt><trkpt lat="44.92931431557095" lon="9.270886254696581"><ele>505.0</ele><time>2026-03-29T15:29:23Z</time></trkpt><trkpt lat="44.92943124683689" lon="9.27079450208445"><ele>505.0</ele><time>2026-03-29T15:29:24Z</time></trkpt><trkpt lat="44.929533408384366" lon="9.270697981066233"><ele>503.25</ele><time>2026-03-29T15:29:25Z</time></trkpt><trkpt lat="44.92962065556884" lon="9.270590728236536"><ele>501.5</ele><time>2026-03-29T15:29:26Z</time></trkpt><trkpt lat="44.92969124828798" lon="9.270446446888668"><ele>499.75</ele><time>2026-03-29T15:29:27Z</time></trkpt><trkpt lat="44.929747776030474" lon="9.270266455809546"><ele>498.0</ele><time>2026-03-29T15:29:28Z</time></trkpt><trkpt lat="44.92980150875049" lon="9.27007672698857"><ele>498.0</ele><time>2026-03-29T15:29:29Z</time></trkpt><trkpt lat="44.92985112203883" lon="9.269897565298754"><ele>498.0</ele><time>2026-03-29T15:29:30Z</time></trkpt><trkpt lat="44.92989489346034" lon="9.269721966385227"><ele>498.0</ele><time>2026-03-29T15:29:31Z</time></trkpt><trkpt lat="44.92992160068855" lon="9.269546429776938"><ele>498.0</ele><time>2026-03-29T15:29:32Z</time></trkpt><trkpt lat="44.929919583712554" lon="9.269362755392237"><ele>497.25</ele><time>2026-03-29T15:29:33Z</time></trkpt><trkpt lat="44.929907284932966" lon="9.26916810408919"><ele>496.5</ele><time>2026-03-29T15:29:34Z</time></trkpt><trkpt lat="44.92985787072506" lon="9.268974062190766"><ele>495.75</ele><time>2026-03-29T15:29:35Z</time></trkpt><trkpt lat="44.92978137685308" lon="9.268804732925638"><ele>495.0</ele><time>2026-03-29T15:29:36Z</time></trkpt><trkpt lat="44.9296776743069" lon="9.268645595303697"><ele>494.5</ele><time>2026-03-29T15:29:37Z</time></trkpt><trkpt lat="44.92959627734206" lon="9.268502733766256"><ele>494.0</ele><time>2026-03-29T15:29:38Z</time></trkpt><trkpt lat="44.92953758939423" lon="9.268366025854213"><ele>493.5</ele><time>2026-03-29T15:29:39Z</time></trkpt><trkpt lat="44.92951335403904" lon="9.268194148410855"><ele>493.0</ele><time>2026-03-29T15:29:40Z</time></trkpt><trkpt lat="44.9295124271906" lon="9.267985461852165"><ele>490.0</ele><time>2026-03-29T15:29:41Z</time></trkpt><trkpt lat="44.92949561899953" lon="9.267742022730484"><ele>487.0</ele><time>2026-03-29T15:29:42Z</time></trkpt><trkpt lat="44.92947263244318" lon="9.267497692120989"><ele>484.0</ele><time>2026-03-29T15:29:43Z</time></trkpt><trkpt lat="44.929421446578" lon="9.26726916212108"><ele>485.0</ele><time>2026-03-29T15:29:44Z</time></trkpt><trkpt lat="44.929355589006505" lon="9.267065494525188"><ele>486.0</ele><time>2026-03-29T15:29:45Z</time></trkpt><trkpt lat="44.92927863915077" lon="9.266867354371337"><ele>487.0</ele><time>2026-03-29T15:29:46Z</time></trkpt><trkpt lat="44.92916580348384" lon="9.266681941629324"><ele>487.0</ele><time>2026-03-29T15:29:47Z</time></trkpt><trkpt lat="44.92902858326902" lon="9.266542334450572"><ele>487.0</ele><time>2026-03-29T15:29:48Z</time></trkpt><trkpt lat="44.92893269102891" lon="9.266378037128403"><ele>487.0</ele><time>2026-03-29T15:29:49Z</time></trkpt><trkpt lat="44.92883992850283" lon="9.266215157764048"><ele>486.75</ele><time>2026-03-29T15:29:50Z</time></trkpt><trkpt lat="44.92882418418415" lon="9.266008415666104"><ele>486.5</ele><time>2026-03-29T15:29:51Z</time></trkpt><trkpt lat="44.928821900457116" lon="9.265805665546901"><ele>486.25</ele><time>2026-03-29T15:29:52Z</time></trkpt><trkpt lat="44.92882548415818" lon="9.26558471937382"><ele>486.0</ele><time>2026-03-29T15:29:53Z</time></trkpt><trkpt lat="44.928852173578754" lon="9.26537425161503"><ele>486.0</ele><time>2026-03-29T15:29:54Z</time></trkpt><trkpt lat="44.92885610001115" lon="9.265175592313236"><ele>486.0</ele><time>2026-03-29T15:29:55Z</time></trkpt><trkpt lat="44.92884641051202" lon="9.264953963650383"><ele>486.0</ele><time>2026-03-29T15:29:56Z</time></trkpt><trkpt lat="44.928826287656925" lon="9.264717895125044"><ele>484.0</ele><time>2026-03-29T15:29:57Z</time></trkpt><trkpt lat="44.92880377153071" lon="9.264479057860264"><ele>482.0</ele><time>2026-03-29T15:29:58Z</time></trkpt><trkpt lat="44.928747220618725" lon="9.264241607988847"><ele>480.0</ele><time>2026-03-29T15:29:59Z</time></trkpt><trkpt lat="44.9286800085102" lon="9.264011697281852"><ele>479.0</ele><time>2026-03-29T15:30:00Z</time></trkpt><trkpt lat="44.92861290819188" lon="9.263795427903313"><ele>478.0</ele><time>2026-03-29T15:30:01Z</time></trkpt><trkpt lat="44.92854544249534" lon="9.263589550605678"><ele>477.0</ele><time>2026-03-29T15:30:02Z</time></trkpt><trkpt lat="44.92848198620839" lon="9.26339810031168"><ele>477.0</ele><time>2026-03-29T15:30:03Z</time></trkpt><trkpt lat="44.92841647485319" lon="9.263221966726961"><ele>477.00000000000006</ele><time>2026-03-29T15:30:04Z</time></trkpt><trkpt lat="44.92835510081502" lon="9.263073407582612"><ele>477.00000000000006</ele><time>2026-03-29T15:30:05Z</time></trkpt><trkpt lat="44.92830440781523" lon="9.262952217692497"><ele>477.0</ele><time>2026-03-29T15:30:06Z</time></trkpt><trkpt lat="44.928264362252335" lon="9.262856482852875"><ele>477.0</ele><time>2026-03-29T15:30:07Z</time></trkpt><trkpt lat="44.92825878986054" lon="9.26269705963807"><ele>477.25</ele><time>2026-03-29T15:30:09Z</time></trkpt><trkpt lat="44.928310385492985" lon="9.262584982558003"><ele>477.5</ele><time>2026-03-29T15:30:10Z</time></trkpt><trkpt lat="44.92841064222866" lon="9.262484976604167"><ele>477.75</ele><time>2026-03-29T15:30:11Z</time></trkpt><trkpt lat="44.928494722865956" lon="9.262330302189005"><ele>478.0</ele><time>2026-03-29T15:30:12Z</time></trkpt><trkpt lat="44.928563212441155" lon="9.26217274495556"><ele>479.0</ele><time>2026-03-29T15:30:13Z</time></trkpt><trkpt lat="44.928626215644336" lon="9.261986485467194"><ele>480.0</ele><time>2026-03-29T15:30:14Z</time></trkpt><trkpt lat="44.928683929646475" lon="9.261795865941448"><ele>481.0</ele><time>2026-03-29T15:30:15Z</time></trkpt><trkpt lat="44.92874322016161" lon="9.261625471673616"><ele>482.0</ele><time>2026-03-29T15:30:16Z</time></trkpt><trkpt lat="44.92882510803713" lon="9.26148400924025"><ele>484.0</ele><time>2026-03-29T15:30:17Z</time></trkpt><trkpt lat="44.92892718689787" lon="9.26136713685044"><ele>486.0</ele><time>2026-03-29T15:30:18Z</time></trkpt><trkpt lat="44.92902660584063" lon="9.261248576317579"><ele>488.0</ele><time>2026-03-29T15:30:19Z</time></trkpt><trkpt lat="44.9291187646954" lon="9.261127745738902"><ele>490.0</ele><time>2026-03-29T15:30:20Z</time></trkpt><trkpt lat="44.92921336463169" lon="9.261003698696392"><ele>487.0</ele><time>2026-03-29T15:30:21Z</time></trkpt><trkpt lat="44.929315626675944" lon="9.260850013291792"><ele>484.0</ele><time>2026-03-29T15:30:21.999Z</time></trkpt><trkpt lat="44.929407556613015" lon="9.260653763002498"><ele>481.0</ele><time>2026-03-29T15:30:22.999Z</time></trkpt><trkpt lat="44.92947406916917" lon="9.260446398905048"><ele>481.0</ele><time>2026-03-29T15:30:23.999Z</time></trkpt><trkpt lat="44.929535864624405" lon="9.260245262453509"><ele>481.0</ele><time>2026-03-29T15:30:24.999Z</time></trkpt><trkpt lat="44.9296401542694" lon="9.26004638342191"><ele>481.0</ele><time>2026-03-29T15:30:25.999Z</time></trkpt><trkpt lat="44.92976817352785" lon="9.259864514801693"><ele>483.0</ele><time>2026-03-29T15:30:26.999Z</time></trkpt><trkpt lat="44.929900014490194" lon="9.259714230301059"><ele>485.0</ele><time>2026-03-29T15:30:27.999Z</time></trkpt><trkpt lat="44.930044438577646" lon="9.259605515483951"><ele>487.0</ele><time>2026-03-29T15:30:28.999Z</time></trkpt><trkpt lat="44.93020912366785" lon="9.259534984645004"><ele>487.0</ele><time>2026-03-29T15:30:29.999Z</time></trkpt><trkpt lat="44.930386376733054" lon="9.25948863170632"><ele>487.0</ele><time>2026-03-29T15:30:30.999Z</time></trkpt><trkpt lat="44.930549536852176" lon="9.259413342807681"><ele>487.0</ele><time>2026-03-29T15:30:31.999Z</time></trkpt><trkpt lat="44.93069902428471" lon="9.25929147708308"><ele>487.0</ele><time>2026-03-29T15:30:32.999Z</time></trkpt><trkpt lat="44.93085458224629" lon="9.259146607340087"><ele>487.0</ele><time>2026-03-29T15:30:33.999Z</time></trkpt><trkpt lat="44.93098815102464" lon="9.259032802038925"><ele>487.0</ele><time>2026-03-29T15:30:34.999Z</time></trkpt><trkpt lat="44.93112796537519" lon="9.25894487197512"><ele>487.33333333333337</ele><time>2026-03-29T15:30:35.999Z</time></trkpt><trkpt lat="44.93128992794544" lon="9.258930109196687"><ele>487.66666666666663</ele><time>2026-03-29T15:30:36.999Z</time></trkpt><trkpt lat="44.93148001470003" lon="9.25896585800486"><ele>488.0</ele><time>2026-03-29T15:30:37.999Z</time></trkpt><trkpt lat="44.93164786048418" lon="9.258960688716146"><ele>488.0</ele><time>2026-03-29T15:30:38.999Z</time></trkpt><trkpt lat="44.93179818164308" lon="9.258960693044193"><ele>488.0</ele><time>2026-03-29T15:30:39.999Z</time></trkpt><trkpt lat="44.93194853330323" lon="9.258962398880456"><ele>488.0</ele><time>2026-03-29T15:30:40.999Z</time></trkpt><trkpt lat="44.93208400456339" lon="9.258960377390093"><ele>488.0</ele><time>2026-03-29T15:30:41.999Z</time></trkpt><trkpt lat="44.93222745929175" lon="9.258923991910487"><ele>488.0</ele><time>2026-03-29T15:30:42.999Z</time></trkpt><trkpt lat="44.93238328923345" lon="9.258834154739056"><ele>488.0</ele><time>2026-03-29T15:30:43.999Z</time></trkpt><trkpt lat="44.932552307092465" lon="9.258715842285191"><ele>488.0</ele><time>2026-03-29T15:30:44.999Z</time></trkpt><trkpt lat="44.932734905101434" lon="9.258592168633532"><ele>486.66666666666663</ele><time>2026-03-29T15:30:45.999Z</time></trkpt><trkpt lat="44.93291856196375" lon="9.258477431329888"><ele>485.33333333333337</ele><time>2026-03-29T15:30:46.999Z</time></trkpt><trkpt lat="44.93311723585876" lon="9.25835190472499"><ele>484.0</ele><time>2026-03-29T15:30:47.999Z</time></trkpt><trkpt lat="44.933315139633955" lon="9.25823213513817"><ele>484.0</ele><time>2026-03-29T15:30:48.999Z</time></trkpt><trkpt lat="44.93350413298382" lon="9.25811798117187"><ele>484.0</ele><time>2026-03-29T15:30:49.999Z</time></trkpt><trkpt lat="44.933687655301334" lon="9.258005474890469"><ele>484.0</ele><time>2026-03-29T15:30:50.999Z</time></trkpt><trkpt lat="44.93385455783541" lon="9.25789854036809"><ele>484.0</ele><time>2026-03-29T15:30:51.999Z</time></trkpt><trkpt lat="44.93401624609143" lon="9.257776061093178"><ele>484.0</ele><time>2026-03-29T15:30:52.999Z</time></trkpt><trkpt lat="44.934180476970624" lon="9.257623299408207"><ele>484.0</ele><time>2026-03-29T15:30:53.999Z</time></trkpt><trkpt lat="44.93433525645867" lon="9.25748090865507"><ele>482.5</ele><time>2026-03-29T15:30:54.999Z</time></trkpt><trkpt lat="44.934476495150086" lon="9.257356771641968"><ele>481.0</ele><time>2026-03-29T15:30:55.999Z</time></trkpt><trkpt lat="44.93459911723889" lon="9.257253098379605"><ele>479.5</ele><time>2026-03-29T15:30:56.999Z</time></trkpt><trkpt lat="44.93470797065895" lon="9.257151563270543"><ele>478.0</ele><time>2026-03-29T15:30:57.999Z</time></trkpt><trkpt lat="44.934803468913266" lon="9.257029426320203"><ele>478.0</ele><time>2026-03-29T15:30:58.999Z</time></trkpt><trkpt lat="44.934868214049104" lon="9.256851714148237"><ele>478.0</ele><time>2026-03-29T15:30:59.999Z</time></trkpt><trkpt lat="44.93490061971121" lon="9.256627727877898"><ele>478.0</ele><time>2026-03-29T15:31:00.999Z</time></trkpt><trkpt lat="44.934947135644954" lon="9.256418329887625"><ele>478.5</ele><time>2026-03-29T15:31:01.999Z</time></trkpt><trkpt lat="44.935031951570494" lon="9.256272579199452"><ele>479.0</ele><time>2026-03-29T15:31:02.999Z</time></trkpt><trkpt lat="44.93515340577638" lon="9.256190096141951"><ele>479.5</ele><time>2026-03-29T15:31:03.999Z</time></trkpt><trkpt lat="44.93530644217542" lon="9.256155991821885"><ele>480.0</ele><time>2026-03-29T15:31:04.999Z</time></trkpt><trkpt lat="44.93547367147417" lon="9.256153102624355"><ele>480.0</ele><time>2026-03-29T15:31:05.999Z</time></trkpt><trkpt lat="44.93562259417643" lon="9.256148616414313"><ele>480.0</ele><time>2026-03-29T15:31:06.999Z</time></trkpt><trkpt lat="44.935757772278606" lon="9.256161114189936"><ele>480.0</ele><time>2026-03-29T15:31:07.999Z</time></trkpt><trkpt lat="44.93589442473531" lon="9.256164463325899"><ele>480.0</ele><time>2026-03-29T15:31:08.999Z</time></trkpt><trkpt lat="44.93603276841755" lon="9.256099192923845"><ele>479.75</ele><time>2026-03-29T15:31:10Z</time></trkpt><trkpt lat="44.936159025279196" lon="9.255980552652758"><ele>479.5</ele><time>2026-03-29T15:31:11Z</time></trkpt><trkpt lat="44.93625646821587" lon="9.255906205651351"><ele>479.25</ele><time>2026-03-29T15:31:12Z</time></trkpt><trkpt lat="44.93634779048413" lon="9.255910998976047"><ele>479.0</ele><time>2026-03-29T15:31:13Z</time></trkpt><trkpt lat="44.936432967451196" lon="9.256029150966773"><ele>479.0</ele><time>2026-03-29T15:31:14Z</time></trkpt><trkpt lat="44.936537724184845" lon="9.256150582777018"><ele>479.0</ele><time>2026-03-29T15:31:15Z</time></trkpt><trkpt lat="44.93664711903213" lon="9.256304278203006"><ele>479.0</ele><time>2026-03-29T15:31:16Z</time></trkpt><trkpt lat="44.93676029732595" lon="9.256426960471865"><ele>479.0</ele><time>2026-03-29T15:31:17Z</time></trkpt><trkpt lat="44.936861971661344" lon="9.256495550757451"><ele>476.75</ele><time>2026-03-29T15:31:18Z</time></trkpt><trkpt lat="44.93697668550884" lon="9.256515680485808"><ele>474.5</ele><time>2026-03-29T15:31:19Z</time></trkpt><trkpt lat="44.937113717828346" lon="9.25646837770456"><ele>472.25</ele><time>2026-03-29T15:31:20Z</time></trkpt><trkpt lat="44.93725967322737" lon="9.256388946599172"><ele>470.0</ele><time>2026-03-29T15:31:21Z</time></trkpt><trkpt lat="44.937385396333255" lon="9.25631009776196"><ele>470.0</ele><time>2026-03-29T15:31:22Z</time></trkpt><trkpt lat="44.93747571525633" lon="9.256207701335871"><ele>470.0</ele><time>2026-03-29T15:31:23Z</time></trkpt><trkpt lat="44.93755198195098" lon="9.256038985502334"><ele>470.0</ele><time>2026-03-29T15:31:24Z</time></trkpt><trkpt lat="44.93761073635273" lon="9.255833514044726"><ele>470.0</ele><time>2026-03-29T15:31:25Z</time></trkpt><trkpt lat="44.93766276060252" lon="9.255594823882108"><ele>469.0</ele><time>2026-03-29T15:31:26Z</time></trkpt><trkpt lat="44.93771870274947" lon="9.255382741395461"><ele>468.0</ele><time>2026-03-29T15:31:27Z</time></trkpt><trkpt lat="44.93778411488793" lon="9.255228335497247"><ele>467.0</ele><time>2026-03-29T15:31:28Z</time></trkpt><trkpt lat="44.937850368056004" lon="9.255049164602882"><ele>466.0</ele><time>2026-03-29T15:31:29Z</time></trkpt><trkpt lat="44.93794301743328" lon="9.254947640483062"><ele>466.0</ele><time>2026-03-29T15:31:30Z</time></trkpt><trkpt lat="44.938068369370676" lon="9.254894798438023"><ele>466.0</ele><time>2026-03-29T15:31:31Z</time></trkpt><trkpt lat="44.93821898232479" lon="9.254917369776921"><ele>466.0</ele><time>2026-03-29T15:31:32Z</time></trkpt><trkpt lat="44.93835358256092" lon="9.255007513087836"><ele>466.0</ele><time>2026-03-29T15:31:33Z</time></trkpt><trkpt lat="44.93845477580152" lon="9.255096509916415"><ele>463.5</ele><time>2026-03-29T15:31:34Z</time></trkpt><trkpt lat="44.93856364323252" lon="9.255124258424665"><ele>461.0</ele><time>2026-03-29T15:31:35Z</time></trkpt><trkpt lat="44.9386873687596" lon="9.255079943916925"><ele>458.5</ele><time>2026-03-29T15:31:36Z</time></trkpt><trkpt lat="44.938798000085136" lon="9.25495787168951"><ele>456.0</ele><time>2026-03-29T15:31:37Z</time></trkpt><trkpt lat="44.938908553887" lon="9.254809344256092"><ele>456.5</ele><time>2026-03-29T15:31:38Z</time></trkpt><trkpt lat="44.9390183979514" lon="9.254732601824887"><ele>457.0</ele><time>2026-03-29T15:31:39Z</time></trkpt><trkpt lat="44.939121916970535" lon="9.254660198064732"><ele>457.5</ele><time>2026-03-29T15:31:40Z</time></trkpt><trkpt lat="44.93922540763703" lon="9.254580806941531"><ele>458.0</ele><time>2026-03-29T15:31:41Z</time></trkpt><trkpt lat="44.93931995992424" lon="9.254512974620404"><ele>458.0</ele><time>2026-03-29T15:31:42Z</time></trkpt><trkpt lat="44.93940486070548" lon="9.254443531071672"><ele>457.99999999999994</ele><time>2026-03-29T15:31:43Z</time></trkpt><trkpt lat="44.93948245223328" lon="9.25435270994242"><ele>457.99999999999994</ele><time>2026-03-29T15:31:44Z</time></trkpt><trkpt lat="44.93954492661594" lon="9.25426115296113"><ele>458.0</ele><time>2026-03-29T15:31:45Z</time></trkpt><trkpt lat="44.939608479636604" lon="9.254167095973326"><ele>458.0</ele><time>2026-03-29T15:31:46Z</time></trkpt><trkpt lat="44.93968869192369" lon="9.254079463818316"><ele>458.0</ele><time>2026-03-29T15:31:47Z</time></trkpt><trkpt lat="44.9397804763601" lon="9.254024540896149"><ele>457.99999999999994</ele><time>2026-03-29T15:31:48Z</time></trkpt><trkpt lat="44.939883733912794" lon="9.253993061190453"><ele>457.99999999999994</ele><time>2026-03-29T15:31:49Z</time></trkpt><trkpt lat="44.93999095020792" lon="9.253989840594645"><ele>458.0</ele><time>2026-03-29T15:31:50Z</time></trkpt><trkpt lat="44.940091683878734" lon="9.253928348142615"><ele>458.0</ele><time>2026-03-29T15:31:51Z</time></trkpt><trkpt lat="44.94019565021791" lon="9.253884033212803"><ele>458.2</ele><time>2026-03-29T15:31:52Z</time></trkpt><trkpt lat="44.940298174090096" lon="9.253837125406143"><ele>458.4</ele><time>2026-03-29T15:31:53Z</time></trkpt><trkpt lat="44.94040417410664" lon="9.253792971818271"><ele>458.59999999999997</ele><time>2026-03-29T15:31:54Z</time></trkpt><trkpt lat="44.94050929116024" lon="9.253745346552858"><ele>458.79999999999995</ele><time>2026-03-29T15:31:55Z</time></trkpt><trkpt lat="44.940617270292535" lon="9.253721050670572"><ele>459.0</ele><time>2026-03-29T15:31:56Z</time></trkpt><trkpt lat="44.940713529043656" lon="9.253705531867784"><ele>459.0</ele><time>2026-03-29T15:31:57Z</time></trkpt><trkpt lat="44.94080298663658" lon="9.25371850642912"><ele>459.0</ele><time>2026-03-29T15:31:58Z</time></trkpt><trkpt lat="44.94089262063484" lon="9.253711784701919"><ele>459.0</ele><time>2026-03-29T15:31:59Z</time></trkpt><trkpt lat="44.94097237198644" lon="9.253656510248868"><ele>459.0</ele><time>2026-03-29T15:32:00Z</time></trkpt><trkpt lat="44.94104680826905" lon="9.253557818165476"><ele>459.0</ele><time>2026-03-29T15:32:01Z</time></trkpt><trkpt lat="44.94111921391495" lon="9.253463980510823"><ele>457.0</ele><time>2026-03-29T15:32:02Z</time></trkpt><trkpt lat="44.94119836265433" lon="9.253391103837538"><ele>455.0</ele><time>2026-03-29T15:32:03Z</time></trkpt><trkpt lat="44.94129372154208" lon="9.253335380657099"><ele>453.0</ele><time>2026-03-29T15:32:04Z</time></trkpt><trkpt lat="44.941384750114224" lon="9.253310800921174"><ele>451.0</ele><time>2026-03-29T15:32:05Z</time></trkpt><trkpt lat="44.94146868052597" lon="9.253254214608"><ele>449.0</ele><time>2026-03-29T15:32:06Z</time></trkpt><trkpt lat="44.94153304366827" lon="9.253156681464862"><ele>448.66666666666663</ele><time>2026-03-29T15:32:07Z</time></trkpt><trkpt lat="44.94156413761492" lon="9.25303610995199"><ele>448.3333333333333</ele><time>2026-03-29T15:32:08Z</time></trkpt><trkpt lat="44.94157117683224" lon="9.252909913838435"><ele>448.0</ele><time>2026-03-29T15:32:09Z</time></trkpt><trkpt lat="44.94156074219217" lon="9.252797597753531"><ele>447.66666666666663</ele><time>2026-03-29T15:32:10Z</time></trkpt><trkpt lat="44.94154779339312" lon="9.252686118402588"><ele>447.3333333333333</ele><time>2026-03-29T15:32:11Z</time></trkpt><trkpt lat="44.94153255733183" lon="9.252590168442048"><ele>447.0</ele><time>2026-03-29T15:32:12Z</time></trkpt><trkpt lat="44.941517063882976" lon="9.252428593421717"><ele>447.0</ele><time>2026-03-29T15:32:14Z</time></trkpt><trkpt lat="44.94155320979384" lon="9.252284599693231"><ele>447.00000000000006</ele><time>2026-03-29T15:32:16Z</time></trkpt><trkpt lat="44.94167093509554" lon="9.252307567486943"><ele>447.00000000000006</ele><time>2026-03-29T15:32:18Z</time></trkpt><trkpt lat="44.941694550447394" lon="9.252410024913752"><ele>447.0</ele><time>2026-03-29T15:32:19Z</time></trkpt><trkpt lat="44.941699981371436" lon="9.252537820158532"><ele>447.0</ele><time>2026-03-29T15:32:20Z</time></trkpt><trkpt lat="44.941717595337" lon="9.252694869149616"><ele>442.5</ele><time>2026-03-29T15:32:21Z</time></trkpt><trkpt lat="44.94175240056609" lon="9.252870468508041"><ele>438.0</ele><time>2026-03-29T15:32:22Z</time></trkpt><trkpt lat="44.9418018948522" lon="9.253030123060919"><ele>433.5</ele><time>2026-03-29T15:32:22.999Z</time></trkpt><trkpt lat="44.941860464351514" lon="9.25317652656169"><ele>429.0</ele><time>2026-03-29T15:32:23.999Z</time></trkpt><trkpt lat="44.94191952038002" lon="9.253325756904179"><ele>428.75</ele><time>2026-03-29T15:32:24.999Z</time></trkpt><trkpt lat="44.941978576479485" lon="9.253473421230145"><ele>428.5</ele><time>2026-03-29T15:32:25.999Z</time></trkpt><trkpt lat="44.94202950698156" lon="9.253618471336399"><ele>428.25</ele><time>2026-03-29T15:32:26.999Z</time></trkpt><trkpt lat="44.94207489780662" lon="9.253767346432584"><ele>428.0</ele><time>2026-03-29T15:32:27.999Z</time></trkpt><trkpt lat="44.94211181122018" lon="9.253917801324949"><ele>428.0</ele><time>2026-03-29T15:32:28.999Z</time></trkpt><trkpt lat="44.942132623226875" lon="9.254067431219301"><ele>427.99999999999994</ele><time>2026-03-29T15:32:29.999Z</time></trkpt><trkpt lat="44.94214125073239" lon="9.25422146089592"><ele>427.99999999999994</ele><time>2026-03-29T15:32:30.999Z</time></trkpt><trkpt lat="44.942135655486005" lon="9.254372023920697"><ele>428.0</ele><time>2026-03-29T15:32:31.999Z</time></trkpt><trkpt lat="44.942101383225925" lon="9.25451043421179"><ele>428.0</ele><time>2026-03-29T15:32:32.999Z</time></trkpt><trkpt lat="44.942037303474336" lon="9.254633461681784"><ele>427.99999999999994</ele><time>2026-03-29T15:32:33.999Z</time></trkpt><trkpt lat="44.941956363808195" lon="9.254735216078629"><ele>428.0</ele><time>2026-03-29T15:32:34.999Z</time></trkpt><trkpt lat="44.94188574639135" lon="9.254824593926026"><ele>428.0</ele><time>2026-03-29T15:32:35.999Z</time></trkpt><trkpt lat="44.94182468944972" lon="9.254905894772085"><ele>428.0</ele><time>2026-03-29T15:32:36.999Z</time></trkpt><trkpt lat="44.941774969122726" lon="9.254995879170608"><ele>427.99999999999994</ele><time>2026-03-29T15:32:37.999Z</time></trkpt><trkpt lat="44.941755474908895" lon="9.255092147579012"><ele>428.0</ele><time>2026-03-29T15:32:38.999Z</time></trkpt><trkpt lat="44.941769439451924" lon="9.255196496996271"><ele>427.49999999999994</ele><time>2026-03-29T15:32:39.999Z</time></trkpt><trkpt lat="44.94181138521621" lon="9.25528842666827"><ele>427.0</ele><time>2026-03-29T15:32:40.999Z</time></trkpt><trkpt lat="44.94187605117753" lon="9.255338055116656"><ele>426.5</ele><time>2026-03-29T15:32:41.999Z</time></trkpt><trkpt lat="44.94194611189414" lon="9.255350184307222"><ele>426.0</ele><time>2026-03-29T15:32:42.999Z</time></trkpt><trkpt lat="44.94202494995373" lon="9.255333782532462"><ele>425.49999999999994</ele><time>2026-03-29T15:32:43.999Z</time></trkpt><trkpt lat="44.9421190277656" lon="9.255315586753584"><ele>425.0</ele><time>2026-03-29T15:32:44.999Z</time></trkpt><trkpt lat="44.94222239217714" lon="9.255290939851697"><ele>425.0</ele><time>2026-03-29T15:32:45.999Z</time></trkpt><trkpt lat="44.94232276867371" lon="9.255270897226186"><ele>425.0</ele><time>2026-03-29T15:32:46.999Z</time></trkpt><trkpt lat="44.9424184657381" lon="9.25523029134468"><ele>425.0</ele><time>2026-03-29T15:32:47.999Z</time></trkpt><trkpt lat="44.94251765465935" lon="9.25518997026198"><ele>425.0</ele><time>2026-03-29T15:32:48.999Z</time></trkpt><trkpt lat="44.94260615644911" lon="9.25510334101305"><ele>425.0</ele><time>2026-03-29T15:32:49.999Z</time></trkpt><trkpt lat="44.94268391469107" lon="9.255024543004385"><ele>422.8</ele><time>2026-03-29T15:32:50.999Z</time></trkpt><trkpt lat="44.94276184802318" lon="9.254922123631214"><ele>420.6</ele><time>2026-03-29T15:32:51.999Z</time></trkpt><trkpt lat="44.94279944059459" lon="9.25479552160569"><ele>418.4</ele><time>2026-03-29T15:32:52.999Z</time></trkpt><trkpt lat="44.94280694338049" lon="9.254662685738879"><ele>416.2</ele><time>2026-03-29T15:32:53.999Z</time></trkpt><trkpt lat="44.94280389012267" lon="9.254527278813793"><ele>414.0</ele><time>2026-03-29T15:32:54.999Z</time></trkpt><trkpt lat="44.942800011259365" lon="9.254401418932218"><ele>413.5</ele><time>2026-03-29T15:32:55.999Z</time></trkpt><trkpt lat="44.94279622960689" lon="9.254271609679"><ele>413.0</ele><time>2026-03-29T15:32:56.999Z</time></trkpt><trkpt lat="44.94280068321766" lon="9.25415589851852"><ele>412.5</ele><time>2026-03-29T15:32:57.999Z</time></trkpt><trkpt lat="44.94281796266085" lon="9.254051308011933"><ele>412.0</ele><time>2026-03-29T15:32:58.999Z</time></trkpt><trkpt lat="44.94289488995604" lon="9.253970429993961"><ele>411.5</ele><time>2026-03-29T15:32:59.999Z</time></trkpt><trkpt lat="44.942989156272034" lon="9.253978463033478"><ele>411.0</ele><time>2026-03-29T15:33:00.999Z</time></trkpt><trkpt lat="44.94305960118319" lon="9.25407393340215"><ele>411.0</ele><time>2026-03-29T15:33:01.999Z</time></trkpt><trkpt lat="44.943098034427564" lon="9.254235623601978"><ele>411.0</ele><time>2026-03-29T15:33:02.999Z</time></trkpt><trkpt lat="44.94312593838982" lon="9.254403328583761"><ele>411.0</ele><time>2026-03-29T15:33:03.999Z</time></trkpt><trkpt lat="44.94315791814321" lon="9.254590776520528"><ele>411.0</ele><time>2026-03-29T15:33:04.999Z</time></trkpt><trkpt lat="44.9432032559618" lon="9.254777469682"><ele>411.75</ele><time>2026-03-29T15:33:05.999Z</time></trkpt><trkpt lat="44.94327628987085" lon="9.254930608242534"><ele>412.5</ele><time>2026-03-29T15:33:06.999Z</time></trkpt><trkpt lat="44.9433606642312" lon="9.255053618447448"><ele>413.25</ele><time>2026-03-29T15:33:07.999Z</time></trkpt><trkpt lat="44.94343000436207" lon="9.255166123247685"><ele>414.0</ele><time>2026-03-29T15:33:08.999Z</time></trkpt><trkpt lat="44.94348418827355" lon="9.25528461154203"><ele>413.0</ele><time>2026-03-29T15:33:09.999Z</time></trkpt><trkpt lat="44.94350876360849" lon="9.255399353518321"><ele>412.0</ele><time>2026-03-29T15:33:10.999Z</time></trkpt><trkpt lat="44.94351558986494" lon="9.255500457868045"><ele>411.0</ele><time>2026-03-29T15:33:11.999Z</time></trkpt><trkpt lat="44.943521563152174" lon="9.255614354804704"><ele>410.0</ele><time>2026-03-29T15:33:12.999Z</time></trkpt><trkpt lat="44.94354133806916" lon="9.25572048649579"><ele>409.0</ele><time>2026-03-29T15:33:13.999Z</time></trkpt><trkpt lat="44.943576438546884" lon="9.255826237243777"><ele>408.0</ele><time>2026-03-29T15:33:14.999Z</time></trkpt><trkpt lat="44.94363283308671" lon="9.25590330082358"><ele>408.0</ele><time>2026-03-29T15:33:16Z</time></trkpt><trkpt lat="44.94369818631174" lon="9.255938899617144"><ele>408.0</ele><time>2026-03-29T15:33:17Z</time></trkpt><trkpt lat="44.94376504034768" lon="9.255932880837568"><ele>408.0</ele><time>2026-03-29T15:33:18Z</time></trkpt><trkpt lat="44.943829821692944" lon="9.255893166950946"><ele>408.0</ele><time>2026-03-29T15:33:19Z</time></trkpt><trkpt lat="44.94388473467472" lon="9.255839593504241"><ele>408.0</ele><time>2026-03-29T15:33:20Z</time></trkpt><trkpt lat="44.94393115070909" lon="9.255702900138548"><ele>408.0</ele><time>2026-03-29T15:33:22Z</time></trkpt><trkpt lat="44.94395218063761" lon="9.255564616295443"><ele>407.2</ele><time>2026-03-29T15:33:23Z</time></trkpt><trkpt lat="44.943990427098626" lon="9.255416390454881"><ele>406.4</ele><time>2026-03-29T15:33:24Z</time></trkpt><trkpt lat="44.94403156534709" lon="9.255278971397479"><ele>405.59999999999997</ele><time>2026-03-29T15:33:25Z</time></trkpt><trkpt lat="44.94406903468508" lon="9.255140423846912"><ele>404.79999999999995</ele><time>2026-03-29T15:33:26Z</time></trkpt><trkpt lat="44.944124825401204" lon="9.255022765934813"><ele>404.0</ele><time>2026-03-29T15:33:27Z</time></trkpt><trkpt lat="44.94418440832389" lon="9.254888047254413"><ele>401.2</ele><time>2026-03-29T15:33:28Z</time></trkpt><trkpt lat="44.94424923462912" lon="9.254750659314931"><ele>398.4</ele><time>2026-03-29T15:33:29Z</time></trkpt><trkpt lat="44.94431082705021" lon="9.254648094219856"><ele>395.6</ele><time>2026-03-29T15:33:30Z</time></trkpt><trkpt lat="44.94439594215461" lon="9.254568194033597"><ele>392.8</ele><time>2026-03-29T15:33:31Z</time></trkpt><trkpt lat="44.944495416562035" lon="9.254523846541598"><ele>390.0</ele><time>2026-03-29T15:33:32Z</time></trkpt><trkpt lat="44.94460764296239" lon="9.254499266227912"><ele>390.0</ele><time>2026-03-29T15:33:33Z</time></trkpt><trkpt lat="44.94470256011104" lon="9.254493014653258"><ele>390.0</ele><time>2026-03-29T15:33:34Z</time></trkpt><trkpt lat="44.94479046816551" lon="9.254486417790838"><ele>390.0</ele><time>2026-03-29T15:33:35Z</time></trkpt><trkpt lat="44.944880521041284" lon="9.254482355542528"><ele>390.0</ele><time>2026-03-29T15:33:36Z</time></trkpt><trkpt lat="44.94497057355333" lon="9.254493648723003"><ele>390.0</ele><time>2026-03-29T15:33:37Z</time></trkpt><trkpt lat="44.94505565018872" lon="9.254537353497287"><ele>388.8</ele><time>2026-03-29T15:33:38Z</time></trkpt><trkpt lat="44.94512952828813" lon="9.254601888403656"><ele>387.6</ele><time>2026-03-29T15:33:39Z</time></trkpt><trkpt lat="44.945194673542964" lon="9.254689816750394"><ele>386.4</ele><time>2026-03-29T15:33:40Z</time></trkpt><trkpt lat="44.945247636730286" lon="9.254797536150937"><ele>385.2</ele><time>2026-03-29T15:33:41Z</time></trkpt><trkpt lat="44.94529922654245" lon="9.254909627119874"><ele>384.0</ele><time>2026-03-29T15:33:42Z</time></trkpt><trkpt lat="44.94536352174171" lon="9.255002698465741"><ele>384.0</ele><time>2026-03-29T15:33:43Z</time></trkpt><trkpt lat="44.94544601335136" lon="9.255074375708565"><ele>384.0</ele><time>2026-03-29T15:33:44Z</time></trkpt><trkpt lat="44.945532289775336" lon="9.255131844959596"><ele>384.0</ele><time>2026-03-29T15:33:45Z</time></trkpt><trkpt lat="44.94561651707199" lon="9.25518359763543"><ele>384.0</ele><time>2026-03-29T15:33:46Z</time></trkpt><trkpt lat="44.9456896980513" lon="9.255226750774636"><ele>384.0</ele><time>2026-03-29T15:33:47Z</time></trkpt><trkpt lat="44.94577120779832" lon="9.255276021159766"><ele>384.0</ele><time>2026-03-29T15:33:48Z</time></trkpt><trkpt lat="44.94585629226422" lon="9.255326614673757"><ele>384.0</ele><time>2026-03-29T15:33:49Z</time></trkpt><trkpt lat="44.94594174052017" lon="9.255387403318604"><ele>384.0</ele><time>2026-03-29T15:33:50Z</time></trkpt><trkpt lat="44.946017581483716" lon="9.255454921869415"><ele>384.0</ele><time>2026-03-29T15:33:51Z</time></trkpt><trkpt lat="44.94608160959819" lon="9.255525404831758"><ele>384.0</ele><time>2026-03-29T15:33:52Z</time></trkpt><trkpt lat="44.94613960046888" lon="9.255595103946895"><ele>384.0</ele><time>2026-03-29T15:33:53Z</time></trkpt><trkpt lat="44.94619793573817" lon="9.255671637863266"><ele>382.3333333333333</ele><time>2026-03-29T15:33:54Z</time></trkpt><trkpt lat="44.94625693562154" lon="9.25575746819172"><ele>380.6666666666667</ele><time>2026-03-29T15:33:55Z</time></trkpt><trkpt lat="44.94630961737687" lon="9.255853488850745"><ele>379.0</ele><time>2026-03-29T15:33:56Z</time></trkpt><trkpt lat="44.94634300717452" lon="9.255947372164119"><ele>377.33333333333337</ele><time>2026-03-29T15:33:57Z</time></trkpt><trkpt lat="44.946368872789854" lon="9.256051233819655"><ele>375.6666666666667</ele><time>2026-03-29T15:33:58Z</time></trkpt><trkpt lat="44.946387888822315" lon="9.256172471390663"><ele>374.0</ele><time>2026-03-29T15:33:59Z</time></trkpt><trkpt lat="44.94639917427828" lon="9.256300754017987"><ele>374.0</ele><time>2026-03-29T15:34:00Z</time></trkpt><trkpt lat="44.94640325691099" lon="9.25642558837931"><ele>374.0</ele><time>2026-03-29T15:34:01Z</time></trkpt><trkpt lat="44.94639656780568" lon="9.256554301246496"><ele>374.0</ele><time>2026-03-29T15:34:02Z</time></trkpt><trkpt lat="44.94640092128803" lon="9.256690669422104"><ele>374.0</ele><time>2026-03-29T15:34:03Z</time></trkpt><trkpt lat="44.94642075411952" lon="9.256832449225918"><ele>374.0</ele><time>2026-03-29T15:34:04Z</time></trkpt><trkpt lat="44.94640761554098" lon="9.256973319271486"><ele>373.79999999999995</ele><time>2026-03-29T15:34:05Z</time></trkpt><trkpt lat="44.94643370949655" lon="9.257121201540489"><ele>373.59999999999997</ele><time>2026-03-29T15:34:06Z</time></trkpt><trkpt lat="44.94641338910652" lon="9.257265915839055"><ele>373.4</ele><time>2026-03-29T15:34:07Z</time></trkpt><trkpt lat="44.94641790252443" lon="9.257407781265314"><ele>373.2</ele><time>2026-03-29T15:34:08Z</time></trkpt><trkpt lat="44.94641865159315" lon="9.257513709185517"><ele>373.0</ele><time>2026-03-29T15:34:09Z</time></trkpt><trkpt lat="44.946426521513665" lon="9.257610568258551"><ele>372.8333333333333</ele><time>2026-03-29T15:34:10Z</time></trkpt><trkpt lat="44.94645282235196" lon="9.257700955137175"><ele>372.66666666666663</ele><time>2026-03-29T15:34:11Z</time></trkpt><trkpt lat="44.94649466001037" lon="9.257781803973334"><ele>372.5</ele><time>2026-03-29T15:34:12Z</time></trkpt><trkpt lat="44.946551289351376" lon="9.257846651583968"><ele>372.3333333333333</ele><time>2026-03-29T15:34:13Z</time></trkpt><trkpt lat="44.946618236299784" lon="9.257892036765222"><ele>372.1666666666667</ele><time>2026-03-29T15:34:14Z</time></trkpt><trkpt lat="44.94669427883836" lon="9.25790849708937"><ele>372.0</ele><time>2026-03-29T15:34:15Z</time></trkpt><trkpt lat="44.94678185014171" lon="9.257895227940416"><ele>368.75</ele><time>2026-03-29T15:34:16Z</time></trkpt><trkpt lat="44.94687047010092" lon="9.257842987620377"><ele>365.5</ele><time>2026-03-29T15:34:17Z</time></trkpt><trkpt lat="44.946963756192325" lon="9.2577348792775"><ele>362.25</ele><time>2026-03-29T15:34:18Z</time></trkpt><trkpt lat="44.94705192644171" lon="9.257587609247919"><ele>359.0</ele><time>2026-03-29T15:34:19Z</time></trkpt><trkpt lat="44.94713404381901" lon="9.257431418400692"><ele>359.0</ele><time>2026-03-29T15:34:20Z</time></trkpt><trkpt lat="44.94722495938822" lon="9.257302775128514"><ele>359.0</ele><time>2026-03-29T15:34:21Z</time></trkpt><trkpt lat="44.947318955801705" lon="9.257194215348148"><ele>359.0</ele><time>2026-03-29T15:34:22Z</time></trkpt><trkpt lat="44.94740326684136" lon="9.257097596724067"><ele>359.0</ele><time>2026-03-29T15:34:23Z</time></trkpt><trkpt lat="44.94747536313154" lon="9.257009561825296"><ele>359.0</ele><time>2026-03-29T15:34:24Z</time></trkpt><trkpt lat="44.94751451937117" lon="9.256925492971604"><ele>359.0</ele><time>2026-03-29T15:34:25Z</time></trkpt><trkpt lat="44.947556010224936" lon="9.256834103403918"><ele>359.0</ele><time>2026-03-29T15:34:26Z</time></trkpt><trkpt lat="44.94756329498645" lon="9.256718365214597"><ele>359.0</ele><time>2026-03-29T15:34:27Z</time></trkpt><trkpt lat="44.94752181419399" lon="9.256600642021803"><ele>359.0</ele><time>2026-03-29T15:34:28Z</time></trkpt><trkpt lat="44.94749051437835" lon="9.256482468370493"><ele>359.0</ele><time>2026-03-29T15:34:29Z</time></trkpt><trkpt lat="44.94742928369259" lon="9.256376660860711"><ele>358.1666666666667</ele><time>2026-03-29T15:34:30Z</time></trkpt><trkpt lat="44.94737789324509" lon="9.25627641612301"><ele>357.33333333333337</ele><time>2026-03-29T15:34:31Z</time></trkpt><trkpt lat="44.947337916420544" lon="9.256168425147605"><ele>356.5</ele><time>2026-03-29T15:34:32Z</time></trkpt><trkpt lat="44.94729327867017" lon="9.256068615306303"><ele>355.6666666666667</ele><time>2026-03-29T15:34:33Z</time></trkpt><trkpt lat="44.94729035647616" lon="9.255950906501345"><ele>354.8333333333333</ele><time>2026-03-29T15:34:34Z</time></trkpt><trkpt lat="44.94732606657748" lon="9.255858266901619"><ele>354.0</ele><time>2026-03-29T15:34:35Z</time></trkpt><trkpt lat="44.947370715630235" lon="9.255783220943945"><ele>354.0</ele><time>2026-03-29T15:34:36Z</time></trkpt><trkpt lat="44.947439986490835" lon="9.255729106375394"><ele>354.0</ele><time>2026-03-29T15:34:36.999Z</time></trkpt><trkpt lat="44.94751748497208" lon="9.255713945066503"><ele>354.0</ele><time>2026-03-29T15:34:37.999Z</time></trkpt><trkpt lat="44.94759678443545" lon="9.255718409793747"><ele>354.0</ele><time>2026-03-29T15:34:38.999Z</time></trkpt><trkpt lat="44.94768151635638" lon="9.255727394114452"><ele>354.0</ele><time>2026-03-29T15:34:39.999Z</time></trkpt><trkpt lat="44.947766923223526" lon="9.255753043198848"><ele>354.0</ele><time>2026-03-29T15:34:40.999Z</time></trkpt><trkpt lat="44.94784508126178" lon="9.255793602606522"><ele>351.6</ele><time>2026-03-29T15:34:41.999Z</time></trkpt><trkpt lat="44.94792827459467" lon="9.255850936033172"><ele>349.2</ele><time>2026-03-29T15:34:42.999Z</time></trkpt><trkpt lat="44.948006711910196" lon="9.255936856435419"><ele>346.8</ele><time>2026-03-29T15:34:43.999Z</time></trkpt><trkpt lat="44.94807389779978" lon="9.256049625271464"><ele>344.40000000000003</ele><time>2026-03-29T15:34:44.999Z</time></trkpt><trkpt lat="44.94814006127018" lon="9.25617520334713"><ele>342.0</ele><time>2026-03-29T15:34:45.999Z</time></trkpt><trkpt lat="44.94820602687772" lon="9.256290167226917"><ele>342.0</ele><time>2026-03-29T15:34:46.999Z</time></trkpt><trkpt lat="44.94827309636723" lon="9.25639416012957"><ele>342.0</ele><time>2026-03-29T15:34:47.999Z</time></trkpt><trkpt lat="44.94834294649536" lon="9.25646520026797"><ele>342.0</ele><time>2026-03-29T15:34:48.999Z</time></trkpt><trkpt lat="44.94843084243844" lon="9.256492618314693"><ele>342.0</ele><time>2026-03-29T15:34:49.999Z</time></trkpt><trkpt lat="44.94852761508521" lon="9.256470912640555"><ele>342.0</ele><time>2026-03-29T15:34:50.999Z</time></trkpt><trkpt lat="44.94862308131257" lon="9.256416632015396"><ele>339.8</ele><time>2026-03-29T15:34:51.999Z</time></trkpt><trkpt lat="44.94871960396975" lon="9.256351483326103"><ele>337.6</ele><time>2026-03-29T15:34:52.999Z</time></trkpt><trkpt lat="44.94880552959015" lon="9.256250888364404"><ele>335.40000000000003</ele><time>2026-03-29T15:34:53.999Z</time></trkpt><trkpt lat="44.94885530296885" lon="9.256121490007484"><ele>333.20000000000005</ele><time>2026-03-29T15:34:54.999Z</time></trkpt><trkpt lat="44.94887159862691" lon="9.255989645411525"><ele>331.0</ele><time>2026-03-29T15:34:55.999Z</time></trkpt><trkpt lat="44.948859193101136" lon="9.25586239507999"><ele>331.0</ele><time>2026-03-29T15:34:56.999Z</time></trkpt><trkpt lat="44.94883600748016" lon="9.255735714893763"><ele>331.0</ele><time>2026-03-29T15:34:57.999Z</time></trkpt><trkpt lat="44.94878138128331" lon="9.255628255193963"><ele>331.0</ele><time>2026-03-29T15:34:58.999Z</time></trkpt><trkpt lat="44.94871545769683" lon="9.255526757727797"><ele>331.0</ele><time>2026-03-29T15:34:59.999Z</time></trkpt><trkpt lat="44.94863552933636" lon="9.255464481648495"><ele>331.0</ele><time>2026-03-29T15:35:00.999Z</time></trkpt><trkpt lat="44.9485975064788" lon="9.255382408171915"><ele>331.0</ele><time>2026-03-29T15:35:01.999Z</time></trkpt><trkpt lat="44.94858492631247" lon="9.255284348331477"><ele>330.16666666666663</ele><time>2026-03-29T15:35:02.999Z</time></trkpt><trkpt lat="44.94861758710285" lon="9.255180937692641"><ele>329.3333333333333</ele><time>2026-03-29T15:35:03.999Z</time></trkpt><trkpt lat="44.94869521746714" lon="9.25511679213668"><ele>328.5</ele><time>2026-03-29T15:35:04.999Z</time></trkpt><trkpt lat="44.94878558060156" lon="9.25510134258394"><ele>327.6666666666667</ele><time>2026-03-29T15:35:05.999Z</time></trkpt><trkpt lat="44.94886436416009" lon="9.255127870449499"><ele>326.83333333333337</ele><time>2026-03-29T15:35:06.999Z</time></trkpt><trkpt lat="44.948942061759155" lon="9.25513888973801"><ele>326.0</ele><time>2026-03-29T15:35:07.999Z</time></trkpt><trkpt lat="44.9490219794457" lon="9.25512833851702"><ele>326.0</ele><time>2026-03-29T15:35:08.999Z</time></trkpt><trkpt lat="44.94909554446249" lon="9.255080981271043"><ele>326.0</ele><time>2026-03-29T15:35:09.999Z</time></trkpt><trkpt lat="44.9491509188498" lon="9.254986696544629"><ele>326.0</ele><time>2026-03-29T15:35:10.999Z</time></trkpt><trkpt lat="44.94916862902408" lon="9.254857285942895"><ele>326.0</ele><time>2026-03-29T15:35:11.999Z</time></trkpt><trkpt lat="44.94916092269994" lon="9.254718298003583"><ele>326.0</ele><time>2026-03-29T15:35:12.999Z</time></trkpt><trkpt lat="44.94917611214315" lon="9.254587964853997"><ele>324.2</ele><time>2026-03-29T15:35:13.999Z</time></trkpt><trkpt lat="44.949226937887" lon="9.254482417818554"><ele>322.40000000000003</ele><time>2026-03-29T15:35:14.999Z</time></trkpt><trkpt lat="44.9492914070345" lon="9.254401845213636"><ele>320.6</ele><time>2026-03-29T15:35:15.999Z</time></trkpt><trkpt lat="44.94935968679386" lon="9.254313875620923"><ele>318.8</ele><time>2026-03-29T15:35:16.999Z</time></trkpt><trkpt lat="44.949426440480316" lon="9.254214859168545"><ele>317.0</ele><time>2026-03-29T15:35:17.999Z</time></trkpt><trkpt lat="44.94950492346909" lon="9.254129424363216"><ele>317.0</ele><time>2026-03-29T15:35:18.999Z</time></trkpt><trkpt lat="44.949601688733544" lon="9.254059764819699"><ele>317.0</ele><time>2026-03-29T15:35:19.999Z</time></trkpt><trkpt lat="44.94967822008383" lon="9.254014324884015"><ele>317.0</ele><time>2026-03-29T15:35:20.999Z</time></trkpt><trkpt lat="44.9497457693572" lon="9.253985681353933"><ele>317.0</ele><time>2026-03-29T15:35:22Z</time></trkpt><trkpt lat="44.94982942363284" lon="9.253960980963805"><ele>317.0</ele><time>2026-03-29T15:35:23Z</time></trkpt><trkpt lat="44.94991343263933" lon="9.253949807440533"><ele>317.0</ele><time>2026-03-29T15:35:24Z</time></trkpt><trkpt lat="44.95001177937432" lon="9.253945406852743"><ele>316.2</ele><time>2026-03-29T15:35:25Z</time></trkpt><trkpt lat="44.95011103524757" lon="9.25395262011221"><ele>315.4</ele><time>2026-03-29T15:35:26Z</time></trkpt><trkpt lat="44.950212954033596" lon="9.253971274161097"><ele>314.6</ele><time>2026-03-29T15:35:27Z</time></trkpt><trkpt lat="44.95032912863084" lon="9.254013013758511"><ele>313.8</ele><time>2026-03-29T15:35:28Z</time></trkpt><trkpt lat="44.95042790035476" lon="9.254057961438011"><ele>313.0</ele><time>2026-03-29T15:35:29Z</time></trkpt><trkpt lat="44.95052056144658" lon="9.254096938831628"><ele>313.0</ele><time>2026-03-29T15:35:30Z</time></trkpt><trkpt lat="44.95060513450469" lon="9.254112789422758"><ele>313.0</ele><time>2026-03-29T15:35:31Z</time></trkpt><trkpt lat="44.95067602997576" lon="9.25410833304663"><ele>313.0</ele><time>2026-03-29T15:35:32Z</time></trkpt><trkpt lat="44.950739947083214" lon="9.254076289032218"><ele>313.0</ele><time>2026-03-29T15:35:33Z</time></trkpt><trkpt lat="44.95079349602465" lon="9.254012531858471"><ele>313.0</ele><time>2026-03-29T15:35:34Z</time></trkpt><trkpt lat="44.950826674645675" lon="9.253920217822325"><ele>313.0</ele><time>2026-03-29T15:35:35Z</time></trkpt><trkpt lat="44.95084606895946" lon="9.253815077898711"><ele>313.0</ele><time>2026-03-29T15:35:36Z</time></trkpt><trkpt lat="44.95080618726432" lon="9.253695863654068"><ele>312.5</ele><time>2026-03-29T15:35:37Z</time></trkpt><trkpt lat="44.95074887505817" lon="9.253594570585706"><ele>312.0</ele><time>2026-03-29T15:35:38Z</time></trkpt><trkpt lat="44.95068375866745" lon="9.253514572067976"><ele>311.5</ele><time>2026-03-29T15:35:39Z</time></trkpt><trkpt lat="44.950615016577885" lon="9.253449321352136"><ele>311.0</ele><time>2026-03-29T15:35:40Z</time></trkpt><trkpt lat="44.950539459961036" lon="9.253397917039932"><ele>310.5</ele><time>2026-03-29T15:35:41Z</time></trkpt><trkpt lat="44.9504652178058" lon="9.25336186088637"><ele>310.0</ele><time>2026-03-29T15:35:42Z</time></trkpt><trkpt lat="44.9503885548325" lon="9.25332804081848"><ele>310.0</ele><time>2026-03-29T15:35:43Z</time></trkpt><trkpt lat="44.95031306363932" lon="9.253291310650097"><ele>310.0</ele><time>2026-03-29T15:35:44Z</time></trkpt><trkpt lat="44.95023534776729" lon="9.253249315219955"><ele>310.0</ele><time>2026-03-29T15:35:45Z</time></trkpt><trkpt lat="44.95016171587577" lon="9.253204128309678"><ele>310.0</ele><time>2026-03-29T15:35:46Z</time></trkpt><trkpt lat="44.9501452482942" lon="9.253080221290302"><ele>310.0</ele><time>2026-03-29T15:35:47Z</time></trkpt><trkpt lat="44.95015371913504" lon="9.252972359170588"><ele>310.0</ele><time>2026-03-29T15:35:48Z</time></trkpt><trkpt lat="44.95016238052055" lon="9.252859848878016"><ele>308.16666666666663</ele><time>2026-03-29T15:35:49Z</time></trkpt><trkpt lat="44.95017529849111" lon="9.252745969852448"><ele>306.3333333333333</ele><time>2026-03-29T15:35:50Z</time></trkpt><trkpt lat="44.950190339398134" lon="9.252631036959484"><ele>304.5</ele><time>2026-03-29T15:35:51Z</time></trkpt><trkpt lat="44.95020888192298" lon="9.252519729795008"><ele>302.6666666666667</ele><time>2026-03-29T15:35:52Z</time></trkpt><trkpt lat="44.95024067384692" lon="9.252414166068508"><ele>300.83333333333337</ele><time>2026-03-29T15:35:53Z</time></trkpt><trkpt lat="44.950323185410014" lon="9.252324708611253"><ele>299.0</ele><time>2026-03-29T15:35:54Z</time></trkpt><trkpt lat="44.95041651711782" lon="9.252263594313973"><ele>299.0</ele><time>2026-03-29T15:35:55Z</time></trkpt><trkpt lat="44.95051313299236" lon="9.25223396942788"><ele>299.0</ele><time>2026-03-29T15:35:56Z</time></trkpt><trkpt lat="44.95060171181993" lon="9.252239096515988"><ele>299.0</ele><time>2026-03-29T15:35:57Z</time></trkpt><trkpt lat="44.95067397319745" lon="9.252290744890974"><ele>299.0</ele><time>2026-03-29T15:35:58Z</time></trkpt><trkpt lat="44.95073305978477" lon="9.252372601816031"><ele>299.0</ele><time>2026-03-29T15:35:59Z</time></trkpt><trkpt lat="44.9507794926121" lon="9.252474141070477"><ele>299.0</ele><time>2026-03-29T15:36:00Z</time></trkpt><trkpt lat="44.95083672529353" lon="9.252573191295317"><ele>298.5</ele><time>2026-03-29T15:36:01Z</time></trkpt><trkpt lat="44.950908741594496" lon="9.25262923721459"><ele>298.0</ele><time>2026-03-29T15:36:02Z</time></trkpt><trkpt lat="44.95099364832948" lon="9.252640887190168"><ele>297.5</ele><time>2026-03-29T15:36:03Z</time></trkpt><trkpt lat="44.951076476521884" lon="9.252594772102736"><ele>297.0</ele><time>2026-03-29T15:36:04Z</time></trkpt><trkpt lat="44.951134646739696" lon="9.252502323401098"><ele>296.5</ele><time>2026-03-29T15:36:05Z</time></trkpt><trkpt lat="44.951194193404454" lon="9.252427117988404"><ele>296.0</ele><time>2026-03-29T15:36:06Z</time></trkpt><trkpt lat="44.95125712167675" lon="9.252372049356826"><ele>296.0</ele><time>2026-03-29T15:36:07Z</time></trkpt><trkpt lat="44.95133125775939" lon="9.252347874488894"><ele>296.0</ele><time>2026-03-29T15:36:08Z</time></trkpt><trkpt lat="44.951409144895756" lon="9.252381308111266"><ele>296.0</ele><time>2026-03-29T15:36:09Z</time></trkpt><trkpt lat="44.95149784808757" lon="9.252438077381008"><ele>296.0</ele><time>2026-03-29T15:36:10Z</time></trkpt><trkpt lat="44.95159512811025" lon="9.252479328304991"><ele>296.0</ele><time>2026-03-29T15:36:11Z</time></trkpt><trkpt lat="44.95169207465024" lon="9.252516937122424"><ele>294.8</ele><time>2026-03-29T15:36:12Z</time></trkpt><trkpt lat="44.95179573432563" lon="9.252467661131124"><ele>293.6</ele><time>2026-03-29T15:36:13Z</time></trkpt><trkpt lat="44.95189248635392" lon="9.252412652007207"><ele>292.4</ele><time>2026-03-29T15:36:14Z</time></trkpt><trkpt lat="44.95198093176797" lon="9.252329905026727"><ele>291.2</ele><time>2026-03-29T15:36:15Z</time></trkpt><trkpt lat="44.95205385281425" lon="9.252219049408257"><ele>290.0</ele><time>2026-03-29T15:36:16Z</time></trkpt><trkpt lat="44.95211273304289" lon="9.252088345383687"><ele>287.4</ele><time>2026-03-29T15:36:17Z</time></trkpt><trkpt lat="44.9521868558329" lon="9.251974366149144"><ele>284.8</ele><time>2026-03-29T15:36:18Z</time></trkpt><trkpt lat="44.95224421224912" lon="9.251870851059529"><ele>282.2</ele><time>2026-03-29T15:36:19Z</time></trkpt><trkpt lat="44.95232706848" lon="9.251764697663157"><ele>279.6</ele><time>2026-03-29T15:36:21Z</time></trkpt><trkpt lat="44.95239920773674" lon="9.251740370811913"><ele>277.0</ele><time>2026-03-29T15:36:22Z</time></trkpt><trkpt lat="44.952477249806144" lon="9.251762365980863"><ele>276.2</ele><time>2026-03-29T15:36:23Z</time></trkpt><trkpt lat="44.95254255835536" lon="9.251816866880182"><ele>275.4</ele><time>2026-03-29T15:36:24Z</time></trkpt><trkpt lat="44.95258810081494" lon="9.251915303675162"><ele>274.6</ele><time>2026-03-29T15:36:25Z</time></trkpt><trkpt lat="44.952627070490365" lon="9.25206119915028"><ele>273.8</ele><time>2026-03-29T15:36:26Z</time></trkpt><trkpt lat="44.95267516163844" lon="9.252183611460623"><ele>273.0</ele><time>2026-03-29T15:36:27Z</time></trkpt><trkpt lat="44.952743169590555" lon="9.252273507252355"><ele>273.0</ele><time>2026-03-29T15:36:28Z</time></trkpt><trkpt lat="44.952847306543646" lon="9.25231919287014"><ele>273.0</ele><time>2026-03-29T15:36:29Z</time></trkpt><trkpt lat="44.95296325015911" lon="9.252339071126697"><ele>273.0</ele><time>2026-03-29T15:36:30Z</time></trkpt><trkpt lat="44.9530741029039" lon="9.252353842734198"><ele>273.0</ele><time>2026-03-29T15:36:31Z</time></trkpt><trkpt lat="44.95317828827349" lon="9.252374635962184"><ele>273.0</ele><time>2026-03-29T15:36:32Z</time></trkpt><trkpt lat="44.95327863161312" lon="9.252425608129736"><ele>272.2</ele><time>2026-03-29T15:36:33Z</time></trkpt><trkpt lat="44.95337273154887" lon="9.252492597517147"><ele>271.4</ele><time>2026-03-29T15:36:34Z</time></trkpt><trkpt lat="44.95345565090598" lon="9.25256284772143"><ele>270.59999999999997</ele><time>2026-03-29T15:36:35Z</time></trkpt><trkpt lat="44.95353365951296" lon="9.252642739456189"><ele>269.8</ele><time>2026-03-29T15:36:36Z</time></trkpt><trkpt lat="44.95361194388617" lon="9.252726753100903"><ele>269.0</ele><time>2026-03-29T15:36:37Z</time></trkpt><trkpt lat="44.953700863020096" lon="9.252790519053047"><ele>269.0</ele><time>2026-03-29T15:36:38Z</time></trkpt><trkpt lat="44.95379355815391" lon="9.252834091222073"><ele>269.0</ele><time>2026-03-29T15:36:39Z</time></trkpt><trkpt lat="44.95389345965101" lon="9.252836844890997"><ele>269.0</ele><time>2026-03-29T15:36:40Z</time></trkpt><trkpt lat="44.95399577192656" lon="9.252828270290825"><ele>269.0</ele><time>2026-03-29T15:36:41Z</time></trkpt><trkpt lat="44.95410580452138" lon="9.252821224426588"><ele>269.0</ele><time>2026-03-29T15:36:42Z</time></trkpt><trkpt lat="44.95421691837838" lon="9.252820553753535"><ele>267.8</ele><time>2026-03-29T15:36:43Z</time></trkpt><trkpt lat="44.954330974263954" lon="9.252821642610614"><ele>266.59999999999997</ele><time>2026-03-29T15:36:43.999Z</time></trkpt><trkpt lat="44.9544407919321" lon="9.252822536590752"><ele>265.4</ele><time>2026-03-29T15:36:44.999Z</time></trkpt><trkpt lat="44.954540659900054" lon="9.252829832444876"><ele>264.2</ele><time>2026-03-29T15:36:45.999Z</time></trkpt><trkpt lat="44.95463428005741" lon="9.25284184829743"><ele>263.0</ele><time>2026-03-29T15:36:46.999Z</time></trkpt><trkpt lat="44.95472634115589" lon="9.252871285134603"><ele>263.0</ele><time>2026-03-29T15:36:47.999Z</time></trkpt><trkpt lat="44.954811699141736" lon="9.252913007290323"><ele>263.0</ele><time>2026-03-29T15:36:48.999Z</time></trkpt><trkpt lat="44.95487951661328" lon="9.252976392551195"><ele>263.0</ele><time>2026-03-29T15:36:49.999Z</time></trkpt><trkpt lat="44.954924515468605" lon="9.253050964874632"><ele>263.0</ele><time>2026-03-29T15:36:50.999Z</time></trkpt><trkpt lat="44.954950369661674" lon="9.253140551403126"><ele>263.0</ele><time>2026-03-29T15:36:51.999Z</time></trkpt><trkpt lat="44.95495607509464" lon="9.253242198256157"><ele>263.0</ele><time>2026-03-29T15:36:52.999Z</time></trkpt><trkpt lat="44.95494642930203" lon="9.253375216086265"><ele>263.0</ele><time>2026-03-29T15:36:53.999Z</time></trkpt><trkpt lat="44.95491453770499" lon="9.25352717207339"><ele>263.0</ele><time>2026-03-29T15:36:54.999Z</time></trkpt><trkpt lat="44.954870730651976" lon="9.253649733152582"><ele>263.0</ele><time>2026-03-29T15:36:55.999Z</time></trkpt><trkpt lat="44.95484868635412" lon="9.253761562070748"><ele>263.0</ele><time>2026-03-29T15:36:56.999Z</time></trkpt><trkpt lat="44.954861843411535" lon="9.253874248304552"><ele>263.0</ele><time>2026-03-29T15:36:57.999Z</time></trkpt><trkpt lat="44.954909622779525" lon="9.2539631083217"><ele>262.2</ele><time>2026-03-29T15:36:58.999Z</time></trkpt><trkpt lat="44.95498861659604" lon="9.254043204400778"><ele>261.4</ele><time>2026-03-29T15:36:59.999Z</time></trkpt><trkpt lat="44.95508480759205" lon="9.25410702337064"><ele>260.59999999999997</ele><time>2026-03-29T15:37:00.999Z</time></trkpt><trkpt lat="44.95517822599105" lon="9.254160517878338"><ele>259.8</ele><time>2026-03-29T15:37:01.999Z</time></trkpt><trkpt lat="44.955264395328115" lon="9.25421470583395"><ele>259.0</ele><time>2026-03-29T15:37:02.999Z</time></trkpt><trkpt lat="44.955350690655614" lon="9.254252806323995"><ele>258.8333333333333</ele><time>2026-03-29T15:37:03.999Z</time></trkpt><trkpt lat="44.955438277574466" lon="9.254251654203719"><ele>258.66666666666663</ele><time>2026-03-29T15:37:04.999Z</time></trkpt><trkpt lat="44.95551379001444" lon="9.254217497839576"><ele>258.5</ele><time>2026-03-29T15:37:05.999Z</time></trkpt><trkpt lat="44.955574773450955" lon="9.254168345127239"><ele>258.3333333333333</ele><time>2026-03-29T15:37:06.999Z</time></trkpt><trkpt lat="44.95563048274184" lon="9.254106686687113"><ele>258.1666666666667</ele><time>2026-03-29T15:37:07.999Z</time></trkpt><trkpt lat="44.95569707786849" lon="9.25404674067433"><ele>258.0</ele><time>2026-03-29T15:37:08.999Z</time></trkpt><trkpt lat="44.95577870820911" lon="9.253989775193062"><ele>257.0</ele><time>2026-03-29T15:37:09.999Z</time></trkpt><trkpt lat="44.95587619186168" lon="9.253936676063995"><ele>256.0</ele><time>2026-03-29T15:37:10.999Z</time></trkpt><trkpt lat="44.955988376911236" lon="9.253890410102583"><ele>255.0</ele><time>2026-03-29T15:37:11.999Z</time></trkpt><trkpt lat="44.95611852947427" lon="9.253855992949264"><ele>254.0</ele><time>2026-03-29T15:37:12.999Z</time></trkpt><trkpt lat="44.95626916243302" lon="9.2538509287665"><ele>254.0</ele><time>2026-03-29T15:37:13.999Z</time></trkpt><trkpt lat="44.9564145646316" lon="9.253879043921625"><ele>254.0</ele><time>2026-03-29T15:37:14.999Z</time></trkpt><trkpt lat="44.95654061100108" lon="9.253925539936567"><ele>254.0</ele><time>2026-03-29T15:37:15.999Z</time></trkpt><trkpt lat="44.95664866120221" lon="9.25398054475392"><ele>254.0</ele><time>2026-03-29T15:37:16.999Z</time></trkpt><trkpt lat="44.95674730212129" lon="9.25401963175213"><ele>254.79999999999998</ele><time>2026-03-29T15:37:17.999Z</time></trkpt><trkpt lat="44.956846746626375" lon="9.254059271928977"><ele>255.59999999999997</ele><time>2026-03-29T15:37:18.999Z</time></trkpt><trkpt lat="44.95694420747129" lon="9.254086218742657"><ele>256.4</ele><time>2026-03-29T15:37:19.999Z</time></trkpt><trkpt lat="44.95704512345114" lon="9.254108568691123"><ele>257.2</ele><time>2026-03-29T15:37:20.999Z</time></trkpt><trkpt lat="44.957148216642324" lon="9.254126404572816"><ele>258.0</ele><time>2026-03-29T15:37:21.999Z</time></trkpt><trkpt lat="44.95724993945487" lon="9.25414366974405"><ele>258.0</ele><time>2026-03-29T15:37:22.999Z</time></trkpt><trkpt lat="44.95734625890904" lon="9.254153401203292"><ele>258.0</ele><time>2026-03-29T15:37:23.999Z</time></trkpt><trkpt lat="44.957442257987374" lon="9.254143101608738"><ele>258.0</ele><time>2026-03-29T15:37:24.999Z</time></trkpt><trkpt lat="44.95754910191864" lon="9.25412474134181"><ele>258.0</ele><time>2026-03-29T15:37:25.999Z</time></trkpt><trkpt lat="44.957660213139285" lon="9.25410866890102"><ele>258.0</ele><time>2026-03-29T15:37:26.999Z</time></trkpt><trkpt lat="44.95776244618844" lon="9.254084640282002"><ele>257.4</ele><time>2026-03-29T15:37:28Z</time></trkpt><trkpt lat="44.95785701715559" lon="9.25404955377796"><ele>256.8</ele><time>2026-03-29T15:37:29Z</time></trkpt><trkpt lat="44.957934322501245" lon="9.253999389368433"><ele>256.2</ele><time>2026-03-29T15:37:30Z</time></trkpt><trkpt lat="44.958024522438855" lon="9.253940247955482"><ele>255.6</ele><time>2026-03-29T15:37:32Z</time></trkpt><trkpt lat="44.95810478984206" lon="9.253875819658417"><ele>255.0</ele><time>2026-03-29T15:37:38Z</time></trkpt><trkpt lat="44.958197023493916" lon="9.25381175223674"><ele>255.0</ele><time>2026-03-29T15:37:39Z</time></trkpt><trkpt lat="44.95830134430935" lon="9.253738098062174"><ele>255.0</ele><time>2026-03-29T15:37:40Z</time></trkpt><trkpt lat="44.95842694932492" lon="9.253655080568832"><ele>255.0</ele><time>2026-03-29T15:37:41Z</time></trkpt><trkpt lat="44.95857219848398" lon="9.253573737957144"><ele>255.0</ele><time>2026-03-29T15:37:42Z</time></trkpt><trkpt lat="44.95872371829034" lon="9.253494180034856"><ele>255.66666666666669</ele><time>2026-03-29T15:37:43Z</time></trkpt><trkpt lat="44.95889243215815" lon="9.253421386598552"><ele>256.33333333333337</ele><time>2026-03-29T15:37:44Z</time></trkpt><trkpt lat="44.959074820119866" lon="9.253421361401655"><ele>257.0</ele><time>2026-03-29T15:37:45Z</time></trkpt><trkpt lat="44.95926364266211" lon="9.253388810878246"><ele>257.0</ele><time>2026-03-29T15:37:46Z</time></trkpt><trkpt lat="44.95945034882485" lon="9.253336446489755"><ele>257.0</ele><time>2026-03-29T15:37:47Z</time></trkpt><trkpt lat="44.959601619855455" lon="9.253280132112677"><ele>257.0</ele><time>2026-03-29T15:37:48Z</time></trkpt><trkpt lat="44.959733621648645" lon="9.253200072357897"><ele>257.0</ele><time>2026-03-29T15:37:49Z</time></trkpt><trkpt lat="44.95988367482955" lon="9.253152961279422"><ele>257.0</ele><time>2026-03-29T15:37:50Z</time></trkpt><trkpt lat="44.96004558796036" lon="9.253168483260293"><ele>257.0</ele><time>2026-03-29T15:37:51Z</time></trkpt><trkpt lat="44.96021030626273" lon="9.25324199969163"><ele>257.6666666666667</ele><time>2026-03-29T15:37:52Z</time></trkpt><trkpt lat="44.960364658420104" lon="9.253254641286718"><ele>258.3333333333333</ele><time>2026-03-29T15:37:53Z</time></trkpt><trkpt lat="44.960536949994605" lon="9.253211689508921"><ele>259.0</ele><time>2026-03-29T15:37:54Z</time></trkpt><trkpt lat="44.9606784819937" lon="9.253181034624248"><ele>259.0</ele><time>2026-03-29T15:37:55Z</time></trkpt><trkpt lat="44.96083631051161" lon="9.25315870085625"><ele>259.0</ele><time>2026-03-29T15:37:56Z</time></trkpt><trkpt lat="44.96099068086535" lon="9.253121968169484"><ele>259.0</ele><time>2026-03-29T15:37:57Z</time></trkpt><trkpt lat="44.96112204725501" lon="9.253072059507693"><ele>257.3333333333333</ele><time>2026-03-29T15:37:58Z</time></trkpt><trkpt lat="44.96125164454541" lon="9.252966482005814"><ele>255.66666666666669</ele><time>2026-03-29T15:37:59Z</time></trkpt><trkpt lat="44.96138087397876" lon="9.25280629718005"><ele>254.0</ele><time>2026-03-29T15:38:00Z</time></trkpt><trkpt lat="44.961496278728355" lon="9.252661792349729"><ele>254.0</ele><time>2026-03-29T15:38:01Z</time></trkpt><trkpt lat="44.96156412778051" lon="9.25256710503633"><ele>253.99999999999997</ele><time>2026-03-29T15:38:02Z</time></trkpt><trkpt lat="44.961643666174844" lon="9.252461688286873"><ele>253.99999999999997</ele><time>2026-03-29T15:38:03Z</time></trkpt><trkpt lat="44.961727903882334" lon="9.252351728551691"><ele>254.0</ele><time>2026-03-29T15:38:04Z</time></trkpt><trkpt lat="44.96182114604247" lon="9.252255370801711"><ele>254.0</ele><time>2026-03-29T15:38:05Z</time></trkpt><trkpt lat="44.961921854282295" lon="9.252190244571468"><ele>253.75</ele><time>2026-03-29T15:38:06Z</time></trkpt><trkpt lat="44.96203328690427" lon="9.252171364286204"><ele>253.5</ele><time>2026-03-29T15:38:07Z</time></trkpt><trkpt lat="44.96214842284385" lon="9.252194580492667"><ele>253.25</ele><time>2026-03-29T15:38:08Z</time></trkpt><trkpt lat="44.96226439446295" lon="9.25226205241518"><ele>253.0</ele><time>2026-03-29T15:38:09Z</time></trkpt><trkpt lat="44.96238281032722" lon="9.252373876592594"><ele>253.0</ele><time>2026-03-29T15:38:10Z</time></trkpt><trkpt lat="44.96249927057787" lon="9.252466995525571"><ele>253.0</ele><time>2026-03-29T15:38:11Z</time></trkpt><trkpt lat="44.962595659014205" lon="9.252531513144033"><ele>253.0</ele><time>2026-03-29T15:38:12Z</time></trkpt><trkpt lat="44.96269618715026" lon="9.252585598419847"><ele>253.0</ele><time>2026-03-29T15:38:13Z</time></trkpt><trkpt lat="44.962798792640434" lon="9.252612357951536"><ele>252.60000000000002</ele><time>2026-03-29T15:38:14Z</time></trkpt><trkpt lat="44.96290758950805" lon="9.252605697840103"><ele>252.20000000000002</ele><time>2026-03-29T15:38:15Z</time></trkpt><trkpt lat="44.96302687778571" lon="9.252590492661904"><ele>251.8</ele><time>2026-03-29T15:38:16Z</time></trkpt><trkpt lat="44.963137573900525" lon="9.25258293425527"><ele>251.4</ele><time>2026-03-29T15:38:17Z</time></trkpt><trkpt lat="44.963243339812365" lon="9.252571653085349"><ele>251.0</ele><time>2026-03-29T15:38:18Z</time></trkpt><trkpt lat="44.963349539724554" lon="9.252562045919861"><ele>250.4</ele><time>2026-03-29T15:38:19Z</time></trkpt><trkpt lat="44.963460153974104" lon="9.25255468835372"><ele>249.8</ele><time>2026-03-29T15:38:20Z</time></trkpt><trkpt lat="44.963566432431406" lon="9.252546244599332"><ele>249.20000000000002</ele><time>2026-03-29T15:38:21Z</time></trkpt><trkpt lat="44.96366657480256" lon="9.252536441330788"><ele>248.60000000000002</ele><time>2026-03-29T15:38:22Z</time></trkpt><trkpt lat="44.96375564943262" lon="9.25253269760555"><ele>248.0</ele><time>2026-03-29T15:38:23Z</time></trkpt><trkpt lat="44.9638399887832" lon="9.252550008228102"><ele>248.0</ele><time>2026-03-29T15:38:24Z</time></trkpt><trkpt lat="44.963919835202184" lon="9.252590889221898"><ele>248.0</ele><time>2026-03-29T15:38:25Z</time></trkpt><trkpt lat="44.96399186636873" lon="9.252648956268311"><ele>248.0</ele><time>2026-03-29T15:38:26Z</time></trkpt><trkpt lat="44.964074593809336" lon="9.252707601934597"><ele>248.0</ele><time>2026-03-29T15:38:27Z</time></trkpt><trkpt lat="44.96416234643966" lon="9.252746753888546"><ele>248.0</ele><time>2026-03-29T15:38:28Z</time></trkpt><trkpt lat="44.9642668722633" lon="9.252771756439433"><ele>247.0</ele><time>2026-03-29T15:38:29Z</time></trkpt><trkpt lat="44.964387824758575" lon="9.252789545417725"><ele>246.0</ele><time>2026-03-29T15:38:30Z</time></trkpt><trkpt lat="44.964523761601534" lon="9.25281544153198"><ele>245.0</ele><time>2026-03-29T15:38:31Z</time></trkpt><trkpt lat="44.96465506695648" lon="9.252840702790152"><ele>244.0</ele><time>2026-03-29T15:38:32Z</time></trkpt><trkpt lat="44.964778633607395" lon="9.252879906612323"><ele>244.0</ele><time>2026-03-29T15:38:33Z</time></trkpt><trkpt lat="44.96489258937222" lon="9.252946764689149"><ele>244.0</ele><time>2026-03-29T15:38:34Z</time></trkpt><trkpt lat="44.96501149613873" lon="9.253006960670433"><ele>244.0</ele><time>2026-03-29T15:38:35Z</time></trkpt><trkpt lat="44.965128427357236" lon="9.253073199119093"><ele>244.0</ele><time>2026-03-29T15:38:36Z</time></trkpt><trkpt lat="44.96524457580561" lon="9.253137147328962"><ele>244.75</ele><time>2026-03-29T15:38:37Z</time></trkpt><trkpt lat="44.96536257119445" lon="9.253178623126953"><ele>245.5</ele><time>2026-03-29T15:38:38Z</time></trkpt><trkpt lat="44.96548919700489" lon="9.253181224266758"><ele>246.25</ele><time>2026-03-29T15:38:39Z</time></trkpt><trkpt lat="44.96561776601668" lon="9.253141644237006"><ele>247.0</ele><time>2026-03-29T15:38:40Z</time></trkpt><trkpt lat="44.96574608149108" lon="9.253116445762702"><ele>245.0</ele><time>2026-03-29T15:38:41Z</time></trkpt><trkpt lat="44.96587593936925" lon="9.253106049860023"><ele>243.0</ele><time>2026-03-29T15:38:42Z</time></trkpt><trkpt lat="44.9659943884717" lon="9.253113908631551"><ele>241.0</ele><time>2026-03-29T15:38:43Z</time></trkpt><trkpt lat="44.96610837224914" lon="9.253140850964867"><ele>239.0</ele><time>2026-03-29T15:38:44Z</time></trkpt><trkpt lat="44.966216116802336" lon="9.253203107325795"><ele>239.0</ele><time>2026-03-29T15:38:45Z</time></trkpt><trkpt lat="44.966313824977355" lon="9.25329267583817"><ele>239.0</ele><time>2026-03-29T15:38:46Z</time></trkpt><trkpt lat="44.9664118251501" lon="9.253392125333608"><ele>239.0</ele><time>2026-03-29T15:38:47Z</time></trkpt><trkpt lat="44.96651919087957" lon="9.25346981190679"><ele>239.0</ele><time>2026-03-29T15:38:48Z</time></trkpt><trkpt lat="44.96665025596711" lon="9.253503039691548"><ele>236.75</ele><time>2026-03-29T15:38:49Z</time></trkpt><trkpt lat="44.96679133077217" lon="9.253526581147701"><ele>234.5</ele><time>2026-03-29T15:38:49.999Z</time></trkpt><trkpt lat="44.9669307090899" lon="9.25354735653219"><ele>232.25</ele><time>2026-03-29T15:38:50.999Z</time></trkpt><trkpt lat="44.96706995024846" lon="9.253573201913337"><ele>230.0</ele><time>2026-03-29T15:38:51.999Z</time></trkpt><trkpt lat="44.967203813715024" lon="9.253609470196025"><ele>230.0</ele><time>2026-03-29T15:38:52.999Z</time></trkpt><trkpt lat="44.967325549124524" lon="9.253671158361602"><ele>230.0</ele><time>2026-03-29T15:38:53.999Z</time></trkpt><trkpt lat="44.96744606738901" lon="9.253752389602937"><ele>230.0</ele><time>2026-03-29T15:38:54.999Z</time></trkpt><trkpt lat="44.96756251608347" lon="9.253837384906701"><ele>230.0</ele><time>2026-03-29T15:38:55.999Z</time></trkpt><trkpt lat="44.96768513625901" lon="9.253917753540023"><ele>230.25</ele><time>2026-03-29T15:38:56.999Z</time></trkpt><trkpt lat="44.96781065980194" lon="9.25398792112687"><ele>230.5</ele><time>2026-03-29T15:38:57.999Z</time></trkpt><trkpt lat="44.96794058954583" lon="9.25404984976461"><ele>230.75</ele><time>2026-03-29T15:38:58.999Z</time></trkpt><trkpt lat="44.968068519235125" lon="9.254112139749173"><ele>231.0</ele><time>2026-03-29T15:38:59.999Z</time></trkpt><trkpt lat="44.96818087734175" lon="9.254165411483825"><ele>231.0</ele><time>2026-03-29T15:39:00.999Z</time></trkpt><trkpt lat="44.96828428455331" lon="9.25421345880182"><ele>231.00000000000003</ele><time>2026-03-29T15:39:01.999Z</time></trkpt><trkpt lat="44.968380453400094" lon="9.25425449425846"><ele>231.00000000000003</ele><time>2026-03-29T15:39:02.999Z</time></trkpt><trkpt lat="44.96848081602296" lon="9.254250746333469"><ele>231.0</ele><time>2026-03-29T15:39:03.999Z</time></trkpt><trkpt lat="44.96858628741198" lon="9.254190919376924"><ele>231.0</ele><time>2026-03-29T15:39:04.999Z</time></trkpt><trkpt lat="44.96869143190513" lon="9.254070594943999"><ele>228.75</ele><time>2026-03-29T15:39:05.999Z</time></trkpt><trkpt lat="44.96881308038116" lon="9.253948311162965"><ele>226.5</ele><time>2026-03-29T15:39:06.999Z</time></trkpt><trkpt lat="44.96893898023823" lon="9.253860903513711"><ele>224.25</ele><time>2026-03-29T15:39:07.999Z</time></trkpt><trkpt lat="44.96908268863316" lon="9.253788871201609"><ele>222.0</ele><time>2026-03-29T15:39:08.999Z</time></trkpt><trkpt lat="44.969235492865494" lon="9.253720770989467"><ele>220.66666666666669</ele><time>2026-03-29T15:39:09.999Z</time></trkpt><trkpt lat="44.969383180543616" lon="9.253656644993207"><ele>219.33333333333334</ele><time>2026-03-29T15:39:10.999Z</time></trkpt><trkpt lat="44.969528460572235" lon="9.253590480735022"><ele>218.0</ele><time>2026-03-29T15:39:11.999Z</time></trkpt><trkpt lat="44.969669682905" lon="9.253526750410057"><ele>218.0</ele><time>2026-03-29T15:39:12.999Z</time></trkpt><trkpt lat="44.96980817411249" lon="9.25346529442923"><ele>218.0</ele><time>2026-03-29T15:39:13.999Z</time></trkpt><trkpt lat="44.969944992500444" lon="9.25340184554915"><ele>218.0</ele><time>2026-03-29T15:39:14.999Z</time></trkpt><trkpt lat="44.97008279175855" lon="9.253333676925598"><ele>218.0</ele><time>2026-03-29T15:39:15.999Z</time></trkpt><trkpt lat="44.97022454179283" lon="9.253269494526979"><ele>218.33333333333334</ele><time>2026-03-29T15:39:16.999Z</time></trkpt><trkpt lat="44.97037164084765" lon="9.25320226800058"><ele>218.66666666666669</ele><time>2026-03-29T15:39:17.999Z</time></trkpt><trkpt lat="44.970514553531885" lon="9.253131925054927"><ele>219.0</ele><time>2026-03-29T15:39:18.999Z</time></trkpt><trkpt lat="44.97065357405802" lon="9.253065062455452"><ele>219.0</ele><time>2026-03-29T15:39:19.999Z</time></trkpt><trkpt lat="44.97078899214228" lon="9.253008001829558"><ele>219.0</ele><time>2026-03-29T15:39:20.999Z</time></trkpt><trkpt lat="44.97091936590062" lon="9.25293563015647"><ele>219.0</ele><time>2026-03-29T15:39:21.999Z</time></trkpt><trkpt lat="44.97104126357977" lon="9.252821855547944"><ele>219.0</ele><time>2026-03-29T15:39:22.999Z</time></trkpt><trkpt lat="44.97116477380629" lon="9.252674333849553"><ele>219.0</ele><time>2026-03-29T15:39:23.999Z</time></trkpt><trkpt lat="44.97128164519579" lon="9.252529402194932"><ele>219.0</ele><time>2026-03-29T15:39:24.999Z</time></trkpt><trkpt lat="44.97139603892567" lon="9.25239796168561"><ele>219.0</ele><time>2026-03-29T15:39:25.999Z</time></trkpt><trkpt lat="44.97151206757831" lon="9.252267878082785"><ele>218.5</ele><time>2026-03-29T15:39:26.999Z</time></trkpt><trkpt lat="44.971625273266646" lon="9.252140634516138"><ele>218.0</ele><time>2026-03-29T15:39:27.999Z</time></trkpt><trkpt lat="44.971740694110416" lon="9.252012852110887"><ele>217.5</ele><time>2026-03-29T15:39:28.999Z</time></trkpt><trkpt lat="44.971857485939225" lon="9.251892488000525"><ele>217.0</ele><time>2026-03-29T15:39:29.999Z</time></trkpt><trkpt lat="44.97196963259273" lon="9.25177246031108"><ele>216.25</ele><time>2026-03-29T15:39:30.999Z</time></trkpt><trkpt lat="44.972082037336655" lon="9.251653228706664"><ele>215.5</ele><time>2026-03-29T15:39:31.999Z</time></trkpt><trkpt lat="44.97218767852171" lon="9.251533917918504"><ele>214.75</ele><time>2026-03-29T15:39:32.999Z</time></trkpt><trkpt lat="44.97229146593342" lon="9.2514189481192"><ele>214.0</ele><time>2026-03-29T15:39:34Z</time></trkpt><trkpt lat="44.972386162464694" lon="9.251310546521744"><ele>214.0</ele><time>2026-03-29T15:39:35Z</time></trkpt><trkpt lat="44.97246990969588" lon="9.25121537914948"><ele>213.99999999999997</ele><time>2026-03-29T15:39:36Z</time></trkpt><trkpt lat="44.97255299572317" lon="9.25112108397603"><ele>213.99999999999997</ele><time>2026-03-29T15:39:37Z</time></trkpt><trkpt lat="44.97263131128061" lon="9.251032102529654"><ele>214.0</ele><time>2026-03-29T15:39:38Z</time></trkpt><trkpt lat="44.972705604706526" lon="9.250949801269812"><ele>214.0</ele><time>2026-03-29T15:39:39Z</time></trkpt><trkpt lat="44.972777490162116" lon="9.25086635425054"><ele>214.0</ele><time>2026-03-29T15:39:40Z</time></trkpt><trkpt lat="44.9728487990792" lon="9.250784977836732"><ele>213.99999999999997</ele><time>2026-03-29T15:39:41Z</time></trkpt><trkpt lat="44.97292290056492" lon="9.25070264564249"><ele>213.99999999999997</ele><time>2026-03-29T15:39:42Z</time></trkpt><trkpt lat="44.97299834498248" lon="9.2506194583165"><ele>214.0</ele><time>2026-03-29T15:39:43Z</time></trkpt><trkpt lat="44.97307292948392" lon="9.250535777928844"><ele>214.0</ele><time>2026-03-29T15:39:44Z</time></trkpt><trkpt lat="44.973144592604434" lon="9.250456869699677"><ele>213.83333333333331</ele><time>2026-03-29T15:39:45Z</time></trkpt><trkpt lat="44.97321389440905" lon="9.250379338443773"><ele>213.66666666666666</ele><time>2026-03-29T15:39:46Z</time></trkpt><trkpt lat="44.97328010846146" lon="9.250303360559638"><ele>213.5</ele><time>2026-03-29T15:39:47Z</time></trkpt><trkpt lat="44.97334751814479" lon="9.250226626536485"><ele>213.33333333333331</ele><time>2026-03-29T15:39:48Z</time></trkpt><trkpt lat="44.97341497645892" lon="9.250150003523801"><ele>213.16666666666666</ele><time>2026-03-29T15:39:49Z</time></trkpt><trkpt lat="44.97348353363031" lon="9.250074153442014"><ele>213.0</ele><time>2026-03-29T15:39:50Z</time></trkpt><trkpt lat="44.97355095806061" lon="9.249998372977236"><ele>213.0</ele><time>2026-03-29T15:39:51Z</time></trkpt><trkpt lat="44.97361958830614" lon="9.249922406249881"><ele>213.0</ele><time>2026-03-29T15:39:52Z</time></trkpt><trkpt lat="44.97368861254998" lon="9.249845795360368"><ele>213.0</ele><time>2026-03-29T15:39:53Z</time></trkpt><trkpt lat="44.97375672668989" lon="9.24976658207708"><ele>213.0</ele><time>2026-03-29T15:39:54Z</time></trkpt><trkpt lat="44.97382962930417" lon="9.249673653968806"><ele>213.0</ele><time>2026-03-29T15:39:55Z</time></trkpt><trkpt lat="44.973913808771215" lon="9.249574571974158"><ele>212.8</ele><time>2026-03-29T15:39:56Z</time></trkpt><trkpt lat="44.973996843415385" lon="9.249479148532627"><ele>212.60000000000002</ele><time>2026-03-29T15:39:57Z</time></trkpt><trkpt lat="44.97407840688821" lon="9.249385348157896"><ele>212.39999999999998</ele><time>2026-03-29T15:39:58Z</time></trkpt><trkpt lat="44.974162629284955" lon="9.249291780502908"><ele>212.2</ele><time>2026-03-29T15:39:59Z</time></trkpt><trkpt lat="44.974250045743894" lon="9.249200718679004"><ele>212.0</ele><time>2026-03-29T15:40:00Z</time></trkpt><trkpt lat="44.97434717111929" lon="9.24912174762434"><ele>212.6</ele><time>2026-03-29T15:40:01Z</time></trkpt><trkpt lat="44.97444808568647" lon="9.249056601100403"><ele>213.2</ele><time>2026-03-29T15:40:02Z</time></trkpt><trkpt lat="44.974552584784504" lon="9.24900566105395"><ele>213.8</ele><time>2026-03-29T15:40:03Z</time></trkpt><trkpt lat="44.9746517121996" lon="9.248967653223897"><ele>214.4</ele><time>2026-03-29T15:40:04Z</time></trkpt><trkpt lat="44.9747330689324" lon="9.248939758805772"><ele>215.0</ele><time>2026-03-29T15:40:05Z</time></trkpt><trkpt lat="44.974808655521336" lon="9.248906390524613"><ele>213.4</ele><time>2026-03-29T15:40:06Z</time></trkpt><trkpt lat="44.97486281494029" lon="9.248856028593229"><ele>211.8</ele><time>2026-03-29T15:40:07Z</time></trkpt><trkpt lat="44.974819850402476" lon="9.248719216189123"><ele>210.2</ele><time>2026-03-29T15:40:10Z</time></trkpt><trkpt lat="44.97477962340097" lon="9.248574563488933"><ele>208.6</ele><time>2026-03-29T15:40:11Z</time></trkpt><trkpt lat="44.97468613423201" lon="9.248406870833154"><ele>207.0</ele><time>2026-03-29T15:40:12Z</time></trkpt><trkpt lat="44.97456119307009" lon="9.248293491415252"><ele>207.0</ele><time>2026-03-29T15:40:13Z</time></trkpt><trkpt lat="44.97443113573527" lon="9.248221689620827"><ele>207.0</ele><time>2026-03-29T15:40:14Z</time></trkpt><trkpt lat="44.9743050429653" lon="9.24818248176308"><ele>207.0</ele><time>2026-03-29T15:40:15Z</time></trkpt><trkpt lat="44.97418458691656" lon="9.248170003153081"><ele>207.0</ele><time>2026-03-29T15:40:16Z</time></trkpt><trkpt lat="44.97406488086336" lon="9.248152819591294"><ele>206.75</ele><time>2026-03-29T15:40:17Z</time></trkpt><trkpt lat="44.97398175657409" lon="9.248107609123641"><ele>206.5</ele><time>2026-03-29T15:40:18Z</time></trkpt><trkpt lat="44.97392715172539" lon="9.24799602740903"><ele>206.25</ele><time>2026-03-29T15:40:19Z</time></trkpt><trkpt lat="44.97386563782416" lon="9.247842952173555"><ele>206.0</ele><time>2026-03-29T15:40:20Z</time></trkpt><trkpt lat="44.97380127625738" lon="9.24766048224434"><ele>206.0</ele><time>2026-03-29T15:40:21Z</time></trkpt><trkpt lat="44.973731612498455" lon="9.247469847530207"><ele>206.0</ele><time>2026-03-29T15:40:22Z</time></trkpt><trkpt lat="44.97362397689765" lon="9.247280077606144"><ele>206.0</ele><time>2026-03-29T15:40:23Z</time></trkpt><trkpt lat="44.97350558407805" lon="9.247127679697044"><ele>208.5</ele><time>2026-03-29T15:40:24Z</time></trkpt><trkpt lat="44.97343507550152" lon="9.24699331690384"><ele>211.0</ele><time>2026-03-29T15:40:25Z</time></trkpt><trkpt lat="44.97339725956001" lon="9.24684727927333"><ele>213.5</ele><time>2026-03-29T15:40:26Z</time></trkpt><trkpt lat="44.97336365948578" lon="9.24667279451235"><ele>216.0</ele><time>2026-03-29T15:40:27Z</time></trkpt><trkpt lat="44.973327762462475" lon="9.24648961810344"><ele>217.75</ele><time>2026-03-29T15:40:28Z</time></trkpt><trkpt lat="44.97329271579443" lon="9.246299356114655"><ele>219.5</ele><time>2026-03-29T15:40:29Z</time></trkpt><trkpt lat="44.973254782001426" lon="9.246097033048011"><ele>221.25</ele><time>2026-03-29T15:40:30Z</time></trkpt><trkpt lat="44.97319907813682" lon="9.245910258446134"><ele>223.0</ele><time>2026-03-29T15:40:31Z</time></trkpt><trkpt lat="44.97317680795164" lon="9.24576576751376"><ele>224.5</ele><time>2026-03-29T15:40:32Z</time></trkpt><trkpt lat="44.97316053436182" lon="9.245611272111532"><ele>226.0</ele><time>2026-03-29T15:40:33Z</time></trkpt><trkpt lat="44.973193018799634" lon="9.245455319196806"><ele>227.5</ele><time>2026-03-29T15:40:34Z</time></trkpt><trkpt lat="44.97326660249862" lon="9.245292704040512"><ele>229.0</ele><time>2026-03-29T15:40:35Z</time></trkpt><trkpt lat="44.97336251644019" lon="9.24514568557949"><ele>231.75</ele><time>2026-03-29T15:40:36Z</time></trkpt><trkpt lat="44.97340858138488" lon="9.244973303985326"><ele>234.5</ele><time>2026-03-29T15:40:37Z</time></trkpt><trkpt lat="44.97340468474906" lon="9.244768425322938"><ele>237.25</ele><time>2026-03-29T15:40:38Z</time></trkpt><trkpt lat="44.97339025561254" lon="9.244551328789766"><ele>240.0</ele><time>2026-03-29T15:40:39Z</time></trkpt><trkpt lat="44.973377858706094" lon="9.244325274372256"><ele>241.33333333333331</ele><time>2026-03-29T15:40:40Z</time></trkpt><trkpt lat="44.973384919739544" lon="9.244087916400016"><ele>242.66666666666666</ele><time>2026-03-29T15:40:41Z</time></trkpt><trkpt lat="44.97342511894573" lon="9.243888244397064"><ele>244.0</ele><time>2026-03-29T15:40:42Z</time></trkpt><trkpt lat="44.97351400176898" lon="9.24371810838488"><ele>246.66666666666666</ele><time>2026-03-29T15:40:43Z</time></trkpt><trkpt lat="44.97362020012704" lon="9.243564708302282"><ele>249.33333333333331</ele><time>2026-03-29T15:40:44Z</time></trkpt><trkpt lat="44.9737209261309" lon="9.243400810612245"><ele>252.0</ele><time>2026-03-29T15:40:45Z</time></trkpt><trkpt lat="44.97380747545758" lon="9.243217990653596"><ele>254.0</ele><time>2026-03-29T15:40:46Z</time></trkpt><trkpt lat="44.97389316568747" lon="9.243027193642023"><ele>256.0</ele><time>2026-03-29T15:40:47Z</time></trkpt><trkpt lat="44.973979370889445" lon="9.242828720873975"><ele>258.0</ele><time>2026-03-29T15:40:48Z</time></trkpt><trkpt lat="44.97407319708343" lon="9.24263681302085"><ele>258.0</ele><time>2026-03-29T15:40:49Z</time></trkpt><trkpt lat="44.97416728592176" lon="9.242454309009865"><ele>258.0</ele><time>2026-03-29T15:40:50Z</time></trkpt><trkpt lat="44.974238964182014" lon="9.242278936520284"><ele>258.0</ele><time>2026-03-29T15:40:51Z</time></trkpt><trkpt lat="44.974304126090836" lon="9.242075427251889"><ele>261.6</ele><time>2026-03-29T15:40:52Z</time></trkpt><trkpt lat="44.97435721661384" lon="9.241857611004669"><ele>265.20000000000005</ele><time>2026-03-29T15:40:53Z</time></trkpt><trkpt lat="44.97440259646729" lon="9.24170848092128"><ele>268.8</ele><time>2026-03-29T15:40:54Z</time></trkpt><trkpt lat="44.974466109783215" lon="9.241625133566508"><ele>272.40000000000003</ele><time>2026-03-29T15:40:55Z</time></trkpt><trkpt lat="44.97453183889043" lon="9.241602600734273"><ele>276.0</ele><time>2026-03-29T15:40:56Z</time></trkpt><trkpt lat="44.97462306016404" lon="9.241630122170099"><ele>276.0</ele><time>2026-03-29T15:40:57Z</time></trkpt><trkpt lat="44.97473207101205" lon="9.241682141808415"><ele>276.0</ele><time>2026-03-29T15:40:58Z</time></trkpt><trkpt lat="44.97485579450308" lon="9.241723842781068"><ele>276.0</ele><time>2026-03-29T15:40:58.999Z</time></trkpt><trkpt lat="44.974988554570736" lon="9.24177080655154"><ele>276.0</ele><time>2026-03-29T15:40:59.999Z</time></trkpt><trkpt lat="44.97509063419553" lon="9.241831923235887"><ele>278.5</ele><time>2026-03-29T15:41:00.999Z</time></trkpt><trkpt lat="44.97517315385712" lon="9.241952624372653"><ele>281.0</ele><time>2026-03-29T15:41:01.999Z</time></trkpt><trkpt lat="44.97524111076196" lon="9.242133880305753"><ele>283.5</ele><time>2026-03-29T15:41:02.999Z</time></trkpt><trkpt lat="44.97529050627718" lon="9.242319638845094"><ele>286.0</ele><time>2026-03-29T15:41:03.999Z</time></trkpt><trkpt lat="44.975341296774936" lon="9.242496915036456"><ele>286.0</ele><time>2026-03-29T15:41:04.999Z</time></trkpt><trkpt lat="44.97539610269385" lon="9.24261522469901"><ele>286.0</ele><time>2026-03-29T15:41:05.999Z</time></trkpt><trkpt lat="44.975462098194434" lon="9.242700145515222"><ele>286.0</ele><time>2026-03-29T15:41:06.999Z</time></trkpt><trkpt lat="44.975527018811675" lon="9.242735514595395"><ele>286.0</ele><time>2026-03-29T15:41:07.999Z</time></trkpt><trkpt lat="44.97560568923201" lon="9.242725793724293"><ele>286.0</ele><time>2026-03-29T15:41:08.999Z</time></trkpt><trkpt lat="44.97568942826158" lon="9.242671406738104"><ele>286.0</ele><time>2026-03-29T15:41:09.999Z</time></trkpt><trkpt lat="44.97577651014064" lon="9.242591996884704"><ele>286.0</ele><time>2026-03-29T15:41:10.999Z</time></trkpt><trkpt lat="44.97584607095648" lon="9.242522274788403"><ele>286.0</ele><time>2026-03-29T15:41:11.999Z</time></trkpt><trkpt lat="44.975888755548375" lon="9.242427401088573"><ele>286.0</ele><time>2026-03-29T15:41:12.999Z</time></trkpt><trkpt lat="44.97591525150333" lon="9.24229023085749"><ele>286.0</ele><time>2026-03-29T15:41:13.999Z</time></trkpt><trkpt lat="44.97593078123362" lon="9.242117083787466"><ele>286.0</ele><time>2026-03-29T15:41:14.999Z</time></trkpt><trkpt lat="44.97596658015754" lon="9.24193212046498"><ele>285.75</ele><time>2026-03-29T15:41:15.999Z</time></trkpt><trkpt lat="44.97598867930387" lon="9.241745301892031"><ele>285.5</ele><time>2026-03-29T15:41:16.999Z</time></trkpt><trkpt lat="44.975999941002044" lon="9.241529588146648"><ele>285.25</ele><time>2026-03-29T15:41:17.999Z</time></trkpt><trkpt lat="44.97602056254562" lon="9.241317374167775"><ele>285.0</ele><time>2026-03-29T15:41:18.999Z</time></trkpt><trkpt lat="44.976017935847594" lon="9.241118085894593"><ele>285.0</ele><time>2026-03-29T15:41:19.999Z</time></trkpt><trkpt lat="44.975980827527536" lon="9.240908114341188"><ele>285.0</ele><time>2026-03-29T15:41:20.999Z</time></trkpt><trkpt lat="44.97593931119662" lon="9.240679273754115"><ele>285.0</ele><time>2026-03-29T15:41:21.999Z</time></trkpt><trkpt lat="44.975875928509566" lon="9.240469339653862"><ele>289.6666666666667</ele><time>2026-03-29T15:41:22.999Z</time></trkpt><trkpt lat="44.97580318149655" lon="9.240295064454182"><ele>294.33333333333337</ele><time>2026-03-29T15:41:23.999Z</time></trkpt><trkpt lat="44.97570471870764" lon="9.240121357672361"><ele>299.0</ele><time>2026-03-29T15:41:24.999Z</time></trkpt><trkpt lat="44.97561325931248" lon="9.23992667645067"><ele>301.0</ele><time>2026-03-29T15:41:25.999Z</time></trkpt><trkpt lat="44.97555135111487" lon="9.239729374946055"><ele>303.0</ele><time>2026-03-29T15:41:26.999Z</time></trkpt><trkpt lat="44.97552767982044" lon="9.239516515371394"><ele>305.0</ele><time>2026-03-29T15:41:27.999Z</time></trkpt><trkpt lat="44.9755325463065" lon="9.239271090388298"><ele>305.0</ele><time>2026-03-29T15:41:28.999Z</time></trkpt><trkpt lat="44.97556380964604" lon="9.239018131129168"><ele>305.0</ele><time>2026-03-29T15:41:29.999Z</time></trkpt><trkpt lat="44.97559011384468" lon="9.23880325309902"><ele>305.0</ele><time>2026-03-29T15:41:30.999Z</time></trkpt><trkpt lat="44.97562731980205" lon="9.238653047202389"><ele>305.0</ele><time>2026-03-29T15:41:31.999Z</time></trkpt><trkpt lat="44.97566513925714" lon="9.23855030545197"><ele>306.2</ele><time>2026-03-29T15:41:32.999Z</time></trkpt><trkpt lat="44.97572019725946" lon="9.238420216548072"><ele>307.4</ele><time>2026-03-29T15:41:34.999Z</time></trkpt><trkpt lat="44.97579108129628" lon="9.238269287252702"><ele>308.6</ele><time>2026-03-29T15:41:36.999Z</time></trkpt><trkpt lat="44.97583663705674" lon="9.238185596555786"><ele>309.8</ele><time>2026-03-29T15:41:37.999Z</time></trkpt><trkpt lat="44.975898109908144" lon="9.238091075083908"><ele>311.0</ele><time>2026-03-29T15:41:38.999Z</time></trkpt><trkpt lat="44.97597112517609" lon="9.237979623541365"><ele>315.75</ele><time>2026-03-29T15:41:40Z</time></trkpt><trkpt lat="44.976050727187356" lon="9.237849321201306"><ele>320.5</ele><time>2026-03-29T15:41:41Z</time></trkpt><trkpt lat="44.976137350172785" lon="9.237710110310273"><ele>325.25</ele><time>2026-03-29T15:41:42Z</time></trkpt><trkpt lat="44.9762179335383" lon="9.237562053586238"><ele>330.0</ele><time>2026-03-29T15:41:43Z</time></trkpt><trkpt lat="44.97630157740991" lon="9.237418389186011"><ele>331.5</ele><time>2026-03-29T15:41:44Z</time></trkpt><trkpt lat="44.97639363825087" lon="9.237272425950014"><ele>333.0</ele><time>2026-03-29T15:41:45Z</time></trkpt><trkpt lat="44.97648476922282" lon="9.237125583536606"><ele>334.5</ele><time>2026-03-29T15:41:46Z</time></trkpt><trkpt lat="44.97656878827668" lon="9.236987372310194"><ele>336.0</ele><time>2026-03-29T15:41:47Z</time></trkpt><trkpt lat="44.97664567299877" lon="9.236861812954963"><ele>338.4</ele><time>2026-03-29T15:41:48Z</time></trkpt><trkpt lat="44.976715747691586" lon="9.236747010745404"><ele>340.8</ele><time>2026-03-29T15:41:49Z</time></trkpt><trkpt lat="44.97678569064754" lon="9.236632495945244"><ele>343.2</ele><time>2026-03-29T15:41:50Z</time></trkpt><trkpt lat="44.97685751436656" lon="9.236517243450113"><ele>345.59999999999997</ele><time>2026-03-29T15:41:51Z</time></trkpt><trkpt lat="44.97692932540388" lon="9.23639859298605"><ele>348.0</ele><time>2026-03-29T15:41:52Z</time></trkpt><trkpt lat="44.97700308496939" lon="9.236275568755973"><ele>348.4</ele><time>2026-03-29T15:41:53Z</time></trkpt><trkpt lat="44.97708031481247" lon="9.236149509986138"><ele>348.79999999999995</ele><time>2026-03-29T15:41:54Z</time></trkpt><trkpt lat="44.97716019834618" lon="9.236018069386025"><ele>349.2</ele><time>2026-03-29T15:41:55Z</time></trkpt><trkpt lat="44.97723087851582" lon="9.23590211400902"><ele>349.6</ele><time>2026-03-29T15:41:56Z</time></trkpt><trkpt lat="44.97727335779396" lon="9.235833472834273"><ele>350.0</ele><time>2026-03-29T15:41:57Z</time></trkpt><trkpt lat="44.977323393562294" lon="9.235717791619791"><ele>349.0</ele><time>2026-03-29T15:42:00Z</time></trkpt><trkpt lat="44.97732362675943" lon="9.23562319232554"><ele>348.0</ele><time>2026-03-29T15:42:01Z</time></trkpt><trkpt lat="44.977256996207934" lon="9.235494412037635"><ele>347.0</ele><time>2026-03-29T15:42:02Z</time></trkpt><trkpt lat="44.97717601946567" lon="9.23540231120015"><ele>346.0</ele><time>2026-03-29T15:42:03Z</time></trkpt><trkpt lat="44.9770821076551" lon="9.235289537694058"><ele>345.0</ele><time>2026-03-29T15:42:04Z</time></trkpt><trkpt lat="44.976986025899706" lon="9.235153192928337"><ele>345.0</ele><time>2026-03-29T15:42:05Z</time></trkpt><trkpt lat="44.97689422068617" lon="9.235008932024197"><ele>345.0</ele><time>2026-03-29T15:42:06Z</time></trkpt><trkpt lat="44.9767953341978" lon="9.234836786704328"><ele>345.0</ele><time>2026-03-29T15:42:07Z</time></trkpt><trkpt lat="44.976690640133285" lon="9.234643448658023"><ele>347.0</ele><time>2026-03-29T15:42:08Z</time></trkpt><trkpt lat="44.97658115046115" lon="9.234435183703416"><ele>349.0</ele><time>2026-03-29T15:42:09Z</time></trkpt><trkpt lat="44.97646675417098" lon="9.23421758517781"><ele>351.0</ele><time>2026-03-29T15:42:10Z</time></trkpt><trkpt lat="44.97636146667835" lon="9.234020642800896"><ele>349.5</ele><time>2026-03-29T15:42:11Z</time></trkpt><trkpt lat="44.97625750944617" lon="9.23387424851548"><ele>348.0</ele><time>2026-03-29T15:42:12Z</time></trkpt><trkpt lat="44.976163321978525" lon="9.233728023232395"><ele>346.5</ele><time>2026-03-29T15:42:13Z</time></trkpt><trkpt lat="44.97602527495784" lon="9.233630420803895"><ele>345.0</ele><time>2026-03-29T15:42:14Z</time></trkpt><trkpt lat="44.97587160006176" lon="9.23355444632036"><ele>348.0</ele><time>2026-03-29T15:42:15Z</time></trkpt><trkpt lat="44.97575202477616" lon="9.233497756920384"><ele>351.0</ele><time>2026-03-29T15:42:16Z</time></trkpt><trkpt lat="44.97567744509063" lon="9.233393125907222"><ele>354.0</ele><time>2026-03-29T15:42:17Z</time></trkpt><trkpt lat="44.97560208792295" lon="9.233239242451853"><ele>357.0</ele><time>2026-03-29T15:42:18Z</time></trkpt><trkpt lat="44.97552753591435" lon="9.233068315126882"><ele>357.0</ele><time>2026-03-29T15:42:19Z</time></trkpt><trkpt lat="44.97545827872455" lon="9.23287975353767"><ele>357.0</ele><time>2026-03-29T15:42:20Z</time></trkpt><trkpt lat="44.97541084687447" lon="9.232670229005429"><ele>357.0</ele><time>2026-03-29T15:42:21Z</time></trkpt><trkpt lat="44.97537435430184" lon="9.232464269648833"><ele>357.5</ele><time>2026-03-29T15:42:22Z</time></trkpt><trkpt lat="44.97537139488985" lon="9.23226872233228"><ele>358.0</ele><time>2026-03-29T15:42:23Z</time></trkpt><trkpt lat="44.975422515330884" lon="9.232097650875192"><ele>358.5</ele><time>2026-03-29T15:42:24Z</time></trkpt><trkpt lat="44.97546471731571" lon="9.23192783622351"><ele>359.0</ele><time>2026-03-29T15:42:25Z</time></trkpt><trkpt lat="44.975488418564495" lon="9.23175350900561"><ele>359.0</ele><time>2026-03-29T15:42:26Z</time></trkpt><trkpt lat="44.975520322315475" lon="9.231548553189212"><ele>359.0</ele><time>2026-03-29T15:42:27Z</time></trkpt><trkpt lat="44.97555399991181" lon="9.231318176474746"><ele>359.0</ele><time>2026-03-29T15:42:28Z</time></trkpt><trkpt lat="44.97560371986238" lon="9.231066327742997"><ele>359.33333333333337</ele><time>2026-03-29T15:42:29Z</time></trkpt><trkpt lat="44.975646688148025" lon="9.230784850107046"><ele>359.6666666666667</ele><time>2026-03-29T15:42:30Z</time></trkpt><trkpt lat="44.97568764788146" lon="9.230479647343268"><ele>360.0</ele><time>2026-03-29T15:42:31Z</time></trkpt><trkpt lat="44.975702055491254" lon="9.23017083564041"><ele>361.25</ele><time>2026-03-29T15:42:32Z</time></trkpt><trkpt lat="44.975707431771724" lon="9.229904743860555"><ele>362.5</ele><time>2026-03-29T15:42:33Z</time></trkpt><trkpt lat="44.975713446656904" lon="9.229704189280238"><ele>363.75</ele><time>2026-03-29T15:42:34Z</time></trkpt><trkpt lat="44.9757133246802" lon="9.229547586159738"><ele>365.0</ele><time>2026-03-29T15:42:35Z</time></trkpt><trkpt lat="44.975689106221125" lon="9.229408780587123"><ele>365.5</ele><time>2026-03-29T15:42:36Z</time></trkpt><trkpt lat="44.97565812441752" lon="9.229261484772325"><ele>366.0</ele><time>2026-03-29T15:42:37Z</time></trkpt><trkpt lat="44.975620515037946" lon="9.229091389870035"><ele>366.5</ele><time>2026-03-29T15:42:38Z</time></trkpt><trkpt lat="44.97558760116459" lon="9.228890310221086"><ele>367.0</ele><time>2026-03-29T15:42:39Z</time></trkpt><trkpt lat="44.97555743197581" lon="9.228660969811441"><ele>367.75</ele><time>2026-03-29T15:42:40Z</time></trkpt><trkpt lat="44.97553537340995" lon="9.228414073785718"><ele>368.5</ele><time>2026-03-29T15:42:41Z</time></trkpt><trkpt lat="44.975523314009806" lon="9.228211950730962"><ele>369.25</ele><time>2026-03-29T15:42:42Z</time></trkpt><trkpt lat="44.975519271176516" lon="9.228048606625423"><ele>370.0</ele><time>2026-03-29T15:42:43Z</time></trkpt><trkpt lat="44.975555978382445" lon="9.227936416572499"><ele>371.75</ele><time>2026-03-29T15:42:44Z</time></trkpt><trkpt lat="44.975642135697896" lon="9.22781030224945"><ele>373.5</ele><time>2026-03-29T15:42:45Z</time></trkpt><trkpt lat="44.97572799966135" lon="9.227658163810183"><ele>375.25</ele><time>2026-03-29T15:42:46Z</time></trkpt><trkpt lat="44.97577553765132" lon="9.227518138341443"><ele>377.0</ele><time>2026-03-29T15:42:47Z</time></trkpt><trkpt lat="44.975810591025024" lon="9.227344746690653"><ele>379.0</ele><time>2026-03-29T15:42:48Z</time></trkpt><trkpt lat="44.975838082130494" lon="9.22714590457852"><ele>381.0</ele><time>2026-03-29T15:42:49Z</time></trkpt><trkpt lat="44.97586838842577" lon="9.22693392948274"><ele>383.0</ele><time>2026-03-29T15:42:50Z</time></trkpt><trkpt lat="44.9759061228161" lon="9.22670504892972"><ele>380.33333333333337</ele><time>2026-03-29T15:42:51Z</time></trkpt><trkpt lat="44.97594552893681" lon="9.22646203791693"><ele>377.6666666666667</ele><time>2026-03-29T15:42:52Z</time></trkpt><trkpt lat="44.97596539272928" lon="9.226202086313531"><ele>375.0</ele><time>2026-03-29T15:42:53Z</time></trkpt><trkpt lat="44.97595742604979" lon="9.225974779267139"><ele>375.0</ele><time>2026-03-29T15:42:54Z</time></trkpt><trkpt lat="44.97594982314667" lon="9.22573025710905"><ele>375.0</ele><time>2026-03-29T15:42:55Z</time></trkpt><trkpt lat="44.97595390882751" lon="9.225463044499326"><ele>375.0</ele><time>2026-03-29T15:42:56Z</time></trkpt><trkpt lat="44.975955897562024" lon="9.225180914586304"><ele>378.66666666666663</ele><time>2026-03-29T15:42:57Z</time></trkpt><trkpt lat="44.975952505585234" lon="9.22492116277015"><ele>382.3333333333333</ele><time>2026-03-29T15:42:57.999Z</time></trkpt><trkpt lat="44.97598915240782" lon="9.224713497667718"><ele>386.0</ele><time>2026-03-29T15:42:58.999Z</time></trkpt><trkpt lat="44.97604901845988" lon="9.22449597504859"><ele>388.0</ele><time>2026-03-29T15:42:59.999Z</time></trkpt><trkpt lat="44.9761422594862" lon="9.224295174713282"><ele>390.0</ele><time>2026-03-29T15:43:00.999Z</time></trkpt><trkpt lat="44.976203476610614" lon="9.224117925787883"><ele>392.0</ele><time>2026-03-29T15:43:01.999Z</time></trkpt><trkpt lat="44.976243662271834" lon="9.223941373607541"><ele>394.0</ele><time>2026-03-29T15:43:02.999Z</time></trkpt><trkpt lat="44.97627886695894" lon="9.223743556119574"><ele>396.0</ele><time>2026-03-29T15:43:03.999Z</time></trkpt><trkpt lat="44.97632335488421" lon="9.223534718795584"><ele>398.0</ele><time>2026-03-29T15:43:04.999Z</time></trkpt><trkpt lat="44.976384572471034" lon="9.223367564944587"><ele>400.0</ele><time>2026-03-29T15:43:05.999Z</time></trkpt><trkpt lat="44.976427701139016" lon="9.223261414957767"><ele>402.0</ele><time>2026-03-29T15:43:06.999Z</time></trkpt><trkpt lat="44.97646802580778" lon="9.223117636784467"><ele>401.25</ele><time>2026-03-29T15:43:07.999Z</time></trkpt><trkpt lat="44.976525268754436" lon="9.222960781065314"><ele>400.5</ele><time>2026-03-29T15:43:08.999Z</time></trkpt><trkpt lat="44.976594588296926" lon="9.222788098698754"><ele>399.75</ele><time>2026-03-29T15:43:09.999Z</time></trkpt><trkpt lat="44.976667599817944" lon="9.22262385647859"><ele>399.0</ele><time>2026-03-29T15:43:10.999Z</time></trkpt><trkpt lat="44.976736278612805" lon="9.222492108865293"><ele>399.0</ele><time>2026-03-29T15:43:11.999Z</time></trkpt><trkpt lat="44.976788231457974" lon="9.22239668602706"><ele>399.0</ele><time>2026-03-29T15:43:12.999Z</time></trkpt><trkpt lat="44.97684988498525" lon="9.222291885783779"><ele>399.0</ele><time>2026-03-29T15:43:14.999Z</time></trkpt><trkpt lat="44.97690295940247" lon="9.222154286526388"><ele>399.0</ele><time>2026-03-29T15:43:17.999Z</time></trkpt><trkpt lat="44.97689563030137" lon="9.22202932308588"><ele>399.0</ele><time>2026-03-29T15:43:18.999Z</time></trkpt><trkpt lat="44.97689660888115" lon="9.22188315598253"><ele>397.75</ele><time>2026-03-29T15:43:19.999Z</time></trkpt><trkpt lat="44.976897621436876" lon="9.221704389295219"><ele>396.5</ele><time>2026-03-29T15:43:20.999Z</time></trkpt><trkpt lat="44.97689728081322" lon="9.221515382324208"><ele>395.25</ele><time>2026-03-29T15:43:21.999Z</time></trkpt><trkpt lat="44.97689397409674" lon="9.221295567021281"><ele>394.0</ele><time>2026-03-29T15:43:22.999Z</time></trkpt><trkpt lat="44.97689080345315" lon="9.22106349653565"><ele>393.6666666666667</ele><time>2026-03-29T15:43:23.999Z</time></trkpt><trkpt lat="44.976886221125156" lon="9.220841067077805"><ele>393.33333333333337</ele><time>2026-03-29T15:43:24.999Z</time></trkpt><trkpt lat="44.976879770576325" lon="9.22062230505501"><ele>393.0</ele><time>2026-03-29T15:43:25.999Z</time></trkpt><trkpt lat="44.976879114273665" lon="9.220412854694473"><ele>392.5</ele><time>2026-03-29T15:43:26.999Z</time></trkpt><trkpt lat="44.9768718606414" lon="9.22020530986881"><ele>392.0</ele><time>2026-03-29T15:43:27.999Z</time></trkpt><trkpt lat="44.976867613882604" lon="9.220009939954734"><ele>391.5</ele><time>2026-03-29T15:43:28.999Z</time></trkpt><trkpt lat="44.97686450055935" lon="9.219823445248899"><ele>391.0</ele><time>2026-03-29T15:43:29.999Z</time></trkpt><trkpt lat="44.976861302527624" lon="9.219636182121015"><ele>390.5</ele><time>2026-03-29T15:43:30.999Z</time></trkpt><trkpt lat="44.97685363023105" lon="9.219450116786573"><ele>390.0</ele><time>2026-03-29T15:43:31.999Z</time></trkpt><trkpt lat="44.97684843282557" lon="9.21926381178438"><ele>389.5</ele><time>2026-03-29T15:43:32.999Z</time></trkpt><trkpt lat="44.97684588074961" lon="9.2190803721935"><ele>389.0</ele><time>2026-03-29T15:43:33.999Z</time></trkpt><trkpt lat="44.976846619953115" lon="9.218900785394215"><ele>388.75</ele><time>2026-03-29T15:43:34.999Z</time></trkpt><trkpt lat="44.976858709836264" lon="9.218718535362475"><ele>388.5</ele><time>2026-03-29T15:43:35.999Z</time></trkpt><trkpt lat="44.976886126392394" lon="9.218527100354486"><ele>388.25</ele><time>2026-03-29T15:43:36.999Z</time></trkpt><trkpt lat="44.97692676676937" lon="9.218327563914738"><ele>388.0</ele><time>2026-03-29T15:43:37.999Z</time></trkpt><trkpt lat="44.9769684383203" lon="9.218131773699307"><ele>387.75</ele><time>2026-03-29T15:43:38.999Z</time></trkpt><trkpt lat="44.977006751001866" lon="9.217938852569027"><ele>387.5</ele><time>2026-03-29T15:43:39.999Z</time></trkpt><trkpt lat="44.977045157188826" lon="9.217752006252445"><ele>387.25</ele><time>2026-03-29T15:43:40.999Z</time></trkpt><trkpt lat="44.97708140186748" lon="9.217568356096754"><ele>387.0</ele><time>2026-03-29T15:43:41.999Z</time></trkpt><trkpt lat="44.97711435733493" lon="9.217383474408724"><ele>386.5</ele><time>2026-03-29T15:43:42.999Z</time></trkpt><trkpt lat="44.9771512618381" lon="9.21720059695233"><ele>386.0</ele><time>2026-03-29T15:43:43.999Z</time></trkpt><trkpt lat="44.97719999900268" lon="9.217013636230407"><ele>385.5</ele><time>2026-03-29T15:43:44.999Z</time></trkpt><trkpt lat="44.97726892634672" lon="9.216820910291538"><ele>385.0</ele><time>2026-03-29T15:43:46Z</time></trkpt><trkpt lat="44.977351393259305" lon="9.216614840475954"><ele>385.33333333333337</ele><time>2026-03-29T15:43:47Z</time></trkpt><trkpt lat="44.9774440180663" lon="9.216416669688266"><ele>385.66666666666663</ele><time>2026-03-29T15:43:48Z</time></trkpt><trkpt lat="44.97753788556045" lon="9.2162281448166"><ele>386.0</ele><time>2026-03-29T15:43:49Z</time></trkpt><trkpt lat="44.977629297897636" lon="9.216042648313984"><ele>385.3333333333333</ele><time>2026-03-29T15:43:50Z</time></trkpt><trkpt lat="44.97772140456511" lon="9.215867390037065"><ele>384.66666666666663</ele><time>2026-03-29T15:43:51Z</time></trkpt><trkpt lat="44.97780651820986" lon="9.215689443705703"><ele>384.0</ele><time>2026-03-29T15:43:52Z</time></trkpt><trkpt lat="44.9778871344425" lon="9.21551126657046"><ele>384.0</ele><time>2026-03-29T15:43:53Z</time></trkpt><trkpt lat="44.977964935747835" lon="9.215334030226542"><ele>384.0</ele><time>2026-03-29T15:43:54Z</time></trkpt><trkpt lat="44.97804208783186" lon="9.215162818200238"><ele>384.0</ele><time>2026-03-29T15:43:55Z</time></trkpt><trkpt lat="44.97811899165265" lon="9.214996550808737"><ele>384.0</ele><time>2026-03-29T15:43:56Z</time></trkpt><trkpt lat="44.97818526561265" lon="9.214827676720194"><ele>384.75</ele><time>2026-03-29T15:43:57Z</time></trkpt><trkpt lat="44.97824230829997" lon="9.214650584724438"><ele>385.5</ele><time>2026-03-29T15:43:58Z</time></trkpt><trkpt lat="44.97828420271794" lon="9.214462306905148"><ele>386.25</ele><time>2026-03-29T15:43:59Z</time></trkpt><trkpt lat="44.97831314303568" lon="9.214280842015299"><ele>387.0</ele><time>2026-03-29T15:44:00Z</time></trkpt><trkpt lat="44.97832923738869" lon="9.214128020377512"><ele>387.0</ele><time>2026-03-29T15:44:01Z</time></trkpt><trkpt lat="44.97833325084083" lon="9.213993517218306"><ele>387.0</ele><time>2026-03-29T15:44:02Z</time></trkpt><trkpt lat="44.97834085976093" lon="9.21387952473326"><ele>387.0</ele><time>2026-03-29T15:44:03Z</time></trkpt><trkpt lat="44.97834781930039" lon="9.213772554237808"><ele>387.0</ele><time>2026-03-29T15:44:05Z</time></trkpt><trkpt lat="44.97838392469143" lon="9.213661735496533"><ele>387.0</ele><time>2026-03-29T15:44:17Z</time></trkpt><trkpt lat="44.978388497194125" lon="9.21352661663482"><ele>387.0</ele><time>2026-03-29T15:44:19Z</time></trkpt><trkpt lat="44.97835860035964" lon="9.213672852522105"><ele>387.0</ele><time>2026-03-29T15:44:29Z</time></trkpt><trkpt lat="44.978350785674785" lon="9.213775915014638"><ele>387.0</ele><time>2026-03-29T15:44:30Z</time></trkpt><trkpt lat="44.97831798005476" lon="9.213903166869391"><ele>387.0</ele><time>2026-03-29T15:44:31Z</time></trkpt><trkpt lat="44.97831233322856" lon="9.214024831167187"><ele>387.0</ele><time>2026-03-29T15:44:32Z</time></trkpt><trkpt lat="44.978304718511666" lon="9.214143802782887"><ele>387.0</ele><time>2026-03-29T15:44:33Z</time></trkpt><trkpt lat="44.9782936951428" lon="9.21427216825399"><ele>387.0</ele><time>2026-03-29T15:44:34Z</time></trkpt><trkpt lat="44.97827405828974" lon="9.214408338099238"><ele>387.0</ele><time>2026-03-29T15:44:35Z</time></trkpt><trkpt lat="44.978247508085765" lon="9.214551457174062"><ele>387.0</ele><time>2026-03-29T15:44:36Z</time></trkpt><trkpt lat="44.978207922968224" lon="9.214705789532218"><ele>387.0</ele><time>2026-03-29T15:44:37Z</time></trkpt><trkpt lat="44.97814638872564" lon="9.214875692591816"><ele>387.0</ele><time>2026-03-29T15:44:38Z</time></trkpt><trkpt lat="44.978065631966466" lon="9.215059031858322"><ele>386.0</ele><time>2026-03-29T15:44:39Z</time></trkpt><trkpt lat="44.97797696795954" lon="9.215256975141182"><ele>385.0</ele><time>2026-03-29T15:44:40Z</time></trkpt><trkpt lat="44.97789383611106" lon="9.215446263541214"><ele>384.0</ele><time>2026-03-29T15:44:41Z</time></trkpt><trkpt lat="44.97780542650374" lon="9.2156370564623"><ele>383.0</ele><time>2026-03-29T15:44:42Z</time></trkpt><trkpt lat="44.9777155971038" lon="9.215821267697171"><ele>382.0</ele><time>2026-03-29T15:44:43Z</time></trkpt><trkpt lat="44.97760697878467" lon="9.215976231421022"><ele>381.0</ele><time>2026-03-29T15:44:44Z</time></trkpt><trkpt lat="44.97752665947121" lon="9.216146547535809"><ele>382.0</ele><time>2026-03-29T15:44:45Z</time></trkpt><trkpt lat="44.97745569500369" lon="9.21633162976761"><ele>383.0</ele><time>2026-03-29T15:44:46Z</time></trkpt><trkpt lat="44.9773716185036" lon="9.216509906324886"><ele>384.0</ele><time>2026-03-29T15:44:47Z</time></trkpt><trkpt lat="44.97729223425164" lon="9.216685850564753"><ele>385.0</ele><time>2026-03-29T15:44:48Z</time></trkpt><trkpt lat="44.97722569648967" lon="9.216856859732799"><ele>385.0</ele><time>2026-03-29T15:44:49Z</time></trkpt><trkpt lat="44.977153156336826" lon="9.21701798889209"><ele>385.0</ele><time>2026-03-29T15:44:50Z</time></trkpt><trkpt lat="44.97712573669396" lon="9.21720542200767"><ele>385.0</ele><time>2026-03-29T15:44:51Z</time></trkpt><trkpt lat="44.977079796658685" lon="9.217381910921107"><ele>385.0</ele><time>2026-03-29T15:44:52Z</time></trkpt><trkpt lat="44.977042087253274" lon="9.217561390640286"><ele>385.5</ele><time>2026-03-29T15:44:53Z</time></trkpt><trkpt lat="44.97701234261513" lon="9.21773771405029"><ele>386.0</ele><time>2026-03-29T15:44:54Z</time></trkpt><trkpt lat="44.976980074364725" lon="9.217904858309193"><ele>386.5</ele><time>2026-03-29T15:44:55Z</time></trkpt><trkpt lat="44.976947373766706" lon="9.218064456327776"><ele>387.0</ele><time>2026-03-29T15:44:56Z</time></trkpt><trkpt lat="44.97691530228827" lon="9.218213702927423"><ele>387.20000000000005</ele><time>2026-03-29T15:44:57Z</time></trkpt><trkpt lat="44.97688523575348" lon="9.218351685433852"><ele>387.4</ele><time>2026-03-29T15:44:58Z</time></trkpt><trkpt lat="44.976848527873976" lon="9.218476816273002"><ele>387.6</ele><time>2026-03-29T15:44:59Z</time></trkpt><trkpt lat="44.976764496309926" lon="9.218575490191084"><ele>387.79999999999995</ele><time>2026-03-29T15:44:59.999Z</time></trkpt><trkpt lat="44.976710856803294" lon="9.218723960432095"><ele>388.0</ele><time>2026-03-29T15:45:00.999Z</time></trkpt><trkpt lat="44.97665677798596" lon="9.218888846370353"><ele>390.25</ele><time>2026-03-29T15:45:01.999Z</time></trkpt><trkpt lat="44.976602373590985" lon="9.219068475608088"><ele>392.5</ele><time>2026-03-29T15:45:02.999Z</time></trkpt><trkpt lat="44.97654414505116" lon="9.219258616532906"><ele>394.75</ele><time>2026-03-29T15:45:03.999Z</time></trkpt><trkpt lat="44.97648092578187" lon="9.219465054516597"><ele>397.0</ele><time>2026-03-29T15:45:04.999Z</time></trkpt><trkpt lat="44.97641467199873" lon="9.219681400746053"><ele>398.0</ele><time>2026-03-29T15:45:05.999Z</time></trkpt><trkpt lat="44.976346033604926" lon="9.21990553420006"><ele>399.0</ele><time>2026-03-29T15:45:06.999Z</time></trkpt><trkpt lat="44.97627422555244" lon="9.220140017815327"><ele>400.0</ele><time>2026-03-29T15:45:07.999Z</time></trkpt><trkpt lat="44.976199858427364" lon="9.220382537903694"><ele>400.0</ele><time>2026-03-29T15:45:08.999Z</time></trkpt><trkpt lat="44.97612714976008" lon="9.220617739070603"><ele>400.0</ele><time>2026-03-29T15:45:09.999Z</time></trkpt><trkpt lat="44.976061368197236" lon="9.220830532052895"><ele>400.0</ele><time>2026-03-29T15:45:10.999Z</time></trkpt><trkpt lat="44.97599835937013" lon="9.22103435562993"><ele>400.75</ele><time>2026-03-29T15:45:11.999Z</time></trkpt><trkpt lat="44.9759433932241" lon="9.2212231400068"><ele>401.5</ele><time>2026-03-29T15:45:12.999Z</time></trkpt><trkpt lat="44.975906275935614" lon="9.221389182344554"><ele>402.25</ele><time>2026-03-29T15:45:13.999Z</time></trkpt><trkpt lat="44.97586215199638" lon="9.221536618891545"><ele>403.0</ele><time>2026-03-29T15:45:14.999Z</time></trkpt><trkpt lat="44.975820554791824" lon="9.2216661220518"><ele>406.0</ele><time>2026-03-29T15:45:15.999Z</time></trkpt><trkpt lat="44.97578284627334" lon="9.221795344526539"><ele>409.0</ele><time>2026-03-29T15:45:16.999Z</time></trkpt><trkpt lat="44.97571662634241" lon="9.221881646517343"><ele>412.0</ele><time>2026-03-29T15:45:17.999Z</time></trkpt><trkpt lat="44.975654853690116" lon="9.22193887917993"><ele>415.0</ele><time>2026-03-29T15:45:18.999Z</time></trkpt><trkpt lat="44.97556530740365" lon="9.22201055178829"><ele>418.0</ele><time>2026-03-29T15:45:19.999Z</time></trkpt><trkpt lat="44.975451217481194" lon="9.222095401973007"><ele>418.0</ele><time>2026-03-29T15:45:20.999Z</time></trkpt><trkpt lat="44.97533317119212" lon="9.222180895699061"><ele>418.0</ele><time>2026-03-29T15:45:21.999Z</time></trkpt><trkpt lat="44.97521602285265" lon="9.222267592008944"><ele>418.0</ele><time>2026-03-29T15:45:22.999Z</time></trkpt><trkpt lat="44.9751459283164" lon="9.222319466012792"><ele>418.0</ele><time>2026-03-29T15:45:23.999Z</time></trkpt><trkpt lat="44.97507604241278" lon="9.222371185525203"><ele>418.0</ele><time>2026-03-29T15:45:24.999Z</time></trkpt><trkpt lat="44.97501009713245" lon="9.222440692654574"><ele>418.33333333333337</ele><time>2026-03-29T15:45:25.999Z</time></trkpt><trkpt lat="44.97494570239263" lon="9.22248702033953"><ele>418.6666666666667</ele><time>2026-03-29T15:45:26.999Z</time></trkpt><trkpt lat="44.9748797474549" lon="9.222516454831759"><ele>419.0</ele><time>2026-03-29T15:45:27.999Z</time></trkpt><trkpt lat="44.974828649806305" lon="9.222571702902906"><ele>419.33333333333337</ele><time>2026-03-29T15:45:29.999Z</time></trkpt><trkpt lat="44.97474962896645" lon="9.222612749783835"><ele>419.6666666666667</ele><time>2026-03-29T15:45:47.999Z</time></trkpt><trkpt lat="44.974640140322386" lon="9.222693777640796"><ele>420.0</ele><time>2026-03-29T15:45:49.999Z</time></trkpt><trkpt lat="44.97456346555438" lon="9.222750518244688"><ele>420.0</ele><time>2026-03-29T15:45:50.999Z</time></trkpt><trkpt lat="44.97446945153978" lon="9.222824023288272"><ele>420.0</ele><time>2026-03-29T15:45:52Z</time></trkpt><trkpt lat="44.97436110337864" lon="9.222907034032389"><ele>420.0</ele><time>2026-03-29T15:45:53Z</time></trkpt><trkpt lat="44.97423801476201" lon="9.2230009450342"><ele>420.0</ele><time>2026-03-29T15:45:54Z</time></trkpt><trkpt lat="44.97411526420134" lon="9.223094508455015"><ele>421.0</ele><time>2026-03-29T15:45:55Z</time></trkpt><trkpt lat="44.97398174794657" lon="9.223195308859093"><ele>422.0</ele><time>2026-03-29T15:45:56Z</time></trkpt><trkpt lat="44.97384088869984" lon="9.223299377798256"><ele>423.0</ele><time>2026-03-29T15:45:57Z</time></trkpt><trkpt lat="44.97369121809507" lon="9.223411602460855"><ele>423.0</ele><time>2026-03-29T15:45:58Z</time></trkpt><trkpt lat="44.9735383229791" lon="9.223525672521932"><ele>423.0</ele><time>2026-03-29T15:45:59Z</time></trkpt><trkpt lat="44.97339954010857" lon="9.223629213867829"><ele>423.0</ele><time>2026-03-29T15:46:00Z</time></trkpt><trkpt lat="44.97326773125944" lon="9.223727600635604"><ele>425.25</ele><time>2026-03-29T15:46:01Z</time></trkpt><trkpt lat="44.97314798486417" lon="9.223816995603059"><ele>427.5</ele><time>2026-03-29T15:46:02Z</time></trkpt><trkpt lat="44.97304020033651" lon="9.22389746067598"><ele>429.75</ele><time>2026-03-29T15:46:03Z</time></trkpt><trkpt lat="44.97294383745396" lon="9.223969399132956"><ele>432.0</ele><time>2026-03-29T15:46:04Z</time></trkpt><trkpt lat="44.97285622891261" lon="9.224060077350844"><ele>432.0</ele><time>2026-03-29T15:46:05Z</time></trkpt><trkpt lat="44.9727585748595" lon="9.224125477522772"><ele>432.0</ele><time>2026-03-29T15:46:06Z</time></trkpt><trkpt lat="44.97266545094078" lon="9.224201438753477"><ele>432.0</ele><time>2026-03-29T15:46:07Z</time></trkpt><trkpt lat="44.97256382023397" lon="9.224274807096148"><ele>432.0</ele><time>2026-03-29T15:46:08Z</time></trkpt><trkpt lat="44.97245418586696" lon="9.22435637230934"><ele>434.5</ele><time>2026-03-29T15:46:09Z</time></trkpt><trkpt lat="44.97234513440675" lon="9.224435137372536"><ele>437.0</ele><time>2026-03-29T15:46:10Z</time></trkpt><trkpt lat="44.97224579332674" lon="9.224511745281083"><ele>439.5</ele><time>2026-03-29T15:46:11Z</time></trkpt><trkpt lat="44.97214201279741" lon="9.224592025105224"><ele>442.0</ele><time>2026-03-29T15:46:12Z</time></trkpt><trkpt lat="44.97204113630028" lon="9.224662570063117"><ele>442.0</ele><time>2026-03-29T15:46:13Z</time></trkpt><trkpt lat="44.97195966822041" lon="9.224731068872819"><ele>442.00000000000006</ele><time>2026-03-29T15:46:14Z</time></trkpt><trkpt lat="44.97190006760436" lon="9.22481817687908"><ele>442.00000000000006</ele><time>2026-03-29T15:46:15Z</time></trkpt><trkpt lat="44.97185806576849" lon="9.22493659301515"><ele>442.0</ele><time>2026-03-29T15:46:16Z</time></trkpt><trkpt lat="44.97183124599708" lon="9.225063976186034"><ele>442.0</ele><time>2026-03-29T15:46:17Z</time></trkpt><trkpt lat="44.97181996496238" lon="9.225179456439545"><ele>442.6</ele><time>2026-03-29T15:46:19Z</time></trkpt><trkpt lat="44.971805404341374" lon="9.225315167003506"><ele>443.20000000000005</ele><time>2026-03-29T15:46:21Z</time></trkpt><trkpt lat="44.9717958375683" lon="9.22542526725436"><ele>443.8</ele><time>2026-03-29T15:46:22Z</time></trkpt><trkpt lat="44.97175551693598" lon="9.225549756898456"><ele>444.4</ele><time>2026-03-29T15:46:23Z</time></trkpt><trkpt lat="44.97170762657246" lon="9.225699061705862"><ele>445.0</ele><time>2026-03-29T15:46:24Z</time></trkpt><trkpt lat="44.97164565946772" lon="9.225819108907826"><ele>445.0</ele><time>2026-03-29T15:46:25Z</time></trkpt><trkpt lat="44.97157828106221" lon="9.22592440959601"><ele>445.0</ele><time>2026-03-29T15:46:26Z</time></trkpt><trkpt lat="44.97151089447315" lon="9.22601007342169"><ele>445.0</ele><time>2026-03-29T15:46:27Z</time></trkpt><trkpt lat="44.97145468671066" lon="9.226088125277302"><ele>445.0</ele><time>2026-03-29T15:46:28Z</time></trkpt><trkpt lat="44.971386894326116" lon="9.22618771451766"><ele>445.0</ele><time>2026-03-29T15:46:29Z</time></trkpt><trkpt lat="44.97131941897827" lon="9.226307057560255"><ele>445.0</ele><time>2026-03-29T15:46:30Z</time></trkpt><trkpt lat="44.97125628186457" lon="9.226457565161477"><ele>445.0</ele><time>2026-03-29T15:46:31Z</time></trkpt><trkpt lat="44.97116618560408" lon="9.22660314584627"><ele>445.0</ele><time>2026-03-29T15:46:32Z</time></trkpt><trkpt lat="44.971083559401585" lon="9.226717014019393"><ele>445.0</ele><time>2026-03-29T15:46:33Z</time></trkpt><trkpt lat="44.9710036619414" lon="9.22677809412697"><ele>444.6</ele><time>2026-03-29T15:46:34Z</time></trkpt><trkpt lat="44.970918478677724" lon="9.226815442529306"><ele>444.2</ele><time>2026-03-29T15:46:35Z</time></trkpt><trkpt lat="44.97081152215731" lon="9.226838128244824"><ele>443.79999999999995</ele><time>2026-03-29T15:46:36Z</time></trkpt><trkpt lat="44.97069207340324" lon="9.226863960573798"><ele>443.4</ele><time>2026-03-29T15:46:37Z</time></trkpt><trkpt lat="44.97056974901538" lon="9.226898310614185"><ele>443.0</ele><time>2026-03-29T15:46:38Z</time></trkpt><trkpt lat="44.9704499252111" lon="9.226958600355355"><ele>440.5</ele><time>2026-03-29T15:46:39Z</time></trkpt><trkpt lat="44.97034160757301" lon="9.22707545678269"><ele>438.0</ele><time>2026-03-29T15:46:40Z</time></trkpt><trkpt lat="44.97020322596763" lon="9.227188618244309"><ele>435.5</ele><time>2026-03-29T15:46:41Z</time></trkpt><trkpt lat="44.97009586821352" lon="9.227316774847228"><ele>433.0</ele><time>2026-03-29T15:46:42Z</time></trkpt><trkpt lat="44.97000761617892" lon="9.227424739523041"><ele>432.25</ele><time>2026-03-29T15:46:43Z</time></trkpt><trkpt lat="44.969925989803414" lon="9.227560090852668"><ele>431.5</ele><time>2026-03-29T15:46:44Z</time></trkpt><trkpt lat="44.96983309988406" lon="9.227680861811901"><ele>430.75</ele><time>2026-03-29T15:46:45Z</time></trkpt><trkpt lat="44.96974038195702" lon="9.227790683024338"><ele>430.0</ele><time>2026-03-29T15:46:46Z</time></trkpt><trkpt lat="44.969654748755794" lon="9.22787668874904"><ele>430.0</ele><time>2026-03-29T15:46:47Z</time></trkpt><trkpt lat="44.96956736465281" lon="9.227949026411082"><ele>430.0</ele><time>2026-03-29T15:46:48Z</time></trkpt><trkpt lat="44.96947023766339" lon="9.228011713389627"><ele>430.0</ele><time>2026-03-29T15:46:49Z</time></trkpt><trkpt lat="44.969357538617146" lon="9.228059540860322"><ele>430.0</ele><time>2026-03-29T15:46:50Z</time></trkpt><trkpt lat="44.96925647087953" lon="9.22813516816147"><ele>430.0</ele><time>2026-03-29T15:46:51Z</time></trkpt><trkpt lat="44.96914975097849" lon="9.228187031105252"><ele>428.2</ele><time>2026-03-29T15:46:52Z</time></trkpt><trkpt lat="44.969048324682376" lon="9.228234422730159"><ele>426.4</ele><time>2026-03-29T15:46:53Z</time></trkpt><trkpt lat="44.96896518733363" lon="9.228279100227436"><ele>424.6</ele><time>2026-03-29T15:46:54Z</time></trkpt><trkpt lat="44.96888843097495" lon="9.228312305888473"><ele>422.8</ele><time>2026-03-29T15:46:55Z</time></trkpt><trkpt lat="44.968827772002236" lon="9.228345886244352"><ele>421.0</ele><time>2026-03-29T15:46:56Z</time></trkpt><trkpt lat="44.968718904567986" lon="9.228396693502635"><ele>421.00000000000006</ele><time>2026-03-29T15:46:58Z</time></trkpt><trkpt lat="44.96861588368907" lon="9.228444111247923"><ele>421.0</ele><time>2026-03-29T15:46:59.999Z</time></trkpt><trkpt lat="44.96852534945287" lon="9.228486300077803"><ele>421.0</ele><time>2026-03-29T15:47:01.999Z</time></trkpt><trkpt lat="44.96843578143691" lon="9.228521048801225"><ele>421.0</ele><time>2026-03-29T15:47:03.999Z</time></trkpt><trkpt lat="44.968367040233595" lon="9.228543558644976"><ele>421.00000000000006</ele><time>2026-03-29T15:47:05.999Z</time></trkpt><trkpt lat="44.96830563057743" lon="9.228577287980595"><ele>421.0</ele><time>2026-03-29T15:47:07.999Z</time></trkpt><trkpt lat="44.96823191510456" lon="9.228592763763384"><ele>420.83333333333337</ele><time>2026-03-29T15:47:10.999Z</time></trkpt><trkpt lat="44.96815614081634" lon="9.22862492774488"><ele>420.6666666666667</ele><time>2026-03-29T15:47:13.999Z</time></trkpt><trkpt lat="44.968095108488306" lon="9.228597829796122"><ele>420.5</ele><time>2026-03-29T15:57:06Z</time></trkpt><trkpt lat="44.9681628806664" lon="9.228575164535073"><ele>420.33333333333337</ele><time>2026-03-29T16:04:21Z</time></trkpt><trkpt lat="44.96809742775337" lon="9.228669655659681"><ele>420.1666666666667</ele><time>2026-03-29T16:07:12Z</time></trkpt><trkpt lat="44.968177203202806" lon="9.228590247151017"><ele>420.0</ele><time>2026-03-29T16:07:59Z</time></trkpt><trkpt lat="44.96825021845939" lon="9.228597213232137"><ele>420.0</ele><time>2026-03-29T16:11:42Z</time></trkpt><trkpt lat="44.96831237354007" lon="9.228579860805164"><ele>420.0</ele><time>2026-03-29T16:11:45Z</time></trkpt><trkpt lat="44.96838053917517" lon="9.228551193283815"><ele>420.0</ele><time>2026-03-29T16:11:47Z</time></trkpt><trkpt lat="44.96844391339048" lon="9.228521939499146"><ele>420.0</ele><time>2026-03-29T16:11:48Z</time></trkpt><trkpt lat="44.96857213476699" lon="9.228469098681252"><ele>420.0</ele><time>2026-03-29T16:11:50Z</time></trkpt><trkpt lat="44.968655283958704" lon="9.228434609572567"><ele>420.0</ele><time>2026-03-29T16:11:51Z</time></trkpt><trkpt lat="44.968746842960435" lon="9.228390142038036"><ele>420.0</ele><time>2026-03-29T16:11:52Z</time></trkpt><trkpt lat="44.96884002242239" lon="9.228343515306948"><ele>420.0</ele><time>2026-03-29T16:11:53Z</time></trkpt><trkpt lat="44.96893457457517" lon="9.228298832540734"><ele>420.0</ele><time>2026-03-29T16:11:54Z</time></trkpt><trkpt lat="44.969038134482396" lon="9.228270518871216"><ele>420.0</ele><time>2026-03-29T16:11:55Z</time></trkpt><trkpt lat="44.969146702409596" lon="9.228216255381362"><ele>420.0</ele><time>2026-03-29T16:11:56Z</time></trkpt><trkpt lat="44.96926995833513" lon="9.228154650567935"><ele>423.33333333333337</ele><time>2026-03-29T16:11:57Z</time></trkpt><trkpt lat="44.96940658479102" lon="9.228083774399323"><ele>426.6666666666667</ele><time>2026-03-29T16:11:58Z</time></trkpt><trkpt lat="44.969552213745" lon="9.227999454957457"><ele>430.0</ele><time>2026-03-29T16:11:59Z</time></trkpt><trkpt lat="44.96969839243651" lon="9.227850603694767"><ele>430.0</ele><time>2026-03-29T16:12:00Z</time></trkpt><trkpt lat="44.969845598866556" lon="9.227694368681172"><ele>430.0</ele><time>2026-03-29T16:12:01Z</time></trkpt><trkpt lat="44.9699788004502" lon="9.227514341321857"><ele>430.0</ele><time>2026-03-29T16:12:02Z</time></trkpt><trkpt lat="44.970116827845" lon="9.227340658420234"><ele>431.0</ele><time>2026-03-29T16:12:03Z</time></trkpt><trkpt lat="44.97024113795336" lon="9.227189715404794"><ele>432.0</ele><time>2026-03-29T16:12:04Z</time></trkpt><trkpt lat="44.97035575414851" lon="9.227066198040896"><ele>433.0</ele><time>2026-03-29T16:12:05Z</time></trkpt><trkpt lat="44.970483004988814" lon="9.226969303818327"><ele>433.0</ele><time>2026-03-29T16:12:06Z</time></trkpt><trkpt lat="44.97064053088407" lon="9.226922019293013"><ele>433.0</ele><time>2026-03-29T16:12:07Z</time></trkpt><trkpt lat="44.970798565098036" lon="9.22688789237118"><ele>433.0</ele><time>2026-03-29T16:12:08Z</time></trkpt><trkpt lat="44.97093603422968" lon="9.226845180286015"><ele>435.5</ele><time>2026-03-29T16:12:09Z</time></trkpt><trkpt lat="44.97106204952212" lon="9.226775372232195"><ele>438.0</ele><time>2026-03-29T16:12:10Z</time></trkpt><trkpt lat="44.97116329885927" lon="9.22662348196966"><ele>440.5</ele><time>2026-03-29T16:12:11Z</time></trkpt><trkpt lat="44.97127626671679" lon="9.226466463386448"><ele>443.0</ele><time>2026-03-29T16:12:12Z</time></trkpt><trkpt lat="44.9713707942078" lon="9.226260895065986"><ele>443.5</ele><time>2026-03-29T16:12:13Z</time></trkpt><trkpt lat="44.971489077051935" lon="9.226106497041487"><ele>444.0</ele><time>2026-03-29T16:12:14Z</time></trkpt><trkpt lat="44.971583877829374" lon="9.225955527840716"><ele>444.5</ele><time>2026-03-29T16:12:15Z</time></trkpt><trkpt lat="44.97168266746459" lon="9.225819149078816"><ele>445.0</ele><time>2026-03-29T16:12:16Z</time></trkpt><trkpt lat="44.97175417340612" lon="9.225657448832754"><ele>445.5</ele><time>2026-03-29T16:12:17Z</time></trkpt><trkpt lat="44.9718025356032" lon="9.22546888398768"><ele>446.0</ele><time>2026-03-29T16:12:18Z</time></trkpt><trkpt lat="44.97183107394612" lon="9.225261214594429"><ele>446.5</ele><time>2026-03-29T16:12:19Z</time></trkpt><trkpt lat="44.97185739599018" lon="9.225058651459536"><ele>447.0</ele><time>2026-03-29T16:12:20Z</time></trkpt><trkpt lat="44.97187788967943" lon="9.224908879469174"><ele>446.0</ele><time>2026-03-29T16:12:21Z</time></trkpt><trkpt lat="44.97192464256161" lon="9.224795218443615"><ele>445.00000000000006</ele><time>2026-03-29T16:12:22Z</time></trkpt><trkpt lat="44.97200750708887" lon="9.224697471313764"><ele>444.00000000000006</ele><time>2026-03-29T16:12:23Z</time></trkpt><trkpt lat="44.97211259007034" lon="9.22464268957904"><ele>443.0</ele><time>2026-03-29T16:12:24Z</time></trkpt><trkpt lat="44.97222712076338" lon="9.224537536562357"><ele>442.0</ele><time>2026-03-29T16:12:25Z</time></trkpt><trkpt lat="44.97236091579982" lon="9.224442175349164"><ele>442.0</ele><time>2026-03-29T16:12:26Z</time></trkpt><trkpt lat="44.972484536200604" lon="9.224348748172142"><ele>442.0</ele><time>2026-03-29T16:12:27Z</time></trkpt><trkpt lat="44.97260748770978" lon="9.224256396816083"><ele>442.0</ele><time>2026-03-29T16:12:28Z</time></trkpt><trkpt lat="44.972733716851295" lon="9.224162222798762"><ele>442.0</ele><time>2026-03-29T16:12:29Z</time></trkpt><trkpt lat="44.97286096409097" lon="9.224064227312969"><ele>441.33333333333337</ele><time>2026-03-29T16:12:30Z</time></trkpt><trkpt lat="44.972992358971695" lon="9.223969355175903"><ele>440.66666666666663</ele><time>2026-03-29T16:12:31Z</time></trkpt><trkpt lat="44.9731264166331" lon="9.22386954960714"><ele>440.0</ele><time>2026-03-29T16:12:32Z</time></trkpt><trkpt lat="44.97326178372369" lon="9.223764662429305"><ele>435.75</ele><time>2026-03-29T16:12:33Z</time></trkpt><trkpt lat="44.97340064395307" lon="9.223660385411451"><ele>431.5</ele><time>2026-03-29T16:12:34Z</time></trkpt><trkpt lat="44.973530672624946" lon="9.223562615894286"><ele>427.25</ele><time>2026-03-29T16:12:35Z</time></trkpt><trkpt lat="44.97365257319386" lon="9.223472872387724"><ele>423.0</ele><time>2026-03-29T16:12:35.999Z</time></trkpt><trkpt lat="44.973770147321666" lon="9.223387849543254"><ele>423.0</ele><time>2026-03-29T16:12:36.999Z</time></trkpt><trkpt lat="44.97388192107376" lon="9.22330184647638"><ele>423.0</ele><time>2026-03-29T16:12:37.999Z</time></trkpt><trkpt lat="44.97399051176348" lon="9.223218468004083"><ele>423.0</ele><time>2026-03-29T16:12:38.999Z</time></trkpt><trkpt lat="44.974089338559544" lon="9.223146192275545"><ele>423.0</ele><time>2026-03-29T16:12:39.999Z</time></trkpt><trkpt lat="44.97417689319176" lon="9.22308359189392"><ele>422.5</ele><time>2026-03-29T16:12:40.999Z</time></trkpt><trkpt lat="44.974251949390265" lon="9.223022229082854"><ele>422.0</ele><time>2026-03-29T16:12:41.999Z</time></trkpt><trkpt lat="44.97433395495481" lon="9.222956096589023"><ele>421.5</ele><time>2026-03-29T16:12:42.999Z</time></trkpt><trkpt lat="44.97441608448146" lon="9.222918299714411"><ele>421.0</ele><time>2026-03-29T16:12:43.999Z</time></trkpt><trkpt lat="44.97447944921791" lon="9.222844211599066"><ele>420.5</ele><time>2026-03-29T16:12:44.999Z</time></trkpt><trkpt lat="44.974557052905986" lon="9.222793684742486"><ele>420.0</ele><time>2026-03-29T16:12:45.999Z</time></trkpt><trkpt lat="44.97464359335832" lon="9.222722172065543"><ele>420.0</ele><time>2026-03-29T16:12:46.999Z</time></trkpt><trkpt lat="44.974739595694444" lon="9.222647546614938"><ele>420.0</ele><time>2026-03-29T16:12:47.999Z</time></trkpt><trkpt lat="44.97485316857888" lon="9.222589104475205"><ele>420.0</ele><time>2026-03-29T16:12:48.999Z</time></trkpt><trkpt lat="44.97496565106542" lon="9.222505861132182"><ele>420.0</ele><time>2026-03-29T16:12:49.999Z</time></trkpt><trkpt lat="44.97508685086115" lon="9.222416166435295"><ele>419.5</ele><time>2026-03-29T16:12:50.999Z</time></trkpt><trkpt lat="44.97520770961771" lon="9.222326724217295"><ele>419.0</ele><time>2026-03-29T16:12:51.999Z</time></trkpt><trkpt lat="44.97533159525708" lon="9.222235041837907"><ele>418.5</ele><time>2026-03-29T16:12:52.999Z</time></trkpt><trkpt lat="44.97543698585137" lon="9.222135442369707"><ele>418.0</ele><time>2026-03-29T16:12:53.999Z</time></trkpt><trkpt lat="44.97552654083839" lon="9.222068946663438"><ele>418.0</ele><time>2026-03-29T16:12:54.999Z</time></trkpt><trkpt lat="44.97560583786284" lon="9.222011167483366"><ele>418.0</ele><time>2026-03-29T16:12:55.999Z</time></trkpt><trkpt lat="44.97569158150484" lon="9.221947162149544"><ele>418.0</ele><time>2026-03-29T16:12:56.999Z</time></trkpt><trkpt lat="44.975769794956626" lon="9.221858672639403"><ele>418.0</ele><time>2026-03-29T16:12:57.999Z</time></trkpt><trkpt lat="44.97583377568161" lon="9.221730721816476"><ele>418.0</ele><time>2026-03-29T16:12:58.999Z</time></trkpt><trkpt lat="44.975884127798686" lon="9.221554919189845"><ele>413.0</ele><time>2026-03-29T16:12:59.999Z</time></trkpt><trkpt lat="44.9759368216709" lon="9.22136658985809"><ele>408.0</ele><time>2026-03-29T16:13:00.999Z</time></trkpt><trkpt lat="44.97599906264143" lon="9.221152554329368"><ele>403.0</ele><time>2026-03-29T16:13:01.999Z</time></trkpt><trkpt lat="44.97606689392236" lon="9.220930172562458"><ele>403.0</ele><time>2026-03-29T16:13:02.999Z</time></trkpt><trkpt lat="44.97612906649357" lon="9.220724055956865"><ele>403.0</ele><time>2026-03-29T16:13:03.999Z</time></trkpt><trkpt lat="44.97619075927178" lon="9.220518099503172"><ele>403.0</ele><time>2026-03-29T16:13:04.999Z</time></trkpt><trkpt lat="44.976250054886016" lon="9.22031000234293"><ele>402.0</ele><time>2026-03-29T16:13:05.999Z</time></trkpt><trkpt lat="44.976317531010665" lon="9.220092154637186"><ele>401.0</ele><time>2026-03-29T16:13:06.999Z</time></trkpt><trkpt lat="44.97638220708843" lon="9.21987536356604"><ele>400.0</ele><time>2026-03-29T16:13:07.999Z</time></trkpt><trkpt lat="44.97644494522188" lon="9.219664855102632"><ele>399.25</ele><time>2026-03-29T16:13:08.999Z</time></trkpt><trkpt lat="44.976507472566944" lon="9.219460706501406"><ele>398.5</ele><time>2026-03-29T16:13:09.999Z</time></trkpt><trkpt lat="44.976566797178606" lon="9.219267528773239"><ele>397.75</ele><time>2026-03-29T16:13:10.999Z</time></trkpt><trkpt lat="44.97661959656199" lon="9.21909074298169"><ele>397.0</ele><time>2026-03-29T16:13:11.999Z</time></trkpt><trkpt lat="44.97666736855811" lon="9.218931970145107"><ele>395.50000000000006</ele><time>2026-03-29T16:13:12.999Z</time></trkpt><trkpt lat="44.97670924126858" lon="9.218801467216391"><ele>394.0</ele><time>2026-03-29T16:13:13.999Z</time></trkpt><trkpt lat="44.97674209552399" lon="9.218704670861458"><ele>392.5</ele><time>2026-03-29T16:13:14.999Z</time></trkpt><trkpt lat="44.97678135389658" lon="9.218599230125028"><ele>391.0</ele><time>2026-03-29T16:13:16.999Z</time></trkpt><trkpt lat="44.976867188781775" lon="9.21848597110184"><ele>389.50000000000006</ele><time>2026-03-29T16:13:20.999Z</time></trkpt><trkpt lat="44.9768914737105" lon="9.218398290286945"><ele>388.0</ele><time>2026-03-29T16:13:21.999Z</time></trkpt><trkpt lat="44.976918742720194" lon="9.21828644394388"><ele>387.75</ele><time>2026-03-29T16:13:22.999Z</time></trkpt><trkpt lat="44.97694902589122" lon="9.218142322042493"><ele>387.5</ele><time>2026-03-29T16:13:23.999Z</time></trkpt><trkpt lat="44.97698381179662" lon="9.217974633739123"><ele>387.25</ele><time>2026-03-29T16:13:24.999Z</time></trkpt><trkpt lat="44.977023394476056" lon="9.217796351102098"><ele>387.0</ele><time>2026-03-29T16:13:25.999Z</time></trkpt><trkpt lat="44.977067334711684" lon="9.217588521699629"><ele>387.0</ele><time>2026-03-29T16:13:26.999Z</time></trkpt><trkpt lat="44.9771042553156" lon="9.217387278508564"><ele>387.0</ele><time>2026-03-29T16:13:27.999Z</time></trkpt><trkpt lat="44.97714486151361" lon="9.217199867939744"><ele>387.0</ele><time>2026-03-29T16:13:28.999Z</time></trkpt><trkpt lat="44.977185784307515" lon="9.21703573075619"><ele>387.0</ele><time>2026-03-29T16:13:29.999Z</time></trkpt><trkpt lat="44.97723669911451" lon="9.216872488194836"><ele>386.75</ele><time>2026-03-29T16:13:30.999Z</time></trkpt><trkpt lat="44.977299326381605" lon="9.216713627148625"><ele>386.5</ele><time>2026-03-29T16:13:31.999Z</time></trkpt><trkpt lat="44.97737165532913" lon="9.216549282768732"><ele>386.25</ele><time>2026-03-29T16:13:32.999Z</time></trkpt><trkpt lat="44.97745670341098" lon="9.216376733288929"><ele>386.0</ele><time>2026-03-29T16:13:33.999Z</time></trkpt><trkpt lat="44.977536811976044" lon="9.216211368160256"><ele>384.3333333333333</ele><time>2026-03-29T16:13:34.999Z</time></trkpt><trkpt lat="44.977615859726285" lon="9.216047443220335"><ele>382.66666666666663</ele><time>2026-03-29T16:13:36Z</time></trkpt><trkpt lat="44.97770840276641" lon="9.215872403366063"><ele>381.0</ele><time>2026-03-29T16:13:37Z</time></trkpt><trkpt lat="44.97779815157868" lon="9.21568428684011"><ele>382.0</ele><time>2026-03-29T16:13:38Z</time></trkpt><trkpt lat="44.97788292745614" lon="9.21549681049644"><ele>383.0</ele><time>2026-03-29T16:13:39Z</time></trkpt><trkpt lat="44.9779663438901" lon="9.21531298808363"><ele>384.0</ele><time>2026-03-29T16:13:40Z</time></trkpt><trkpt lat="44.97804854887113" lon="9.21513394230496"><ele>384.0</ele><time>2026-03-29T16:13:41Z</time></trkpt><trkpt lat="44.97812676693657" lon="9.214956773159233"><ele>384.0</ele><time>2026-03-29T16:13:42Z</time></trkpt><trkpt lat="44.978202663775654" lon="9.214783229619634"><ele>384.0</ele><time>2026-03-29T16:13:43Z</time></trkpt><trkpt lat="44.97825505328357" lon="9.214597098596828"><ele>384.0</ele><time>2026-03-29T16:13:44Z</time></trkpt><trkpt lat="44.97829632687003" lon="9.214408915268807"><ele>384.75</ele><time>2026-03-29T16:13:45Z</time></trkpt><trkpt lat="44.978326709224575" lon="9.214207362350127"><ele>385.5</ele><time>2026-03-29T16:13:46Z</time></trkpt><trkpt lat="44.97834671605439" lon="9.213999419985521"><ele>386.25</ele><time>2026-03-29T16:13:47Z</time></trkpt><trkpt lat="44.97836303539906" lon="9.213800352346496"><ele>387.0</ele><time>2026-03-29T16:13:48Z</time></trkpt><trkpt lat="44.97837755628842" lon="9.213599743927848"><ele>384.6666666666667</ele><time>2026-03-29T16:13:49Z</time></trkpt><trkpt lat="44.9783963967331" lon="9.213390686510015"><ele>382.33333333333337</ele><time>2026-03-29T16:13:50Z</time></trkpt><trkpt lat="44.97841907092897" lon="9.21317769620662"><ele>380.0</ele><time>2026-03-29T16:13:51Z</time></trkpt><trkpt lat="44.97844842769139" lon="9.212970137468117"><ele>380.0</ele><time>2026-03-29T16:13:52Z</time></trkpt><trkpt lat="44.978479694684175" lon="9.212786217770844"><ele>380.0</ele><time>2026-03-29T16:13:53Z</time></trkpt><trkpt lat="44.97851489401779" lon="9.212615119873082"><ele>380.0</ele><time>2026-03-29T16:13:54Z</time></trkpt><trkpt lat="44.97855346957253" lon="9.212456509669451"><ele>380.0</ele><time>2026-03-29T16:13:55Z</time></trkpt><trkpt lat="44.97860704828918" lon="9.212305136729128"><ele>381.0</ele><time>2026-03-29T16:13:56Z</time></trkpt><trkpt lat="44.978659840524614" lon="9.212140089432069"><ele>382.0</ele><time>2026-03-29T16:13:57Z</time></trkpt><trkpt lat="44.978710041991675" lon="9.21197887152034"><ele>383.0</ele><time>2026-03-29T16:13:58Z</time></trkpt><trkpt lat="44.97876531936679" lon="9.211829464538283"><ele>384.0</ele><time>2026-03-29T16:13:59Z</time></trkpt><trkpt lat="44.97881948450788" lon="9.211668383600577"><ele>384.0</ele><time>2026-03-29T16:14:00Z</time></trkpt><trkpt lat="44.97886919797114" lon="9.211499979519944"><ele>384.0</ele><time>2026-03-29T16:14:01Z</time></trkpt><trkpt lat="44.97892261712568" lon="9.211325351181642"><ele>384.0</ele><time>2026-03-29T16:14:02Z</time></trkpt><trkpt lat="44.97898185150364" lon="9.211143111857613"><ele>384.0</ele><time>2026-03-29T16:14:03Z</time></trkpt><trkpt lat="44.979039213660506" lon="9.21096399750972"><ele>384.25</ele><time>2026-03-29T16:14:04Z</time></trkpt><trkpt lat="44.97909508799848" lon="9.210784449980368"><ele>384.5</ele><time>2026-03-29T16:14:05Z</time></trkpt><trkpt lat="44.97914635309895" lon="9.210608659767498"><ele>384.75</ele><time>2026-03-29T16:14:06Z</time></trkpt><trkpt lat="44.97919590692929" lon="9.210431123222273"><ele>385.0</ele><time>2026-03-29T16:14:07Z</time></trkpt><trkpt lat="44.979242092574474" lon="9.210255476308156"><ele>382.5</ele><time>2026-03-29T16:14:08Z</time></trkpt><trkpt lat="44.97928474404133" lon="9.210088458608174"><ele>380.0</ele><time>2026-03-29T16:14:09Z</time></trkpt><trkpt lat="44.979322997312984" lon="9.209931769309494"><ele>377.5</ele><time>2026-03-29T16:14:10Z</time></trkpt><trkpt lat="44.9793592503729" lon="9.209783157361082"><ele>375.0</ele><time>2026-03-29T16:14:11Z</time></trkpt><trkpt lat="44.979384132336925" lon="9.209635386108829"><ele>375.0</ele><time>2026-03-29T16:14:12Z</time></trkpt><trkpt lat="44.97942195925156" lon="9.209499593433149"><ele>375.0</ele><time>2026-03-29T16:14:13Z</time></trkpt><trkpt lat="44.97946491093127" lon="9.209365904675296"><ele>375.0</ele><time>2026-03-29T16:14:14Z</time></trkpt><trkpt lat="44.979495215110475" lon="9.209209837554068"><ele>375.0</ele><time>2026-03-29T16:14:15Z</time></trkpt><trkpt lat="44.979530162610565" lon="9.209035811214058"><ele>376.75</ele><time>2026-03-29T16:14:16Z</time></trkpt><trkpt lat="44.97956924784393" lon="9.208844524712758"><ele>378.5</ele><time>2026-03-29T16:14:17Z</time></trkpt><trkpt lat="44.97961589309601" lon="9.208653372041939"><ele>380.25</ele><time>2026-03-29T16:14:18Z</time></trkpt><trkpt lat="44.97966486320644" lon="9.208479787694314"><ele>382.0</ele><time>2026-03-29T16:14:19Z</time></trkpt><trkpt lat="44.97970130805145" lon="9.208327656107501"><ele>382.0</ele><time>2026-03-29T16:14:20Z</time></trkpt><trkpt lat="44.979742565500764" lon="9.208199770708974"><ele>382.0</ele><time>2026-03-29T16:14:21Z</time></trkpt><trkpt lat="44.97976881217804" lon="9.208085899716625"><ele>382.0</ele><time>2026-03-29T16:14:22Z</time></trkpt><trkpt lat="44.97977897649525" lon="9.207963560371939"><ele>382.0</ele><time>2026-03-29T16:14:23Z</time></trkpt><trkpt lat="44.97976444850159" lon="9.20783545278207"><ele>382.0</ele><time>2026-03-29T16:14:24Z</time></trkpt><trkpt lat="44.979727737473944" lon="9.207686631312153"><ele>383.5</ele><time>2026-03-29T16:14:25Z</time></trkpt><trkpt lat="44.97969696727854" lon="9.207543591667664"><ele>385.0</ele><time>2026-03-29T16:14:26Z</time></trkpt><trkpt lat="44.97968459852458" lon="9.207398130936449"><ele>386.5</ele><time>2026-03-29T16:14:27Z</time></trkpt><trkpt lat="44.97968013200173" lon="9.207232249981393"><ele>388.0</ele><time>2026-03-29T16:14:28Z</time></trkpt><trkpt lat="44.97963517001265" lon="9.207032694589435"><ele>388.0</ele><time>2026-03-29T16:14:29Z</time></trkpt><trkpt lat="44.979571617659744" lon="9.206809688415547"><ele>388.0</ele><time>2026-03-29T16:14:30Z</time></trkpt><trkpt lat="44.97951711953633" lon="9.20659655337849"><ele>388.0</ele><time>2026-03-29T16:14:31Z</time></trkpt><trkpt lat="44.97947837379294" lon="9.20640297180577"><ele>388.33333333333337</ele><time>2026-03-29T16:14:32Z</time></trkpt><trkpt lat="44.979466803091974" lon="9.206189224777571"><ele>388.66666666666663</ele><time>2026-03-29T16:14:33Z</time></trkpt><trkpt lat="44.979458717298584" lon="9.205957777273944"><ele>389.0</ele><time>2026-03-29T16:14:34Z</time></trkpt><trkpt lat="44.97943466872409" lon="9.205768744569246"><ele>391.0</ele><time>2026-03-29T16:14:35Z</time></trkpt><trkpt lat="44.97938259863724" lon="9.205609458115768"><ele>393.0</ele><time>2026-03-29T16:14:36Z</time></trkpt><trkpt lat="44.9792810931827" lon="9.205469506664333"><ele>395.0</ele><time>2026-03-29T16:14:37Z</time></trkpt><trkpt lat="44.97914301512378" lon="9.205347324017515"><ele>397.0</ele><time>2026-03-29T16:14:37.999Z</time></trkpt><trkpt lat="44.978974468094904" lon="9.205230531608523"><ele>393.6666666666667</ele><time>2026-03-29T16:14:38.999Z</time></trkpt><trkpt lat="44.97880561662082" lon="9.20511066106299"><ele>390.33333333333337</ele><time>2026-03-29T16:14:39.999Z</time></trkpt><trkpt lat="44.978635238951654" lon="9.204956273258388"><ele>387.0</ele><time>2026-03-29T16:14:40.999Z</time></trkpt><trkpt lat="44.97848363335133" lon="9.204744354607602"><ele>381.6666666666667</ele><time>2026-03-29T16:14:41.999Z</time></trkpt><trkpt lat="44.97833517731176" lon="9.204533307049143"><ele>376.33333333333337</ele><time>2026-03-29T16:14:42.999Z</time></trkpt><trkpt lat="44.978204206486716" lon="9.204381774057369"><ele>371.0</ele><time>2026-03-29T16:14:43.999Z</time></trkpt><trkpt lat="44.97809136671159" lon="9.204238494808196"><ele>371.0</ele><time>2026-03-29T16:14:44.999Z</time></trkpt><trkpt lat="44.97800283315823" lon="9.20407361742512"><ele>371.0</ele><time>2026-03-29T16:14:45.999Z</time></trkpt><trkpt lat="44.977962961035935" lon="9.203881102647065"><ele>371.0</ele><time>2026-03-29T16:14:46.999Z</time></trkpt><trkpt lat="44.9779367487553" lon="9.20367792421353"><ele>371.0</ele><time>2026-03-29T16:14:47.999Z</time></trkpt><trkpt lat="44.97792082325601" lon="9.203470632534572"><ele>371.25</ele><time>2026-03-29T16:14:48.999Z</time></trkpt><trkpt lat="44.97791991646404" lon="9.203240191441585"><ele>371.5</ele><time>2026-03-29T16:14:49.999Z</time></trkpt><trkpt lat="44.97793583940897" lon="9.203027442888095"><ele>371.75</ele><time>2026-03-29T16:14:50.999Z</time></trkpt><trkpt lat="44.97796829996571" lon="9.202848479082157"><ele>372.0</ele><time>2026-03-29T16:14:51.999Z</time></trkpt><trkpt lat="44.97803538257263" lon="9.202740350223754"><ele>372.75</ele><time>2026-03-29T16:14:52.999Z</time></trkpt><trkpt lat="44.97813461889264" lon="9.202666881265062"><ele>373.5</ele><time>2026-03-29T16:14:53.999Z</time></trkpt><trkpt lat="44.97826769338497" lon="9.20268285727173"><ele>374.25</ele><time>2026-03-29T16:14:54.999Z</time></trkpt><trkpt lat="44.978409069449505" lon="9.202652468993211"><ele>375.0</ele><time>2026-03-29T16:14:55.999Z</time></trkpt><trkpt lat="44.97852662749628" lon="9.202613983269547"><ele>375.0</ele><time>2026-03-29T16:14:56.999Z</time></trkpt><trkpt lat="44.97861957741461" lon="9.20252178131539"><ele>375.0</ele><time>2026-03-29T16:14:57.999Z</time></trkpt><trkpt lat="44.978679357975054" lon="9.202348570949237"><ele>375.0</ele><time>2026-03-29T16:14:58.999Z</time></trkpt><trkpt lat="44.97870550833416" lon="9.202137086952568"><ele>375.0</ele><time>2026-03-29T16:14:59.999Z</time></trkpt><trkpt lat="44.97871948842886" lon="9.201892685529085"><ele>372.6666666666667</ele><time>2026-03-29T16:15:00.999Z</time></trkpt><trkpt lat="44.97870284482185" lon="9.201634529976054"><ele>370.33333333333337</ele><time>2026-03-29T16:15:01.999Z</time></trkpt><trkpt lat="44.97865345602288" lon="9.201369526950197"><ele>368.0</ele><time>2026-03-29T16:15:02.999Z</time></trkpt><trkpt lat="44.97859836662488" lon="9.201148768880982"><ele>368.0</ele><time>2026-03-29T16:15:03.999Z</time></trkpt><trkpt lat="44.97855845465962" lon="9.200960550766721"><ele>368.0</ele><time>2026-03-29T16:15:04.999Z</time></trkpt><trkpt lat="44.9785572553689" lon="9.200786109110926"><ele>368.0</ele><time>2026-03-29T16:15:05.999Z</time></trkpt><trkpt lat="44.97858933421452" lon="9.200595892880605"><ele>368.0</ele><time>2026-03-29T16:15:06.999Z</time></trkpt><trkpt lat="44.97858011773796" lon="9.200398627953579"><ele>368.0</ele><time>2026-03-29T16:15:07.999Z</time></trkpt><trkpt lat="44.97851009571775" lon="9.200193756052453"><ele>368.0</ele><time>2026-03-29T16:15:08.999Z</time></trkpt><trkpt lat="44.97842850013098" lon="9.199970110381617"><ele>368.0</ele><time>2026-03-29T16:15:09.999Z</time></trkpt><trkpt lat="44.97835719031498" lon="9.199769971293245"><ele>360.0</ele><time>2026-03-29T16:15:10.999Z</time></trkpt><trkpt lat="44.97830023043635" lon="9.19959058939646"><ele>352.0</ele><time>2026-03-29T16:15:11.999Z</time></trkpt><trkpt lat="44.97827577679549" lon="9.199392162846452"><ele>344.0</ele><time>2026-03-29T16:15:12.999Z</time></trkpt><trkpt lat="44.978270883716" lon="9.199150537542483"><ele>343.0</ele><time>2026-03-29T16:15:13.999Z</time></trkpt><trkpt lat="44.97827796302214" lon="9.198915237453617"><ele>342.0</ele><time>2026-03-29T16:15:14.999Z</time></trkpt><trkpt lat="44.97829730632595" lon="9.198713668398726"><ele>341.0</ele><time>2026-03-29T16:15:16Z</time></trkpt><trkpt lat="44.978326483744894" lon="9.198525378507258"><ele>340.0</ele><time>2026-03-29T16:15:17Z</time></trkpt><trkpt lat="44.978366625644675" lon="9.198357497150127"><ele>342.6</ele><time>2026-03-29T16:15:18Z</time></trkpt><trkpt lat="44.978416772801005" lon="9.198214845139445"><ele>345.2</ele><time>2026-03-29T16:15:19Z</time></trkpt><trkpt lat="44.97847813133759" lon="9.19809066428288"><ele>347.79999999999995</ele><time>2026-03-29T16:15:20Z</time></trkpt><trkpt lat="44.97854224030702" lon="9.197980621220015"><ele>350.4</ele><time>2026-03-29T16:15:21Z</time></trkpt><trkpt lat="44.97860448258021" lon="9.197868624609166"><ele>353.0</ele><time>2026-03-29T16:15:22Z</time></trkpt><trkpt lat="44.97867159472829" lon="9.197752334325413"><ele>353.0</ele><time>2026-03-29T16:15:23Z</time></trkpt><trkpt lat="44.978735265000175" lon="9.197626709243607"><ele>353.0</ele><time>2026-03-29T16:15:24Z</time></trkpt><trkpt lat="44.978754247683014" lon="9.197481342406855"><ele>353.0</ele><time>2026-03-29T16:15:25Z</time></trkpt><trkpt lat="44.978762039407336" lon="9.197350669595545"><ele>353.0</ele><time>2026-03-29T16:15:26Z</time></trkpt><trkpt lat="44.978744435655805" lon="9.197200796917034"><ele>353.0</ele><time>2026-03-29T16:15:27Z</time></trkpt><trkpt lat="44.97871190642448" lon="9.19706342519735"><ele>352.0</ele><time>2026-03-29T16:15:28Z</time></trkpt><trkpt lat="44.97866651419518" lon="9.19693954258323"><ele>351.0</ele><time>2026-03-29T16:15:29Z</time></trkpt><trkpt lat="44.97861994339296" lon="9.196813636022695"><ele>350.0</ele><time>2026-03-29T16:15:30Z</time></trkpt><trkpt lat="44.978576115800344" lon="9.196669862851437"><ele>349.0</ele><time>2026-03-29T16:15:31Z</time></trkpt><trkpt lat="44.97855001594042" lon="9.196511691279703"><ele>348.0</ele><time>2026-03-29T16:15:32Z</time></trkpt><trkpt lat="44.97853417536792" lon="9.196339026962221"><ele>348.0</ele><time>2026-03-29T16:15:33Z</time></trkpt><trkpt lat="44.978521023974174" lon="9.196152464910115"><ele>348.0</ele><time>2026-03-29T16:15:34Z</time></trkpt><trkpt lat="44.978503540198346" lon="9.19594728675695"><ele>348.0</ele><time>2026-03-29T16:15:35Z</time></trkpt><trkpt lat="44.978489916169266" lon="9.195740414572207"><ele>348.0</ele><time>2026-03-29T16:15:36Z</time></trkpt><trkpt lat="44.97848313719181" lon="9.195549607723661"><ele>347.0</ele><time>2026-03-29T16:15:37Z</time></trkpt><trkpt lat="44.97847095930672" lon="9.1953661455519"><ele>346.0</ele><time>2026-03-29T16:15:38Z</time></trkpt><trkpt lat="44.97845845421183" lon="9.195195982632981"><ele>345.0</ele><time>2026-03-29T16:15:39Z</time></trkpt><trkpt lat="44.978448576692976" lon="9.19503555228722"><ele>344.0</ele><time>2026-03-29T16:15:40Z</time></trkpt><trkpt lat="44.97844271030188" lon="9.194881600686715"><ele>342.79999999999995</ele><time>2026-03-29T16:15:41Z</time></trkpt><trkpt lat="44.9784469619683" lon="9.194734598771875"><ele>341.59999999999997</ele><time>2026-03-29T16:15:42Z</time></trkpt><trkpt lat="44.97846500686947" lon="9.194606384130749"><ele>340.4</ele><time>2026-03-29T16:15:43Z</time></trkpt><trkpt lat="44.978503340870574" lon="9.194482177413487"><ele>339.2</ele><time>2026-03-29T16:15:44Z</time></trkpt><trkpt lat="44.97857460399555" lon="9.194355530778264"><ele>338.0</ele><time>2026-03-29T16:15:45Z</time></trkpt><trkpt lat="44.97867649013028" lon="9.19428935534227"><ele>338.0</ele><time>2026-03-29T16:15:46Z</time></trkpt><trkpt lat="44.978762671236346" lon="9.194209224693672"><ele>338.0</ele><time>2026-03-29T16:15:47Z</time></trkpt><trkpt lat="44.97886044829008" lon="9.194138249880808"><ele>338.0</ele><time>2026-03-29T16:15:48Z</time></trkpt><trkpt lat="44.97894049368234" lon="9.194035544932786"><ele>338.0</ele><time>2026-03-29T16:15:49Z</time></trkpt><trkpt lat="44.978994338425125" lon="9.193910943162647"><ele>338.0</ele><time>2026-03-29T16:15:50Z</time></trkpt><trkpt lat="44.97902642445815" lon="9.193773793784747"><ele>337.2</ele><time>2026-03-29T16:15:51Z</time></trkpt><trkpt lat="44.979034004684564" lon="9.193634231349458"><ele>336.4</ele><time>2026-03-29T16:15:52Z</time></trkpt><trkpt lat="44.97902569008462" lon="9.193496290657114"><ele>335.59999999999997</ele><time>2026-03-29T16:15:53Z</time></trkpt><trkpt lat="44.9790092346732" lon="9.19335103951417"><ele>334.79999999999995</ele><time>2026-03-29T16:15:54Z</time></trkpt><trkpt lat="44.97900023875657" lon="9.19319190342437"><ele>334.0</ele><time>2026-03-29T16:15:55Z</time></trkpt><trkpt lat="44.97900048322542" lon="9.193033945930981"><ele>333.5</ele><time>2026-03-29T16:15:56Z</time></trkpt><trkpt lat="44.979012730707154" lon="9.192876054698804"><ele>333.0</ele><time>2026-03-29T16:15:57Z</time></trkpt><trkpt lat="44.979032225173114" lon="9.192715666001455"><ele>332.5</ele><time>2026-03-29T16:15:58Z</time></trkpt><trkpt lat="44.97905274289163" lon="9.192526980244049"><ele>332.0</ele><time>2026-03-29T16:15:59Z</time></trkpt><trkpt lat="44.979068658779596" lon="9.192330655411583"><ele>330.75</ele><time>2026-03-29T16:16:00Z</time></trkpt><trkpt lat="44.9790753185349" lon="9.192139154062202"><ele>329.5</ele><time>2026-03-29T16:16:01Z</time></trkpt><trkpt lat="44.97907204513917" lon="9.191954728127662"><ele>328.25</ele><time>2026-03-29T16:16:02Z</time></trkpt><trkpt lat="44.979060767935266" lon="9.19176835941653"><ele>327.0</ele><time>2026-03-29T16:16:03Z</time></trkpt><trkpt lat="44.979051762941" lon="9.191594128674765"><ele>327.0</ele><time>2026-03-29T16:16:04Z</time></trkpt><trkpt lat="44.9790475063115" lon="9.191428008090138"><ele>327.0</ele><time>2026-03-29T16:16:05Z</time></trkpt><trkpt lat="44.97905903799718" lon="9.191282481563048"><ele>327.0</ele><time>2026-03-29T16:16:06Z</time></trkpt><trkpt lat="44.979079394607204" lon="9.191143217661155"><ele>327.0</ele><time>2026-03-29T16:16:07Z</time></trkpt><trkpt lat="44.979116872301084" lon="9.190980620298829"><ele>327.0</ele><time>2026-03-29T16:16:08Z</time></trkpt><trkpt lat="44.979153344374126" lon="9.190823234765723"><ele>322.5</ele><time>2026-03-29T16:16:09Z</time></trkpt><trkpt lat="44.97918617246049" lon="9.190667442173446"><ele>318.0</ele><time>2026-03-29T16:16:10Z</time></trkpt><trkpt lat="44.979215475206274" lon="9.190507646819375"><ele>313.5</ele><time>2026-03-29T16:16:11Z</time></trkpt><trkpt lat="44.979243396233485" lon="9.190346933789515"><ele>309.0</ele><time>2026-03-29T16:16:12Z</time></trkpt><trkpt lat="44.97925863535853" lon="9.190192396239206"><ele>309.0</ele><time>2026-03-29T16:16:13Z</time></trkpt><trkpt lat="44.979270006018105" lon="9.190052333077206"><ele>309.0</ele><time>2026-03-29T16:16:14Z</time></trkpt><trkpt lat="44.979264474640395" lon="9.189924280054916"><ele>309.0</ele><time>2026-03-29T16:16:15Z</time></trkpt><trkpt lat="44.979232739950476" lon="9.189805441435661"><ele>309.0</ele><time>2026-03-29T16:16:16Z</time></trkpt><trkpt lat="44.97918207018669" lon="9.189668534585296"><ele>309.0</ele><time>2026-03-29T16:16:17Z</time></trkpt><trkpt lat="44.97913911756701" lon="9.189532060763677"><ele>309.8</ele><time>2026-03-29T16:16:18Z</time></trkpt><trkpt lat="44.97910417092643" lon="9.189396297980434"><ele>310.59999999999997</ele><time>2026-03-29T16:16:19Z</time></trkpt><trkpt lat="44.97906670878795" lon="9.189264472073477"><ele>311.4</ele><time>2026-03-29T16:16:20Z</time></trkpt><trkpt lat="44.97903470101991" lon="9.189128019013612"><ele>312.2</ele><time>2026-03-29T16:16:21Z</time></trkpt><trkpt lat="44.979012842234724" lon="9.188977396455563"><ele>313.0</ele><time>2026-03-29T16:16:22Z</time></trkpt><trkpt lat="44.979004832120566" lon="9.18880927084299"><ele>313.0</ele><time>2026-03-29T16:16:23Z</time></trkpt><trkpt lat="44.97902420575679" lon="9.188638473525849"><ele>313.0</ele><time>2026-03-29T16:16:24Z</time></trkpt><trkpt lat="44.979059150033" lon="9.188473635300685"><ele>313.0</ele><time>2026-03-29T16:16:25Z</time></trkpt><trkpt lat="44.97910077304949" lon="9.188316408336858"><ele>313.0</ele><time>2026-03-29T16:16:26Z</time></trkpt><trkpt lat="44.97913690830687" lon="9.18817361185128"><ele>308.5</ele><time>2026-03-29T16:16:27Z</time></trkpt><trkpt lat="44.979205683518856" lon="9.188012514321128"><ele>304.0</ele><time>2026-03-29T16:16:28Z</time></trkpt><trkpt lat="44.979264662224246" lon="9.187804244709387"><ele>299.5</ele><time>2026-03-29T16:16:29Z</time></trkpt><trkpt lat="44.97933825440352" lon="9.18761972643073"><ele>295.0</ele><time>2026-03-29T16:16:30Z</time></trkpt><trkpt lat="44.97939752747595" lon="9.187422701447467"><ele>295.66666666666663</ele><time>2026-03-29T16:16:31Z</time></trkpt><trkpt lat="44.97942096607321" lon="9.187177209135376"><ele>296.3333333333333</ele><time>2026-03-29T16:16:32Z</time></trkpt><trkpt lat="44.979430339633936" lon="9.18691753909586"><ele>297.0</ele><time>2026-03-29T16:16:33Z</time></trkpt><trkpt lat="44.979445802242495" lon="9.186635757098285"><ele>298.0</ele><time>2026-03-29T16:16:34Z</time></trkpt><trkpt lat="44.979474231936166" lon="9.186344223452952"><ele>299.0</ele><time>2026-03-29T16:16:35Z</time></trkpt><trkpt lat="44.97953009299867" lon="9.186032565947453"><ele>300.0</ele><time>2026-03-29T16:16:36Z</time></trkpt><trkpt lat="44.979627145576956" lon="9.185717513155337"><ele>300.6666666666667</ele><time>2026-03-29T16:16:37Z</time></trkpt><trkpt lat="44.979715704857" lon="9.185436477260536"><ele>301.33333333333337</ele><time>2026-03-29T16:16:38Z</time></trkpt><trkpt lat="44.97978771877267" lon="9.185171099329814"><ele>302.0</ele><time>2026-03-29T16:16:39Z</time></trkpt><trkpt lat="44.97983230462623" lon="9.18490716149482"><ele>303.6666666666667</ele><time>2026-03-29T16:16:40Z</time></trkpt><trkpt lat="44.97984189772257" lon="9.184612576521669"><ele>305.3333333333333</ele><time>2026-03-29T16:16:41Z</time></trkpt><trkpt lat="44.979859569972696" lon="9.184324950093497"><ele>307.0</ele><time>2026-03-29T16:16:42Z</time></trkpt><trkpt lat="44.979898031384565" lon="9.184092035264124"><ele>307.3333333333333</ele><time>2026-03-29T16:16:43Z</time></trkpt><trkpt lat="44.97992599143147" lon="9.18389255234634"><ele>307.6666666666667</ele><time>2026-03-29T16:16:44Z</time></trkpt><trkpt lat="44.979936713407234" lon="9.183686640031105"><ele>308.0</ele><time>2026-03-29T16:16:45Z</time></trkpt><trkpt lat="44.97991895896362" lon="9.183447808920928"><ele>308.0</ele><time>2026-03-29T16:16:46Z</time></trkpt><trkpt lat="44.979899379593185" lon="9.18325360293444"><ele>308.0</ele><time>2026-03-29T16:16:47Z</time></trkpt><trkpt lat="44.97991538789181" lon="9.183103035849635"><ele>308.0</ele><time>2026-03-29T16:16:48Z</time></trkpt><trkpt lat="44.98000358233287" lon="9.183009516017453"><ele>308.0</ele><time>2026-03-29T16:16:49Z</time></trkpt><trkpt lat="44.980109766413236" lon="9.18286163562144"><ele>304.0</ele><time>2026-03-29T16:16:50Z</time></trkpt><trkpt lat="44.98023460428766" lon="9.182703122889905"><ele>300.0</ele><time>2026-03-29T16:16:51Z</time></trkpt><trkpt lat="44.98031082246443" lon="9.182496072647874"><ele>296.0</ele><time>2026-03-29T16:16:52Z</time></trkpt><trkpt lat="44.9803657853836" lon="9.182273262460189"><ele>294.6666666666667</ele><time>2026-03-29T16:16:53Z</time></trkpt><trkpt lat="44.98040415505485" lon="9.182020486484381"><ele>293.3333333333333</ele><time>2026-03-29T16:16:54Z</time></trkpt><trkpt lat="44.98043578041928" lon="9.181788724075215"><ele>292.0</ele><time>2026-03-29T16:16:55Z</time></trkpt><trkpt lat="44.98043506509277" lon="9.181587596679067"><ele>293.66666666666663</ele><time>2026-03-29T16:16:56Z</time></trkpt><trkpt lat="44.98040563936879" lon="9.181397383865027"><ele>295.3333333333333</ele><time>2026-03-29T16:16:57Z</time></trkpt><trkpt lat="44.98031444848524" lon="9.181208689041188"><ele>297.0</ele><time>2026-03-29T16:16:58Z</time></trkpt><trkpt lat="44.98019734682041" lon="9.181025208696797"><ele>297.0</ele><time>2026-03-29T16:16:59Z</time></trkpt><trkpt lat="44.98006791859413" lon="9.180852435697613"><ele>297.0</ele><time>2026-03-29T16:17:00Z</time></trkpt><trkpt lat="44.979971405496705" lon="9.180716038113008"><ele>297.0</ele><time>2026-03-29T16:17:01Z</time></trkpt><trkpt lat="44.97990897287829" lon="9.180572214191086"><ele>297.0</ele><time>2026-03-29T16:17:02Z</time></trkpt><trkpt lat="44.97988680449783" lon="9.180374678238891"><ele>300.3333333333333</ele><time>2026-03-29T16:17:03Z</time></trkpt><trkpt lat="44.9798898272432" lon="9.180147636393533"><ele>303.66666666666663</ele><time>2026-03-29T16:17:04Z</time></trkpt><trkpt lat="44.979918022417024" lon="9.179947628918534"><ele>307.0</ele><time>2026-03-29T16:17:05Z</time></trkpt><trkpt lat="44.979985588924286" lon="9.179737390709903"><ele>305.66666666666663</ele><time>2026-03-29T16:17:06Z</time></trkpt><trkpt lat="44.98006436147851" lon="9.1795255559581"><ele>304.3333333333333</ele><time>2026-03-29T16:17:07Z</time></trkpt><trkpt lat="44.98011666432382" lon="9.179275619357329"><ele>303.0</ele><time>2026-03-29T16:17:08Z</time></trkpt><trkpt lat="44.98016050429634" lon="9.178996443768392"><ele>302.3333333333333</ele><time>2026-03-29T16:17:09Z</time></trkpt><trkpt lat="44.98019404182501" lon="9.178723024055007"><ele>301.66666666666663</ele><time>2026-03-29T16:17:10Z</time></trkpt><trkpt lat="44.9802194784469" lon="9.17849534292945"><ele>301.0</ele><time>2026-03-29T16:17:11Z</time></trkpt><trkpt lat="44.98023137230864" lon="9.178278577283754"><ele>299.0</ele><time>2026-03-29T16:17:12Z</time></trkpt><trkpt lat="44.98020811241957" lon="9.178072683675504"><ele>297.0</ele><time>2026-03-29T16:17:13Z</time></trkpt><trkpt lat="44.980130836003205" lon="9.177862402194915"><ele>295.0</ele><time>2026-03-29T16:17:14Z</time></trkpt><trkpt lat="44.9800145523324" lon="9.177657976326888"><ele>299.3333333333333</ele><time>2026-03-29T16:17:15Z</time></trkpt><trkpt lat="44.979868131675794" lon="9.177469771763256"><ele>303.6666666666667</ele><time>2026-03-29T16:17:16Z</time></trkpt><trkpt lat="44.97973892218072" lon="9.17731526848376"><ele>308.0</ele><time>2026-03-29T16:17:17Z</time></trkpt><trkpt lat="44.97964731552225" lon="9.177184929060271"><ele>308.0</ele><time>2026-03-29T16:17:18Z</time></trkpt><trkpt lat="44.979591435561645" lon="9.177014553830086"><ele>308.0</ele><time>2026-03-29T16:17:19Z</time></trkpt><trkpt lat="44.979591302925904" lon="9.1767824932761"><ele>308.0</ele><time>2026-03-29T16:17:20Z</time></trkpt><trkpt lat="44.97960416435391" lon="9.176547469225005"><ele>307.33333333333337</ele><time>2026-03-29T16:17:21Z</time></trkpt><trkpt lat="44.97961999285658" lon="9.1762882117546"><ele>306.6666666666667</ele><time>2026-03-29T16:17:22Z</time></trkpt><trkpt lat="44.97963169229042" lon="9.176047010591944"><ele>306.0</ele><time>2026-03-29T16:17:23Z</time></trkpt><trkpt lat="44.97964686458776" lon="9.175861641053952"><ele>306.0</ele><time>2026-03-29T16:17:24Z</time></trkpt><trkpt lat="44.97969766094977" lon="9.175697214886924"><ele>306.0</ele><time>2026-03-29T16:17:25Z</time></trkpt><trkpt lat="44.979816254191554" lon="9.175592078456473"><ele>306.0</ele><time>2026-03-29T16:17:26Z</time></trkpt><trkpt lat="44.979951257547235" lon="9.175451718171091"><ele>306.0</ele><time>2026-03-29T16:17:27Z</time></trkpt><trkpt lat="44.98011030401307" lon="9.17532454988799"><ele>301.0</ele><time>2026-03-29T16:17:28Z</time></trkpt><trkpt lat="44.98028245705712" lon="9.17517334033735"><ele>296.0</ele><time>2026-03-29T16:17:29Z</time></trkpt><trkpt lat="44.98045627421706" lon="9.17501299825766"><ele>291.0</ele><time>2026-03-29T16:17:30Z</time></trkpt><trkpt lat="44.98061498515471" lon="9.17486959426823"><ele>290.0</ele><time>2026-03-29T16:17:31Z</time></trkpt><trkpt lat="44.98076776273453" lon="9.174714142865367"><ele>289.0</ele><time>2026-03-29T16:17:32Z</time></trkpt><trkpt lat="44.980903104130235" lon="9.174514281093977"><ele>288.0</ele><time>2026-03-29T16:17:33Z</time></trkpt><trkpt lat="44.98102684850762" lon="9.174272055496154"><ele>288.0</ele><time>2026-03-29T16:17:34Z</time></trkpt><trkpt lat="44.9811422124882" lon="9.174041532167534"><ele>288.0</ele><time>2026-03-29T16:17:35Z</time></trkpt><trkpt lat="44.98124826876911" lon="9.173795774011431"><ele>288.0</ele><time>2026-03-29T16:17:36Z</time></trkpt><trkpt lat="44.98135402418048" lon="9.173515463233864"><ele>289.0</ele><time>2026-03-29T16:17:37Z</time></trkpt><trkpt lat="44.98146323801272" lon="9.173231514322044"><ele>290.0</ele><time>2026-03-29T16:17:38Z</time></trkpt><trkpt lat="44.98156276395523" lon="9.172956778887306"><ele>291.0</ele><time>2026-03-29T16:17:39Z</time></trkpt><trkpt lat="44.981655573828306" lon="9.172705726457021"><ele>286.6666666666667</ele><time>2026-03-29T16:17:40Z</time></trkpt><trkpt lat="44.981741711750644" lon="9.172481865040544"><ele>282.33333333333337</ele><time>2026-03-29T16:17:41Z</time></trkpt><trkpt lat="44.981819214593926" lon="9.172274058341099"><ele>278.0</ele><time>2026-03-29T16:17:42Z</time></trkpt><trkpt lat="44.98189580812158" lon="9.172068207250017"><ele>276.33333333333337</ele><time>2026-03-29T16:17:43Z</time></trkpt><trkpt lat="44.98197384052513" lon="9.171862178319111"><ele>274.6666666666667</ele><time>2026-03-29T16:17:44Z</time></trkpt><trkpt lat="44.982052032430076" lon="9.171656274374897"><ele>273.0</ele><time>2026-03-29T16:17:45Z</time></trkpt><trkpt lat="44.982128439655824" lon="9.171449980767983"><ele>273.0</ele><time>2026-03-29T16:17:46Z</time></trkpt><trkpt lat="44.982205912467585" lon="9.171244499170866"><ele>273.0</ele><time>2026-03-29T16:17:47Z</time></trkpt><trkpt lat="44.982281890666215" lon="9.171041639458881"><ele>273.0</ele><time>2026-03-29T16:17:48Z</time></trkpt><trkpt lat="44.98235817478795" lon="9.170840452041913"><ele>273.5</ele><time>2026-03-29T16:17:49Z</time></trkpt><trkpt lat="44.98242929919732" lon="9.170646743270977"><ele>274.0</ele><time>2026-03-29T16:17:50Z</time></trkpt><trkpt lat="44.982498151835415" lon="9.170466957609628"><ele>274.5</ele><time>2026-03-29T16:17:51Z</time></trkpt><trkpt lat="44.98256098456408" lon="9.170296152864177"><ele>275.0</ele><time>2026-03-29T16:17:52Z</time></trkpt><trkpt lat="44.98261431397147" lon="9.17013120059107"><ele>273.0</ele><time>2026-03-29T16:17:53Z</time></trkpt><trkpt lat="44.98265593719964" lon="9.169968875838537"><ele>271.0</ele><time>2026-03-29T16:17:54Z</time></trkpt><trkpt lat="44.9826856932349" lon="9.16980253514197"><ele>269.0</ele><time>2026-03-29T16:17:55Z</time></trkpt><trkpt lat="44.98270511027356" lon="9.169635044529704"><ele>267.0</ele><time>2026-03-29T16:17:56Z</time></trkpt><trkpt lat="44.9827197659571" lon="9.169461181148133"><ele>267.0</ele><time>2026-03-29T16:17:57Z</time></trkpt><trkpt lat="44.98272750694472" lon="9.169295377053496"><ele>267.0</ele><time>2026-03-29T16:17:58Z</time></trkpt><trkpt lat="44.982729834695206" lon="9.169129918827895"><ele>267.0</ele><time>2026-03-29T16:17:59Z</time></trkpt><trkpt lat="44.98272230235787" lon="9.168956924517826"><ele>267.0</ele><time>2026-03-29T16:18:00Z</time></trkpt><trkpt lat="44.98270454212643" lon="9.168789647748493"><ele>267.0</ele><time>2026-03-29T16:18:01Z</time></trkpt><trkpt lat="44.98271295631094" lon="9.168619912709431"><ele>267.0</ele><time>2026-03-29T16:18:02Z</time></trkpt><trkpt lat="44.98275047260665" lon="9.16844244308002"><ele>267.0</ele><time>2026-03-29T16:18:03Z</time></trkpt><trkpt lat="44.98280068903868" lon="9.16824922981832"><ele>267.0</ele><time>2026-03-29T16:18:04Z</time></trkpt><trkpt lat="44.98285385108522" lon="9.16803615097858"><ele>267.6666666666667</ele><time>2026-03-29T16:18:05Z</time></trkpt><trkpt lat="44.98290297348083" lon="9.167811850282957"><ele>268.33333333333337</ele><time>2026-03-29T16:18:06Z</time></trkpt><trkpt lat="44.98294894806802" lon="9.167592773871235"><ele>269.0</ele><time>2026-03-29T16:18:07Z</time></trkpt><trkpt lat="44.98300693365117" lon="9.167369985576793"><ele>274.0</ele><time>2026-03-29T16:18:08Z</time></trkpt><trkpt lat="44.98309632028728" lon="9.167170783199511"><ele>279.0</ele><time>2026-03-29T16:18:09Z</time></trkpt><trkpt lat="44.98320868582797" lon="9.16697772428795"><ele>284.0</ele><time>2026-03-29T16:18:10Z</time></trkpt><trkpt lat="44.983339396418785" lon="9.166793542532654"><ele>282.0</ele><time>2026-03-29T16:18:11Z</time></trkpt><trkpt lat="44.98347270478678" lon="9.166600602870167"><ele>280.0</ele><time>2026-03-29T16:18:12Z</time></trkpt><trkpt lat="44.98361373084641" lon="9.166405599420367"><ele>278.0</ele><time>2026-03-29T16:18:13Z</time></trkpt><trkpt lat="44.9837562505135" lon="9.166198452919549"><ele>282.0</ele><time>2026-03-29T16:18:14Z</time></trkpt><trkpt lat="44.983901067956566" lon="9.165995625074212"><ele>286.0</ele><time>2026-03-29T16:18:15Z</time></trkpt><trkpt lat="44.984029012679215" lon="9.165845069053821"><ele>290.0</ele><time>2026-03-29T16:18:16Z</time></trkpt><trkpt lat="44.98419370166555" lon="9.165771992024972"><ele>290.0</ele><time>2026-03-29T16:18:17Z</time></trkpt><trkpt lat="44.984370785674486" lon="9.165713893848624"><ele>290.0</ele><time>2026-03-29T16:18:18Z</time></trkpt><trkpt lat="44.98455021829834" lon="9.165635457761363"><ele>290.0</ele><time>2026-03-29T16:18:19Z</time></trkpt><trkpt lat="44.98474013807182" lon="9.165565782069425"><ele>294.6666666666667</ele><time>2026-03-29T16:18:20Z</time></trkpt><trkpt lat="44.984923773590495" lon="9.165465699800556"><ele>299.3333333333333</ele><time>2026-03-29T16:18:21Z</time></trkpt><trkpt lat="44.98510667873354" lon="9.165333865237615"><ele>304.0</ele><time>2026-03-29T16:18:22Z</time></trkpt><trkpt lat="44.9852649230615" lon="9.165220202198075"><ele>304.0</ele><time>2026-03-29T16:18:23Z</time></trkpt><trkpt lat="44.98539514857841" lon="9.165129529697147"><ele>304.0</ele><time>2026-03-29T16:18:24Z</time></trkpt><trkpt lat="44.9855193959755" lon="9.165034722153978"><ele>304.0</ele><time>2026-03-29T16:18:25Z</time></trkpt><trkpt lat="44.98563268308636" lon="9.164886789647559"><ele>304.0</ele><time>2026-03-29T16:18:26Z</time></trkpt><trkpt lat="44.98574382349342" lon="9.164708973288064"><ele>306.66666666666663</ele><time>2026-03-29T16:18:27Z</time></trkpt><trkpt lat="44.985864237620845" lon="9.164510779038075"><ele>309.3333333333333</ele><time>2026-03-29T16:18:28Z</time></trkpt><trkpt lat="44.98598685348049" lon="9.164305554449266"><ele>312.0</ele><time>2026-03-29T16:18:29Z</time></trkpt><trkpt lat="44.98609007021944" lon="9.164106468645745"><ele>309.6666666666667</ele><time>2026-03-29T16:18:30Z</time></trkpt><trkpt lat="44.986155157415055" lon="9.16387887968043"><ele>307.33333333333337</ele><time>2026-03-29T16:18:31Z</time></trkpt><trkpt lat="44.98620051840456" lon="9.16361920815813"><ele>305.0</ele><time>2026-03-29T16:18:32Z</time></trkpt><trkpt lat="44.98624367712483" lon="9.163387079664451"><ele>300.6666666666667</ele><time>2026-03-29T16:18:33Z</time></trkpt><trkpt lat="44.98629763305347" lon="9.163194557286156"><ele>296.3333333333333</ele><time>2026-03-29T16:18:34Z</time></trkpt><trkpt lat="44.98639568338434" lon="9.163005282615535"><ele>292.0</ele><time>2026-03-29T16:18:35Z</time></trkpt><trkpt lat="44.98653261270484" lon="9.162839547914738"><ele>292.0</ele><time>2026-03-29T16:18:36Z</time></trkpt><trkpt lat="44.98665236744279" lon="9.162644874149354"><ele>292.0</ele><time>2026-03-29T16:18:37Z</time></trkpt><trkpt lat="44.98675163038684" lon="9.162522292889856"><ele>292.0</ele><time>2026-03-29T16:18:38Z</time></trkpt><trkpt lat="44.98684018318804" lon="9.16242921008527"><ele>292.0</ele><time>2026-03-29T16:18:39Z</time></trkpt><trkpt lat="44.98693293543046" lon="9.162412449331747"><ele>290.5</ele><time>2026-03-29T16:18:40Z</time></trkpt><trkpt lat="44.987024087161764" lon="9.162482979515293"><ele>289.0</ele><time>2026-03-29T16:18:41Z</time></trkpt><trkpt lat="44.987108982708676" lon="9.162589165094824"><ele>287.5</ele><time>2026-03-29T16:18:42Z</time></trkpt><trkpt lat="44.98721489616534" lon="9.162713076229133"><ele>286.0</ele><time>2026-03-29T16:18:43Z</time></trkpt><trkpt lat="44.987347138741626" lon="9.162836660790854"><ele>286.0</ele><time>2026-03-29T16:18:44Z</time></trkpt><trkpt lat="44.98747032172208" lon="9.163012124360803"><ele>286.0</ele><time>2026-03-29T16:18:45Z</time></trkpt><trkpt lat="44.98758237552046" lon="9.163139779569217"><ele>286.0</ele><time>2026-03-29T16:18:46Z</time></trkpt><trkpt lat="44.9876942689333" lon="9.163215434866766"><ele>286.0</ele><time>2026-03-29T16:18:47Z</time></trkpt><trkpt lat="44.98781477374329" lon="9.16324938108983"><ele>285.66666666666663</ele><time>2026-03-29T16:18:48Z</time></trkpt><trkpt lat="44.98794821839518" lon="9.163219274280104"><ele>285.3333333333333</ele><time>2026-03-29T16:18:49Z</time></trkpt><trkpt lat="44.98809293372357" lon="9.16313109138853"><ele>285.0</ele><time>2026-03-29T16:18:50Z</time></trkpt><trkpt lat="44.988243258362274" lon="9.16302028772373"><ele>290.3333333333333</ele><time>2026-03-29T16:18:51Z</time></trkpt><trkpt lat="44.98837683367509" lon="9.162898513878009"><ele>295.66666666666663</ele><time>2026-03-29T16:18:52Z</time></trkpt><trkpt lat="44.98849886032381" lon="9.162748481726506"><ele>301.0</ele><time>2026-03-29T16:18:53Z</time></trkpt><trkpt lat="44.98861231897043" lon="9.16256903204831"><ele>296.66666666666663</ele><time>2026-03-29T16:18:54Z</time></trkpt><trkpt lat="44.98871796724374" lon="9.162355854863621"><ele>292.3333333333333</ele><time>2026-03-29T16:18:55Z</time></trkpt><trkpt lat="44.988822855117405" lon="9.162104191142241"><ele>288.0</ele><time>2026-03-29T16:18:56Z</time></trkpt><trkpt lat="44.988925076192174" lon="9.161816785067455"><ele>290.0</ele><time>2026-03-29T16:18:57Z</time></trkpt><trkpt lat="44.98902585125628" lon="9.161519765817996"><ele>292.0</ele><time>2026-03-29T16:18:58Z</time></trkpt><trkpt lat="44.98912394992981" lon="9.161251766514171"><ele>294.0</ele><time>2026-03-29T16:18:59Z</time></trkpt><trkpt lat="44.98920063891836" lon="9.161035023081158"><ele>294.0</ele><time>2026-03-29T16:19:00Z</time></trkpt><trkpt lat="44.98926217695729" lon="9.16084997100772"><ele>294.0</ele><time>2026-03-29T16:19:01Z</time></trkpt><trkpt lat="44.98931297424561" lon="9.16066580953637"><ele>294.0</ele><time>2026-03-29T16:19:02Z</time></trkpt><trkpt lat="44.989318513408826" lon="9.160479791620721"><ele>294.0</ele><time>2026-03-29T16:19:03Z</time></trkpt><trkpt lat="44.989279461245346" lon="9.160266402089754"><ele>290.75</ele><time>2026-03-29T16:19:04Z</time></trkpt><trkpt lat="44.98922203960867" lon="9.160034595544053"><ele>287.5</ele><time>2026-03-29T16:19:05Z</time></trkpt><trkpt lat="44.98918122773847" lon="9.159859774688524"><ele>284.25</ele><time>2026-03-29T16:19:06Z</time></trkpt><trkpt lat="44.98916985398674" lon="9.15971468445421"><ele>281.0</ele><time>2026-03-29T16:19:07Z</time></trkpt><trkpt lat="44.9892052813895" lon="9.15960068175532"><ele>278.6</ele><time>2026-03-29T16:19:08Z</time></trkpt><trkpt lat="44.98926861271659" lon="9.159516080085703"><ele>276.20000000000005</ele><time>2026-03-29T16:19:09Z</time></trkpt><trkpt lat="44.989357710402786" lon="9.15947560499001"><ele>273.79999999999995</ele><time>2026-03-29T16:19:10Z</time></trkpt><trkpt lat="44.98945954999248" lon="9.15942115666942"><ele>271.4</ele><time>2026-03-29T16:19:11Z</time></trkpt><trkpt lat="44.98958285618047" lon="9.159348641618534"><ele>269.0</ele><time>2026-03-29T16:19:12Z</time></trkpt><trkpt lat="44.989688556442864" lon="9.15927195870816"><ele>269.0</ele><time>2026-03-29T16:19:13Z</time></trkpt><trkpt lat="44.98978233408426" lon="9.159213951304814"><ele>269.0</ele><time>2026-03-29T16:19:14Z</time></trkpt><trkpt lat="44.989874447885" lon="9.159162557885356"><ele>269.0</ele><time>2026-03-29T16:19:15Z</time></trkpt><trkpt lat="44.98995868556504" lon="9.159131498757763"><ele>269.0</ele><time>2026-03-29T16:19:16Z</time></trkpt><trkpt lat="44.99003926051366" lon="9.15912342273419"><ele>269.0</ele><time>2026-03-29T16:19:17Z</time></trkpt><trkpt lat="44.99010840407879" lon="9.159117990394327"><ele>269.0</ele><time>2026-03-29T16:19:18Z</time></trkpt><trkpt lat="44.99017457524163" lon="9.159100365954252"><ele>269.33333333333337</ele><time>2026-03-29T16:19:19Z</time></trkpt><trkpt lat="44.99024173966968" lon="9.159064965079244"><ele>269.6666666666667</ele><time>2026-03-29T16:19:20Z</time></trkpt><trkpt lat="44.99030286213462" lon="9.1590044491859"><ele>270.0</ele><time>2026-03-29T16:19:21Z</time></trkpt><trkpt lat="44.99035364908552" lon="9.158923370969061"><ele>270.3333333333333</ele><time>2026-03-29T16:19:22Z</time></trkpt><trkpt lat="44.99039277765905" lon="9.158821678932002"><ele>270.66666666666663</ele><time>2026-03-29T16:19:23Z</time></trkpt><trkpt lat="44.990421209869986" lon="9.158712044460973"><ele>271.0</ele><time>2026-03-29T16:19:24Z</time></trkpt><trkpt lat="44.990453482201495" lon="9.15860150539253"><ele>271.0</ele><time>2026-03-29T16:19:25Z</time></trkpt><trkpt lat="44.9904828342624" lon="9.15849174797153"><ele>271.0</ele><time>2026-03-29T16:19:26Z</time></trkpt><trkpt lat="44.99051127612314" lon="9.158388202149624"><ele>271.0</ele><time>2026-03-29T16:19:27Z</time></trkpt><trkpt lat="44.99054238861284" lon="9.158283625920287"><ele>271.0</ele><time>2026-03-29T16:19:28Z</time></trkpt><trkpt lat="44.99057471534686" lon="9.158169419986095"><ele>271.0</ele><time>2026-03-29T16:19:29Z</time></trkpt><trkpt lat="44.99059630615376" lon="9.15805860649947"><ele>271.0</ele><time>2026-03-29T16:19:30Z</time></trkpt><trkpt lat="44.99064324719303" lon="9.157953648732773"><ele>270.0</ele><time>2026-03-29T16:19:31Z</time></trkpt><trkpt lat="44.99065634943899" lon="9.15782736623116"><ele>269.0</ele><time>2026-03-29T16:19:32Z</time></trkpt><trkpt lat="44.99069252817136" lon="9.157709189646619"><ele>268.0</ele><time>2026-03-29T16:19:33Z</time></trkpt><trkpt lat="44.99073039273512" lon="9.157594128620012"><ele>267.0</ele><time>2026-03-29T16:19:34Z</time></trkpt><trkpt lat="44.99072581813571" lon="9.157459341591554"><ele>266.0</ele><time>2026-03-29T16:19:35Z</time></trkpt><trkpt lat="44.99076603126485" lon="9.157342183402697"><ele>265.0</ele><time>2026-03-29T16:19:36Z</time></trkpt><trkpt lat="44.99078071675383" lon="9.15720203382154"><ele>264.0</ele><time>2026-03-29T16:19:37Z</time></trkpt><trkpt lat="44.99078777799355" lon="9.157060365898626"><ele>263.0</ele><time>2026-03-29T16:19:38Z</time></trkpt><trkpt lat="44.99081437247098" lon="9.15692925411535"><ele>262.0</ele><time>2026-03-29T16:19:39Z</time></trkpt><trkpt lat="44.99078813384719" lon="9.156783384127584"><ele>261.0</ele><time>2026-03-29T16:19:40Z</time></trkpt><trkpt lat="44.99080586401686" lon="9.15665399177376"><ele>262.0</ele><time>2026-03-29T16:19:41Z</time></trkpt><trkpt lat="44.990794632039844" lon="9.156512261129754"><ele>263.0</ele><time>2026-03-29T16:19:42Z</time></trkpt><trkpt lat="44.990781124658625" lon="9.156369947951855"><ele>264.0</ele><time>2026-03-29T16:19:43Z</time></trkpt><trkpt lat="44.99080623550292" lon="9.156231664885654"><ele>265.0</ele><time>2026-03-29T16:19:44Z</time></trkpt><trkpt lat="44.99082326321735" lon="9.156092825152871"><ele>266.0</ele><time>2026-03-29T16:19:45Z</time></trkpt><trkpt lat="44.990847139565844" lon="9.155971412663678"><ele>266.0</ele><time>2026-03-29T16:19:46Z</time></trkpt><trkpt lat="44.9908730676634" lon="9.155859139996615"><ele>266.0</ele><time>2026-03-29T16:19:47Z</time></trkpt><trkpt lat="44.990902590452194" lon="9.155742025413051"><ele>266.0</ele><time>2026-03-29T16:19:48Z</time></trkpt><trkpt lat="44.99093230793031" lon="9.155621508451818"><ele>266.0</ele><time>2026-03-29T16:19:49Z</time></trkpt><trkpt lat="44.99096132180491" lon="9.155496492651974"><ele>266.0</ele><time>2026-03-29T16:19:50Z</time></trkpt><trkpt lat="44.99098984529038" lon="9.155368010086963"><ele>263.8</ele><time>2026-03-29T16:19:51Z</time></trkpt><trkpt lat="44.99101624776786" lon="9.155238976939744"><ele>261.6</ele><time>2026-03-29T16:19:52Z</time></trkpt><trkpt lat="44.99104521017326" lon="9.155109557520557"><ele>259.4</ele><time>2026-03-29T16:19:53Z</time></trkpt><trkpt lat="44.99107563563719" lon="9.154976336375896"><ele>257.2</ele><time>2026-03-29T16:19:54Z</time></trkpt><trkpt lat="44.99110730416884" lon="9.154840997547685"><ele>255.0</ele><time>2026-03-29T16:19:55Z</time></trkpt><trkpt lat="44.99113962021519" lon="9.154705961584284"><ele>253.4</ele><time>2026-03-29T16:19:56Z</time></trkpt><trkpt lat="44.991180705140245" lon="9.154577009773949"><ele>251.8</ele><time>2026-03-29T16:19:57Z</time></trkpt><trkpt lat="44.991233446665994" lon="9.154461271178084"><ele>250.2</ele><time>2026-03-29T16:19:58Z</time></trkpt><trkpt lat="44.991292381498305" lon="9.154355376155358"><ele>248.6</ele><time>2026-03-29T16:19:59Z</time></trkpt><trkpt lat="44.99135882357148" lon="9.15426141391308"><ele>247.0</ele><time>2026-03-29T16:20:00Z</time></trkpt><trkpt lat="44.99141924110359" lon="9.154175474548225"><ele>246.99999999999997</ele><time>2026-03-29T16:20:01Z</time></trkpt><trkpt lat="44.99148583533234" lon="9.154097204441594"><ele>247.0</ele><time>2026-03-29T16:20:02Z</time></trkpt><trkpt lat="44.99155752793634" lon="9.154027812646854"><ele>247.0</ele><time>2026-03-29T16:20:03Z</time></trkpt><trkpt lat="44.991627373946756" lon="9.153950915260015"><ele>247.0</ele><time>2026-03-29T16:20:04Z</time></trkpt><trkpt lat="44.991700303265056" lon="9.153872358519962"><ele>246.99999999999997</ele><time>2026-03-29T16:20:05Z</time></trkpt><trkpt lat="44.99177494457844" lon="9.153791688623315"><ele>247.0</ele><time>2026-03-29T16:20:06Z</time></trkpt><trkpt lat="44.99184920392437" lon="9.153708971903333"><ele>246.2</ele><time>2026-03-29T16:20:07Z</time></trkpt><trkpt lat="44.99192513584061" lon="9.153624995531121"><ele>245.39999999999998</ele><time>2026-03-29T16:20:08Z</time></trkpt><trkpt lat="44.99200213681198" lon="9.153538625214425"><ele>244.60000000000002</ele><time>2026-03-29T16:20:09Z</time></trkpt><trkpt lat="44.9920774744483" lon="9.153447493409418"><ele>243.8</ele><time>2026-03-29T16:20:10Z</time></trkpt><trkpt lat="44.992157556345475" lon="9.153361222838708"><ele>243.0</ele><time>2026-03-29T16:20:11Z</time></trkpt><trkpt lat="44.99223288162612" lon="9.15327398180646"><ele>242.2</ele><time>2026-03-29T16:20:12Z</time></trkpt><trkpt lat="44.992309585527956" lon="9.153188870755507"><ele>241.4</ele><time>2026-03-29T16:20:13Z</time></trkpt><trkpt lat="44.9923853226677" lon="9.153102773998466"><ele>240.59999999999997</ele><time>2026-03-29T16:20:14Z</time></trkpt><trkpt lat="44.99245974838228" lon="9.153014165701082"><ele>239.79999999999998</ele><time>2026-03-29T16:20:15Z</time></trkpt><trkpt lat="44.99253241750801" lon="9.15292073133702"><ele>239.0</ele><time>2026-03-29T16:20:16Z</time></trkpt><trkpt lat="44.99260016095272" lon="9.152820292071164"><ele>239.0</ele><time>2026-03-29T16:20:17Z</time></trkpt><trkpt lat="44.99266141236965" lon="9.152712001878282"><ele>238.99999999999997</ele><time>2026-03-29T16:20:18Z</time></trkpt><trkpt lat="44.99271674562658" lon="9.152596286838214"><ele>238.99999999999997</ele><time>2026-03-29T16:20:19Z</time></trkpt><trkpt lat="44.99276976141254" lon="9.152476012603183"><ele>239.0</ele><time>2026-03-29T16:20:20Z</time></trkpt><trkpt lat="44.99282266987626" lon="9.152354443143588"><ele>239.0</ele><time>2026-03-29T16:20:21Z</time></trkpt><trkpt lat="44.99287429579949" lon="9.152232955503045"><ele>241.6</ele><time>2026-03-29T16:20:22Z</time></trkpt><trkpt lat="44.9929278731707" lon="9.152111761641827"><ele>244.2</ele><time>2026-03-29T16:20:23Z</time></trkpt><trkpt lat="44.99297816957094" lon="9.151990687604815"><ele>246.79999999999998</ele><time>2026-03-29T16:20:24Z</time></trkpt><trkpt lat="44.99302774430349" lon="9.151870414749771"><ele>249.39999999999998</ele><time>2026-03-29T16:20:25Z</time></trkpt><trkpt lat="44.99307085709592" lon="9.151747894545323"><ele>252.0</ele><time>2026-03-29T16:20:26Z</time></trkpt><trkpt lat="44.9931062046918" lon="9.151623662868658"><ele>251.0</ele><time>2026-03-29T16:20:27Z</time></trkpt><trkpt lat="44.99313371615133" lon="9.151497760881822"><ele>250.0</ele><time>2026-03-29T16:20:28Z</time></trkpt><trkpt lat="44.99315503596396" lon="9.151371560989826"><ele>249.0</ele><time>2026-03-29T16:20:29Z</time></trkpt><trkpt lat="44.99317437552147" lon="9.15124356352835"><ele>248.0</ele><time>2026-03-29T16:20:30Z</time></trkpt><trkpt lat="44.99319099657711" lon="9.151118371546556"><ele>247.0</ele><time>2026-03-29T16:20:31Z</time></trkpt><trkpt lat="44.99320841393297" lon="9.1509956262214"><ele>246.99999999999997</ele><time>2026-03-29T16:20:32Z</time></trkpt><trkpt lat="44.99322979061531" lon="9.15087300660284"><ele>247.0</ele><time>2026-03-29T16:20:33Z</time></trkpt><trkpt lat="44.993252804336386" lon="9.150753074489327"><ele>247.0</ele><time>2026-03-29T16:20:34Z</time></trkpt><trkpt lat="44.99327304511059" lon="9.150632444639264"><ele>247.0</ele><time>2026-03-29T16:20:35Z</time></trkpt><trkpt lat="44.99329079876415" lon="9.150527794494"><ele>246.99999999999997</ele><time>2026-03-29T16:20:36Z</time></trkpt><trkpt lat="44.993312220659206" lon="9.150389779215057"><ele>247.0</ele><time>2026-03-29T16:20:38Z</time></trkpt><trkpt lat="44.99333782980923" lon="9.150274897920895"><ele>247.6</ele><time>2026-03-29T16:21:16Z</time></trkpt><trkpt lat="44.993361002897984" lon="9.150144651076465"><ele>248.2</ele><time>2026-03-29T16:21:18Z</time></trkpt><trkpt lat="44.99339591688903" lon="9.149973712795"><ele>248.8</ele><time>2026-03-29T16:21:20Z</time></trkpt><trkpt lat="44.993424938749584" lon="9.149862877977537"><ele>249.4</ele><time>2026-03-29T16:21:21Z</time></trkpt><trkpt lat="44.99347046476246" lon="9.149726757617469"><ele>250.0</ele><time>2026-03-29T16:21:22Z</time></trkpt><trkpt lat="44.993530890358315" lon="9.149578274380872"><ele>247.75</ele><time>2026-03-29T16:21:23Z</time></trkpt><trkpt lat="44.99360594221234" lon="9.149444608630086"><ele>245.5</ele><time>2026-03-29T16:21:24Z</time></trkpt><trkpt lat="44.99370361679935" lon="9.149309620823251"><ele>243.25</ele><time>2026-03-29T16:21:25Z</time></trkpt><trkpt lat="44.993815008009165" lon="9.149184007487566"><ele>241.0</ele><time>2026-03-29T16:21:26Z</time></trkpt><trkpt lat="44.99395568859292" lon="9.149056230176793"><ele>239.25</ele><time>2026-03-29T16:21:27Z</time></trkpt><trkpt lat="44.99408498715859" lon="9.14891422562986"><ele>237.5</ele><time>2026-03-29T16:21:28Z</time></trkpt><trkpt lat="44.99419401619249" lon="9.148795138896423"><ele>235.75</ele><time>2026-03-29T16:21:29Z</time></trkpt><trkpt lat="44.99431635167515" lon="9.148734338992357"><ele>234.0</ele><time>2026-03-29T16:21:30Z</time></trkpt><trkpt lat="44.994431408518956" lon="9.148685045649575"><ele>234.0</ele><time>2026-03-29T16:21:31Z</time></trkpt><trkpt lat="44.99451956603829" lon="9.148623188837059"><ele>233.99999999999997</ele><time>2026-03-29T16:21:32Z</time></trkpt><trkpt lat="44.9945991466237" lon="9.148565715794035"><ele>233.99999999999997</ele><time>2026-03-29T16:21:33Z</time></trkpt><trkpt lat="44.994677711879504" lon="9.148461373719233"><ele>234.0</ele><time>2026-03-29T16:21:34Z</time></trkpt><trkpt lat="44.994769164735196" lon="9.148304747142985"><ele>234.0</ele><time>2026-03-29T16:21:35Z</time></trkpt><trkpt lat="44.99483936166028" lon="9.148167354272418"><ele>233.75</ele><time>2026-03-29T16:21:36Z</time></trkpt><trkpt lat="44.994890400295056" lon="9.148036617458441"><ele>233.5</ele><time>2026-03-29T16:21:37Z</time></trkpt><trkpt lat="44.99491554802402" lon="9.147880278076862"><ele>233.25</ele><time>2026-03-29T16:21:38Z</time></trkpt><trkpt lat="44.99491630934966" lon="9.147683501879568"><ele>233.0</ele><time>2026-03-29T16:21:39Z</time></trkpt><trkpt lat="44.99491753680023" lon="9.147505054563947"><ele>231.0</ele><time>2026-03-29T16:21:40Z</time></trkpt><trkpt lat="44.99494257167579" lon="9.1473752800289"><ele>229.0</ele><time>2026-03-29T16:21:41Z</time></trkpt><trkpt lat="44.99500749083938" lon="9.147274692157934"><ele>227.0</ele><time>2026-03-29T16:21:42Z</time></trkpt><trkpt lat="44.995120000184976" lon="9.147317277806664"><ele>225.0</ele><time>2026-03-29T16:21:43Z</time></trkpt><trkpt lat="44.99522083649888" lon="9.14737636860793"><ele>223.0</ele><time>2026-03-29T16:21:44Z</time></trkpt><trkpt lat="44.995330713893196" lon="9.147377447144292"><ele>221.60000000000002</ele><time>2026-03-29T16:21:45Z</time></trkpt><trkpt lat="44.9954285013911" lon="9.147378267396176"><ele>220.20000000000002</ele><time>2026-03-29T16:21:46Z</time></trkpt><trkpt lat="44.99547846146995" lon="9.147278760280296"><ele>218.8</ele><time>2026-03-29T16:21:47Z</time></trkpt><trkpt lat="44.995519746235175" lon="9.147161912635251"><ele>217.4</ele><time>2026-03-29T16:21:48Z</time></trkpt><trkpt lat="44.99548677791332" lon="9.147013230475832"><ele>216.0</ele><time>2026-03-29T16:21:49Z</time></trkpt><trkpt lat="44.99538754763282" lon="9.146907624008751"><ele>216.0</ele><time>2026-03-29T16:21:50Z</time></trkpt><trkpt lat="44.99526478125124" lon="9.146782690369719"><ele>216.0</ele><time>2026-03-29T16:21:51Z</time></trkpt><trkpt lat="44.9951524514939" lon="9.146630199665143"><ele>216.0</ele><time>2026-03-29T16:21:52Z</time></trkpt><trkpt lat="44.99503591920524" lon="9.146444606832858"><ele>215.66666666666669</ele><time>2026-03-29T16:21:53Z</time></trkpt><trkpt lat="44.9949212499817" lon="9.146236324891658"><ele>215.33333333333334</ele><time>2026-03-29T16:21:54Z</time></trkpt><trkpt lat="44.994825139857" lon="9.146067873112978"><ele>215.0</ele><time>2026-03-29T16:21:55Z</time></trkpt><trkpt lat="44.994738515737225" lon="9.145916511879141"><ele>215.0</ele><time>2026-03-29T16:21:56Z</time></trkpt><trkpt lat="44.99468493370232" lon="9.145809886715258"><ele>215.0</ele><time>2026-03-29T16:21:57Z</time></trkpt><trkpt lat="44.994665779718694" lon="9.14568800985875"><ele>215.0</ele><time>2026-03-29T16:21:58Z</time></trkpt><trkpt lat="44.99471103003848" lon="9.145573349149991"><ele>215.0</ele><time>2026-03-29T16:21:59Z</time></trkpt><trkpt lat="44.99480990206995" lon="9.145508581834108"><ele>215.0</ele><time>2026-03-29T16:22:00Z</time></trkpt><trkpt lat="44.99492487326667" lon="9.145565267888935"><ele>214.0</ele><time>2026-03-29T16:22:01Z</time></trkpt><trkpt lat="44.995010567982405" lon="9.145676898923353"><ele>213.0</ele><time>2026-03-29T16:22:02Z</time></trkpt><trkpt lat="44.99511610469229" lon="9.145814844535513"><ele>212.0</ele><time>2026-03-29T16:22:03Z</time></trkpt><trkpt lat="44.995247527988106" lon="9.145897521421631"><ele>211.0</ele><time>2026-03-29T16:22:04Z</time></trkpt><trkpt lat="44.99538805330758" lon="9.145909379428238"><ele>211.0</ele><time>2026-03-29T16:22:05Z</time></trkpt><trkpt lat="44.99553303468044" lon="9.145829823454402"><ele>211.0</ele><time>2026-03-29T16:22:06Z</time></trkpt><trkpt lat="44.995672560449094" lon="9.145671554284052"><ele>211.0</ele><time>2026-03-29T16:22:07Z</time></trkpt><trkpt lat="44.99578060290649" lon="9.1454500803596"><ele>209.33333333333331</ele><time>2026-03-29T16:22:08Z</time></trkpt><trkpt lat="44.995858478483775" lon="9.145189144594962"><ele>207.66666666666669</ele><time>2026-03-29T16:22:09Z</time></trkpt><trkpt lat="44.99594061700573" lon="9.14497728408526"><ele>206.0</ele><time>2026-03-29T16:22:10Z</time></trkpt><trkpt lat="44.99604850113857" lon="9.144789498573822"><ele>203.66666666666669</ele><time>2026-03-29T16:22:11Z</time></trkpt><trkpt lat="44.99620218822142" lon="9.144646782695714"><ele>201.33333333333331</ele><time>2026-03-29T16:22:12Z</time></trkpt><trkpt lat="44.996372784046535" lon="9.144478102046781"><ele>199.0</ele><time>2026-03-29T16:22:13Z</time></trkpt><trkpt lat="44.99653424734947" lon="9.144309207758559"><ele>196.66666666666666</ele><time>2026-03-29T16:22:14Z</time></trkpt><trkpt lat="44.996706739750856" lon="9.144173958945617"><ele>194.33333333333331</ele><time>2026-03-29T16:22:15Z</time></trkpt><trkpt lat="44.996866339966346" lon="9.144062821359011"><ele>192.0</ele><time>2026-03-29T16:22:16Z</time></trkpt><trkpt lat="44.997018009895164" lon="9.144005815689077"><ele>190.0</ele><time>2026-03-29T16:22:17Z</time></trkpt><trkpt lat="44.9971718507666" lon="9.143975722577537"><ele>188.0</ele><time>2026-03-29T16:22:18Z</time></trkpt><trkpt lat="44.99735190597018" lon="9.143961953859716"><ele>186.0</ele><time>2026-03-29T16:22:19Z</time></trkpt><trkpt lat="44.99755690861244" lon="9.143958517381112"><ele>185.66666666666666</ele><time>2026-03-29T16:22:20Z</time></trkpt><trkpt lat="44.99777182203534" lon="9.143955286505403"><ele>185.33333333333331</ele><time>2026-03-29T16:22:21Z</time></trkpt><trkpt lat="44.997940902465984" lon="9.143952744657588"><ele>185.0</ele><time>2026-03-29T16:22:22Z</time></trkpt><trkpt lat="44.998098318861075" lon="9.143947697323531"><ele>185.0</ele><time>2026-03-29T16:22:23Z</time></trkpt><trkpt lat="44.99825145199664" lon="9.143909294427093"><ele>185.0</ele><time>2026-03-29T16:22:24Z</time></trkpt><trkpt lat="44.99837302600302" lon="9.143873756501161"><ele>185.0</ele><time>2026-03-29T16:22:25Z</time></trkpt><trkpt lat="44.998462179678135" lon="9.143801015578228"><ele>185.0</ele><time>2026-03-29T16:22:26Z</time></trkpt><trkpt lat="44.99854191889079" lon="9.143681302274658"><ele>182.5</ele><time>2026-03-29T16:22:27Z</time></trkpt><trkpt lat="44.9986000567345" lon="9.14351003848799"><ele>180.0</ele><time>2026-03-29T16:22:28Z</time></trkpt><trkpt lat="44.99863120995401" lon="9.143313773481696"><ele>177.5</ele><time>2026-03-29T16:22:29Z</time></trkpt><trkpt lat="44.998651543789656" lon="9.143138876850706"><ele>175.0</ele><time>2026-03-29T16:22:30Z</time></trkpt><trkpt lat="44.9986449682137" lon="9.142948107842518"><ele>175.0</ele><time>2026-03-29T16:22:31Z</time></trkpt><trkpt lat="44.99862459553747" lon="9.142724798712447"><ele>175.0</ele><time>2026-03-29T16:22:32Z</time></trkpt><trkpt lat="44.99858383272537" lon="9.142484875116786"><ele>175.0</ele><time>2026-03-29T16:22:33Z</time></trkpt><trkpt lat="44.998533746865576" lon="9.142283871728397"><ele>174.25</ele><time>2026-03-29T16:22:34Z</time></trkpt><trkpt lat="44.998479615137384" lon="9.142118066107411"><ele>173.5</ele><time>2026-03-29T16:22:35Z</time></trkpt><trkpt lat="44.998394154267196" lon="9.141987217242947"><ele>172.75</ele><time>2026-03-29T16:22:36Z</time></trkpt><trkpt lat="44.99828065496024" lon="9.141914276217678"><ele>172.0</ele><time>2026-03-29T16:22:37Z</time></trkpt><trkpt lat="44.99815570684274" lon="9.141895449544302"><ele>170.75</ele><time>2026-03-29T16:22:38Z</time></trkpt><trkpt lat="44.99802725730069" lon="9.14192227720082"><ele>169.5</ele><time>2026-03-29T16:22:39Z</time></trkpt><trkpt lat="44.99789062067212" lon="9.142012471388595"><ele>168.25</ele><time>2026-03-29T16:22:40Z</time></trkpt><trkpt lat="44.997745455303566" lon="9.142102543029024"><ele>167.0</ele><time>2026-03-29T16:22:41Z</time></trkpt><trkpt lat="44.99761410767442" lon="9.142150559152944"><ele>166.0</ele><time>2026-03-29T16:22:42Z</time></trkpt><trkpt lat="44.997487891042326" lon="9.14216428452053"><ele>165.0</ele><time>2026-03-29T16:22:43Z</time></trkpt><trkpt lat="44.997365305573894" lon="9.14215775897443"><ele>164.0</ele><time>2026-03-29T16:22:44Z</time></trkpt><trkpt lat="44.99724873896629" lon="9.142143979082242"><ele>163.0</ele><time>2026-03-29T16:22:45Z</time></trkpt><trkpt lat="44.997147397344456" lon="9.142126822657106"><ele>163.0</ele><time>2026-03-29T16:22:46Z</time></trkpt><trkpt lat="44.997060893925564" lon="9.142113848960292"><ele>163.0</ele><time>2026-03-29T16:22:47Z</time></trkpt><trkpt lat="44.99697615746251" lon="9.142100705798484"><ele>163.0</ele><time>2026-03-29T16:22:48Z</time></trkpt><trkpt lat="44.99688366807532" lon="9.142088212767302"><ele>163.0</ele><time>2026-03-29T16:22:49Z</time></trkpt><trkpt lat="44.99678615946116" lon="9.1420791113033"><ele>163.0</ele><time>2026-03-29T16:22:50Z</time></trkpt><trkpt lat="44.99669480555846" lon="9.14205360273397"><ele>163.33333333333334</ele><time>2026-03-29T16:22:51Z</time></trkpt><trkpt lat="44.99662531190121" lon="9.14198602191188"><ele>163.66666666666669</ele><time>2026-03-29T16:22:52Z</time></trkpt><trkpt lat="44.9965873387501" lon="9.14190919787949"><ele>164.0</ele><time>2026-03-29T16:22:53Z</time></trkpt><trkpt lat="44.996568571058006" lon="9.141735184443325"><ele>164.33333333333334</ele><time>2026-03-29T16:22:55Z</time></trkpt><trkpt lat="44.99658965695646" lon="9.141642899613654"><ele>164.66666666666666</ele><time>2026-03-29T16:22:56Z</time></trkpt><trkpt lat="44.99663183054636" lon="9.14155996874385"><ele>165.0</ele><time>2026-03-29T16:22:57Z</time></trkpt><trkpt lat="44.99668618068035" lon="9.14149744669757"><ele>163.0</ele><time>2026-03-29T16:22:58Z</time></trkpt><trkpt lat="44.996757124141645" lon="9.141458450599819"><ele>161.0</ele><time>2026-03-29T16:22:59Z</time></trkpt><trkpt lat="44.99683159936167" lon="9.141417260137663"><ele>159.0</ele><time>2026-03-29T16:23:00Z</time></trkpt><trkpt lat="44.99691083632871" lon="9.141370711663507"><ele>157.0</ele><time>2026-03-29T16:23:01Z</time></trkpt><trkpt lat="44.99699546234936" lon="9.14132381058385"><ele>155.0</ele><time>2026-03-29T16:23:02Z</time></trkpt><trkpt lat="44.99708366558619" lon="9.141275087570774"><ele>153.0</ele><time>2026-03-29T16:23:03Z</time></trkpt><trkpt lat="44.99717764013908" lon="9.141224265352792"><ele>153.0</ele><time>2026-03-29T16:23:04Z</time></trkpt><trkpt lat="44.99727367700454" lon="9.141171712095815"><ele>153.0</ele><time>2026-03-29T16:23:05Z</time></trkpt><trkpt lat="44.99747174418089" lon="9.14105527870024"><ele>153.0</ele><time>2026-03-29T16:23:07Z</time></trkpt><trkpt lat="44.99758272346237" lon="9.140998356419358"><ele>153.0</ele><time>2026-03-29T16:23:08Z</time></trkpt><trkpt lat="44.997691501216636" lon="9.140936662830544"><ele>152.5</ele><time>2026-03-29T16:23:09Z</time></trkpt><trkpt lat="44.997804913203396" lon="9.140871077990045"><ele>152.0</ele><time>2026-03-29T16:23:10Z</time></trkpt><trkpt lat="44.997913606374716" lon="9.140815131631475"><ele>151.5</ele><time>2026-03-29T16:23:11Z</time></trkpt><trkpt lat="44.99801971921391" lon="9.14075313303395"><ele>151.0</ele><time>2026-03-29T16:23:12Z</time></trkpt><trkpt lat="44.99812666931152" lon="9.140697556680363"><ele>149.25</ele><time>2026-03-29T16:23:13Z</time></trkpt><trkpt lat="44.99823174752289" lon="9.140631797802495"><ele>147.5</ele><time>2026-03-29T16:23:14Z</time></trkpt><trkpt lat="44.99833962771108" lon="9.140568136121741"><ele>145.75</ele><time>2026-03-29T16:23:15Z</time></trkpt><trkpt lat="44.99845016105088" lon="9.140507763927955"><ele>144.0</ele><time>2026-03-29T16:23:16Z</time></trkpt><trkpt lat="44.99857368772469" lon="9.140443751318811"><ele>144.0</ele><time>2026-03-29T16:23:17Z</time></trkpt><trkpt lat="44.99868146962096" lon="9.140349114564128"><ele>144.0</ele><time>2026-03-29T16:23:18Z</time></trkpt><trkpt lat="44.99879113066553" lon="9.140250376421148"><ele>144.0</ele><time>2026-03-29T16:23:19Z</time></trkpt><trkpt lat="44.99888819847946" lon="9.140129665797437"><ele>144.0</ele><time>2026-03-29T16:23:20Z</time></trkpt><trkpt lat="44.9989882954215" lon="9.140005747357451"><ele>144.0</ele><time>2026-03-29T16:23:21Z</time></trkpt><trkpt lat="44.99909051312627" lon="9.139884883488126"><ele>144.0</ele><time>2026-03-29T16:23:22Z</time></trkpt><trkpt lat="44.99918731094032" lon="9.139770569395935"><ele>144.0</ele><time>2026-03-29T16:23:23Z</time></trkpt><trkpt lat="44.99928901598084" lon="9.139665493360424"><ele>144.0</ele><time>2026-03-29T16:23:24Z</time></trkpt><trkpt lat="44.99940822811799" lon="9.13959128893339"><ele>141.0</ele><time>2026-03-29T16:23:25Z</time></trkpt><trkpt lat="44.999533208215816" lon="9.139524448787672"><ele>138.0</ele><time>2026-03-29T16:23:26Z</time></trkpt><trkpt lat="44.99965809281128" lon="9.139458368052814"><ele>135.0</ele><time>2026-03-29T16:23:27Z</time></trkpt><trkpt lat="44.99978238311607" lon="9.139372995962056"><ele>132.0</ele><time>2026-03-29T16:23:28Z</time></trkpt><trkpt lat="44.99989762191271" lon="9.13926536763609"><ele>132.0</ele><time>2026-03-29T16:23:29Z</time></trkpt><trkpt lat="45.00000916977826" lon="9.139157652075397"><ele>132.0</ele><time>2026-03-29T16:23:30Z</time></trkpt><trkpt lat="45.000123326756416" lon="9.139058297231067"><ele>132.0</ele><time>2026-03-29T16:23:31Z</time></trkpt><trkpt lat="45.00024075054867" lon="9.138969122890245"><ele>132.0</ele><time>2026-03-29T16:23:32Z</time></trkpt><trkpt lat="45.000360106919175" lon="9.138879459899842"><ele>129.25</ele><time>2026-03-29T16:23:33Z</time></trkpt><trkpt lat="45.000479374180536" lon="9.138789863845787"><ele>126.5</ele><time>2026-03-29T16:23:34Z</time></trkpt><trkpt lat="45.000598190958556" lon="9.138701904524224"><ele>123.75</ele><time>2026-03-29T16:23:35Z</time></trkpt><trkpt lat="45.0007205186916" lon="9.138598854356566"><ele>121.0</ele><time>2026-03-29T16:23:36Z</time></trkpt><trkpt lat="45.000841456301224" lon="9.138522173316712"><ele>120.5</ele><time>2026-03-29T16:23:37Z</time></trkpt><trkpt lat="45.00097733629272" lon="9.138456888637492"><ele>120.0</ele><time>2026-03-29T16:23:38Z</time></trkpt><trkpt lat="45.00111293621467" lon="9.138399487645371"><ele>119.5</ele><time>2026-03-29T16:23:39Z</time></trkpt><trkpt lat="45.001254778054" lon="9.138374189152312"><ele>119.0</ele><time>2026-03-29T16:23:40Z</time></trkpt><trkpt lat="45.00139775898011" lon="9.1383515034264"><ele>119.0</ele><time>2026-03-29T16:23:41Z</time></trkpt><trkpt lat="45.00152350712893" lon="9.138305461430747"><ele>119.0</ele><time>2026-03-29T16:23:42Z</time></trkpt><trkpt lat="45.00163868073338" lon="9.138270809285917"><ele>119.0</ele><time>2026-03-29T16:23:43Z</time></trkpt><trkpt lat="45.00173555819153" lon="9.138189690096542"><ele>119.0</ele><time>2026-03-29T16:23:44Z</time></trkpt><trkpt lat="45.001823706501106" lon="9.138087222337601"><ele>118.0</ele><time>2026-03-29T16:23:45Z</time></trkpt><trkpt lat="45.00189136010338" lon="9.137948127610162"><ele>117.0</ele><time>2026-03-29T16:23:46Z</time></trkpt><trkpt lat="45.00194162048616" lon="9.137815062393159"><ele>116.0</ele><time>2026-03-29T16:23:47Z</time></trkpt><trkpt lat="45.00198170273675" lon="9.137707947338823"><ele>115.0</ele><time>2026-03-29T16:23:48Z</time></trkpt><trkpt lat="45.00202515550381" lon="9.137600373687846"><ele>114.0</ele><time>2026-03-29T16:23:49Z</time></trkpt><trkpt lat="45.002067722469924" lon="9.137489380024055"><ele>115.16666666666667</ele><time>2026-03-29T16:23:50Z</time></trkpt><trkpt lat="45.00210858886122" lon="9.137384811094371"><ele>116.33333333333334</ele><time>2026-03-29T16:23:51Z</time></trkpt><trkpt lat="45.002147944221456" lon="9.13728190598069"><ele>117.5</ele><time>2026-03-29T16:23:52Z</time></trkpt><trkpt lat="45.002191159826424" lon="9.137183224384168"><ele>118.66666666666667</ele><time>2026-03-29T16:23:53Z</time></trkpt><trkpt lat="45.002254974018996" lon="9.13710770744265"><ele>119.83333333333334</ele><time>2026-03-29T16:23:54Z</time></trkpt><trkpt lat="45.00230598668384" lon="9.13701411501881"><ele>121.0</ele><time>2026-03-29T16:23:55Z</time></trkpt><trkpt lat="45.002387546082765" lon="9.136974682615472"><ele>121.00000000000001</ele><time>2026-03-29T16:23:56Z</time></trkpt><trkpt lat="45.002460496750544" lon="9.136919433667414"><ele>121.0</ele><time>2026-03-29T16:23:57Z</time></trkpt><trkpt lat="45.00252682117135" lon="9.136843238407524"><ele>121.0</ele><time>2026-03-29T16:23:58Z</time></trkpt><trkpt lat="45.002606882306715" lon="9.136783397152987"><ele>121.0</ele><time>2026-03-29T16:23:59Z</time></trkpt><trkpt lat="45.002690197315886" lon="9.136718063089589"><ele>121.00000000000001</ele><time>2026-03-29T16:24:00Z</time></trkpt><trkpt lat="45.00277085139884" lon="9.136653567595525"><ele>121.0</ele><time>2026-03-29T16:24:01Z</time></trkpt><trkpt lat="45.002849452325066" lon="9.136591742450904"><ele>120.8</ele><time>2026-03-29T16:24:02Z</time></trkpt><trkpt lat="45.002924768878934" lon="9.136531526995823"><ele>120.6</ele><time>2026-03-29T16:24:03Z</time></trkpt><trkpt lat="45.003000177725994" lon="9.1364661584092"><ele>120.4</ele><time>2026-03-29T16:24:04Z</time></trkpt><trkpt lat="45.00308498506521" lon="9.136397085851435"><ele>120.2</ele><time>2026-03-29T16:24:05Z</time></trkpt><trkpt lat="45.00317633279686" lon="9.136328449875707"><ele>120.0</ele><time>2026-03-29T16:24:06Z</time></trkpt><trkpt lat="45.00327346742362" lon="9.136256353609536"><ele>118.5</ele><time>2026-03-29T16:24:07Z</time></trkpt><trkpt lat="45.003371488680465" lon="9.13617778565565"><ele>117.0</ele><time>2026-03-29T16:24:08Z</time></trkpt><trkpt lat="45.00347205230243" lon="9.136095650144574"><ele>115.5</ele><time>2026-03-29T16:24:09Z</time></trkpt><trkpt lat="45.003575772308146" lon="9.136009314500013"><ele>114.0</ele><time>2026-03-29T16:24:10Z</time></trkpt><trkpt lat="45.00368091197539" lon="9.135927414705906"><ele>114.0</ele><time>2026-03-29T16:24:11Z</time></trkpt><trkpt lat="45.003781041657504" lon="9.135841159122533"><ele>114.0</ele><time>2026-03-29T16:24:12Z</time></trkpt><trkpt lat="45.0038781868701" lon="9.135754529190647"><ele>114.0</ele><time>2026-03-29T16:24:13Z</time></trkpt><trkpt lat="45.003972539718895" lon="9.135666493776188"><ele>114.0</ele><time>2026-03-29T16:24:14Z</time></trkpt><trkpt lat="45.004062767142464" lon="9.135573410060452"><ele>113.5</ele><time>2026-03-29T16:24:15Z</time></trkpt><trkpt lat="45.00415002492168" lon="9.135474585297402"><ele>113.0</ele><time>2026-03-29T16:24:16Z</time></trkpt><trkpt lat="45.004234740081934" lon="9.135369399914945"><ele>112.5</ele><time>2026-03-29T16:24:17Z</time></trkpt><trkpt lat="45.004317068014956" lon="9.135261367727143"><ele>112.0</ele><time>2026-03-29T16:24:18Z</time></trkpt><trkpt lat="45.00439789512737" lon="9.135148372912818"><ele>112.0</ele><time>2026-03-29T16:24:19Z</time></trkpt><trkpt lat="45.00447681872458" lon="9.135032277468131"><ele>111.99999999999999</ele><time>2026-03-29T16:24:20Z</time></trkpt><trkpt lat="45.00455205092562" lon="9.134922110942751"><ele>111.99999999999999</ele><time>2026-03-29T16:24:21Z</time></trkpt><trkpt lat="45.00462046777184" lon="9.134808625202712"><ele>112.0</ele><time>2026-03-29T16:24:22Z</time></trkpt><trkpt lat="45.00468774135324" lon="9.134698595850585"><ele>112.0</ele><time>2026-03-29T16:24:23Z</time></trkpt><trkpt lat="45.00475727009597" lon="9.134588293274998"><ele>111.6</ele><time>2026-03-29T16:24:24Z</time></trkpt><trkpt lat="45.00482971732334" lon="9.134477511156856"><ele>111.19999999999999</ele><time>2026-03-29T16:24:25Z</time></trkpt><trkpt lat="45.00489905026572" lon="9.134364133289264"><ele>110.8</ele><time>2026-03-29T16:24:26Z</time></trkpt><trkpt lat="45.00496947097044" lon="9.134254639833465"><ele>110.4</ele><time>2026-03-29T16:24:27Z</time></trkpt><trkpt lat="45.00503897710822" lon="9.134144996644167"><ele>110.0</ele><time>2026-03-29T16:24:28Z</time></trkpt><trkpt lat="45.005111576733874" lon="9.134034779877668"><ele>110.0</ele><time>2026-03-29T16:24:29Z</time></trkpt><trkpt lat="45.005185867805956" lon="9.13392354917156"><ele>110.0</ele><time>2026-03-29T16:24:30Z</time></trkpt><trkpt lat="45.00526076939163" lon="9.13380875716584"><ele>110.0</ele><time>2026-03-29T16:24:31Z</time></trkpt><trkpt lat="45.005336751511045" lon="9.133692859083391"><ele>110.0</ele><time>2026-03-29T16:24:32Z</time></trkpt><trkpt lat="45.00541369198347" lon="9.133576852946526"><ele>110.0</ele><time>2026-03-29T16:24:33Z</time></trkpt><trkpt lat="45.005490199516935" lon="9.133461884090384"><ele>110.0</ele><time>2026-03-29T16:24:34Z</time></trkpt><trkpt lat="45.00556680233745" lon="9.133348956231478"><ele>110.0</ele><time>2026-03-29T16:24:35Z</time></trkpt><trkpt lat="45.00564229212484" lon="9.133236248318378"><ele>110.0</ele><time>2026-03-29T16:24:36Z</time></trkpt><trkpt lat="45.00571833621796" lon="9.13312515667292"><ele>110.0</ele><time>2026-03-29T16:24:37Z</time></trkpt><trkpt lat="45.00579070583736" lon="9.133016691343549"><ele>110.0</ele><time>2026-03-29T16:24:38Z</time></trkpt><trkpt lat="45.00586015520459" lon="9.132912590452365"><ele>110.0</ele><time>2026-03-29T16:24:39Z</time></trkpt><trkpt lat="45.00592679658825" lon="9.13281158941326"><ele>110.0</ele><time>2026-03-29T16:24:40Z</time></trkpt><trkpt lat="45.00599479989759" lon="9.132712271312782"><ele>110.0</ele><time>2026-03-29T16:24:41Z</time></trkpt><trkpt lat="45.00606474150557" lon="9.13260920738642"><ele>110.0</ele><time>2026-03-29T16:24:42Z</time></trkpt><trkpt lat="45.00613526515557" lon="9.132501655491126"><ele>110.0</ele><time>2026-03-29T16:24:43Z</time></trkpt><trkpt lat="45.00620776263745" lon="9.132393538009463"><ele>111.2</ele><time>2026-03-29T16:24:44Z</time></trkpt><trkpt lat="45.00628197406371" lon="9.13228427405192"><ele>112.4</ele><time>2026-03-29T16:24:45Z</time></trkpt><trkpt lat="45.00635677181463" lon="9.132174392138628"><ele>113.6</ele><time>2026-03-29T16:24:46Z</time></trkpt><trkpt lat="45.00643430525497" lon="9.132061474092563"><ele>114.8</ele><time>2026-03-29T16:24:47Z</time></trkpt><trkpt lat="45.00651347245198" lon="9.131946091946824"><ele>116.0</ele><time>2026-03-29T16:24:48Z</time></trkpt><trkpt lat="45.00659149301674" lon="9.131830794610359"><ele>115.6</ele><time>2026-03-29T16:24:49Z</time></trkpt><trkpt lat="45.00666661391937" lon="9.131720471847764"><ele>115.19999999999999</ele><time>2026-03-29T16:24:50Z</time></trkpt><trkpt lat="45.006739583196776" lon="9.131609444796814"><ele>114.80000000000001</ele><time>2026-03-29T16:24:51Z</time></trkpt><trkpt lat="45.00681210553112" lon="9.131496470334534"><ele>114.4</ele><time>2026-03-29T16:24:52Z</time></trkpt><trkpt lat="45.00688645683659" lon="9.131385777979398"><ele>114.0</ele><time>2026-03-29T16:24:53Z</time></trkpt><trkpt lat="45.006957209820236" lon="9.13128019764396"><ele>114.0</ele><time>2026-03-29T16:24:54Z</time></trkpt><trkpt lat="45.00702594883931" lon="9.131180072017694"><ele>114.0</ele><time>2026-03-29T16:24:55Z</time></trkpt><trkpt lat="45.00709232279267" lon="9.131082045203204"><ele>114.0</ele><time>2026-03-29T16:24:56Z</time></trkpt><trkpt lat="45.007158972273565" lon="9.13098604866133"><ele>114.0</ele><time>2026-03-29T16:24:57Z</time></trkpt><trkpt lat="45.00722437205252" lon="9.130891514223025"><ele>114.0</ele><time>2026-03-29T16:24:58Z</time></trkpt><trkpt lat="45.007286713189366" lon="9.13080093232606"><ele>113.80000000000001</ele><time>2026-03-29T16:24:59Z</time></trkpt><trkpt lat="45.00734774817035" lon="9.130712221522284"><ele>113.60000000000001</ele><time>2026-03-29T16:25:00Z</time></trkpt><trkpt lat="45.007410579238986" lon="9.130622225175918"><ele>113.4</ele><time>2026-03-29T16:25:01Z</time></trkpt><trkpt lat="45.0074748358486" lon="9.130528390371953"><ele>113.2</ele><time>2026-03-29T16:25:02Z</time></trkpt><trkpt lat="45.007538905680896" lon="9.130430427140228"><ele>113.0</ele><time>2026-03-29T16:25:03Z</time></trkpt><trkpt lat="45.00760235865052" lon="9.130332291502548"><ele>113.0</ele><time>2026-03-29T16:25:04Z</time></trkpt><trkpt lat="45.00766366325459" lon="9.130236026529376"><ele>113.00000000000001</ele><time>2026-03-29T16:25:05Z</time></trkpt><trkpt lat="45.007723887560424" lon="9.130142349993944"><ele>113.00000000000001</ele><time>2026-03-29T16:25:06Z</time></trkpt><trkpt lat="45.007788314925214" lon="9.130047519060058"><ele>113.0</ele><time>2026-03-29T16:25:07Z</time></trkpt><trkpt lat="45.00785415763719" lon="9.12995558457752"><ele>113.0</ele><time>2026-03-29T16:25:08Z</time></trkpt><trkpt lat="45.00791883115273" lon="9.12986594831599"><ele>115.60000000000001</ele><time>2026-03-29T16:25:09Z</time></trkpt><trkpt lat="45.00798186498116" lon="9.129775343129696"><ele>118.20000000000002</ele><time>2026-03-29T16:25:10Z</time></trkpt><trkpt lat="45.00803665862433" lon="9.129695911414702"><ele>120.8</ele><time>2026-03-29T16:25:11Z</time></trkpt><trkpt lat="45.00808101677291" lon="9.129629459804091"><ele>123.4</ele><time>2026-03-29T16:25:12Z</time></trkpt><trkpt lat="45.008153386128136" lon="9.129515612462281"><ele>126.0</ele><time>2026-03-29T16:25:14Z</time></trkpt><trkpt lat="45.008230924526245" lon="9.129396775755097"><ele>126.0</ele><time>2026-03-29T16:25:16Z</time></trkpt><trkpt lat="45.00829693257233" lon="9.129300605815768"><ele>126.0</ele><time>2026-03-29T16:25:18Z</time></trkpt><trkpt lat="45.0083652069807" lon="9.129200097459918"><ele>126.0</ele><time>2026-03-29T16:25:20Z</time></trkpt><trkpt lat="45.00844683636238" lon="9.129070589581449"><ele>126.0</ele><time>2026-03-29T16:25:22Z</time></trkpt><trkpt lat="45.0084983427464" lon="9.128987236550339"><ele>126.0</ele><time>2026-03-29T16:25:23Z</time></trkpt><trkpt lat="45.008548502625445" lon="9.12890748686707"><ele>124.19999999999999</ele><time>2026-03-29T16:25:24Z</time></trkpt><trkpt lat="45.00860601452419" lon="9.128815149970452"><ele>122.39999999999999</ele><time>2026-03-29T16:25:25Z</time></trkpt><trkpt lat="45.00867303812492" lon="9.128715178032204"><ele>120.6</ele><time>2026-03-29T16:25:26Z</time></trkpt><trkpt lat="45.00876062492487" lon="9.128617807935177"><ele>118.8</ele><time>2026-03-29T16:25:27Z</time></trkpt><trkpt lat="45.008843906601044" lon="9.128494338281898"><ele>117.0</ele><time>2026-03-29T16:25:28Z</time></trkpt><trkpt lat="45.00888302855806" lon="9.12828515917698"><ele>117.0</ele><time>2026-03-29T16:25:29Z</time></trkpt><trkpt lat="45.00897489342501" lon="9.12812132206175"><ele>117.0</ele><time>2026-03-29T16:25:30Z</time></trkpt><trkpt lat="45.00905857208197" lon="9.127972667960066"><ele>117.0</ele><time>2026-03-29T16:25:31Z</time></trkpt><trkpt lat="45.009121869551244" lon="9.127844880359504"><ele>117.0</ele><time>2026-03-29T16:25:32Z</time></trkpt><trkpt lat="45.00917902650175" lon="9.127723559224249"><ele>117.0</ele><time>2026-03-29T16:25:33Z</time></trkpt><trkpt lat="45.0092283063858" lon="9.127598662151318"><ele>117.0</ele><time>2026-03-29T16:25:34Z</time></trkpt><trkpt lat="45.00927268009679" lon="9.127485153544253"><ele>117.0</ele><time>2026-03-29T16:25:35Z</time></trkpt><trkpt lat="45.009304281919526" lon="9.127405383239644"><ele>117.0</ele><time>2026-03-29T16:25:36Z</time></trkpt><trkpt lat="45.009336072217266" lon="9.12732846551543"><ele>117.0</ele><time>2026-03-29T16:25:37Z</time></trkpt><trkpt lat="45.009390016766226" lon="9.127244356965242"><ele>117.0</ele><time>2026-03-29T16:25:38Z</time></trkpt><trkpt lat="45.00945162731076" lon="9.127135360187694"><ele>119.19999999999999</ele><time>2026-03-29T16:25:39Z</time></trkpt><trkpt lat="45.00951671901778" lon="9.127002273596649"><ele>121.39999999999999</ele><time>2026-03-29T16:25:40Z</time></trkpt><trkpt lat="45.00955539696066" lon="9.126863975763625"><ele>123.60000000000001</ele><time>2026-03-29T16:25:41Z</time></trkpt><trkpt lat="45.0095790034316" lon="9.126716751216039"><ele>125.80000000000001</ele><time>2026-03-29T16:25:42Z</time></trkpt><trkpt lat="45.00958621347432" lon="9.126587736346076"><ele>128.0</ele><time>2026-03-29T16:25:43Z</time></trkpt><trkpt lat="45.00959627031746" lon="9.126460101069371"><ele>128.33333333333331</ele><time>2026-03-29T16:25:44Z</time></trkpt><trkpt lat="45.00961922124007" lon="9.12634711931853"><ele>128.66666666666666</ele><time>2026-03-29T16:25:45Z</time></trkpt><trkpt lat="45.009655462107006" lon="9.12624446714248"><ele>129.0</ele><time>2026-03-29T16:25:47Z</time></trkpt><trkpt lat="45.009687599788826" lon="9.126158040166565"><ele>129.33333333333334</ele><time>2026-03-29T16:25:51Z</time></trkpt><trkpt lat="45.00955658374648" lon="9.12617024936308"><ele>129.66666666666669</ele><time>2026-03-29T16:25:54Z</time></trkpt><trkpt lat="45.00949952796461" lon="9.126238857036784"><ele>130.0</ele><time>2026-03-29T16:25:55Z</time></trkpt><trkpt lat="45.00941779540043" lon="9.126310349011849"><ele>130.0</ele><time>2026-03-29T16:25:56Z</time></trkpt><trkpt lat="45.009353097520325" lon="9.12639361301979"><ele>130.0</ele><time>2026-03-29T16:25:57Z</time></trkpt><trkpt lat="45.00927432986186" lon="9.126494059959255"><ele>130.0</ele><time>2026-03-29T16:25:58Z</time></trkpt><trkpt lat="45.009161175369634" lon="9.126574392719414"><ele>130.0</ele><time>2026-03-29T16:25:59Z</time></trkpt><trkpt lat="45.00902606762997" lon="9.126633730794223"><ele>131.33333333333334</ele><time>2026-03-29T16:26:00Z</time></trkpt><trkpt lat="45.00888594850747" lon="9.126666842627241"><ele>132.66666666666666</ele><time>2026-03-29T16:26:01Z</time></trkpt><trkpt lat="45.008731257445845" lon="9.126693336083278"><ele>134.0</ele><time>2026-03-29T16:26:02Z</time></trkpt><trkpt lat="45.00856191315641" lon="9.126740323187581"><ele>134.0</ele><time>2026-03-29T16:26:03Z</time></trkpt><trkpt lat="45.00839700299936" lon="9.126839109990591"><ele>134.0</ele><time>2026-03-29T16:26:04Z</time></trkpt><trkpt lat="45.00823325803378" lon="9.126978770880294"><ele>134.0</ele><time>2026-03-29T16:26:05Z</time></trkpt><trkpt lat="45.00807898756864" lon="9.127157888472144"><ele>134.33333333333331</ele><time>2026-03-29T16:26:06Z</time></trkpt><trkpt lat="45.007923528449936" lon="9.127349054193719"><ele>134.66666666666666</ele><time>2026-03-29T16:26:07Z</time></trkpt><trkpt lat="45.007759402419794" lon="9.127521093876533"><ele>135.0</ele><time>2026-03-29T16:26:08Z</time></trkpt><trkpt lat="45.00762457953081" lon="9.12771122313354"><ele>135.0</ele><time>2026-03-29T16:26:09Z</time></trkpt><trkpt lat="45.00749915699171" lon="9.127890443612142"><ele>135.0</ele><time>2026-03-29T16:26:10Z</time></trkpt><trkpt lat="45.007377371289714" lon="9.128057404388297"><ele>135.0</ele><time>2026-03-29T16:26:11Z</time></trkpt><trkpt lat="45.00724913544067" lon="9.128244052430292"><ele>136.66666666666666</ele><time>2026-03-29T16:26:12Z</time></trkpt><trkpt lat="45.0071022990141" lon="9.128409985372642"><ele>138.33333333333331</ele><time>2026-03-29T16:26:13Z</time></trkpt><trkpt lat="45.006951299186554" lon="9.128566881937841"><ele>140.0</ele><time>2026-03-29T16:26:14Z</time></trkpt><trkpt lat="45.006806516160154" lon="9.128707249948974"><ele>140.66666666666666</ele><time>2026-03-29T16:26:15Z</time></trkpt><trkpt lat="45.006645737348755" lon="9.12881134757942"><ele>141.33333333333334</ele><time>2026-03-29T16:26:16Z</time></trkpt><trkpt lat="45.00649219351474" lon="9.128918458899747"><ele>142.0</ele><time>2026-03-29T16:26:17Z</time></trkpt><trkpt lat="45.006359027032445" lon="9.12904790747336"><ele>143.75</ele><time>2026-03-29T16:26:18Z</time></trkpt><trkpt lat="45.00622612628946" lon="9.129155472310938"><ele>145.5</ele><time>2026-03-29T16:26:19Z</time></trkpt><trkpt lat="45.00609524252473" lon="9.129248791163967"><ele>147.25</ele><time>2026-03-29T16:26:20Z</time></trkpt><trkpt lat="45.00598263653571" lon="9.129385964355853"><ele>149.0</ele><time>2026-03-29T16:26:21Z</time></trkpt><trkpt lat="45.005868371737485" lon="9.129502719230052"><ele>147.75</ele><time>2026-03-29T16:26:22Z</time></trkpt><trkpt lat="45.00575702376772" lon="9.129610749732132"><ele>146.5</ele><time>2026-03-29T16:26:23Z</time></trkpt><trkpt lat="45.00565154937827" lon="9.129713128104381"><ele>145.25</ele><time>2026-03-29T16:26:24Z</time></trkpt><trkpt lat="45.00556677376359" lon="9.129809920498912"><ele>144.0</ele><time>2026-03-29T16:26:25Z</time></trkpt><trkpt lat="45.005487325961504" lon="9.129907869855252"><ele>143.8</ele><time>2026-03-29T16:26:26Z</time></trkpt><trkpt lat="45.00541102713962" lon="9.130010610354942"><ele>143.60000000000002</ele><time>2026-03-29T16:26:27Z</time></trkpt><trkpt lat="45.00531832051281" lon="9.130063942934664"><ele>143.4</ele><time>2026-03-29T16:26:28Z</time></trkpt><trkpt lat="45.005230905699" lon="9.13006723398314"><ele>143.20000000000002</ele><time>2026-03-29T16:26:29Z</time></trkpt><trkpt lat="45.00511517319399" lon="9.130053395980946"><ele>143.0</ele><time>2026-03-29T16:26:30Z</time></trkpt><trkpt lat="45.00498286057382" lon="9.130005182464478"><ele>141.33333333333331</ele><time>2026-03-29T16:26:31Z</time></trkpt><trkpt lat="45.004827590621545" lon="9.12995306594807"><ele>139.66666666666666</ele><time>2026-03-29T16:26:32Z</time></trkpt><trkpt lat="45.004646536035146" lon="9.129894214831502"><ele>138.0</ele><time>2026-03-29T16:26:33Z</time></trkpt><trkpt lat="45.00445381720051" lon="9.129830511045162"><ele>138.33333333333334</ele><time>2026-03-29T16:26:34Z</time></trkpt><trkpt lat="45.004251926825134" lon="9.129770806926903"><ele>138.66666666666669</ele><time>2026-03-29T16:26:35Z</time></trkpt><trkpt lat="45.004031993121444" lon="9.129731470206657"><ele>139.0</ele><time>2026-03-29T16:26:36Z</time></trkpt><trkpt lat="45.003800982255534" lon="9.129722966602086"><ele>139.0</ele><time>2026-03-29T16:26:37Z</time></trkpt><trkpt lat="45.00356340556354" lon="9.129746490607264"><ele>139.0</ele><time>2026-03-29T16:26:38Z</time></trkpt><trkpt lat="45.00332109659773" lon="9.129802100440518"><ele>144.0</ele><time>2026-03-29T16:26:39Z</time></trkpt><trkpt lat="45.00307475100689" lon="9.12986646094408"><ele>149.0</ele><time>2026-03-29T16:26:40Z</time></trkpt><trkpt lat="45.00282824540109" lon="9.129936762417984"><ele>149.0</ele><time>2026-03-29T16:26:41Z</time></trkpt><trkpt lat="45.002602441833055" lon="9.129993550139453"><ele>149.0</ele><time>2026-03-29T16:26:42Z</time></trkpt><trkpt lat="45.00240557789928" lon="9.130045392927439"><ele>149.0</ele><time>2026-03-29T16:26:43Z</time></trkpt><trkpt lat="45.00221932931919" lon="9.130088915414348"><ele>152.0</ele><time>2026-03-29T16:26:44Z</time></trkpt><trkpt lat="45.00204960721825" lon="9.130130405035597"><ele>155.0</ele><time>2026-03-29T16:26:45Z</time></trkpt><trkpt lat="45.00189049027921" lon="9.130164783234298"><ele>158.0</ele><time>2026-03-29T16:26:46Z</time></trkpt><trkpt lat="45.001735034046746" lon="9.13018766954116"><ele>159.0</ele><time>2026-03-29T16:26:47Z</time></trkpt><trkpt lat="45.00156993068362" lon="9.130193244908472"><ele>160.0</ele><time>2026-03-29T16:26:48Z</time></trkpt><trkpt lat="45.001396054479336" lon="9.1301837532613"><ele>161.0</ele><time>2026-03-29T16:26:49Z</time></trkpt><trkpt lat="45.00122598447187" lon="9.130168863608684"><ele>161.0</ele><time>2026-03-29T16:26:50Z</time></trkpt><trkpt lat="45.001072513070454" lon="9.130151370021741"><ele>161.0</ele><time>2026-03-29T16:26:51Z</time></trkpt><trkpt lat="45.00093041392803" lon="9.130130045172654"><ele>161.0</ele><time>2026-03-29T16:26:52Z</time></trkpt><trkpt lat="45.00079840501864" lon="9.130111442164447"><ele>161.0</ele><time>2026-03-29T16:26:53Z</time></trkpt><trkpt lat="45.00067723832336" lon="9.130094622487805"><ele>162.5</ele><time>2026-03-29T16:26:54Z</time></trkpt><trkpt lat="45.0005519093487" lon="9.130080316450163"><ele>164.0</ele><time>2026-03-29T16:26:55Z</time></trkpt><trkpt lat="45.00042030700495" lon="9.130071937676968"><ele>165.5</ele><time>2026-03-29T16:26:56Z</time></trkpt><trkpt lat="45.00028556674733" lon="9.130084209574699"><ele>167.0</ele><time>2026-03-29T16:26:57Z</time></trkpt><trkpt lat="45.000144810550914" lon="9.130116700727712"><ele>167.0</ele><time>2026-03-29T16:26:58Z</time></trkpt><trkpt lat="45.00000871939272" lon="9.130175155118396"><ele>167.0</ele><time>2026-03-29T16:26:59Z</time></trkpt><trkpt lat="44.99987738082663" lon="9.130274111944031"><ele>167.0</ele><time>2026-03-29T16:27:00Z</time></trkpt><trkpt lat="44.99974434043864" lon="9.130378576531536"><ele>167.0</ele><time>2026-03-29T16:27:01Z</time></trkpt><trkpt lat="44.99960307197798" lon="9.130484018147701"><ele>167.0</ele><time>2026-03-29T16:27:02Z</time></trkpt><trkpt lat="44.99945558918551" lon="9.130593553352133"><ele>167.0</ele><time>2026-03-29T16:27:03Z</time></trkpt><trkpt lat="44.99929630282646" lon="9.130683008986908"><ele>167.0</ele><time>2026-03-29T16:27:04Z</time></trkpt><trkpt lat="44.99915179830132" lon="9.13078810138842"><ele>169.0</ele><time>2026-03-29T16:27:05Z</time></trkpt><trkpt lat="44.99902041362351" lon="9.130909820479204"><ele>171.0</ele><time>2026-03-29T16:27:06Z</time></trkpt><trkpt lat="44.998878826323974" lon="9.131011362385676"><ele>173.0</ele><time>2026-03-29T16:27:07Z</time></trkpt><trkpt lat="44.99873243579218" lon="9.131089591305123"><ele>173.0</ele><time>2026-03-29T16:27:08Z</time></trkpt><trkpt lat="44.998602067823434" lon="9.131180598349419"><ele>173.0</ele><time>2026-03-29T16:27:09Z</time></trkpt><trkpt lat="44.99847682654765" lon="9.131266606711716"><ele>173.0</ele><time>2026-03-29T16:27:10Z</time></trkpt><trkpt lat="44.99835368254583" lon="9.13135425763672"><ele>173.0</ele><time>2026-03-29T16:27:11Z</time></trkpt><trkpt lat="44.998228030793214" lon="9.131445206109952"><ele>172.66666666666666</ele><time>2026-03-29T16:27:12Z</time></trkpt><trkpt lat="44.99809409835333" lon="9.131540080252513"><ele>172.33333333333334</ele><time>2026-03-29T16:27:13Z</time></trkpt><trkpt lat="44.997950082271664" lon="9.13164661280131"><ele>172.0</ele><time>2026-03-29T16:27:14Z</time></trkpt><trkpt lat="44.99780112940418" lon="9.131758167247337"><ele>174.0</ele><time>2026-03-29T16:27:15Z</time></trkpt><trkpt lat="44.99765322137261" lon="9.131865766054224"><ele>176.0</ele><time>2026-03-29T16:27:16Z</time></trkpt><trkpt lat="44.997504187268596" lon="9.131960117473682"><ele>178.0</ele><time>2026-03-29T16:27:17Z</time></trkpt><trkpt lat="44.997338478835154" lon="9.131980600251605"><ele>178.66666666666669</ele><time>2026-03-29T16:27:18Z</time></trkpt><trkpt lat="44.99715758667973" lon="9.131983282030395"><ele>179.33333333333334</ele><time>2026-03-29T16:27:19Z</time></trkpt><trkpt lat="44.996967205590465" lon="9.131965875624541"><ele>180.0</ele><time>2026-03-29T16:27:20Z</time></trkpt><trkpt lat="44.99676987539" lon="9.131910787064806"><ele>180.33333333333334</ele><time>2026-03-29T16:27:21Z</time></trkpt><trkpt lat="44.996571148974084" lon="9.131817469216022"><ele>180.66666666666669</ele><time>2026-03-29T16:27:22Z</time></trkpt><trkpt lat="44.996367513281925" lon="9.131698951037803"><ele>181.0</ele><time>2026-03-29T16:27:23Z</time></trkpt><trkpt lat="44.99615807350045" lon="9.131565104742585"><ele>181.66666666666669</ele><time>2026-03-29T16:27:24Z</time></trkpt><trkpt lat="44.99596082797495" lon="9.131439504038694"><ele>182.33333333333334</ele><time>2026-03-29T16:27:25Z</time></trkpt><trkpt lat="44.99576996383777" lon="9.131323335929622"><ele>183.0</ele><time>2026-03-29T16:27:26Z</time></trkpt><trkpt lat="44.99558419080812" lon="9.131220206104867"><ele>183.0</ele><time>2026-03-29T16:27:27Z</time></trkpt><trkpt lat="44.99540907573238" lon="9.13112693099372"><ele>183.0</ele><time>2026-03-29T16:27:28Z</time></trkpt><trkpt lat="44.99523552638602" lon="9.13103834124868"><ele>183.0</ele><time>2026-03-29T16:27:29Z</time></trkpt><trkpt lat="44.995068144866565" lon="9.130953376805445"><ele>184.33333333333334</ele><time>2026-03-29T16:27:30Z</time></trkpt><trkpt lat="44.99490859098443" lon="9.130869202509702"><ele>185.66666666666669</ele><time>2026-03-29T16:27:31Z</time></trkpt><trkpt lat="44.99475473735542" lon="9.130786218144477"><ele>187.0</ele><time>2026-03-29T16:27:32Z</time></trkpt><trkpt lat="44.99460688370541" lon="9.130695965544957"><ele>184.33333333333334</ele><time>2026-03-29T16:27:33Z</time></trkpt><trkpt lat="44.994462383579695" lon="9.13059380028175"><ele>181.66666666666666</ele><time>2026-03-29T16:27:34Z</time></trkpt><trkpt lat="44.994318292699695" lon="9.130477481679895"><ele>179.0</ele><time>2026-03-29T16:27:35Z</time></trkpt><trkpt lat="44.99417341881929" lon="9.130355954533076"><ele>181.33333333333331</ele><time>2026-03-29T16:27:36Z</time></trkpt><trkpt lat="44.9940210994137" lon="9.130223657208278"><ele>183.66666666666666</ele><time>2026-03-29T16:27:37Z</time></trkpt><trkpt lat="44.99386225322321" lon="9.130094496296497"><ele>186.0</ele><time>2026-03-29T16:27:38Z</time></trkpt><trkpt lat="44.99369916549337" lon="9.129961889697032"><ele>186.66666666666666</ele><time>2026-03-29T16:27:39Z</time></trkpt><trkpt lat="44.99353349634399" lon="9.129828769778252"><ele>187.33333333333331</ele><time>2026-03-29T16:27:40Z</time></trkpt><trkpt lat="44.99336439542825" lon="9.129686865854113"><ele>188.0</ele><time>2026-03-29T16:27:41Z</time></trkpt><trkpt lat="44.99320359443876" lon="9.129551655254156"><ele>189.0</ele><time>2026-03-29T16:27:42Z</time></trkpt><trkpt lat="44.99304885875814" lon="9.129418431707098"><ele>190.0</ele><time>2026-03-29T16:27:43Z</time></trkpt><trkpt lat="44.99289396483506" lon="9.129268793889523"><ele>191.0</ele><time>2026-03-29T16:27:44Z</time></trkpt><trkpt lat="44.99273975402749" lon="9.129098485611223"><ele>192.0</ele><time>2026-03-29T16:27:45Z</time></trkpt><trkpt lat="44.99260347051467" lon="9.128948593433094"><ele>193.0</ele><time>2026-03-29T16:27:46Z</time></trkpt><trkpt lat="44.992487101677234" lon="9.128822543119286"><ele>194.0</ele><time>2026-03-29T16:27:47Z</time></trkpt><trkpt lat="44.99239157330406" lon="9.128719328044088"><ele>195.0</ele><time>2026-03-29T16:27:48Z</time></trkpt><trkpt lat="44.99230973853379" lon="9.128627679848957"><ele>195.0</ele><time>2026-03-29T16:27:49Z</time></trkpt><trkpt lat="44.99223749465965" lon="9.128550883709185"><ele>195.0</ele><time>2026-03-29T16:27:50Z</time></trkpt><trkpt lat="44.99217913357403" lon="9.128489492828246"><ele>195.0</ele><time>2026-03-29T16:27:51Z</time></trkpt><trkpt lat="44.99207451377309" lon="9.128376724805353"><ele>195.0</ele><time>2026-03-29T16:27:53Z</time></trkpt><trkpt lat="44.99200053298985" lon="9.128303426915263"><ele>195.0</ele><time>2026-03-29T16:27:54Z</time></trkpt><trkpt lat="44.9919099068644" lon="9.128204600157277"><ele>195.5</ele><time>2026-03-29T16:27:55Z</time></trkpt><trkpt lat="44.99180938981857" lon="9.128081233406599"><ele>196.0</ele><time>2026-03-29T16:27:56Z</time></trkpt><trkpt lat="44.99170512664964" lon="9.127950400998253"><ele>196.5</ele><time>2026-03-29T16:27:57Z</time></trkpt><trkpt lat="44.99159263771023" lon="9.127795622901422"><ele>197.0</ele><time>2026-03-29T16:27:58Z</time></trkpt><trkpt lat="44.99146709582335" lon="9.127628619307664"><ele>197.0</ele><time>2026-03-29T16:27:59Z</time></trkpt><trkpt lat="44.99133632294035" lon="9.12745728894798"><ele>197.0</ele><time>2026-03-29T16:28:00Z</time></trkpt><trkpt lat="44.99121246889849" lon="9.12729133195123"><ele>197.0</ele><time>2026-03-29T16:28:01Z</time></trkpt><trkpt lat="44.99109397844932" lon="9.12713255717847"><ele>196.33333333333334</ele><time>2026-03-29T16:28:02Z</time></trkpt><trkpt lat="44.99097981418604" lon="9.12697856409309"><ele>195.66666666666669</ele><time>2026-03-29T16:28:03Z</time></trkpt><trkpt lat="44.99086673612146" lon="9.126829928316702"><ele>195.0</ele><time>2026-03-29T16:28:04Z</time></trkpt><trkpt lat="44.99075476000526" lon="9.126690792534076"><ele>195.0</ele><time>2026-03-29T16:28:05Z</time></trkpt><trkpt lat="44.99065241954053" lon="9.12656442392262"><ele>195.0</ele><time>2026-03-29T16:28:06Z</time></trkpt><trkpt lat="44.99055365326714" lon="9.12643865782153"><ele>195.0</ele><time>2026-03-29T16:28:07Z</time></trkpt><trkpt lat="44.99045122381284" lon="9.126313513176914"><ele>195.0</ele><time>2026-03-29T16:28:08Z</time></trkpt><trkpt lat="44.990337594156884" lon="9.12618480019589"><ele>194.66666666666669</ele><time>2026-03-29T16:28:09Z</time></trkpt><trkpt lat="44.99020330540831" lon="9.126054529072595"><ele>194.33333333333334</ele><time>2026-03-29T16:28:10Z</time></trkpt><trkpt lat="44.990060638797445" lon="9.125924710733013"><ele>194.0</ele><time>2026-03-29T16:28:11Z</time></trkpt><trkpt lat="44.98992464766164" lon="9.125800210867814"><ele>194.66666666666669</ele><time>2026-03-29T16:28:12Z</time></trkpt><trkpt lat="44.98979065356873" lon="9.125675045911827"><ele>195.33333333333331</ele><time>2026-03-29T16:28:13Z</time></trkpt><trkpt lat="44.98965811344748" lon="9.125549878466582"><ele>196.0</ele><time>2026-03-29T16:28:14Z</time></trkpt><trkpt lat="44.98952551679929" lon="9.125422420141351"><ele>196.0</ele><time>2026-03-29T16:28:15Z</time></trkpt><trkpt lat="44.98939019822515" lon="9.125295366747116"><ele>196.0</ele><time>2026-03-29T16:28:16Z</time></trkpt><trkpt lat="44.98924520194177" lon="9.12517431286236"><ele>196.0</ele><time>2026-03-29T16:28:17Z</time></trkpt><trkpt lat="44.98908807081832" lon="9.125066625612316"><ele>195.75</ele><time>2026-03-29T16:28:18Z</time></trkpt><trkpt lat="44.988953785917325" lon="9.124980248033905"><ele>195.5</ele><time>2026-03-29T16:28:19Z</time></trkpt><trkpt lat="44.98884032962277" lon="9.1249050828347"><ele>195.25</ele><time>2026-03-29T16:28:20Z</time></trkpt><trkpt lat="44.98875670994086" lon="9.124839532664073"><ele>195.0</ele><time>2026-03-29T16:28:21Z</time></trkpt><trkpt lat="44.98868930294843" lon="9.124707335333461"><ele>195.0</ele><time>2026-03-29T16:28:22Z</time></trkpt><trkpt lat="44.988693064041065" lon="9.124607819023415"><ele>195.0</ele><time>2026-03-29T16:28:23Z</time></trkpt><trkpt lat="44.98873076128065" lon="9.124462155849786"><ele>195.0</ele><time>2026-03-29T16:28:24Z</time></trkpt><trkpt lat="44.98875716226999" lon="9.124293668899172"><ele>195.0</ele><time>2026-03-29T16:28:25Z</time></trkpt><trkpt lat="44.98877123149983" lon="9.124161847032557"><ele>195.0</ele><time>2026-03-29T16:28:26Z</time></trkpt><trkpt lat="44.988779041189886" lon="9.124019860661372"><ele>193.75</ele><time>2026-03-29T16:28:27Z</time></trkpt><trkpt lat="44.98878035831738" lon="9.123828829169838"><ele>192.5</ele><time>2026-03-29T16:28:28Z</time></trkpt><trkpt lat="44.98878024569455" lon="9.123633546546687"><ele>191.25</ele><time>2026-03-29T16:28:29Z</time></trkpt><trkpt lat="44.988778236235625" lon="9.12341337250451"><ele>190.0</ele><time>2026-03-29T16:28:30Z</time></trkpt><trkpt lat="44.988781884182295" lon="9.123204597333245"><ele>189.5</ele><time>2026-03-29T16:28:31Z</time></trkpt><trkpt lat="44.98876446246344" lon="9.123001242989709"><ele>189.0</ele><time>2026-03-29T16:28:32Z</time></trkpt><trkpt lat="44.988731435539776" lon="9.122791082321699"><ele>188.5</ele><time>2026-03-29T16:28:33Z</time></trkpt><trkpt lat="44.98869273623486" lon="9.122588165030342"><ele>188.0</ele><time>2026-03-29T16:28:34Z</time></trkpt><trkpt lat="44.98865978790783" lon="9.122415359263957"><ele>187.5</ele><time>2026-03-29T16:28:35Z</time></trkpt><trkpt lat="44.988629323469006" lon="9.12226057697988"><ele>187.0</ele><time>2026-03-29T16:28:36Z</time></trkpt><trkpt lat="44.98860589539014" lon="9.122118440011878"><ele>186.5</ele><time>2026-03-29T16:28:37Z</time></trkpt><trkpt lat="44.988595274962115" lon="9.12200548594174"><ele>186.0</ele><time>2026-03-29T16:28:38Z</time></trkpt><trkpt lat="44.988601039869145" lon="9.121907836022451"><ele>185.5</ele><time>2026-03-29T16:28:39Z</time></trkpt><trkpt lat="44.98864889709226" lon="9.121844508942678"><ele>185.0</ele><time>2026-03-29T16:28:40Z</time></trkpt><trkpt lat="44.98873361574386" lon="9.121816919481676"><ele>185.0</ele><time>2026-03-29T16:28:41Z</time></trkpt><trkpt lat="44.9888423321326" lon="9.121862269149654"><ele>185.0</ele><time>2026-03-29T16:28:42Z</time></trkpt><trkpt lat="44.98894454723939" lon="9.121894209215673"><ele>185.0</ele><time>2026-03-29T16:28:43Z</time></trkpt><trkpt lat="44.989026963325564" lon="9.12194392675658"><ele>185.0</ele><time>2026-03-29T16:28:44Z</time></trkpt><trkpt lat="44.98910230675328" lon="9.121977078326161"><ele>185.0</ele><time>2026-03-29T16:28:45Z</time></trkpt><trkpt lat="44.98919380008197" lon="9.121920972728846"><ele>182.75</ele><time>2026-03-29T16:28:46Z</time></trkpt><trkpt lat="44.98929792771006" lon="9.121850698164302"><ele>180.5</ele><time>2026-03-29T16:28:47Z</time></trkpt><trkpt lat="44.98941767942121" lon="9.121760367167356"><ele>178.25</ele><time>2026-03-29T16:28:48Z</time></trkpt><trkpt lat="44.989553954002524" lon="9.121673999763212"><ele>176.0</ele><time>2026-03-29T16:28:49Z</time></trkpt><trkpt lat="44.98967656792281" lon="9.121534627509172"><ele>174.0</ele><time>2026-03-29T16:28:50Z</time></trkpt><trkpt lat="44.98980301381163" lon="9.121365765087916"><ele>172.0</ele><time>2026-03-29T16:28:51Z</time></trkpt><trkpt lat="44.989931967318846" lon="9.121217772001895"><ele>170.0</ele><time>2026-03-29T16:28:52Z</time></trkpt><trkpt lat="44.990064861895355" lon="9.121095366268925"><ele>169.0</ele><time>2026-03-29T16:28:53Z</time></trkpt><trkpt lat="44.990190980495925" lon="9.121011440357872"><ele>168.0</ele><time>2026-03-29T16:28:54Z</time></trkpt><trkpt lat="44.99030126945526" lon="9.120923562369812"><ele>167.0</ele><time>2026-03-29T16:28:55Z</time></trkpt><trkpt lat="44.99041249017019" lon="9.120849639005916"><ele>166.0</ele><time>2026-03-29T16:28:56Z</time></trkpt><trkpt lat="44.99052306263155" lon="9.120798726687788"><ele>166.0</ele><time>2026-03-29T16:28:57Z</time></trkpt><trkpt lat="44.990643216750236" lon="9.12076370875773"><ele>166.0</ele><time>2026-03-29T16:28:58Z</time></trkpt><trkpt lat="44.99075213028061" lon="9.120728240342105"><ele>166.0</ele><time>2026-03-29T16:28:59Z</time></trkpt><trkpt lat="44.99083943355503" lon="9.120682585932439"><ele>166.0</ele><time>2026-03-29T16:29:00Z</time></trkpt><trkpt lat="44.99090987323752" lon="9.120626101233608"><ele>166.0</ele><time>2026-03-29T16:29:01Z</time></trkpt><trkpt lat="44.99095342652419" lon="9.120510932474287"><ele>164.33333333333334</ele><time>2026-03-29T16:29:02Z</time></trkpt><trkpt lat="44.99095954951347" lon="9.120394500105986"><ele>162.66666666666669</ele><time>2026-03-29T16:29:03Z</time></trkpt><trkpt lat="44.99091506721804" lon="9.120306826904343"><ele>161.0</ele><time>2026-03-29T16:29:04Z</time></trkpt><trkpt lat="44.990839682281305" lon="9.1202924448923"><ele>159.33333333333334</ele><time>2026-03-29T16:29:05Z</time></trkpt><trkpt lat="44.99075444724394" lon="9.120300888994425"><ele>157.66666666666666</ele><time>2026-03-29T16:29:06Z</time></trkpt><trkpt lat="44.9906461658714" lon="9.120331229112331"><ele>156.0</ele><time>2026-03-29T16:29:07Z</time></trkpt><trkpt lat="44.99051154981045" lon="9.12036472834627"><ele>156.0</ele><time>2026-03-29T16:29:08Z</time></trkpt><trkpt lat="44.99036917137868" lon="9.120400682459398"><ele>156.0</ele><time>2026-03-29T16:29:09Z</time></trkpt><trkpt lat="44.99020725560059" lon="9.12044232420051"><ele>156.0</ele><time>2026-03-29T16:29:10Z</time></trkpt><trkpt lat="44.990084918147126" lon="9.120472387236264"><ele>156.0</ele><time>2026-03-29T16:29:11Z</time></trkpt><trkpt lat="44.98998969453883" lon="9.120496937523127"><ele>156.0</ele><time>2026-03-29T16:29:12Z</time></trkpt><trkpt lat="44.98993317285534" lon="9.120456267399934"><ele>156.0</ele><time>2026-03-29T16:29:13Z</time></trkpt><trkpt lat="44.98993207020837" lon="9.120359563210258"><ele>156.0</ele><time>2026-03-29T16:29:14Z</time></trkpt><trkpt lat="44.98999160237546" lon="9.120272303960114"><ele>156.0</ele><time>2026-03-29T16:29:15Z</time></trkpt><trkpt lat="44.99010879197417" lon="9.120261170322818"><ele>156.0</ele><time>2026-03-29T16:29:16Z</time></trkpt><trkpt lat="44.99024356684147" lon="9.120194952901409"><ele>156.0</ele><time>2026-03-29T16:29:17Z</time></trkpt><trkpt lat="44.9903864072771" lon="9.12016757053014"><ele>156.0</ele><time>2026-03-29T16:29:18Z</time></trkpt><trkpt lat="44.99054776157001" lon="9.120108768772074"><ele>156.0</ele><time>2026-03-29T16:29:19Z</time></trkpt><trkpt lat="44.99071799996144" lon="9.120042453087489"><ele>152.66666666666666</ele><time>2026-03-29T16:29:20Z</time></trkpt><trkpt lat="44.990864711011476" lon="9.119963609438507"><ele>149.33333333333331</ele><time>2026-03-29T16:29:21Z</time></trkpt><trkpt lat="44.99100750190376" lon="9.119915576648712"><ele>146.0</ele><time>2026-03-29T16:29:22Z</time></trkpt><trkpt lat="44.99116289876302" lon="9.119855036525504"><ele>143.0</ele><time>2026-03-29T16:29:23Z</time></trkpt><trkpt lat="44.991316104296864" lon="9.119801404223214"><ele>140.0</ele><time>2026-03-29T16:29:24Z</time></trkpt><trkpt lat="44.99146345407216" lon="9.11974789636207"><ele>137.0</ele><time>2026-03-29T16:29:25Z</time></trkpt><trkpt lat="44.991616056370866" lon="9.119650004644463"><ele>135.33333333333331</ele><time>2026-03-29T16:29:26Z</time></trkpt><trkpt lat="44.99178532568722" lon="9.119514157477536"><ele>133.66666666666666</ele><time>2026-03-29T16:29:27Z</time></trkpt><trkpt lat="44.99197455888124" lon="9.119391008341056"><ele>132.0</ele><time>2026-03-29T16:29:28Z</time></trkpt><trkpt lat="44.992142051639426" lon="9.119294418666994"><ele>132.0</ele><time>2026-03-29T16:29:29Z</time></trkpt><trkpt lat="44.9922901976973" lon="9.119211126687105"><ele>132.0</ele><time>2026-03-29T16:29:30Z</time></trkpt><trkpt lat="44.9924302115022" lon="9.119129676101059"><ele>132.0</ele><time>2026-03-29T16:29:31Z</time></trkpt><trkpt lat="44.99253465988137" lon="9.119028339850436"><ele>132.0</ele><time>2026-03-29T16:29:32Z</time></trkpt><trkpt lat="44.99263075760894" lon="9.118899342849437"><ele>129.33333333333334</ele><time>2026-03-29T16:29:33Z</time></trkpt><trkpt lat="44.9926537405289" lon="9.11866230307571"><ele>126.66666666666667</ele><time>2026-03-29T16:29:34Z</time></trkpt><trkpt lat="44.9926556952341" lon="9.118409649628546"><ele>124.0</ele><time>2026-03-29T16:29:35Z</time></trkpt><trkpt lat="44.99266832228396" lon="9.118136296086698"><ele>122.66666666666667</ele><time>2026-03-29T16:29:36Z</time></trkpt><trkpt lat="44.992687732692474" lon="9.11783337942858"><ele>121.33333333333334</ele><time>2026-03-29T16:29:37Z</time></trkpt><trkpt lat="44.99271319211075" lon="9.117532996794303"><ele>120.0</ele><time>2026-03-29T16:29:38Z</time></trkpt><trkpt lat="44.992739393881514" lon="9.117285523187048"><ele>119.4</ele><time>2026-03-29T16:29:39Z</time></trkpt><trkpt lat="44.99276292599066" lon="9.117106479164494"><ele>118.8</ele><time>2026-03-29T16:29:40Z</time></trkpt><trkpt lat="44.992780100493945" lon="9.116976972315008"><ele>118.19999999999999</ele><time>2026-03-29T16:29:41Z</time></trkpt><trkpt lat="44.992800716929054" lon="9.116831588733112"><ele>117.6</ele><time>2026-03-29T16:29:42Z</time></trkpt><trkpt lat="44.99282964427254" lon="9.116686432005254"><ele>117.0</ele><time>2026-03-29T16:29:43Z</time></trkpt><trkpt lat="44.99286845021998" lon="9.116555666056499"><ele>116.0</ele><time>2026-03-29T16:29:44Z</time></trkpt><trkpt lat="44.99291780532063" lon="9.116417307826156"><ele>115.0</ele><time>2026-03-29T16:29:45Z</time></trkpt><trkpt lat="44.9929931119787" lon="9.116274294931161"><ele>114.0</ele><time>2026-03-29T16:29:46Z</time></trkpt><trkpt lat="44.99307449275699" lon="9.116098973874681"><ele>113.0</ele><time>2026-03-29T16:29:47Z</time></trkpt><trkpt lat="44.99316920277084" lon="9.115893769184844"><ele>112.0</ele><time>2026-03-29T16:29:48Z</time></trkpt><trkpt lat="44.99325387363643" lon="9.115676943118856"><ele>111.0</ele><time>2026-03-29T16:29:49Z</time></trkpt><trkpt lat="44.993351135929885" lon="9.115484741522188"><ele>110.0</ele><time>2026-03-29T16:29:50Z</time></trkpt><trkpt lat="44.993439895919046" lon="9.115300553745453"><ele>109.5</ele><time>2026-03-29T16:29:51Z</time></trkpt><trkpt lat="44.99356341318855" lon="9.115176059361394"><ele>109.0</ele><time>2026-03-29T16:29:52Z</time></trkpt><trkpt lat="44.99368717631704" lon="9.115066068101525"><ele>108.5</ele><time>2026-03-29T16:29:53Z</time></trkpt><trkpt lat="44.993779407518474" lon="9.11492260121649"><ele>108.0</ele><time>2026-03-29T16:29:54Z</time></trkpt><trkpt lat="44.99382473325741" lon="9.114700756707357"><ele>107.0</ele><time>2026-03-29T16:29:55Z</time></trkpt><trkpt lat="44.99383463284819" lon="9.114447322639174"><ele>106.0</ele><time>2026-03-29T16:29:56Z</time></trkpt><trkpt lat="44.99385389335157" lon="9.114210434706154"><ele>105.0</ele><time>2026-03-29T16:29:57Z</time></trkpt><trkpt lat="44.993891322078085" lon="9.11406295904955"><ele>105.0</ele><time>2026-03-29T16:29:58Z</time></trkpt><trkpt lat="44.99397539348699" lon="9.113963833609"><ele>105.0</ele><time>2026-03-29T16:29:59Z</time></trkpt><trkpt lat="44.99410296305825" lon="9.113969341715961"><ele>105.0</ele><time>2026-03-29T16:30:00Z</time></trkpt><trkpt lat="44.994218812904805" lon="9.113910230086113"><ele>105.0</ele><time>2026-03-29T16:30:01Z</time></trkpt><trkpt lat="44.994282334173135" lon="9.113757047569615"><ele>104.25</ele><time>2026-03-29T16:30:02Z</time></trkpt><trkpt lat="44.99428519856944" lon="9.113569825837171"><ele>103.5</ele><time>2026-03-29T16:30:03Z</time></trkpt><trkpt lat="44.994294393603944" lon="9.113363747281108"><ele>102.75</ele><time>2026-03-29T16:30:04Z</time></trkpt><trkpt lat="44.994309884798" lon="9.113184394934697"><ele>102.0</ele><time>2026-03-29T16:30:05Z</time></trkpt><trkpt lat="44.994324689532604" lon="9.113035391572176"><ele>101.66666666666667</ele><time>2026-03-29T16:30:06Z</time></trkpt><trkpt lat="44.99433611550601" lon="9.11290976950657"><ele>101.33333333333334</ele><time>2026-03-29T16:30:07Z</time></trkpt><trkpt lat="44.99434500989372" lon="9.112818738168704"><ele>101.0</ele><time>2026-03-29T16:30:08Z</time></trkpt><trkpt lat="44.99435783272122" lon="9.112721173982713"><ele>100.66666666666667</ele><time>2026-03-29T16:30:10Z</time></trkpt><trkpt lat="44.994489734813364" lon="9.112715936738496"><ele>100.33333333333334</ele><time>2026-03-29T16:30:13Z</time></trkpt><trkpt lat="44.99457602519212" lon="9.11273009402916"><ele>100.0</ele><time>2026-03-29T16:30:14Z</time></trkpt><trkpt lat="44.99468851007318" lon="9.112725126892165"><ele>100.0</ele><time>2026-03-29T16:30:15Z</time></trkpt><trkpt lat="44.99482050033092" lon="9.112748353314192"><ele>100.0</ele><time>2026-03-29T16:30:16Z</time></trkpt><trkpt lat="44.99495143403358" lon="9.112765594338537"><ele>100.0</ele><time>2026-03-29T16:30:17Z</time></trkpt><trkpt lat="44.995105951803566" lon="9.112788359673585"><ele>100.0</ele><time>2026-03-29T16:30:18Z</time></trkpt><trkpt lat="44.995273817232956" lon="9.112838153120167"><ele>100.0</ele><time>2026-03-29T16:30:19Z</time></trkpt><trkpt lat="44.995440851862504" lon="9.112837928169558"><ele>100.0</ele><time>2026-03-29T16:30:20Z</time></trkpt><trkpt lat="44.99559870735608" lon="9.112861850553827"><ele>100.0</ele><time>2026-03-29T16:30:21Z</time></trkpt><trkpt lat="44.99575117267998" lon="9.112907440546355"><ele>100.25</ele><time>2026-03-29T16:30:22Z</time></trkpt><trkpt lat="44.99590188028251" lon="9.112930297057423"><ele>100.5</ele><time>2026-03-29T16:30:23Z</time></trkpt><trkpt lat="44.99604889777925" lon="9.112953131850546"><ele>100.75</ele><time>2026-03-29T16:30:24Z</time></trkpt><trkpt lat="44.99619150118491" lon="9.112976353203548"><ele>101.0</ele><time>2026-03-29T16:30:25Z</time></trkpt><trkpt lat="44.996331839228795" lon="9.112999488253712"><ele>101.0</ele><time>2026-03-29T16:30:26Z</time></trkpt><trkpt lat="44.99647021481762" lon="9.112999008716553"><ele>101.0</ele><time>2026-03-29T16:30:27Z</time></trkpt><trkpt lat="44.99660174681719" lon="9.113043983127927"><ele>101.0</ele><time>2026-03-29T16:30:28Z</time></trkpt><trkpt lat="44.99673370229914" lon="9.113045567311875"><ele>101.0</ele><time>2026-03-29T16:30:29Z</time></trkpt><trkpt lat="44.99685850860698" lon="9.113070491270872"><ele>100.75</ele><time>2026-03-29T16:30:30Z</time></trkpt><trkpt lat="44.99698350230233" lon="9.11309139909386"><ele>100.5</ele><time>2026-03-29T16:30:31Z</time></trkpt><trkpt lat="44.99711085545547" lon="9.113114704090414"><ele>100.25</ele><time>2026-03-29T16:30:32Z</time></trkpt><trkpt lat="44.99724253178966" lon="9.1131408422376"><ele>100.0</ele><time>2026-03-29T16:30:33Z</time></trkpt><trkpt lat="44.99737916212984" lon="9.113173567798443"><ele>99.75</ele><time>2026-03-29T16:30:34Z</time></trkpt><trkpt lat="44.997517045724464" lon="9.11321250677122"><ele>99.5</ele><time>2026-03-29T16:30:35Z</time></trkpt><trkpt lat="44.997654729202644" lon="9.113270570762122"><ele>99.25</ele><time>2026-03-29T16:30:36Z</time></trkpt><trkpt lat="44.99779626177792" lon="9.113311330799382"><ele>99.0</ele><time>2026-03-29T16:30:37Z</time></trkpt><trkpt lat="44.99794664674969" lon="9.113355155550027"><ele>99.0</ele><time>2026-03-29T16:30:38Z</time></trkpt><trkpt lat="44.99810520146836" lon="9.113378894606358"><ele>99.0</ele><time>2026-03-29T16:30:39Z</time></trkpt><trkpt lat="44.99826551621556" lon="9.113425071578925"><ele>99.0</ele><time>2026-03-29T16:30:40Z</time></trkpt><trkpt lat="44.99842091982398" lon="9.113470869496053"><ele>98.75</ele><time>2026-03-29T16:30:41Z</time></trkpt><trkpt lat="44.99857053419436" lon="9.11351639379408"><ele>98.5</ele><time>2026-03-29T16:30:42Z</time></trkpt><trkpt lat="44.99871190266396" lon="9.113582136597595"><ele>98.25</ele><time>2026-03-29T16:30:43Z</time></trkpt><trkpt lat="44.998854376112575" lon="9.113624772690837"><ele>98.0</ele><time>2026-03-29T16:30:44Z</time></trkpt><trkpt lat="44.99899345958434" lon="9.113664203347978"><ele>98.0</ele><time>2026-03-29T16:30:45Z</time></trkpt><trkpt lat="44.999128150546504" lon="9.113703039832613"><ele>98.0</ele><time>2026-03-29T16:30:46Z</time></trkpt><trkpt lat="44.99926544995689" lon="9.113744023478288"><ele>98.0</ele><time>2026-03-29T16:30:47Z</time></trkpt><trkpt lat="44.99940011182016" lon="9.113780017973554"><ele>98.0</ele><time>2026-03-29T16:30:48Z</time></trkpt><trkpt lat="44.999528862196776" lon="9.113817238831453"><ele>98.0</ele><time>2026-03-29T16:30:49Z</time></trkpt><trkpt lat="44.99965085687039" lon="9.113853227265095"><ele>98.0</ele><time>2026-03-29T16:30:50Z</time></trkpt><trkpt lat="44.999770124298756" lon="9.113888235379044"><ele>98.0</ele><time>2026-03-29T16:30:51Z</time></trkpt><trkpt lat="44.9998862316909" lon="9.11392494880866"><ele>98.0</ele><time>2026-03-29T16:30:52Z</time></trkpt><trkpt lat="44.99999426601351" lon="9.11395723626027"><ele>97.99999999999999</ele><time>2026-03-29T16:30:53Z</time></trkpt><trkpt lat="45.00008752716015" lon="9.113985883486045"><ele>98.0</ele><time>2026-03-29T16:30:54Z</time></trkpt><trkpt lat="45.00016075485101" lon="9.1140111124372"><ele>98.0</ele><time>2026-03-29T16:30:55Z</time></trkpt><trkpt lat="45.00023812256247" lon="9.114038521977216"><ele>98.0</ele><time>2026-03-29T16:30:57Z</time></trkpt><trkpt lat="45.00029958417716" lon="9.114058616843664"><ele>97.99999999999999</ele><time>2026-03-29T16:31:04Z</time></trkpt><trkpt lat="45.00020952106002" lon="9.113951651867925"><ele>98.0</ele><time>2026-03-29T16:31:16Z</time></trkpt><trkpt lat="45.000139936974335" lon="9.11393713030096"><ele>98.0</ele><time>2026-03-29T16:31:17Z</time></trkpt><trkpt lat="45.00004379336399" lon="9.11391265029087"><ele>98.0</ele><time>2026-03-29T16:31:18Z</time></trkpt><trkpt lat="44.99992691129004" lon="9.113877506383117"><ele>98.0</ele><time>2026-03-29T16:31:19Z</time></trkpt><trkpt lat="44.9998109343475" lon="9.113839442412685"><ele>98.0</ele><time>2026-03-29T16:31:20Z</time></trkpt><trkpt lat="44.999683049052095" lon="9.11379737973711"><ele>98.0</ele><time>2026-03-29T16:31:21Z</time></trkpt><trkpt lat="44.999542768213566" lon="9.113757480236826"><ele>98.0</ele><time>2026-03-29T16:31:22Z</time></trkpt><trkpt lat="44.99940172605419" lon="9.113716965675025"><ele>98.0</ele><time>2026-03-29T16:31:23Z</time></trkpt><trkpt lat="44.99925434453429" lon="9.113675898550364"><ele>98.0</ele><time>2026-03-29T16:31:24Z</time></trkpt><trkpt lat="44.9991134152732" lon="9.113635745844842"><ele>98.0</ele><time>2026-03-29T16:31:25Z</time></trkpt><trkpt lat="44.998973133800696" lon="9.1135995398779"><ele>98.0</ele><time>2026-03-29T16:31:26Z</time></trkpt><trkpt lat="44.99883253312027" lon="9.113556824483972"><ele>98.0</ele><time>2026-03-29T16:31:27Z</time></trkpt><trkpt lat="44.998693920054734" lon="9.113510922166547"><ele>98.0</ele><time>2026-03-29T16:31:28Z</time></trkpt><trkpt lat="44.99855365727524" lon="9.11346971973994"><ele>98.0</ele><time>2026-03-29T16:31:29Z</time></trkpt><trkpt lat="44.998415862548015" lon="9.11342995806105"><ele>98.0</ele><time>2026-03-29T16:31:30Z</time></trkpt><trkpt lat="44.99827754554793" lon="9.113387959548309"><ele>98.0</ele><time>2026-03-29T16:31:31Z</time></trkpt><trkpt lat="44.998145774736315" lon="9.11334782727483"><ele>98.0</ele><time>2026-03-29T16:31:32Z</time></trkpt><trkpt lat="44.99801261093477" lon="9.113309693455687"><ele>98.0</ele><time>2026-03-29T16:31:33Z</time></trkpt><trkpt lat="44.99788577932293" lon="9.113270934151876"><ele>98.0</ele><time>2026-03-29T16:31:34Z</time></trkpt><trkpt lat="44.99776401646755" lon="9.113231741144563"><ele>98.0</ele><time>2026-03-29T16:31:35Z</time></trkpt><trkpt lat="44.99764604095332" lon="9.11319704885104"><ele>98.0</ele><time>2026-03-29T16:31:36Z</time></trkpt><trkpt lat="44.997531824973024" lon="9.11316441981808"><ele>98.4</ele><time>2026-03-29T16:31:37Z</time></trkpt><trkpt lat="44.99743236191768" lon="9.113136566373576"><ele>98.80000000000001</ele><time>2026-03-29T16:31:38Z</time></trkpt><trkpt lat="44.99735329866592" lon="9.113114638130384"><ele>99.2</ele><time>2026-03-29T16:31:39Z</time></trkpt><trkpt lat="44.997264386995155" lon="9.113094011840321"><ele>99.6</ele><time>2026-03-29T16:31:41Z</time></trkpt><trkpt lat="44.99727125031821" lon="9.112898819814214"><ele>100.0</ele><time>2026-03-29T16:31:43Z</time></trkpt><trkpt lat="44.99729644340763" lon="9.11277234710545"><ele>100.0</ele><time>2026-03-29T16:31:44Z</time></trkpt><trkpt lat="44.99731086376374" lon="9.112624977226083"><ele>100.0</ele><time>2026-03-29T16:31:45Z</time></trkpt><trkpt lat="44.997323862365505" lon="9.112448858759691"><ele>100.0</ele><time>2026-03-29T16:31:46Z</time></trkpt><trkpt lat="44.99733323269495" lon="9.112284313120314"><ele>100.0</ele><time>2026-03-29T16:31:47Z</time></trkpt><trkpt lat="44.99733776658304" lon="9.112095064686343"><ele>99.33333333333334</ele><time>2026-03-29T16:31:48Z</time></trkpt><trkpt lat="44.99734670798138" lon="9.111881308812578"><ele>98.66666666666666</ele><time>2026-03-29T16:31:49Z</time></trkpt><trkpt lat="44.997355172564774" lon="9.111662264392853"><ele>98.0</ele><time>2026-03-29T16:31:50Z</time></trkpt><trkpt lat="44.99736612668828" lon="9.111446570843976"><ele>98.0</ele><time>2026-03-29T16:31:51Z</time></trkpt><trkpt lat="44.997375379561305" lon="9.111207767181595"><ele>98.0</ele><time>2026-03-29T16:31:52Z</time></trkpt><trkpt lat="44.99738515568854" lon="9.11096482778038"><ele>98.0</ele><time>2026-03-29T16:31:53Z</time></trkpt><trkpt lat="44.997395736085316" lon="9.110713168562587"><ele>97.66666666666666</ele><time>2026-03-29T16:31:54Z</time></trkpt><trkpt lat="44.99740658968521" lon="9.110439641778617"><ele>97.33333333333334</ele><time>2026-03-29T16:31:55Z</time></trkpt><trkpt lat="44.99741977650343" lon="9.11015387944276"><ele>97.0</ele><time>2026-03-29T16:31:56Z</time></trkpt><trkpt lat="44.997430445740484" lon="9.109880553014504"><ele>97.66666666666667</ele><time>2026-03-29T16:31:57Z</time></trkpt><trkpt lat="44.99743317457332" lon="9.109617700591706"><ele>98.33333333333334</ele><time>2026-03-29T16:31:57.999Z</time></trkpt><trkpt lat="44.99741673438289" lon="9.109368554620053"><ele>99.0</ele><time>2026-03-29T16:31:58.999Z</time></trkpt><trkpt lat="44.99737905255881" lon="9.109145659325574"><ele>99.0</ele><time>2026-03-29T16:31:59.999Z</time></trkpt><trkpt lat="44.99733541433978" lon="9.108963538924922"><ele>99.0</ele><time>2026-03-29T16:32:00.999Z</time></trkpt><trkpt lat="44.9973202483162" lon="9.10883808926381"><ele>99.0</ele><time>2026-03-29T16:32:01.999Z</time></trkpt><trkpt lat="44.99733723630649" lon="9.108732398187788"><ele>99.0</ele><time>2026-03-29T16:32:02.999Z</time></trkpt><trkpt lat="44.99738625176646" lon="9.108643227959634"><ele>99.0</ele><time>2026-03-29T16:32:04Z</time></trkpt><trkpt lat="44.99738917346371" lon="9.108517582359413"><ele>99.0</ele><time>2026-03-29T16:32:05Z</time></trkpt><trkpt lat="44.99731986845743" lon="9.108421795908095"><ele>99.0</ele><time>2026-03-29T16:32:06Z</time></trkpt><trkpt lat="44.99720673027026" lon="9.108415063845813"><ele>99.0</ele><time>2026-03-29T16:32:07Z</time></trkpt><trkpt lat="44.99708549097345" lon="9.108457223851321"><ele>99.0</ele><time>2026-03-29T16:32:08Z</time></trkpt><trkpt lat="44.996941841011804" lon="9.10845605426224"><ele>99.0</ele><time>2026-03-29T16:32:09Z</time></trkpt><trkpt lat="44.996784083961415" lon="9.108441053404409"><ele>99.0</ele><time>2026-03-29T16:32:10Z</time></trkpt><trkpt lat="44.996625482316375" lon="9.108413280443987"><ele>99.0</ele><time>2026-03-29T16:32:11Z</time></trkpt><trkpt lat="44.99644794902706" lon="9.108377083643155"><ele>99.0</ele><time>2026-03-29T16:32:12Z</time></trkpt><trkpt lat="44.996272053705965" lon="9.108339012383565"><ele>99.0</ele><time>2026-03-29T16:32:13Z</time></trkpt><trkpt lat="44.99610394340806" lon="9.108301265541963"><ele>99.0</ele><time>2026-03-29T16:32:14Z</time></trkpt><trkpt lat="44.99594096555082" lon="9.108266076304545"><ele>99.66666666666666</ele><time>2026-03-29T16:32:15Z</time></trkpt><trkpt lat="44.99578438019806" lon="9.108231615656347"><ele>100.33333333333333</ele><time>2026-03-29T16:32:16Z</time></trkpt><trkpt lat="44.99563141878818" lon="9.10819938411594"><ele>101.0</ele><time>2026-03-29T16:32:17Z</time></trkpt><trkpt lat="44.9954853959508" lon="9.108169206745833"><ele>101.0</ele><time>2026-03-29T16:32:18Z</time></trkpt><trkpt lat="44.99534139941808" lon="9.108139868680134"><ele>101.0</ele><time>2026-03-29T16:32:19Z</time></trkpt><trkpt lat="44.99519702010727" lon="9.108111334517806"><ele>101.0</ele><time>2026-03-29T16:32:20Z</time></trkpt><trkpt lat="44.99505077911072" lon="9.108082401171638"><ele>101.0</ele><time>2026-03-29T16:32:21Z</time></trkpt><trkpt lat="44.99490125791092" lon="9.108051679002523"><ele>100.33333333333333</ele><time>2026-03-29T16:32:22Z</time></trkpt><trkpt lat="44.994749315233804" lon="9.10801885780682"><ele>99.66666666666666</ele><time>2026-03-29T16:32:23Z</time></trkpt><trkpt lat="44.994585917383894" lon="9.107983575902201"><ele>99.0</ele><time>2026-03-29T16:32:24Z</time></trkpt><trkpt lat="44.99441312179028" lon="9.107947762316625"><ele>99.0</ele><time>2026-03-29T16:32:25Z</time></trkpt><trkpt lat="44.994236603687554" lon="9.107912673142772"><ele>99.0</ele><time>2026-03-29T16:32:26Z</time></trkpt><trkpt lat="44.994064935024205" lon="9.107879629967101"><ele>99.0</ele><time>2026-03-29T16:32:27Z</time></trkpt><trkpt lat="44.99389857531104" lon="9.10784497905851"><ele>100.33333333333334</ele><time>2026-03-29T16:32:28Z</time></trkpt><trkpt lat="44.99372770125273" lon="9.107809430716928"><ele>101.66666666666667</ele><time>2026-03-29T16:32:29Z</time></trkpt><trkpt lat="44.99355658199382" lon="9.107773633093354"><ele>103.0</ele><time>2026-03-29T16:32:30Z</time></trkpt><trkpt lat="44.9933843195257" lon="9.10773711604865"><ele>104.0</ele><time>2026-03-29T16:32:31Z</time></trkpt><trkpt lat="44.993211520611" lon="9.10770057592366"><ele>105.0</ele><time>2026-03-29T16:32:32Z</time></trkpt><trkpt lat="44.993037807334986" lon="9.107662662824032"><ele>106.0</ele><time>2026-03-29T16:32:33Z</time></trkpt><trkpt lat="44.99286223260823" lon="9.107626091197586"><ele>106.0</ele><time>2026-03-29T16:32:34Z</time></trkpt><trkpt lat="44.992688599213935" lon="9.107588674255158"><ele>106.0</ele><time>2026-03-29T16:32:35Z</time></trkpt><trkpt lat="44.992521245705504" lon="9.107556433937566"><ele>106.0</ele><time>2026-03-29T16:32:36Z</time></trkpt><trkpt lat="44.99236113172102" lon="9.107524678320416"><ele>106.66666666666667</ele><time>2026-03-29T16:32:37Z</time></trkpt><trkpt lat="44.99220355293199" lon="9.107494748301102"><ele>107.33333333333334</ele><time>2026-03-29T16:32:38Z</time></trkpt><trkpt lat="44.992049875602895" lon="9.107463251422802"><ele>108.0</ele><time>2026-03-29T16:32:39Z</time></trkpt><trkpt lat="44.991901378863176" lon="9.107431894836452"><ele>108.0</ele><time>2026-03-29T16:32:40Z</time></trkpt><trkpt lat="44.9917623109861" lon="9.10740247130364"><ele>108.00000000000001</ele><time>2026-03-29T16:32:41Z</time></trkpt><trkpt lat="44.99165008375148" lon="9.10737881702076"><ele>108.00000000000001</ele><time>2026-03-29T16:32:42Z</time></trkpt><trkpt lat="44.99156512152318" lon="9.107358016537876"><ele>108.0</ele><time>2026-03-29T16:32:43Z</time></trkpt><trkpt lat="44.991506614745454" lon="9.107316350368057"><ele>108.0</ele><time>2026-03-29T16:32:44Z</time></trkpt><trkpt lat="44.99144025780534" lon="9.107272551577559"><ele>107.60000000000001</ele><time>2026-03-29T16:32:46Z</time></trkpt><trkpt lat="44.991469754418894" lon="9.10706146455155"><ele>107.20000000000002</ele><time>2026-03-29T16:32:47Z</time></trkpt><trkpt lat="44.99150508209542" lon="9.106963027448138"><ele>106.8</ele><time>2026-03-29T16:32:48Z</time></trkpt><trkpt lat="44.99154770685832" lon="9.106861555874268"><ele>106.4</ele><time>2026-03-29T16:32:49Z</time></trkpt><trkpt lat="44.991588589072684" lon="9.106749002538862"><ele>106.0</ele><time>2026-03-29T16:32:50Z</time></trkpt><trkpt lat="44.99162124327251" lon="9.106646501453708"><ele>106.16666666666667</ele><time>2026-03-29T16:32:51Z</time></trkpt><trkpt lat="44.991641020932086" lon="9.106539887232206"><ele>106.33333333333334</ele><time>2026-03-29T16:32:52Z</time></trkpt><trkpt lat="44.99164281440926" lon="9.10643890692655"><ele>106.5</ele><time>2026-03-29T16:32:53Z</time></trkpt><trkpt lat="44.99162526065108" lon="9.106345786877629"><ele>106.66666666666666</ele><time>2026-03-29T16:32:54Z</time></trkpt><trkpt lat="44.99157580020852" lon="9.106269125746259"><ele>106.83333333333333</ele><time>2026-03-29T16:32:55Z</time></trkpt><trkpt lat="44.99145116708876" lon="9.106209583539576"><ele>107.0</ele><time>2026-03-29T16:32:57Z</time></trkpt><trkpt lat="44.991375444232" lon="9.106210666129552"><ele>107.0</ele><time>2026-03-29T16:32:58Z</time></trkpt><trkpt lat="44.991290509033135" lon="9.106232961911731"><ele>106.99999999999999</ele><time>2026-03-29T16:32:59Z</time></trkpt><trkpt lat="44.99119403183931" lon="9.106250554706042"><ele>106.99999999999999</ele><time>2026-03-29T16:33:00Z</time></trkpt><trkpt lat="44.99108472741891" lon="9.106251696123055"><ele>107.0</ele><time>2026-03-29T16:33:01Z</time></trkpt><trkpt lat="44.990962459115245" lon="9.106252175786642"><ele>107.0</ele><time>2026-03-29T16:33:02Z</time></trkpt><trkpt lat="44.99082385235366" lon="9.106250662239162"><ele>107.66666666666666</ele><time>2026-03-29T16:33:03Z</time></trkpt><trkpt lat="44.99066354518216" lon="9.106246803847373"><ele>108.33333333333334</ele><time>2026-03-29T16:33:04Z</time></trkpt><trkpt lat="44.99048807705765" lon="9.10624290092062"><ele>109.0</ele><time>2026-03-29T16:33:05Z</time></trkpt><trkpt lat="44.99030003756845" lon="9.106241032733896"><ele>109.0</ele><time>2026-03-29T16:33:06Z</time></trkpt><trkpt lat="44.99009825292672" lon="9.10623687872514"><ele>109.0</ele><time>2026-03-29T16:33:07Z</time></trkpt><trkpt lat="44.98990124441163" lon="9.106231440066633"><ele>109.0</ele><time>2026-03-29T16:33:08Z</time></trkpt><trkpt lat="44.98969064342436" lon="9.106224518258198"><ele>109.5</ele><time>2026-03-29T16:33:09Z</time></trkpt><trkpt lat="44.989467132535204" lon="9.106220279619821"><ele>110.0</ele><time>2026-03-29T16:33:10Z</time></trkpt><trkpt lat="44.98923424629446" lon="9.10621493413722"><ele>109.0</ele><time>2026-03-29T16:33:11Z</time></trkpt><trkpt lat="44.988990625718856" lon="9.106212569202285"><ele>108.0</ele><time>2026-03-29T16:33:12Z</time></trkpt><trkpt lat="44.988755090591816" lon="9.106204527543774"><ele>108.0</ele><time>2026-03-29T16:33:13Z</time></trkpt><trkpt lat="44.988515633956034" lon="9.106172074824753"><ele>108.0</ele><time>2026-03-29T16:33:14Z</time></trkpt><trkpt lat="44.98826871286868" lon="9.106102303767274"><ele>109.5</ele><time>2026-03-29T16:33:15Z</time></trkpt><trkpt lat="44.98802077315062" lon="9.105991744630266"><ele>111.0</ele><time>2026-03-29T16:33:16Z</time></trkpt><trkpt lat="44.98777751575603" lon="9.105847947660257"><ele>112.0</ele><time>2026-03-29T16:33:17Z</time></trkpt><trkpt lat="44.987549179704075" lon="9.105688766573923"><ele>113.0</ele><time>2026-03-29T16:33:18Z</time></trkpt><trkpt lat="44.9873352251289" lon="9.105530479002773"><ele>111.66666666666666</ele><time>2026-03-29T16:33:19Z</time></trkpt><trkpt lat="44.98713209509116" lon="9.10538581075547"><ele>110.33333333333334</ele><time>2026-03-29T16:33:20Z</time></trkpt><trkpt lat="44.98694150692963" lon="9.105249427169682"><ele>109.0</ele><time>2026-03-29T16:33:21Z</time></trkpt><trkpt lat="44.98675835062709" lon="9.105120189912352"><ele>109.33333333333334</ele><time>2026-03-29T16:33:22Z</time></trkpt><trkpt lat="44.986582873523716" lon="9.104993658944041"><ele>109.66666666666666</ele><time>2026-03-29T16:33:23Z</time></trkpt><trkpt lat="44.986410968640406" lon="9.104873385223003"><ele>110.0</ele><time>2026-03-29T16:33:24Z</time></trkpt><trkpt lat="44.98623957203774" lon="9.10476605430215"><ele>110.66666666666666</ele><time>2026-03-29T16:33:25Z</time></trkpt><trkpt lat="44.9860686909274" lon="9.104676164927804"><ele>111.33333333333334</ele><time>2026-03-29T16:33:26Z</time></trkpt><trkpt lat="44.98589003912563" lon="9.104598748138885"><ele>112.0</ele><time>2026-03-29T16:33:27Z</time></trkpt><trkpt lat="44.985712060743" lon="9.10452683253024"><ele>112.33333333333334</ele><time>2026-03-29T16:33:28Z</time></trkpt><trkpt lat="44.98553093538925" lon="9.104463047464934"><ele>112.66666666666666</ele><time>2026-03-29T16:33:29Z</time></trkpt><trkpt lat="44.98534634760226" lon="9.104408369579625"><ele>113.0</ele><time>2026-03-29T16:33:30Z</time></trkpt><trkpt lat="44.98516185974066" lon="9.104368579440271"><ele>113.0</ele><time>2026-03-29T16:33:31Z</time></trkpt><trkpt lat="44.9849755570598" lon="9.104345543536787"><ele>113.0</ele><time>2026-03-29T16:33:32Z</time></trkpt><trkpt lat="44.98478739316126" lon="9.10433907645575"><ele>113.0</ele><time>2026-03-29T16:33:33Z</time></trkpt><trkpt lat="44.98459749194325" lon="9.104339026986036"><ele>113.0</ele><time>2026-03-29T16:33:34Z</time></trkpt><trkpt lat="44.98440174950241" lon="9.104337455671631"><ele>113.0</ele><time>2026-03-29T16:33:35Z</time></trkpt><trkpt lat="44.98419863515829" lon="9.104338411691058"><ele>113.0</ele><time>2026-03-29T16:33:36Z</time></trkpt><trkpt lat="44.98398007748313" lon="9.104339470779093"><ele>114.0</ele><time>2026-03-29T16:33:37Z</time></trkpt><trkpt lat="44.98375287162458" lon="9.104339845213577"><ele>115.0</ele><time>2026-03-29T16:33:38Z</time></trkpt><trkpt lat="44.98351824774954" lon="9.10434279139045"><ele>114.5</ele><time>2026-03-29T16:33:39Z</time></trkpt><trkpt lat="44.98327308284922" lon="9.10434245326918"><ele>114.0</ele><time>2026-03-29T16:33:40Z</time></trkpt><trkpt lat="44.98303208234661" lon="9.104341920176692"><ele>114.0</ele><time>2026-03-29T16:33:41Z</time></trkpt><trkpt lat="44.98279856669099" lon="9.10434604423535"><ele>114.0</ele><time>2026-03-29T16:33:42Z</time></trkpt><trkpt lat="44.98256674550906" lon="9.104348710751966"><ele>116.0</ele><time>2026-03-29T16:33:43Z</time></trkpt><trkpt lat="44.98232751116541" lon="9.104348601429429"><ele>118.0</ele><time>2026-03-29T16:33:44Z</time></trkpt><trkpt lat="44.98208849078355" lon="9.10435117032748"><ele>118.0</ele><time>2026-03-29T16:33:45Z</time></trkpt><trkpt lat="44.981861312493805" lon="9.104354017283853"><ele>118.0</ele><time>2026-03-29T16:33:46Z</time></trkpt><trkpt lat="44.981637288692276" lon="9.104356960481814"><ele>118.33333333333334</ele><time>2026-03-29T16:33:47Z</time></trkpt><trkpt lat="44.981418268926284" lon="9.104363304599914"><ele>118.66666666666666</ele><time>2026-03-29T16:33:48Z</time></trkpt><trkpt lat="44.981201685115" lon="9.10437644850888"><ele>119.0</ele><time>2026-03-29T16:33:49Z</time></trkpt><trkpt lat="44.98098852410669" lon="9.104397011776042"><ele>119.0</ele><time>2026-03-29T16:33:50Z</time></trkpt><trkpt lat="44.98077342952026" lon="9.10442201703123"><ele>119.0</ele><time>2026-03-29T16:33:51Z</time></trkpt><trkpt lat="44.98055980667127" lon="9.104444745334218"><ele>119.0</ele><time>2026-03-29T16:33:52Z</time></trkpt><trkpt lat="44.980342895305114" lon="9.104466470509491"><ele>119.0</ele><time>2026-03-29T16:33:53Z</time></trkpt><trkpt lat="44.980124562350994" lon="9.104492905475913"><ele>119.0</ele><time>2026-03-29T16:33:54Z</time></trkpt><trkpt lat="44.97990613847813" lon="9.104518847754893"><ele>119.0</ele><time>2026-03-29T16:33:55Z</time></trkpt><trkpt lat="44.97968669947339" lon="9.104547767850551"><ele>120.0</ele><time>2026-03-29T16:33:56Z</time></trkpt><trkpt lat="44.979465333123606" lon="9.104577548794406"><ele>121.0</ele><time>2026-03-29T16:33:57Z</time></trkpt><trkpt lat="44.9792435538403" lon="9.104603143611635"><ele>122.0</ele><time>2026-03-29T16:33:58Z</time></trkpt><trkpt lat="44.979022705809165" lon="9.10462948976553"><ele>122.0</ele><time>2026-03-29T16:33:59Z</time></trkpt><trkpt lat="44.97879950677177" lon="9.104655858905799"><ele>122.0</ele><time>2026-03-29T16:34:00Z</time></trkpt><trkpt lat="44.97858161464637" lon="9.10468313763727"><ele>122.0</ele><time>2026-03-29T16:34:01Z</time></trkpt><trkpt lat="44.978370721261264" lon="9.104711616705218"><ele>122.33333333333333</ele><time>2026-03-29T16:34:02Z</time></trkpt><trkpt lat="44.978165235006124" lon="9.104739299501485"><ele>122.66666666666666</ele><time>2026-03-29T16:34:02.999Z</time></trkpt><trkpt lat="44.97795971714547" lon="9.104769251979242"><ele>123.0</ele><time>2026-03-29T16:34:03.999Z</time></trkpt><trkpt lat="44.977758950140505" lon="9.104802870744901"><ele>123.0</ele><time>2026-03-29T16:34:04.999Z</time></trkpt><trkpt lat="44.97756127242347" lon="9.10484245016673"><ele>123.0</ele><time>2026-03-29T16:34:05.999Z</time></trkpt><trkpt lat="44.97737190386317" lon="9.104901051163958"><ele>123.0</ele><time>2026-03-29T16:34:06.999Z</time></trkpt><trkpt lat="44.977187273963835" lon="9.104956813969455"><ele>123.0</ele><time>2026-03-29T16:34:07.999Z</time></trkpt><trkpt lat="44.97700643752264" lon="9.105009762078826"><ele>123.0</ele><time>2026-03-29T16:34:08.999Z</time></trkpt><trkpt lat="44.976836325945406" lon="9.105060441627133"><ele>123.0</ele><time>2026-03-29T16:34:10Z</time></trkpt><trkpt lat="44.976677478222584" lon="9.105117796663336"><ele>123.0</ele><time>2026-03-29T16:34:11Z</time></trkpt><trkpt lat="44.97652904276008" lon="9.10517106081885"><ele>123.0</ele><time>2026-03-29T16:34:12Z</time></trkpt><trkpt lat="44.976393656481434" lon="9.105215982125547"><ele>123.0</ele><time>2026-03-29T16:34:13Z</time></trkpt><trkpt lat="44.97627261806858" lon="9.105253434083426"><ele>123.0</ele><time>2026-03-29T16:34:14Z</time></trkpt><trkpt lat="44.97617177044653" lon="9.10527452814968"><ele>123.0</ele><time>2026-03-29T16:34:15Z</time></trkpt><trkpt lat="44.976105874615556" lon="9.105248661054512"><ele>123.0</ele><time>2026-03-29T16:34:16Z</time></trkpt><trkpt lat="44.97608674778146" lon="9.105136712409664"><ele>123.0</ele><time>2026-03-29T16:34:19Z</time></trkpt><trkpt lat="44.97610453123618" lon="9.105026570617762"><ele>123.0</ele><time>2026-03-29T16:34:21Z</time></trkpt><trkpt lat="44.97613697027384" lon="9.10487292167712"><ele>123.0</ele><time>2026-03-29T16:34:23Z</time></trkpt><trkpt lat="44.97615764840466" lon="9.104746387134076"><ele>123.0</ele><time>2026-03-29T16:34:25Z</time></trkpt><trkpt lat="44.97616531370864" lon="9.104648208021684"><ele>123.60000000000001</ele><time>2026-03-29T16:34:28Z</time></trkpt><trkpt lat="44.97612858717633" lon="9.104500737001787"><ele>124.20000000000002</ele><time>2026-03-29T16:37:00Z</time></trkpt><trkpt lat="44.9760885602754" lon="9.104384334748252"><ele>124.8</ele><time>2026-03-29T16:37:01Z</time></trkpt><trkpt lat="44.976032716875466" lon="9.104317437640537"><ele>125.4</ele><time>2026-03-29T16:37:02Z</time></trkpt><trkpt lat="44.975938673480684" lon="9.104226132567463"><ele>126.0</ele><time>2026-03-29T16:37:04Z</time></trkpt><trkpt lat="44.97587886969793" lon="9.104176584542813"><ele>126.5</ele><time>2026-03-29T16:37:07Z</time></trkpt><trkpt lat="44.975801693200495" lon="9.104104493252201"><ele>127.0</ele><time>2026-03-29T16:37:12Z</time></trkpt><trkpt lat="44.975713481162344" lon="9.104029458778475"><ele>127.5</ele><time>2026-03-29T16:37:14Z</time></trkpt><trkpt lat="44.975655737557695" lon="9.103981989799927"><ele>128.0</ele><time>2026-03-29T16:37:15Z</time></trkpt><trkpt lat="44.97559787578678" lon="9.103935241658318"><ele>128.5</ele><time>2026-03-29T16:37:16Z</time></trkpt><trkpt lat="44.975542969311675" lon="9.103888918322617"><ele>129.0</ele><time>2026-03-29T16:37:17Z</time></trkpt><trkpt lat="44.975482705358644" lon="9.103839617529015"><ele>131.4</ele><time>2026-03-29T16:37:18Z</time></trkpt><trkpt lat="44.9754141822949" lon="9.103782575550527"><ele>133.8</ele><time>2026-03-29T16:37:19Z</time></trkpt><trkpt lat="44.97533961967251" lon="9.103726270672205"><ele>136.2</ele><time>2026-03-29T16:37:20Z</time></trkpt><trkpt lat="44.97523777209126" lon="9.103681433156389"><ele>138.6</ele><time>2026-03-29T16:37:21Z</time></trkpt><trkpt lat="44.97511574804057" lon="9.10363795628338"><ele>141.0</ele><time>2026-03-29T16:37:22Z</time></trkpt><trkpt lat="44.974981961403834" lon="9.103595393128165"><ele>141.0</ele><time>2026-03-29T16:37:23Z</time></trkpt><trkpt lat="44.974846771288675" lon="9.10354501217206"><ele>141.0</ele><time>2026-03-29T16:37:24Z</time></trkpt><trkpt lat="44.97476826562867" lon="9.10348122563937"><ele>141.0</ele><time>2026-03-29T16:37:25Z</time></trkpt><trkpt lat="44.97473832454409" lon="9.103368494273775"><ele>141.0</ele><time>2026-03-29T16:37:26Z</time></trkpt><trkpt lat="44.97478902073277" lon="9.10328517009181"><ele>141.0</ele><time>2026-03-29T16:37:27Z</time></trkpt><trkpt lat="44.974871017675284" lon="9.10330024828225"><ele>141.0</ele><time>2026-03-29T16:37:28Z</time></trkpt><trkpt lat="44.97496745113302" lon="9.103343875790976"><ele>141.0</ele><time>2026-03-29T16:37:29Z</time></trkpt><trkpt lat="44.97508622428297" lon="9.103383383676372"><ele>141.0</ele><time>2026-03-29T16:37:30Z</time></trkpt><trkpt lat="44.97522631131204" lon="9.103406194502405"><ele>141.0</ele><time>2026-03-29T16:37:31Z</time></trkpt><trkpt lat="44.97536240710678" lon="9.10343094418955"><ele>141.25</ele><time>2026-03-29T16:37:32Z</time></trkpt><trkpt lat="44.97551458398506" lon="9.103423752744083"><ele>141.5</ele><time>2026-03-29T16:37:33Z</time></trkpt><trkpt lat="44.97564236071658" lon="9.103408125959445"><ele>141.75</ele><time>2026-03-29T16:37:34Z</time></trkpt><trkpt lat="44.975752873161525" lon="9.103355777714805"><ele>142.0</ele><time>2026-03-29T16:37:35Z</time></trkpt><trkpt lat="44.97586605286372" lon="9.103253121160641"><ele>145.75</ele><time>2026-03-29T16:37:36Z</time></trkpt><trkpt lat="44.97596819935905" lon="9.103101267176529"><ele>149.5</ele><time>2026-03-29T16:37:37Z</time></trkpt><trkpt lat="44.976077007719205" lon="9.102954156318447"><ele>153.25</ele><time>2026-03-29T16:37:38Z</time></trkpt><trkpt lat="44.97619907105062" lon="9.102891269872924"><ele>157.0</ele><time>2026-03-29T16:37:38.999Z</time></trkpt><trkpt lat="44.976326120834834" lon="9.10287111406762"><ele>157.0</ele><time>2026-03-29T16:37:39.999Z</time></trkpt><trkpt lat="44.97645174041561" lon="9.102813457565713"><ele>157.0</ele><time>2026-03-29T16:37:40.999Z</time></trkpt><trkpt lat="44.97654411634281" lon="9.102751226813782"><ele>157.0</ele><time>2026-03-29T16:37:41.999Z</time></trkpt><trkpt lat="44.97660447886067" lon="9.102656494035566"><ele>157.0</ele><time>2026-03-29T16:37:42.999Z</time></trkpt><trkpt lat="44.97659789089637" lon="9.1025306591972"><ele>157.0</ele><time>2026-03-29T16:37:43.999Z</time></trkpt><trkpt lat="44.976510444874634" lon="9.102425498830502"><ele>157.0</ele><time>2026-03-29T16:37:44.999Z</time></trkpt><trkpt lat="44.97638860254613" lon="9.102390785059724"><ele>157.0</ele><time>2026-03-29T16:37:45.999Z</time></trkpt><trkpt lat="44.97625675005945" lon="9.102411002005368"><ele>157.0</ele><time>2026-03-29T16:37:46.999Z</time></trkpt><trkpt lat="44.97611746918721" lon="9.10246010581595"><ele>157.0</ele><time>2026-03-29T16:37:47.999Z</time></trkpt><trkpt lat="44.97598687649139" lon="9.102542163561832"><ele>157.5</ele><time>2026-03-29T16:37:48.999Z</time></trkpt><trkpt lat="44.975848061416315" lon="9.102620416601566"><ele>158.0</ele><time>2026-03-29T16:37:49.999Z</time></trkpt><trkpt lat="44.97571916488513" lon="9.102634309082537"><ele>158.5</ele><time>2026-03-29T16:37:50.999Z</time></trkpt><trkpt lat="44.97559825336724" lon="9.10264106094688"><ele>159.0</ele><time>2026-03-29T16:37:51.999Z</time></trkpt><trkpt lat="44.97548523770227" lon="9.102624421860053"><ele>159.0</ele><time>2026-03-29T16:37:52.999Z</time></trkpt><trkpt lat="44.975352599213835" lon="9.102620071088316"><ele>159.0</ele><time>2026-03-29T16:37:53.999Z</time></trkpt><trkpt lat="44.9752053223694" lon="9.102608668760586"><ele>159.0</ele><time>2026-03-29T16:37:54.999Z</time></trkpt><trkpt lat="44.97505709347029" lon="9.102546549916275"><ele>159.0</ele><time>2026-03-29T16:37:55.999Z</time></trkpt><trkpt lat="44.974894165146964" lon="9.102474708455373"><ele>165.0</ele><time>2026-03-29T16:37:56.999Z</time></trkpt><trkpt lat="44.97474003403182" lon="9.102390208105854"><ele>171.0</ele><time>2026-03-29T16:37:57.999Z</time></trkpt><trkpt lat="44.974594879033845" lon="9.102340739516722"><ele>177.0</ele><time>2026-03-29T16:37:58.999Z</time></trkpt><trkpt lat="44.974426056985614" lon="9.102341856953254"><ele>177.0</ele><time>2026-03-29T16:37:59.999Z</time></trkpt><trkpt lat="44.9743038289036" lon="9.102348512190959"><ele>177.0</ele><time>2026-03-29T16:38:00.999Z</time></trkpt><trkpt lat="44.97421231152988" lon="9.102326915601685"><ele>177.0</ele><time>2026-03-29T16:38:01.999Z</time></trkpt><trkpt lat="44.97417652673873" lon="9.102214630520713"><ele>177.0</ele><time>2026-03-29T16:38:02.999Z</time></trkpt><trkpt lat="44.97421646674746" lon="9.102136611863754"><ele>177.0</ele><time>2026-03-29T16:38:03.999Z</time></trkpt><trkpt lat="44.97428793536726" lon="9.102134556124977"><ele>177.0</ele><time>2026-03-29T16:38:04.999Z</time></trkpt><trkpt lat="44.97436886949643" lon="9.102139183431536"><ele>177.0</ele><time>2026-03-29T16:38:05.999Z</time></trkpt><trkpt lat="44.974465106494385" lon="9.1021243120842"><ele>177.0</ele><time>2026-03-29T16:38:06.999Z</time></trkpt><trkpt lat="44.97459115017122" lon="9.10215713034383"><ele>177.0</ele><time>2026-03-29T16:38:07.999Z</time></trkpt><trkpt lat="44.974735949955985" lon="9.102170205582109"><ele>177.0</ele><time>2026-03-29T16:38:08.999Z</time></trkpt><trkpt lat="44.974881915478555" lon="9.102184704645323"><ele>176.0</ele><time>2026-03-29T16:38:09.999Z</time></trkpt><trkpt lat="44.97503616415311" lon="9.102201609174127"><ele>175.0</ele><time>2026-03-29T16:38:10.999Z</time></trkpt><trkpt lat="44.975165651176205" lon="9.102189509617586"><ele>174.0</ele><time>2026-03-29T16:38:11.999Z</time></trkpt><trkpt lat="44.97525332792639" lon="9.10218612072681"><ele>173.0</ele><time>2026-03-29T16:38:12.999Z</time></trkpt><trkpt lat="44.9753324381483" lon="9.102123357475024"><ele>173.0</ele><time>2026-03-29T16:38:13.999Z</time></trkpt><trkpt lat="44.975394727882026" lon="9.102005199034332"><ele>173.0</ele><time>2026-03-29T16:38:14.999Z</time></trkpt><trkpt lat="44.975420541836606" lon="9.10187429122837"><ele>173.0</ele><time>2026-03-29T16:38:15.999Z</time></trkpt><trkpt lat="44.9754230892789" lon="9.101705047528727"><ele>173.0</ele><time>2026-03-29T16:38:16.999Z</time></trkpt><trkpt lat="44.97543435015481" lon="9.101535673916"><ele>173.0</ele><time>2026-03-29T16:38:17.999Z</time></trkpt><trkpt lat="44.975444989252075" lon="9.101401197663009"><ele>173.0</ele><time>2026-03-29T16:38:18.999Z</time></trkpt><trkpt lat="44.97544839819839" lon="9.101256654520725"><ele>173.0</ele><time>2026-03-29T16:38:20.999Z</time></trkpt><trkpt lat="44.97543767312501" lon="9.101376743899074"><ele>173.0</ele><time>2026-03-29T16:38:34.999Z</time></trkpt><trkpt lat="44.975442006236996" lon="9.10152564041841"><ele>173.0</ele><time>2026-03-29T16:38:36.999Z</time></trkpt><trkpt lat="44.975359587403766" lon="9.102023067094715"><ele>173.0</ele><time>2026-03-29T16:38:40Z</time></trkpt><trkpt lat="44.975302928175786" lon="9.102125481125071"><ele>173.0</ele><time>2026-03-29T16:38:41Z</time></trkpt><trkpt lat="44.97519822561221" lon="9.102174019199037"><ele>173.0</ele><time>2026-03-29T16:38:42Z</time></trkpt><trkpt lat="44.975074289715806" lon="9.102160624929617"><ele>173.0</ele><time>2026-03-29T16:38:43Z</time></trkpt><trkpt lat="44.974935954888295" lon="9.102135186008693"><ele>174.33333333333331</ele><time>2026-03-29T16:38:44Z</time></trkpt><trkpt lat="44.97477634642189" lon="9.102123849147674"><ele>175.66666666666666</ele><time>2026-03-29T16:38:45Z</time></trkpt><trkpt lat="44.97459821749035" lon="9.102111594089688"><ele>177.0</ele><time>2026-03-29T16:38:46Z</time></trkpt><trkpt lat="44.97445836284853" lon="9.102099593737018"><ele>177.0</ele><time>2026-03-29T16:38:47Z</time></trkpt><trkpt lat="44.974338059609195" lon="9.102089173548684"><ele>177.0</ele><time>2026-03-29T16:38:48Z</time></trkpt><trkpt lat="44.97424554964088" lon="9.102088701006991"><ele>177.0</ele><time>2026-03-29T16:38:49Z</time></trkpt><trkpt lat="44.97418005456562" lon="9.102121862955512"><ele>177.0</ele><time>2026-03-29T16:38:50Z</time></trkpt><trkpt lat="44.97414887380554" lon="9.10222125272366"><ele>177.0</ele><time>2026-03-29T16:38:51Z</time></trkpt><trkpt lat="44.97418179888974" lon="9.10232690514547"><ele>177.0</ele><time>2026-03-29T16:38:52Z</time></trkpt><trkpt lat="44.97427843622763" lon="9.102370029611896"><ele>177.0</ele><time>2026-03-29T16:38:53Z</time></trkpt><trkpt lat="44.97439853766911" lon="9.102342964661062"><ele>177.0</ele><time>2026-03-29T16:38:54Z</time></trkpt><trkpt lat="44.9745514838452" lon="9.102342749465668"><ele>177.0</ele><time>2026-03-29T16:38:55Z</time></trkpt><trkpt lat="44.974702646232736" lon="9.10236899268297"><ele>177.0</ele><time>2026-03-29T16:38:56Z</time></trkpt><trkpt lat="44.97486500757626" lon="9.10245422638306"><ele>173.5</ele><time>2026-03-29T16:38:57Z</time></trkpt><trkpt lat="44.974994184693315" lon="9.102532325361256"><ele>170.0</ele><time>2026-03-29T16:38:58Z</time></trkpt><trkpt lat="44.97510831073277" lon="9.10259752023493"><ele>166.5</ele><time>2026-03-29T16:38:59Z</time></trkpt><trkpt lat="44.975245259418095" lon="9.102627994379702"><ele>163.0</ele><time>2026-03-29T16:39:00Z</time></trkpt><trkpt lat="44.97540898672092" lon="9.102634251070539"><ele>162.0</ele><time>2026-03-29T16:39:01Z</time></trkpt><trkpt lat="44.97557153710567" lon="9.10265044353708"><ele>161.0</ele><time>2026-03-29T16:39:02Z</time></trkpt><trkpt lat="44.97569865684912" lon="9.102664200561396"><ele>160.0</ele><time>2026-03-29T16:39:03Z</time></trkpt><trkpt lat="44.97581155075636" lon="9.102664210174265"><ele>159.0</ele><time>2026-03-29T16:39:04Z</time></trkpt><trkpt lat="44.97593019104441" lon="9.10259525326786"><ele>158.5</ele><time>2026-03-29T16:39:05Z</time></trkpt><trkpt lat="44.9760650906748" lon="9.102502139123278"><ele>158.0</ele><time>2026-03-29T16:39:06Z</time></trkpt><trkpt lat="44.97619062087337" lon="9.10243161710211"><ele>157.5</ele><time>2026-03-29T16:39:07Z</time></trkpt><trkpt lat="44.97630475432725" lon="9.102402590509659"><ele>157.0</ele><time>2026-03-29T16:39:08Z</time></trkpt><trkpt lat="44.97641991204677" lon="9.102412371039536"><ele>157.0</ele><time>2026-03-29T16:39:09Z</time></trkpt><trkpt lat="44.97651736421266" lon="9.102445066102193"><ele>157.0</ele><time>2026-03-29T16:39:10Z</time></trkpt><trkpt lat="44.9765847088654" lon="9.102525073043632"><ele>157.0</ele><time>2026-03-29T16:39:11Z</time></trkpt><trkpt lat="44.97658747379517" lon="9.102620597807723"><ele>157.0</ele><time>2026-03-29T16:39:12Z</time></trkpt><trkpt lat="44.976542739517654" lon="9.102719416331842"><ele>157.0</ele><time>2026-03-29T16:39:13Z</time></trkpt><trkpt lat="44.976448677490644" lon="9.102800035896237"><ele>157.0</ele><time>2026-03-29T16:39:14Z</time></trkpt><trkpt lat="44.976319519047316" lon="9.10283628473399"><ele>157.0</ele><time>2026-03-29T16:39:15Z</time></trkpt><trkpt lat="44.97619425568798" lon="9.102862166308658"><ele>157.0</ele><time>2026-03-29T16:39:16Z</time></trkpt><trkpt lat="44.97609566404157" lon="9.102904583055345"><ele>157.0</ele><time>2026-03-29T16:39:17Z</time></trkpt><trkpt lat="44.97599386573186" lon="9.103021179541376"><ele>157.0</ele><time>2026-03-29T16:39:17.999Z</time></trkpt><trkpt lat="44.9758897954407" lon="9.103169864464027"><ele>153.25</ele><time>2026-03-29T16:39:18.999Z</time></trkpt><trkpt lat="44.975793053910934" lon="9.103294283029156"><ele>149.5</ele><time>2026-03-29T16:39:19.999Z</time></trkpt><trkpt lat="44.975687011051065" lon="9.103368125089665"><ele>145.75</ele><time>2026-03-29T16:39:20.999Z</time></trkpt><trkpt lat="44.97556271873465" lon="9.10340092493424"><ele>142.0</ele><time>2026-03-29T16:39:21.999Z</time></trkpt><trkpt lat="44.9754201343841" lon="9.103409122001693"><ele>142.0</ele><time>2026-03-29T16:39:22.999Z</time></trkpt><trkpt lat="44.97525276256799" lon="9.10339672024707"><ele>142.0</ele><time>2026-03-29T16:39:23.999Z</time></trkpt><trkpt lat="44.97507977599059" lon="9.10335201032858"><ele>142.0</ele><time>2026-03-29T16:39:24.999Z</time></trkpt><trkpt lat="44.974942644662804" lon="9.103301473450273"><ele>141.79999999999998</ele><time>2026-03-29T16:39:25.999Z</time></trkpt><trkpt lat="44.97484127973603" lon="9.103262834253368"><ele>141.6</ele><time>2026-03-29T16:39:26.999Z</time></trkpt><trkpt lat="44.974765770414564" lon="9.10327313758322"><ele>141.39999999999998</ele><time>2026-03-29T16:39:27.999Z</time></trkpt><trkpt lat="44.97471623968695" lon="9.103337065548171"><ele>141.2</ele><time>2026-03-29T16:39:28.999Z</time></trkpt><trkpt lat="44.97472065919369" lon="9.103492016669293"><ele>141.0</ele><time>2026-03-29T16:39:29.999Z</time></trkpt><trkpt lat="44.974833903338705" lon="9.103566178188835"><ele>141.0</ele><time>2026-03-29T16:39:30.999Z</time></trkpt><trkpt lat="44.97495460350092" lon="9.10361989537304"><ele>141.0</ele><time>2026-03-29T16:39:31.999Z</time></trkpt><trkpt lat="44.97508693689076" lon="9.103666326291165"><ele>141.0</ele><time>2026-03-29T16:39:32.999Z</time></trkpt><trkpt lat="44.975231743767544" lon="9.10372748144157"><ele>141.0</ele><time>2026-03-29T16:39:33.999Z</time></trkpt><trkpt lat="44.97538861095537" lon="9.10382479252846"><ele>141.33333333333334</ele><time>2026-03-29T16:39:34.999Z</time></trkpt><trkpt lat="44.975541929526116" lon="9.103948465790133"><ele>141.66666666666669</ele><time>2026-03-29T16:39:35.999Z</time></trkpt><trkpt lat="44.975712674482544" lon="9.104088307192765"><ele>142.0</ele><time>2026-03-29T16:39:36.999Z</time></trkpt><trkpt lat="44.97586477142617" lon="9.104213111874193"><ele>138.79999999999998</ele><time>2026-03-29T16:39:37.999Z</time></trkpt><trkpt lat="44.9759813263706" lon="9.104309592197982"><ele>135.6</ele><time>2026-03-29T16:39:38.999Z</time></trkpt><trkpt lat="44.97606827925406" lon="9.104388556913346"><ele>132.39999999999998</ele><time>2026-03-29T16:39:39.999Z</time></trkpt><trkpt lat="44.9761099899661" lon="9.104486104981984"><ele>129.2</ele><time>2026-03-29T16:39:40.999Z</time></trkpt><trkpt lat="44.97613436447239" lon="9.104618420722383"><ele>126.0</ele><time>2026-03-29T16:39:41.999Z</time></trkpt><trkpt lat="44.97611331599681" lon="9.104787351871208"><ele>125.5</ele><time>2026-03-29T16:39:42.999Z</time></trkpt><trkpt lat="44.976097720008525" lon="9.10492717245285"><ele>125.0</ele><time>2026-03-29T16:39:43.999Z</time></trkpt><trkpt lat="44.97608081913138" lon="9.105031929666476"><ele>124.5</ele><time>2026-03-29T16:39:44.999Z</time></trkpt><trkpt lat="44.976061603738195" lon="9.10515706069177"><ele>124.0</ele><time>2026-03-29T16:39:46.999Z</time></trkpt><trkpt lat="44.976036873899304" lon="9.105282178270823"><ele>123.5</ele><time>2026-03-29T16:39:55.999Z</time></trkpt><trkpt lat="44.976049084349576" lon="9.10518141815269"><ele>123.0</ele><time>2026-03-29T16:40:01.999Z</time></trkpt><trkpt lat="44.97607938174876" lon="9.10500184926209"><ele>123.60000000000001</ele><time>2026-03-29T16:40:04.999Z</time></trkpt><trkpt lat="44.97609994651769" lon="9.104868377956892"><ele>124.20000000000002</ele><time>2026-03-29T16:40:05.999Z</time></trkpt><trkpt lat="44.97611034676994" lon="9.104711402444547"><ele>124.8</ele><time>2026-03-29T16:40:06.999Z</time></trkpt><trkpt lat="44.976169941339016" lon="9.104563468988712"><ele>125.4</ele><time>2026-03-29T16:40:07.999Z</time></trkpt><trkpt lat="44.97617098672211" lon="9.104459113084992"><ele>126.0</ele><time>2026-03-29T16:40:08.999Z</time></trkpt><trkpt lat="44.97612935298928" lon="9.104356380097396"><ele>126.0</ele><time>2026-03-29T16:40:09.999Z</time></trkpt><trkpt lat="44.97606164926003" lon="9.104253702537134"><ele>126.0</ele><time>2026-03-29T16:40:10.999Z</time></trkpt><trkpt lat="44.975971643378855" lon="9.10418496870719"><ele>126.0</ele><time>2026-03-29T16:40:11.999Z</time></trkpt><trkpt lat="44.975902296225364" lon="9.104150209656414"><ele>126.0</ele><time>2026-03-29T16:40:12.999Z</time></trkpt><trkpt lat="44.97580466320377" lon="9.104101828559186"><ele>126.0</ele><time>2026-03-29T16:40:34Z</time></trkpt><trkpt lat="44.975706747550525" lon="9.104028882009835"><ele>130.0</ele><time>2026-03-29T16:40:35Z</time></trkpt><trkpt lat="44.97560726834389" lon="9.103951602398643"><ele>134.0</ele><time>2026-03-29T16:40:36Z</time></trkpt><trkpt lat="44.975493640211184" lon="9.103856552609427"><ele>138.0</ele><time>2026-03-29T16:40:37Z</time></trkpt><trkpt lat="44.97535831412313" lon="9.103754848443906"><ele>142.0</ele><time>2026-03-29T16:40:38Z</time></trkpt><trkpt lat="44.97520763521393" lon="9.103665222748258"><ele>142.0</ele><time>2026-03-29T16:40:39Z</time></trkpt><trkpt lat="44.97503473087165" lon="9.103608177578078"><ele>142.0</ele><time>2026-03-29T16:40:40Z</time></trkpt><trkpt lat="44.97489316700827" lon="9.103562194642295"><ele>142.0</ele><time>2026-03-29T16:40:41Z</time></trkpt><trkpt lat="44.97479332114417" lon="9.103517049073886"><ele>142.0</ele><time>2026-03-29T16:40:42Z</time></trkpt><trkpt lat="44.974715853005485" lon="9.103437269572439"><ele>142.0</ele><time>2026-03-29T16:40:43Z</time></trkpt><trkpt lat="44.97473569813414" lon="9.103327048614098"><ele>142.0</ele><time>2026-03-29T16:40:44Z</time></trkpt><trkpt lat="44.974811280020496" lon="9.103267140658403"><ele>142.0</ele><time>2026-03-29T16:40:45Z</time></trkpt><trkpt lat="44.974918084945635" lon="9.103327454922159"><ele>142.0</ele><time>2026-03-29T16:40:46Z</time></trkpt><trkpt lat="44.97504927173034" lon="9.10335979535269"><ele>142.0</ele><time>2026-03-29T16:40:47Z</time></trkpt><trkpt lat="44.97518293483028" lon="9.103412124539913"><ele>142.0</ele><time>2026-03-29T16:40:48Z</time></trkpt><trkpt lat="44.97533055192187" lon="9.10344271875364"><ele>142.0</ele><time>2026-03-29T16:40:49Z</time></trkpt><trkpt lat="44.97549351548758" lon="9.103447067056116"><ele>142.0</ele><time>2026-03-29T16:40:50Z</time></trkpt><trkpt lat="44.97564297090086" lon="9.103430236661477"><ele>142.0</ele><time>2026-03-29T16:40:51Z</time></trkpt><trkpt lat="44.975747992600276" lon="9.103390670060474"><ele>142.0</ele><time>2026-03-29T16:40:52Z</time></trkpt><trkpt lat="44.97585401539061" lon="9.103292763288394"><ele>142.0</ele><time>2026-03-29T16:40:53Z</time></trkpt><trkpt lat="44.975966729554386" lon="9.103134391038035"><ele>142.0</ele><time>2026-03-29T16:40:54Z</time></trkpt><trkpt lat="44.976074465087144" lon="9.102967140146488"><ele>145.75</ele><time>2026-03-29T16:40:55Z</time></trkpt><trkpt lat="44.976210312138114" lon="9.102884182337666"><ele>149.5</ele><time>2026-03-29T16:40:56Z</time></trkpt><trkpt lat="44.97637082684613" lon="9.102859450859942"><ele>153.25</ele><time>2026-03-29T16:40:57Z</time></trkpt><trkpt lat="44.976494236111975" lon="9.102793653859855"><ele>157.0</ele><time>2026-03-29T16:40:58Z</time></trkpt><trkpt lat="44.97659994910476" lon="9.102733404159036"><ele>157.0</ele><time>2026-03-29T16:40:59Z</time></trkpt><trkpt lat="44.97664218360871" lon="9.102612563771798"><ele>157.0</ele><time>2026-03-29T16:41:00Z</time></trkpt><trkpt lat="44.97660926222602" lon="9.102485443507883"><ele>157.0</ele><time>2026-03-29T16:41:01Z</time></trkpt><trkpt lat="44.97650960109435" lon="9.102387644084132"><ele>157.0</ele><time>2026-03-29T16:41:02Z</time></trkpt><trkpt lat="44.97636500428911" lon="9.102390882748063"><ele>157.0</ele><time>2026-03-29T16:41:03Z</time></trkpt><trkpt lat="44.97621540275766" lon="9.102398239823096"><ele>157.0</ele><time>2026-03-29T16:41:04Z</time></trkpt><trkpt lat="44.97606805697448" lon="9.10246796214122"><ele>157.0</ele><time>2026-03-29T16:41:05Z</time></trkpt><trkpt lat="44.97592336075987" lon="9.102577047481878"><ele>157.5</ele><time>2026-03-29T16:41:06Z</time></trkpt><trkpt lat="44.97578269450422" lon="9.102634125990125"><ele>158.0</ele><time>2026-03-29T16:41:07Z</time></trkpt><trkpt lat="44.97566092305203" lon="9.102631981439538"><ele>158.5</ele><time>2026-03-29T16:41:08Z</time></trkpt><trkpt lat="44.975511848959094" lon="9.10262306525555"><ele>159.0</ele><time>2026-03-29T16:41:09Z</time></trkpt><trkpt lat="44.97535018744973" lon="9.102610207695806"><ele>159.0</ele><time>2026-03-29T16:41:10Z</time></trkpt><trkpt lat="44.97517957908927" lon="9.102607054250763"><ele>159.0</ele><time>2026-03-29T16:41:11Z</time></trkpt><trkpt lat="44.97502235440187" lon="9.102529862689014"><ele>159.0</ele><time>2026-03-29T16:41:12Z</time></trkpt><trkpt lat="44.97485622357309" lon="9.102438925804957"><ele>162.6</ele><time>2026-03-29T16:41:13Z</time></trkpt><trkpt lat="44.974699081691476" lon="9.102380226221218"><ele>166.2</ele><time>2026-03-29T16:41:14Z</time></trkpt><trkpt lat="44.97463085720014" lon="9.10234681206788"><ele>169.79999999999998</ele><time>2026-03-29T16:41:15Z</time></trkpt><trkpt lat="44.97453566591537" lon="9.10232988194714"><ele>173.4</ele><time>2026-03-29T16:41:17Z</time></trkpt><trkpt lat="44.974423259962364" lon="9.102349836667738"><ele>177.0</ele><time>2026-03-29T16:41:19Z</time></trkpt><trkpt lat="44.97434535959076" lon="9.102337371182394"><ele>177.0</ele><time>2026-03-29T16:41:20Z</time></trkpt><trkpt lat="44.97425065222596" lon="9.1023372056349"><ele>177.0</ele><time>2026-03-29T16:41:21Z</time></trkpt><trkpt lat="44.97417191277115" lon="9.102274713141682"><ele>177.0</ele><time>2026-03-29T16:41:22Z</time></trkpt><trkpt lat="44.974167874243804" lon="9.102157054699935"><ele>177.0</ele><time>2026-03-29T16:41:23Z</time></trkpt><trkpt lat="44.97426059451614" lon="9.102090264746794"><ele>177.0</ele><time>2026-03-29T16:41:24Z</time></trkpt><trkpt lat="44.97437100185614" lon="9.10213660367693"><ele>177.0</ele><time>2026-03-29T16:41:25Z</time></trkpt><trkpt lat="44.97447882894645" lon="9.102147282064665"><ele>177.0</ele><time>2026-03-29T16:41:26Z</time></trkpt><trkpt lat="44.974602628750816" lon="9.10213469219459"><ele>177.0</ele><time>2026-03-29T16:41:27Z</time></trkpt><trkpt lat="44.9747459652943" lon="9.102156620640155"><ele>177.0</ele><time>2026-03-29T16:41:28Z</time></trkpt><trkpt lat="44.974894252500086" lon="9.102166977432937"><ele>176.0</ele><time>2026-03-29T16:41:29Z</time></trkpt><trkpt lat="44.97504607178525" lon="9.102189715699058"><ele>175.0</ele><time>2026-03-29T16:41:30Z</time></trkpt><trkpt lat="44.97517437561577" lon="9.102204219092952"><ele>174.0</ele><time>2026-03-29T16:41:31Z</time></trkpt><trkpt lat="44.97526678241116" lon="9.10221646511644"><ele>173.0</ele><time>2026-03-29T16:41:32Z</time></trkpt><trkpt lat="44.97535096264983" lon="9.102163916653655"><ele>173.0</ele><time>2026-03-29T16:41:33Z</time></trkpt><trkpt lat="44.975413549708286" lon="9.102052624478468"><ele>173.0</ele><time>2026-03-29T16:41:34Z</time></trkpt><trkpt lat="44.975444336826406" lon="9.101903927561239"><ele>173.0</ele><time>2026-03-29T16:41:35Z</time></trkpt><trkpt lat="44.97544466460637" lon="9.101734210900682"><ele>173.0</ele><time>2026-03-29T16:41:36Z</time></trkpt><trkpt lat="44.97544615422856" lon="9.101574787534217"><ele>173.0</ele><time>2026-03-29T16:41:37Z</time></trkpt><trkpt lat="44.97545280771051" lon="9.101437993000172"><ele>173.4</ele><time>2026-03-29T16:41:38Z</time></trkpt><trkpt lat="44.975452449100956" lon="9.101303748651464"><ele>173.8</ele><time>2026-03-29T16:41:39Z</time></trkpt><trkpt lat="44.97543196604497" lon="9.10117218805776"><ele>174.2</ele><time>2026-03-29T16:41:40Z</time></trkpt><trkpt lat="44.97538598172602" lon="9.101047201130465"><ele>174.6</ele><time>2026-03-29T16:41:41Z</time></trkpt><trkpt lat="44.97531931474998" lon="9.100927938030313"><ele>175.0</ele><time>2026-03-29T16:41:42Z</time></trkpt><trkpt lat="44.9752502423448" lon="9.100792582223002"><ele>174.75</ele><time>2026-03-29T16:41:43Z</time></trkpt><trkpt lat="44.97518181388873" lon="9.10064146074272"><ele>174.5</ele><time>2026-03-29T16:41:44Z</time></trkpt><trkpt lat="44.97512771673233" lon="9.10048590250735"><ele>174.25</ele><time>2026-03-29T16:41:45Z</time></trkpt><trkpt lat="44.97508839493406" lon="9.100315279631477"><ele>174.0</ele><time>2026-03-29T16:41:46Z</time></trkpt><trkpt lat="44.9750715497935" lon="9.100130280882652"><ele>174.0</ele><time>2026-03-29T16:41:47Z</time></trkpt><trkpt lat="44.97510537897549" lon="9.099932906263314"><ele>174.0</ele><time>2026-03-29T16:41:48Z</time></trkpt><trkpt lat="44.97512218938119" lon="9.099708064987343"><ele>174.0</ele><time>2026-03-29T16:41:49Z</time></trkpt><trkpt lat="44.97516120032349" lon="9.099488396932617"><ele>173.66666666666666</ele><time>2026-03-29T16:41:50Z</time></trkpt><trkpt lat="44.975198640897084" lon="9.099242245793686"><ele>173.33333333333331</ele><time>2026-03-29T16:41:51Z</time></trkpt><trkpt lat="44.97523474045531" lon="9.098974963926251"><ele>173.0</ele><time>2026-03-29T16:41:52Z</time></trkpt><trkpt lat="44.975269590225366" lon="9.098713125292113"><ele>173.0</ele><time>2026-03-29T16:41:53Z</time></trkpt><trkpt lat="44.97530602179923" lon="9.0984475413323"><ele>173.0</ele><time>2026-03-29T16:41:54Z</time></trkpt><trkpt lat="44.97534024368228" lon="9.09818255534635"><ele>173.0</ele><time>2026-03-29T16:41:55Z</time></trkpt><trkpt lat="44.97537406741939" lon="9.097920618081353"><ele>173.0</ele><time>2026-03-29T16:41:56Z</time></trkpt><trkpt lat="44.97540697099069" lon="9.09766275676264"><ele>173.0</ele><time>2026-03-29T16:41:57Z</time></trkpt><trkpt lat="44.97543872016279" lon="9.09741335927884"><ele>173.0</ele><time>2026-03-29T16:41:58Z</time></trkpt><trkpt lat="44.97546775915428" lon="9.097184211318101"><ele>173.0</ele><time>2026-03-29T16:41:59Z</time></trkpt><trkpt lat="44.97549885015923" lon="9.096957069435414"><ele>173.0</ele><time>2026-03-29T16:42:00Z</time></trkpt><trkpt lat="44.97553218785573" lon="9.096726290822321"><ele>173.0</ele><time>2026-03-29T16:42:01Z</time></trkpt><trkpt lat="44.975561983365765" lon="9.096505976228134"><ele>172.0</ele><time>2026-03-29T16:42:02Z</time></trkpt><trkpt lat="44.97558612513816" lon="9.09631112503801"><ele>171.0</ele><time>2026-03-29T16:42:03Z</time></trkpt><trkpt lat="44.97560210002292" lon="9.09611594693847"><ele>170.0</ele><time>2026-03-29T16:42:04Z</time></trkpt><trkpt lat="44.975598431767416" lon="9.095949558793436"><ele>169.0</ele><time>2026-03-29T16:42:05Z</time></trkpt><trkpt lat="44.97559123101926" lon="9.095808983035303"><ele>169.0</ele><time>2026-03-29T16:42:06Z</time></trkpt><trkpt lat="44.975584215591844" lon="9.095667711148923"><ele>169.0</ele><time>2026-03-29T16:42:07Z</time></trkpt><trkpt lat="44.97554676214556" lon="9.09555754426955"><ele>169.0</ele><time>2026-03-29T16:42:08Z</time></trkpt><trkpt lat="44.975473792544626" lon="9.095514129877964"><ele>169.0</ele><time>2026-03-29T16:42:09Z</time></trkpt><trkpt lat="44.975409532614876" lon="9.095574367792315"><ele>169.0</ele><time>2026-03-29T16:42:10Z</time></trkpt><trkpt lat="44.9753641577694" lon="9.095693053465604"><ele>169.0</ele><time>2026-03-29T16:42:11Z</time></trkpt><trkpt lat="44.97531564688753" lon="9.095823304065558"><ele>169.0</ele><time>2026-03-29T16:42:12Z</time></trkpt><trkpt lat="44.975215778458264" lon="9.09595831355108"><ele>169.0</ele><time>2026-03-29T16:42:13Z</time></trkpt><trkpt lat="44.97511963842143" lon="9.096114755778693"><ele>169.0</ele><time>2026-03-29T16:42:14Z</time></trkpt><trkpt lat="44.975038828257865" lon="9.096276639120465"><ele>169.0</ele><time>2026-03-29T16:42:15Z</time></trkpt><trkpt lat="44.97497559322391" lon="9.096392652043871"><ele>167.5</ele><time>2026-03-29T16:42:16Z</time></trkpt><trkpt lat="44.974911662234625" lon="9.096454139421487"><ele>166.0</ele><time>2026-03-29T16:42:17Z</time></trkpt><trkpt lat="44.9748589244373" lon="9.096402381574544"><ele>164.5</ele><time>2026-03-29T16:42:19Z</time></trkpt><trkpt lat="44.97486226469661" lon="9.096302915275768"><ele>163.0</ele><time>2026-03-29T16:42:20Z</time></trkpt><trkpt lat="44.97487995380924" lon="9.09618369917729"><ele>161.5</ele><time>2026-03-29T16:42:21Z</time></trkpt><trkpt lat="44.97490353109351" lon="9.096036048960103"><ele>160.0</ele><time>2026-03-29T16:42:21.999Z</time></trkpt><trkpt lat="44.974919051392874" lon="9.09584518663628"><ele>159.0</ele><time>2026-03-29T16:42:22.999Z</time></trkpt><trkpt lat="44.974938513137346" lon="9.09563041088625"><ele>158.0</ele><time>2026-03-29T16:42:23.999Z</time></trkpt><trkpt lat="44.974961066241015" lon="9.095417094577423"><ele>157.0</ele><time>2026-03-29T16:42:24.999Z</time></trkpt><trkpt lat="44.97495921919221" lon="9.095219543908975"><ele>156.0</ele><time>2026-03-29T16:42:25.999Z</time></trkpt><trkpt lat="44.97491504780726" lon="9.094993675446265"><ele>154.33333333333334</ele><time>2026-03-29T16:42:26.999Z</time></trkpt><trkpt lat="44.97484906369115" lon="9.094741515208687"><ele>152.66666666666669</ele><time>2026-03-29T16:42:27.999Z</time></trkpt><trkpt lat="44.97479640220013" lon="9.094473849358911"><ele>151.0</ele><time>2026-03-29T16:42:28.999Z</time></trkpt><trkpt lat="44.97475148688135" lon="9.094238987435512"><ele>149.5</ele><time>2026-03-29T16:42:29.999Z</time></trkpt><trkpt lat="44.9747230875073" lon="9.094042170399623"><ele>148.0</ele><time>2026-03-29T16:42:30.999Z</time></trkpt><trkpt lat="44.974739951547036" lon="9.093852520939837"><ele>146.5</ele><time>2026-03-29T16:42:31.999Z</time></trkpt><trkpt lat="44.97477844125485" lon="9.093656417089358"><ele>145.0</ele><time>2026-03-29T16:42:32.999Z</time></trkpt><trkpt lat="44.97485536923238" lon="9.093442949301537"><ele>143.33333333333334</ele><time>2026-03-29T16:42:34Z</time></trkpt><trkpt lat="44.9749296863064" lon="9.093199274189644"><ele>141.66666666666666</ele><time>2026-03-29T16:42:35Z</time></trkpt><trkpt lat="44.975014653157984" lon="9.092978982817828"><ele>140.0</ele><time>2026-03-29T16:42:36Z</time></trkpt><trkpt lat="44.975082742599994" lon="9.09279050284622"><ele>140.0</ele><time>2026-03-29T16:42:37Z</time></trkpt><trkpt lat="44.97517036194673" lon="9.092677995546905"><ele>140.0</ele><time>2026-03-29T16:42:38Z</time></trkpt><trkpt lat="44.97526903622931" lon="9.092607523351644"><ele>140.0</ele><time>2026-03-29T16:42:39Z</time></trkpt><trkpt lat="44.97536713036741" lon="9.092501924083951"><ele>140.0</ele><time>2026-03-29T16:42:40Z</time></trkpt><trkpt lat="44.975433245432626" lon="9.092384903003373"><ele>139.66666666666666</ele><time>2026-03-29T16:42:41Z</time></trkpt><trkpt lat="44.975455502510464" lon="9.092257341837913"><ele>139.33333333333331</ele><time>2026-03-29T16:42:42Z</time></trkpt><trkpt lat="44.975462748593834" lon="9.0921675957379"><ele>139.0</ele><time>2026-03-29T16:42:43Z</time></trkpt><trkpt lat="44.97546233437904" lon="9.092047114988944"><ele>138.66666666666666</ele><time>2026-03-29T16:42:46Z</time></trkpt><trkpt lat="44.97547319010661" lon="9.091942935556217"><ele>138.33333333333334</ele><time>2026-03-29T16:42:47Z</time></trkpt><trkpt lat="44.975482010695806" lon="9.0918258995234"><ele>138.0</ele><time>2026-03-29T16:42:48Z</time></trkpt><trkpt lat="44.97548663482998" lon="9.091682699681208"><ele>139.75</ele><time>2026-03-29T16:42:49Z</time></trkpt><trkpt lat="44.97550121875746" lon="9.091516459728537"><ele>141.5</ele><time>2026-03-29T16:42:50Z</time></trkpt><trkpt lat="44.975520025533115" lon="9.091326484879918"><ele>143.25</ele><time>2026-03-29T16:42:51Z</time></trkpt><trkpt lat="44.975546250038015" lon="9.091141360054214"><ele>145.0</ele><time>2026-03-29T16:42:52Z</time></trkpt><trkpt lat="44.975598676415196" lon="9.090954519640963"><ele>145.0</ele><time>2026-03-29T16:42:53Z</time></trkpt><trkpt lat="44.975695523265124" lon="9.090781430305107"><ele>145.0</ele><time>2026-03-29T16:42:54Z</time></trkpt><trkpt lat="44.975804342207574" lon="9.09060896361668"><ele>145.0</ele><time>2026-03-29T16:42:55Z</time></trkpt><trkpt lat="44.97591886791022" lon="9.090461759338496"><ele>146.5</ele><time>2026-03-29T16:42:56Z</time></trkpt><trkpt lat="44.975989258824924" lon="9.090371103800369"><ele>148.0</ele><time>2026-03-29T16:42:57Z</time></trkpt><trkpt lat="44.976043693824366" lon="9.09029721222601"><ele>149.5</ele><time>2026-03-29T16:42:58Z</time></trkpt><trkpt lat="44.97609053725264" lon="9.09019361652439"><ele>151.0</ele><time>2026-03-29T16:42:59Z</time></trkpt><trkpt lat="44.97611463524645" lon="9.090065330034243"><ele>152.5</ele><time>2026-03-29T16:43:00Z</time></trkpt><trkpt lat="44.97612089218467" lon="9.089931327032566"><ele>154.0</ele><time>2026-03-29T16:43:01Z</time></trkpt><trkpt lat="44.97610461120203" lon="9.089788891769825"><ele>155.0</ele><time>2026-03-29T16:43:02Z</time></trkpt><trkpt lat="44.9760690890135" lon="9.089645613519782"><ele>156.0</ele><time>2026-03-29T16:43:03Z</time></trkpt><trkpt lat="44.97602972057658" lon="9.089491984030929"><ele>157.0</ele><time>2026-03-29T16:43:04Z</time></trkpt><trkpt lat="44.97599424213997" lon="9.089335012137774"><ele>158.0</ele><time>2026-03-29T16:43:05Z</time></trkpt><trkpt lat="44.97596248605658" lon="9.089182230553975"><ele>158.0</ele><time>2026-03-29T16:43:06Z</time></trkpt><trkpt lat="44.975934321712266" lon="9.08903685390123"><ele>158.0</ele><time>2026-03-29T16:43:07Z</time></trkpt><trkpt lat="44.97591044896621" lon="9.088890515082452"><ele>158.0</ele><time>2026-03-29T16:43:08Z</time></trkpt><trkpt lat="44.97589210581863" lon="9.088748401426509"><ele>158.0</ele><time>2026-03-29T16:43:09Z</time></trkpt><trkpt lat="44.975876844847335" lon="9.088615244990297"><ele>158.0</ele><time>2026-03-29T16:43:10Z</time></trkpt><trkpt lat="44.97586739432984" lon="9.088486418649063"><ele>158.0</ele><time>2026-03-29T16:43:11Z</time></trkpt><trkpt lat="44.97586007634326" lon="9.088356196712482"><ele>158.0</ele><time>2026-03-29T16:43:12Z</time></trkpt><trkpt lat="44.97585382603098" lon="9.088224915419863"><ele>158.0</ele><time>2026-03-29T16:43:13Z</time></trkpt><trkpt lat="44.97584587116757" lon="9.088115542827449"><ele>158.0</ele><time>2026-03-29T16:43:14Z</time></trkpt><trkpt lat="44.97583998004036" lon="9.087987793495065"><ele>158.0</ele><time>2026-03-29T16:43:16Z</time></trkpt><trkpt lat="44.97588855295297" lon="9.087893264669242"><ele>158.0</ele><time>2026-03-29T16:43:23Z</time></trkpt><trkpt lat="44.97593156043907" lon="9.087824429719436"><ele>158.0</ele><time>2026-03-29T16:43:25Z</time></trkpt><trkpt lat="44.97591428895815" lon="9.08772035751341"><ele>158.0</ele><time>2026-03-29T16:43:27Z</time></trkpt><trkpt lat="44.97585539798054" lon="9.087654322332783"><ele>158.0</ele><time>2026-03-29T16:43:35Z</time></trkpt><trkpt lat="44.97582632217854" lon="9.08752785509521"><ele>158.0</ele><time>2026-03-29T16:43:38Z</time></trkpt><trkpt lat="44.97584366856582" lon="9.087380185381464"><ele>158.0</ele><time>2026-03-29T16:43:40Z</time></trkpt><trkpt lat="44.97586543877669" lon="9.087286760310565"><ele>158.0</ele><time>2026-03-29T16:43:41Z</time></trkpt><trkpt lat="44.97588499337522" lon="9.087180589803705"><ele>156.8</ele><time>2026-03-29T16:43:42Z</time></trkpt><trkpt lat="44.9759129848943" lon="9.087064447481794"><ele>155.60000000000002</ele><time>2026-03-29T16:43:43Z</time></trkpt><trkpt lat="44.975939693509915" lon="9.086949455921484"><ele>154.39999999999998</ele><time>2026-03-29T16:43:44Z</time></trkpt><trkpt lat="44.97596580671619" lon="9.086828440842224"><ele>153.2</ele><time>2026-03-29T16:43:45Z</time></trkpt><trkpt lat="44.97599485141742" lon="9.086698262812597"><ele>152.0</ele><time>2026-03-29T16:43:46Z</time></trkpt><trkpt lat="44.97602212099009" lon="9.086572525221147"><ele>151.79999999999998</ele><time>2026-03-29T16:43:47Z</time></trkpt><trkpt lat="44.97604114372316" lon="9.086446737225591"><ele>151.6</ele><time>2026-03-29T16:43:48Z</time></trkpt><trkpt lat="44.9760604710837" lon="9.086318965760562"><ele>151.39999999999998</ele><time>2026-03-29T16:43:49Z</time></trkpt><trkpt lat="44.97608590980359" lon="9.086192109165607"><ele>151.2</ele><time>2026-03-29T16:43:50Z</time></trkpt><trkpt lat="44.97611858107671" lon="9.086059983615812"><ele>151.0</ele><time>2026-03-29T16:43:51Z</time></trkpt><trkpt lat="44.97614879058836" lon="9.085921059723514"><ele>151.0</ele><time>2026-03-29T16:43:52Z</time></trkpt><trkpt lat="44.97618063719821" lon="9.08578291744744"><ele>151.0</ele><time>2026-03-29T16:43:53Z</time></trkpt><trkpt lat="44.976210478858825" lon="9.085640127235592"><ele>151.0</ele><time>2026-03-29T16:43:54Z</time></trkpt><trkpt lat="44.97624664497452" lon="9.085490323882786"><ele>151.0</ele><time>2026-03-29T16:43:55Z</time></trkpt><trkpt lat="44.97628253287597" lon="9.085340467844938"><ele>151.0</ele><time>2026-03-29T16:43:56Z</time></trkpt><trkpt lat="44.976313926827494" lon="9.085191110881867"><ele>150.25</ele><time>2026-03-29T16:43:57Z</time></trkpt><trkpt lat="44.97634621863575" lon="9.085039103510706"><ele>149.5</ele><time>2026-03-29T16:43:58Z</time></trkpt><trkpt lat="44.976388901164604" lon="9.084881363721253"><ele>148.75</ele><time>2026-03-29T16:43:59Z</time></trkpt><trkpt lat="44.97643944659272" lon="9.08472123373919"><ele>148.0</ele><time>2026-03-29T16:44:00Z</time></trkpt><trkpt lat="44.97649358149651" lon="9.084560792531668"><ele>147.25</ele><time>2026-03-29T16:44:01Z</time></trkpt><trkpt lat="44.976550155788466" lon="9.084397934692497"><ele>146.5</ele><time>2026-03-29T16:44:02Z</time></trkpt><trkpt lat="44.97661060832291" lon="9.084237668787553"><ele>145.75</ele><time>2026-03-29T16:44:03Z</time></trkpt><trkpt lat="44.97667512592303" lon="9.08407362421034"><ele>145.0</ele><time>2026-03-29T16:44:04Z</time></trkpt><trkpt lat="44.97673963235998" lon="9.083908852313279"><ele>143.5</ele><time>2026-03-29T16:44:05Z</time></trkpt><trkpt lat="44.976801573210565" lon="9.083742998523421"><ele>142.0</ele><time>2026-03-29T16:44:06Z</time></trkpt><trkpt lat="44.97686116916067" lon="9.083580210240202"><ele>140.5</ele><time>2026-03-29T16:44:07Z</time></trkpt><trkpt lat="44.97692410978674" lon="9.083415801721138"><ele>139.0</ele><time>2026-03-29T16:44:08Z</time></trkpt><trkpt lat="44.97698559704621" lon="9.083252940774834"><ele>138.5</ele><time>2026-03-29T16:44:09Z</time></trkpt><trkpt lat="44.97704701824585" lon="9.083091310319151"><ele>138.0</ele><time>2026-03-29T16:44:10Z</time></trkpt><trkpt lat="44.97710354608566" lon="9.082927056867039"><ele>137.5</ele><time>2026-03-29T16:44:11Z</time></trkpt><trkpt lat="44.97716335400767" lon="9.082764681274043"><ele>137.0</ele><time>2026-03-29T16:44:12Z</time></trkpt><trkpt lat="44.97722251110023" lon="9.082613178820345"><ele>137.0</ele><time>2026-03-29T16:44:13Z</time></trkpt><trkpt lat="44.97727899176771" lon="9.08245611226678"><ele>137.0</ele><time>2026-03-29T16:44:14Z</time></trkpt><trkpt lat="44.97733424123363" lon="9.082304061843617"><ele>137.0</ele><time>2026-03-29T16:44:15Z</time></trkpt><trkpt lat="44.97739128633471" lon="9.082155857835653"><ele>137.0</ele><time>2026-03-29T16:44:16Z</time></trkpt><trkpt lat="44.977452924312985" lon="9.082010678769613"><ele>137.25</ele><time>2026-03-29T16:44:17Z</time></trkpt><trkpt lat="44.977513118888595" lon="9.0818640726933"><ele>137.5</ele><time>2026-03-29T16:44:18Z</time></trkpt><trkpt lat="44.97756609476042" lon="9.081713994054315"><ele>137.75</ele><time>2026-03-29T16:44:19Z</time></trkpt><trkpt lat="44.97761555224331" lon="9.08155972334334"><ele>138.0</ele><time>2026-03-29T16:44:20Z</time></trkpt><trkpt lat="44.977661717416076" lon="9.081403964432345"><ele>137.0</ele><time>2026-03-29T16:44:21Z</time></trkpt><trkpt lat="44.97770169340419" lon="9.081246080689121"><ele>136.0</ele><time>2026-03-29T16:44:22Z</time></trkpt><trkpt lat="44.977740350987006" lon="9.081089564308215"><ele>135.0</ele><time>2026-03-29T16:44:23Z</time></trkpt><trkpt lat="44.9777754869598" lon="9.080931757037725"><ele>134.0</ele><time>2026-03-29T16:44:24Z</time></trkpt><trkpt lat="44.977807654819586" lon="9.080772952867868"><ele>133.75</ele><time>2026-03-29T16:44:25Z</time></trkpt><trkpt lat="44.97783564048445" lon="9.08061363915885"><ele>133.5</ele><time>2026-03-29T16:44:26Z</time></trkpt><trkpt lat="44.97785713884288" lon="9.080452066961517"><ele>133.25</ele><time>2026-03-29T16:44:27Z</time></trkpt><trkpt lat="44.97787428357273" lon="9.08028814466059"><ele>133.0</ele><time>2026-03-29T16:44:28Z</time></trkpt><trkpt lat="44.97788040181694" lon="9.080122343091775"><ele>133.0</ele><time>2026-03-29T16:44:29Z</time></trkpt><trkpt lat="44.97788791336954" lon="9.079954580418155"><ele>133.0</ele><time>2026-03-29T16:44:30Z</time></trkpt><trkpt lat="44.97789417877647" lon="9.07978716141339"><ele>133.0</ele><time>2026-03-29T16:44:31Z</time></trkpt><trkpt lat="44.97790159995841" lon="9.079617551222459"><ele>133.0</ele><time>2026-03-29T16:44:32Z</time></trkpt><trkpt lat="44.97791006027764" lon="9.079447570178178"><ele>133.0</ele><time>2026-03-29T16:44:33Z</time></trkpt><trkpt lat="44.97791920333558" lon="9.07927621688648"><ele>133.0</ele><time>2026-03-29T16:44:34Z</time></trkpt><trkpt lat="44.97792548784647" lon="9.079110901129697"><ele>133.0</ele><time>2026-03-29T16:44:35Z</time></trkpt><trkpt lat="44.97792929722641" lon="9.078955983079355"><ele>133.0</ele><time>2026-03-29T16:44:36Z</time></trkpt><trkpt lat="44.977952700182584" lon="9.078805456391681"><ele>132.25</ele><time>2026-03-29T16:44:37Z</time></trkpt><trkpt lat="44.977996281191494" lon="9.078662517363579"><ele>131.5</ele><time>2026-03-29T16:44:38Z</time></trkpt><trkpt lat="44.97806035331544" lon="9.078534834298145"><ele>130.75</ele><time>2026-03-29T16:44:39Z</time></trkpt><trkpt lat="44.9781436316999" lon="9.078424982235543"><ele>130.0</ele><time>2026-03-29T16:44:40Z</time></trkpt><trkpt lat="44.978231701791785" lon="9.078319518940402"><ele>129.25</ele><time>2026-03-29T16:44:41Z</time></trkpt><trkpt lat="44.97831070362772" lon="9.078212103712776"><ele>128.5</ele><time>2026-03-29T16:44:42Z</time></trkpt><trkpt lat="44.97839119487296" lon="9.078086051233194"><ele>127.75</ele><time>2026-03-29T16:44:43Z</time></trkpt><trkpt lat="44.97846666643181" lon="9.07795339237651"><ele>127.0</ele><time>2026-03-29T16:44:44Z</time></trkpt><trkpt lat="44.978537641616306" lon="9.077825682730909"><ele>126.39999999999999</ele><time>2026-03-29T16:44:45Z</time></trkpt><trkpt lat="44.97860473310211" lon="9.077712220981255"><ele>125.79999999999998</ele><time>2026-03-29T16:44:46Z</time></trkpt><trkpt lat="44.978667638680335" lon="9.07760642343538"><ele>125.2</ele><time>2026-03-29T16:44:47Z</time></trkpt><trkpt lat="44.97871779431237" lon="9.077512437292857"><ele>124.6</ele><time>2026-03-29T16:44:48Z</time></trkpt><trkpt lat="44.97875150819416" lon="9.077436005095311"><ele>124.0</ele><time>2026-03-29T16:44:49Z</time></trkpt><trkpt lat="44.978804351248016" lon="9.077306422773056"><ele>123.83333333333334</ele><time>2026-03-29T16:44:51Z</time></trkpt><trkpt lat="44.97881074794381" lon="9.077172482808376"><ele>123.66666666666667</ele><time>2026-03-29T16:44:53Z</time></trkpt><trkpt lat="44.978715310345464" lon="9.07715352271795"><ele>123.5</ele><time>2026-03-29T16:44:54Z</time></trkpt><trkpt lat="44.978669621928695" lon="9.077081465797816"><ele>123.33333333333334</ele><time>2026-03-29T16:44:55Z</time></trkpt><trkpt lat="44.978629430989315" lon="9.07700322240427"><ele>123.16666666666667</ele><time>2026-03-29T16:44:56Z</time></trkpt><trkpt lat="44.97858202213449" lon="9.076893103548684"><ele>123.0</ele><time>2026-03-29T16:44:57Z</time></trkpt><trkpt lat="44.97852473847635" lon="9.076780917385683"><ele>123.0</ele><time>2026-03-29T16:44:58Z</time></trkpt><trkpt lat="44.97846954429139" lon="9.076672568528018"><ele>123.00000000000001</ele><time>2026-03-29T16:44:59Z</time></trkpt><trkpt lat="44.9784191359005" lon="9.07657613628597"><ele>123.00000000000001</ele><time>2026-03-29T16:45:00Z</time></trkpt><trkpt lat="44.97838513127352" lon="9.076498461886578"><ele>123.0</ele><time>2026-03-29T16:45:01Z</time></trkpt><trkpt lat="44.9783311893596" lon="9.076406274428948"><ele>123.0</ele><time>2026-03-29T16:45:03Z</time></trkpt><trkpt lat="44.978167942100605" lon="9.076527923044308"><ele>120.0</ele><time>2026-03-29T16:45:07Z</time></trkpt><trkpt lat="44.97802581155535" lon="9.076508637134703"><ele>120.0</ele><time>2026-03-29T16:45:09Z</time></trkpt><trkpt lat="44.97810548981433" lon="9.076397403492257"><ele>120.0</ele><time>2026-03-29T16:45:11Z</time></trkpt></trkseg></trk></gpx>